<?xml version="1.0" encoding="UTF-8" standalone="no" ?>
<gpx xmlns="http://www.topografix.com/GPX/1/1" xmlns:xsi="http://www.w3.org/2001/XMLSchema-instance" xsi:schemaLocation="http://www.topografix.com/GPX/1/1 http://www.topografix.com/GPX/1/1/gpx.xsd" version="1.1" creator="VisuGPX - https://www.visugpx.com">
  <metadata>
    <name>Champagnat Cyclisme sur route</name>
  </metadata>
  <trk>
    <name><![CDATA[Champagnat Cyclisme sur route_1]]></name>
    <trkseg>
      <trkpt lat="46.48265" lon="5.36832">
        <ele>271.4</ele>
        <time>2022-07-30T05:39:20Z</time>
      </trkpt>
      <trkpt lat="46.48258" lon="5.36823">
        <ele>270.2</ele>
        <time>2022-07-30T05:39:21Z</time>
      </trkpt>
      <trkpt lat="46.48245" lon="5.36811">
        <ele>269.6</ele>
        <time>2022-07-30T05:39:22Z</time>
      </trkpt>
      <trkpt lat="46.48234" lon="5.36801">
        <ele>268.4</ele>
        <time>2022-07-30T05:39:23Z</time>
      </trkpt>
      <trkpt lat="46.48212" lon="5.36783">
        <ele>266.2</ele>
        <time>2022-07-30T05:39:25Z</time>
      </trkpt>
      <trkpt lat="46.48193" lon="5.36766">
        <ele>264.6</ele>
        <time>2022-07-30T05:39:27Z</time>
      </trkpt>
      <trkpt lat="46.48169" lon="5.36747">
        <ele>263.2</ele>
        <time>2022-07-30T05:39:29Z</time>
      </trkpt>
      <trkpt lat="46.48147" lon="5.3673">
        <ele>262</ele>
        <time>2022-07-30T05:39:31Z</time>
      </trkpt>
      <trkpt lat="46.48139" lon="5.36724">
        <ele>260.8</ele>
        <time>2022-07-30T05:39:32Z</time>
      </trkpt>
      <trkpt lat="46.48127" lon="5.36715">
        <ele>260</ele>
        <time>2022-07-30T05:39:33Z</time>
      </trkpt>
      <trkpt lat="46.48119" lon="5.3671">
        <ele>259.4</ele>
        <time>2022-07-30T05:39:34Z</time>
      </trkpt>
      <trkpt lat="46.48112" lon="5.36704">
        <ele>258.8</ele>
        <time>2022-07-30T05:39:35Z</time>
      </trkpt>
      <trkpt lat="46.48103" lon="5.36694">
        <ele>258</ele>
        <time>2022-07-30T05:39:37Z</time>
      </trkpt>
      <trkpt lat="46.48099" lon="5.3669">
        <ele>257.8</ele>
        <time>2022-07-30T05:39:38Z</time>
      </trkpt>
      <trkpt lat="46.48092" lon="5.36687">
        <ele>257</ele>
        <time>2022-07-30T05:39:40Z</time>
      </trkpt>
      <trkpt lat="46.48091" lon="5.36688">
        <ele>257</ele>
        <time>2022-07-30T05:39:41Z</time>
      </trkpt>
      <trkpt lat="46.48095" lon="5.36692">
        <ele>255</ele>
        <time>2022-07-30T05:39:47Z</time>
      </trkpt>
      <trkpt lat="46.48112" lon="5.36673">
        <ele>254.8</ele>
        <time>2022-07-30T05:39:48Z</time>
      </trkpt>
      <trkpt lat="46.48145" lon="5.3664">
        <ele>254.4</ele>
        <time>2022-07-30T05:39:50Z</time>
      </trkpt>
      <trkpt lat="46.48156" lon="5.36632">
        <ele>254.4</ele>
        <time>2022-07-30T05:39:51Z</time>
      </trkpt>
      <trkpt lat="46.48168" lon="5.36623">
        <ele>254.2</ele>
        <time>2022-07-30T05:39:52Z</time>
      </trkpt>
      <trkpt lat="46.48177" lon="5.36615">
        <ele>254.2</ele>
        <time>2022-07-30T05:39:53Z</time>
      </trkpt>
      <trkpt lat="46.48186" lon="5.36603">
        <ele>254.2</ele>
        <time>2022-07-30T05:39:54Z</time>
      </trkpt>
      <trkpt lat="46.48199" lon="5.3658">
        <ele>253.8</ele>
        <time>2022-07-30T05:39:56Z</time>
      </trkpt>
      <trkpt lat="46.48206" lon="5.36568">
        <ele>253.6</ele>
        <time>2022-07-30T05:39:57Z</time>
      </trkpt>
      <trkpt lat="46.48212" lon="5.3656">
        <ele>253.2</ele>
        <time>2022-07-30T05:39:58Z</time>
      </trkpt>
      <trkpt lat="46.4822" lon="5.36553">
        <ele>253.2</ele>
        <time>2022-07-30T05:39:59Z</time>
      </trkpt>
      <trkpt lat="46.48229" lon="5.36544">
        <ele>253</ele>
        <time>2022-07-30T05:40:00Z</time>
      </trkpt>
      <trkpt lat="46.48267" lon="5.36505">
        <ele>252.2</ele>
        <time>2022-07-30T05:40:05Z</time>
      </trkpt>
      <trkpt lat="46.48289" lon="5.36482">
        <ele>252</ele>
        <time>2022-07-30T05:40:08Z</time>
      </trkpt>
      <trkpt lat="46.48319" lon="5.36451">
        <ele>251</ele>
        <time>2022-07-30T05:40:12Z</time>
      </trkpt>
      <trkpt lat="46.48348" lon="5.3642">
        <ele>249.8</ele>
        <time>2022-07-30T05:40:16Z</time>
      </trkpt>
      <trkpt lat="46.48362" lon="5.36405">
        <ele>248.8</ele>
        <time>2022-07-30T05:40:18Z</time>
      </trkpt>
      <trkpt lat="46.48369" lon="5.36397">
        <ele>248.4</ele>
        <time>2022-07-30T05:40:19Z</time>
      </trkpt>
      <trkpt lat="46.48412" lon="5.36359">
        <ele>247.4</ele>
        <time>2022-07-30T05:40:25Z</time>
      </trkpt>
      <trkpt lat="46.48443" lon="5.36348">
        <ele>247</ele>
        <time>2022-07-30T05:40:29Z</time>
      </trkpt>
      <trkpt lat="46.48503" lon="5.36339">
        <ele>246.6</ele>
        <time>2022-07-30T05:40:37Z</time>
      </trkpt>
      <trkpt lat="46.48532" lon="5.36334">
        <ele>246.4</ele>
        <time>2022-07-30T05:40:41Z</time>
      </trkpt>
      <trkpt lat="46.48539" lon="5.36333">
        <ele>246.6</ele>
        <time>2022-07-30T05:40:42Z</time>
      </trkpt>
      <trkpt lat="46.48561" lon="5.36329">
        <ele>246.4</ele>
        <time>2022-07-30T05:40:45Z</time>
      </trkpt>
      <trkpt lat="46.48608" lon="5.3632">
        <ele>245.6</ele>
        <time>2022-07-30T05:40:51Z</time>
      </trkpt>
      <trkpt lat="46.48616" lon="5.36316">
        <ele>245.4</ele>
        <time>2022-07-30T05:40:52Z</time>
      </trkpt>
      <trkpt lat="46.48623" lon="5.36309">
        <ele>245</ele>
        <time>2022-07-30T05:40:53Z</time>
      </trkpt>
      <trkpt lat="46.48634" lon="5.36291">
        <ele>244.2</ele>
        <time>2022-07-30T05:40:55Z</time>
      </trkpt>
      <trkpt lat="46.48638" lon="5.3628">
        <ele>243.8</ele>
        <time>2022-07-30T05:40:56Z</time>
      </trkpt>
      <trkpt lat="46.4864" lon="5.36268">
        <ele>243.2</ele>
        <time>2022-07-30T05:40:57Z</time>
      </trkpt>
      <trkpt lat="46.48641" lon="5.36254">
        <ele>242.2</ele>
        <time>2022-07-30T05:40:58Z</time>
      </trkpt>
      <trkpt lat="46.48642" lon="5.3624">
        <ele>242</ele>
        <time>2022-07-30T05:40:59Z</time>
      </trkpt>
      <trkpt lat="46.48645" lon="5.36185">
        <ele>240.4</ele>
        <time>2022-07-30T05:41:03Z</time>
      </trkpt>
      <trkpt lat="46.48645" lon="5.36172">
        <ele>240.2</ele>
        <time>2022-07-30T05:41:04Z</time>
      </trkpt>
      <trkpt lat="46.48648" lon="5.36146">
        <ele>239.6</ele>
        <time>2022-07-30T05:41:06Z</time>
      </trkpt>
      <trkpt lat="46.4865" lon="5.36133">
        <ele>239.2</ele>
        <time>2022-07-30T05:41:07Z</time>
      </trkpt>
      <trkpt lat="46.48655" lon="5.36107">
        <ele>239</ele>
        <time>2022-07-30T05:41:09Z</time>
      </trkpt>
      <trkpt lat="46.48667" lon="5.36049">
        <ele>238.8</ele>
        <time>2022-07-30T05:41:14Z</time>
      </trkpt>
      <trkpt lat="46.48674" lon="5.3601">
        <ele>239.2</ele>
        <time>2022-07-30T05:41:18Z</time>
      </trkpt>
      <trkpt lat="46.48675" lon="5.36001">
        <ele>239.4</ele>
        <time>2022-07-30T05:41:19Z</time>
      </trkpt>
      <trkpt lat="46.48678" lon="5.35974">
        <ele>240.2</ele>
        <time>2022-07-30T05:41:22Z</time>
      </trkpt>
      <trkpt lat="46.4868" lon="5.35963">
        <ele>240.6</ele>
        <time>2022-07-30T05:41:23Z</time>
      </trkpt>
      <trkpt lat="46.48681" lon="5.35952">
        <ele>240.6</ele>
        <time>2022-07-30T05:41:24Z</time>
      </trkpt>
      <trkpt lat="46.48689" lon="5.35911">
        <ele>240.8</ele>
        <time>2022-07-30T05:41:28Z</time>
      </trkpt>
      <trkpt lat="46.48696" lon="5.35891">
        <ele>240.8</ele>
        <time>2022-07-30T05:41:30Z</time>
      </trkpt>
      <trkpt lat="46.48715" lon="5.35841">
        <ele>240.2</ele>
        <time>2022-07-30T05:41:35Z</time>
      </trkpt>
      <trkpt lat="46.48728" lon="5.35811">
        <ele>239.6</ele>
        <time>2022-07-30T05:41:38Z</time>
      </trkpt>
      <trkpt lat="46.48748" lon="5.35765">
        <ele>238.4</ele>
        <time>2022-07-30T05:41:43Z</time>
      </trkpt>
      <trkpt lat="46.4876" lon="5.35738">
        <ele>238.2</ele>
        <time>2022-07-30T05:41:46Z</time>
      </trkpt>
      <trkpt lat="46.48787" lon="5.35678">
        <ele>237.6</ele>
        <time>2022-07-30T05:41:53Z</time>
      </trkpt>
      <trkpt lat="46.48812" lon="5.3562">
        <ele>238.2</ele>
        <time>2022-07-30T05:42:00Z</time>
      </trkpt>
      <trkpt lat="46.48841" lon="5.35555">
        <ele>238.2</ele>
        <time>2022-07-30T05:42:08Z</time>
      </trkpt>
      <trkpt lat="46.48872" lon="5.35483">
        <ele>238.4</ele>
        <time>2022-07-30T05:42:17Z</time>
      </trkpt>
      <trkpt lat="46.48902" lon="5.35415">
        <ele>238.2</ele>
        <time>2022-07-30T05:42:25Z</time>
      </trkpt>
      <trkpt lat="46.48914" lon="5.35388">
        <ele>238</ele>
        <time>2022-07-30T05:42:28Z</time>
      </trkpt>
      <trkpt lat="46.48926" lon="5.3536">
        <ele>237.6</ele>
        <time>2022-07-30T05:42:31Z</time>
      </trkpt>
      <trkpt lat="46.48939" lon="5.35333">
        <ele>237.2</ele>
        <time>2022-07-30T05:42:34Z</time>
      </trkpt>
      <trkpt lat="46.48951" lon="5.35305">
        <ele>236.6</ele>
        <time>2022-07-30T05:42:37Z</time>
      </trkpt>
      <trkpt lat="46.48974" lon="5.35254">
        <ele>236.4</ele>
        <time>2022-07-30T05:42:43Z</time>
      </trkpt>
      <trkpt lat="46.49" lon="5.35191">
        <ele>237.8</ele>
        <time>2022-07-30T05:42:51Z</time>
      </trkpt>
      <trkpt lat="46.49022" lon="5.35138">
        <ele>238.4</ele>
        <time>2022-07-30T05:42:58Z</time>
      </trkpt>
      <trkpt lat="46.49037" lon="5.35085">
        <ele>238.6</ele>
        <time>2022-07-30T05:43:04Z</time>
      </trkpt>
      <trkpt lat="46.49051" lon="5.35025">
        <ele>238.4</ele>
        <time>2022-07-30T05:43:10Z</time>
      </trkpt>
      <trkpt lat="46.49057" lon="5.34992">
        <ele>238</ele>
        <time>2022-07-30T05:43:13Z</time>
      </trkpt>
      <trkpt lat="46.49064" lon="5.34958">
        <ele>237.2</ele>
        <time>2022-07-30T05:43:16Z</time>
      </trkpt>
      <trkpt lat="46.49071" lon="5.34923">
        <ele>236.8</ele>
        <time>2022-07-30T05:43:19Z</time>
      </trkpt>
      <trkpt lat="46.49082" lon="5.34865">
        <ele>235.4</ele>
        <time>2022-07-30T05:43:24Z</time>
      </trkpt>
      <trkpt lat="46.49094" lon="5.34807">
        <ele>234.6</ele>
        <time>2022-07-30T05:43:29Z</time>
      </trkpt>
      <trkpt lat="46.49095" lon="5.34794">
        <ele>234.2</ele>
        <time>2022-07-30T05:43:30Z</time>
      </trkpt>
      <trkpt lat="46.49108" lon="5.34722">
        <ele>233.6</ele>
        <time>2022-07-30T05:43:36Z</time>
      </trkpt>
      <trkpt lat="46.49111" lon="5.3471">
        <ele>233</ele>
        <time>2022-07-30T05:43:37Z</time>
      </trkpt>
      <trkpt lat="46.49126" lon="5.34631">
        <ele>232</ele>
        <time>2022-07-30T05:43:44Z</time>
      </trkpt>
      <trkpt lat="46.49136" lon="5.34584">
        <ele>232.2</ele>
        <time>2022-07-30T05:43:49Z</time>
      </trkpt>
      <trkpt lat="46.49145" lon="5.34536">
        <ele>232.8</ele>
        <time>2022-07-30T05:43:54Z</time>
      </trkpt>
      <trkpt lat="46.49159" lon="5.34473">
        <ele>232.4</ele>
        <time>2022-07-30T05:44:00Z</time>
      </trkpt>
      <trkpt lat="46.49167" lon="5.34431">
        <ele>232</ele>
        <time>2022-07-30T05:44:04Z</time>
      </trkpt>
      <trkpt lat="46.49172" lon="5.34399">
        <ele>232</ele>
        <time>2022-07-30T05:44:07Z</time>
      </trkpt>
      <trkpt lat="46.4918" lon="5.34355">
        <ele>232.2</ele>
        <time>2022-07-30T05:44:12Z</time>
      </trkpt>
      <trkpt lat="46.49182" lon="5.34338">
        <ele>232.6</ele>
        <time>2022-07-30T05:44:14Z</time>
      </trkpt>
      <trkpt lat="46.49188" lon="5.34314">
        <ele>233</ele>
        <time>2022-07-30T05:44:17Z</time>
      </trkpt>
      <trkpt lat="46.49196" lon="5.34272">
        <ele>233.4</ele>
        <time>2022-07-30T05:44:21Z</time>
      </trkpt>
      <trkpt lat="46.49207" lon="5.34216">
        <ele>233</ele>
        <time>2022-07-30T05:44:26Z</time>
      </trkpt>
      <trkpt lat="46.49209" lon="5.34205">
        <ele>232.4</ele>
        <time>2022-07-30T05:44:27Z</time>
      </trkpt>
      <trkpt lat="46.49215" lon="5.34171">
        <ele>232</ele>
        <time>2022-07-30T05:44:30Z</time>
      </trkpt>
      <trkpt lat="46.49227" lon="5.34111">
        <ele>231.8</ele>
        <time>2022-07-30T05:44:36Z</time>
      </trkpt>
      <trkpt lat="46.49237" lon="5.3406">
        <ele>232.8</ele>
        <time>2022-07-30T05:44:42Z</time>
      </trkpt>
      <trkpt lat="46.49239" lon="5.34052">
        <ele>233.2</ele>
        <time>2022-07-30T05:44:43Z</time>
      </trkpt>
      <trkpt lat="46.4924" lon="5.34044">
        <ele>233.6</ele>
        <time>2022-07-30T05:44:44Z</time>
      </trkpt>
      <trkpt lat="46.49243" lon="5.34025">
        <ele>234</ele>
        <time>2022-07-30T05:44:46Z</time>
      </trkpt>
      <trkpt lat="46.49245" lon="5.34016">
        <ele>234.2</ele>
        <time>2022-07-30T05:44:47Z</time>
      </trkpt>
      <trkpt lat="46.49246" lon="5.34007">
        <ele>234.6</ele>
        <time>2022-07-30T05:44:48Z</time>
      </trkpt>
      <trkpt lat="46.49254" lon="5.33969">
        <ele>235</ele>
        <time>2022-07-30T05:44:52Z</time>
      </trkpt>
      <trkpt lat="46.49265" lon="5.33913">
        <ele>235</ele>
        <time>2022-07-30T05:44:58Z</time>
      </trkpt>
      <trkpt lat="46.49277" lon="5.33847">
        <ele>235</ele>
        <time>2022-07-30T05:45:05Z</time>
      </trkpt>
      <trkpt lat="46.49291" lon="5.33781">
        <ele>235</ele>
        <time>2022-07-30T05:45:12Z</time>
      </trkpt>
      <trkpt lat="46.49302" lon="5.33711">
        <ele>234.4</ele>
        <time>2022-07-30T05:45:19Z</time>
      </trkpt>
      <trkpt lat="46.49303" lon="5.337">
        <ele>234.4</ele>
        <time>2022-07-30T05:45:20Z</time>
      </trkpt>
      <trkpt lat="46.49306" lon="5.33624">
        <ele>233.6</ele>
        <time>2022-07-30T05:45:27Z</time>
      </trkpt>
      <trkpt lat="46.49308" lon="5.33603">
        <ele>233.2</ele>
        <time>2022-07-30T05:45:29Z</time>
      </trkpt>
      <trkpt lat="46.49316" lon="5.33562">
        <ele>232.8</ele>
        <time>2022-07-30T05:45:33Z</time>
      </trkpt>
      <trkpt lat="46.49318" lon="5.33552">
        <ele>232.8</ele>
        <time>2022-07-30T05:45:34Z</time>
      </trkpt>
      <trkpt lat="46.49319" lon="5.33531">
        <ele>232.8</ele>
        <time>2022-07-30T05:45:36Z</time>
      </trkpt>
      <trkpt lat="46.49318" lon="5.33521">
        <ele>232.8</ele>
        <time>2022-07-30T05:45:37Z</time>
      </trkpt>
      <trkpt lat="46.4931" lon="5.33461">
        <ele>232.6</ele>
        <time>2022-07-30T05:45:43Z</time>
      </trkpt>
      <trkpt lat="46.49309" lon="5.3345">
        <ele>232.6</ele>
        <time>2022-07-30T05:45:44Z</time>
      </trkpt>
      <trkpt lat="46.49293" lon="5.33371">
        <ele>232.4</ele>
        <time>2022-07-30T05:45:52Z</time>
      </trkpt>
      <trkpt lat="46.49286" lon="5.33338">
        <ele>232.2</ele>
        <time>2022-07-30T05:45:55Z</time>
      </trkpt>
      <trkpt lat="46.4928" lon="5.33303">
        <ele>231.8</ele>
        <time>2022-07-30T05:45:58Z</time>
      </trkpt>
      <trkpt lat="46.49272" lon="5.3326">
        <ele>231</ele>
        <time>2022-07-30T05:46:02Z</time>
      </trkpt>
      <trkpt lat="46.49264" lon="5.33228">
        <ele>230.6</ele>
        <time>2022-07-30T05:46:05Z</time>
      </trkpt>
      <trkpt lat="46.49256" lon="5.33208">
        <ele>230</ele>
        <time>2022-07-30T05:46:07Z</time>
      </trkpt>
      <trkpt lat="46.49251" lon="5.33199">
        <ele>230</ele>
        <time>2022-07-30T05:46:08Z</time>
      </trkpt>
      <trkpt lat="46.49246" lon="5.33191">
        <ele>229.8</ele>
        <time>2022-07-30T05:46:09Z</time>
      </trkpt>
      <trkpt lat="46.49217" lon="5.33169">
        <ele>229.2</ele>
        <time>2022-07-30T05:46:13Z</time>
      </trkpt>
      <trkpt lat="46.4921" lon="5.33164">
        <ele>229</ele>
        <time>2022-07-30T05:46:14Z</time>
      </trkpt>
      <trkpt lat="46.49168" lon="5.33127">
        <ele>227.8</ele>
        <time>2022-07-30T05:46:20Z</time>
      </trkpt>
      <trkpt lat="46.49158" lon="5.3311">
        <ele>227.4</ele>
        <time>2022-07-30T05:46:22Z</time>
      </trkpt>
      <trkpt lat="46.49154" lon="5.331">
        <ele>227.4</ele>
        <time>2022-07-30T05:46:23Z</time>
      </trkpt>
      <trkpt lat="46.49139" lon="5.33049">
        <ele>227.4</ele>
        <time>2022-07-30T05:46:28Z</time>
      </trkpt>
      <trkpt lat="46.4913" lon="5.32987">
        <ele>227.4</ele>
        <time>2022-07-30T05:46:34Z</time>
      </trkpt>
      <trkpt lat="46.49126" lon="5.32929">
        <ele>226.8</ele>
        <time>2022-07-30T05:46:39Z</time>
      </trkpt>
      <trkpt lat="46.49126" lon="5.32917">
        <ele>226.6</ele>
        <time>2022-07-30T05:46:40Z</time>
      </trkpt>
      <trkpt lat="46.49128" lon="5.32881">
        <ele>226.4</ele>
        <time>2022-07-30T05:46:43Z</time>
      </trkpt>
      <trkpt lat="46.49131" lon="5.3287">
        <ele>226.2</ele>
        <time>2022-07-30T05:46:44Z</time>
      </trkpt>
      <trkpt lat="46.49141" lon="5.32829">
        <ele>226</ele>
        <time>2022-07-30T05:46:48Z</time>
      </trkpt>
      <trkpt lat="46.49142" lon="5.32818">
        <ele>226</ele>
        <time>2022-07-30T05:46:49Z</time>
      </trkpt>
      <trkpt lat="46.49143" lon="5.32807">
        <ele>225.8</ele>
        <time>2022-07-30T05:46:50Z</time>
      </trkpt>
      <trkpt lat="46.49142" lon="5.32787">
        <ele>225.8</ele>
        <time>2022-07-30T05:46:52Z</time>
      </trkpt>
      <trkpt lat="46.4914" lon="5.32777">
        <ele>226</ele>
        <time>2022-07-30T05:46:53Z</time>
      </trkpt>
      <trkpt lat="46.4913" lon="5.32723">
        <ele>226.4</ele>
        <time>2022-07-30T05:46:59Z</time>
      </trkpt>
      <trkpt lat="46.49126" lon="5.32714">
        <ele>226.4</ele>
        <time>2022-07-30T05:47:00Z</time>
      </trkpt>
      <trkpt lat="46.49116" lon="5.32698">
        <ele>226.4</ele>
        <time>2022-07-30T05:47:02Z</time>
      </trkpt>
      <trkpt lat="46.49102" lon="5.3269">
        <ele>226.4</ele>
        <time>2022-07-30T05:47:04Z</time>
      </trkpt>
      <trkpt lat="46.49095" lon="5.32688">
        <ele>226.4</ele>
        <time>2022-07-30T05:47:05Z</time>
      </trkpt>
      <trkpt lat="46.49088" lon="5.32689">
        <ele>226.2</ele>
        <time>2022-07-30T05:47:06Z</time>
      </trkpt>
      <trkpt lat="46.49062" lon="5.32694">
        <ele>225.6</ele>
        <time>2022-07-30T05:47:09Z</time>
      </trkpt>
      <trkpt lat="46.49024" lon="5.32704">
        <ele>224.2</ele>
        <time>2022-07-30T05:47:13Z</time>
      </trkpt>
      <trkpt lat="46.49005" lon="5.32708">
        <ele>223</ele>
        <time>2022-07-30T05:47:15Z</time>
      </trkpt>
      <trkpt lat="46.48985" lon="5.32709">
        <ele>222</ele>
        <time>2022-07-30T05:47:17Z</time>
      </trkpt>
      <trkpt lat="46.48974" lon="5.32709">
        <ele>221.6</ele>
        <time>2022-07-30T05:47:18Z</time>
      </trkpt>
      <trkpt lat="46.48964" lon="5.32707">
        <ele>221.2</ele>
        <time>2022-07-30T05:47:19Z</time>
      </trkpt>
      <trkpt lat="46.48954" lon="5.32703">
        <ele>220.6</ele>
        <time>2022-07-30T05:47:20Z</time>
      </trkpt>
      <trkpt lat="46.48936" lon="5.32686">
        <ele>219.4</ele>
        <time>2022-07-30T05:47:22Z</time>
      </trkpt>
      <trkpt lat="46.48928" lon="5.32675">
        <ele>219</ele>
        <time>2022-07-30T05:47:23Z</time>
      </trkpt>
      <trkpt lat="46.48921" lon="5.32662">
        <ele>218.2</ele>
        <time>2022-07-30T05:47:24Z</time>
      </trkpt>
      <trkpt lat="46.48916" lon="5.32647">
        <ele>217.4</ele>
        <time>2022-07-30T05:47:25Z</time>
      </trkpt>
      <trkpt lat="46.48914" lon="5.32631">
        <ele>216.8</ele>
        <time>2022-07-30T05:47:26Z</time>
      </trkpt>
      <trkpt lat="46.48916" lon="5.32615">
        <ele>216</ele>
        <time>2022-07-30T05:47:27Z</time>
      </trkpt>
      <trkpt lat="46.48921" lon="5.32599">
        <ele>215.6</ele>
        <time>2022-07-30T05:47:28Z</time>
      </trkpt>
      <trkpt lat="46.48928" lon="5.32585">
        <ele>214.6</ele>
        <time>2022-07-30T05:47:29Z</time>
      </trkpt>
      <trkpt lat="46.48935" lon="5.32572">
        <ele>213.8</ele>
        <time>2022-07-30T05:47:30Z</time>
      </trkpt>
      <trkpt lat="46.48943" lon="5.3256">
        <ele>212.4</ele>
        <time>2022-07-30T05:47:31Z</time>
      </trkpt>
      <trkpt lat="46.48948" lon="5.32546">
        <ele>211.4</ele>
        <time>2022-07-30T05:47:32Z</time>
      </trkpt>
      <trkpt lat="46.48952" lon="5.32532">
        <ele>211</ele>
        <time>2022-07-30T05:47:33Z</time>
      </trkpt>
      <trkpt lat="46.48951" lon="5.32499">
        <ele>210.2</ele>
        <time>2022-07-30T05:47:35Z</time>
      </trkpt>
      <trkpt lat="46.48947" lon="5.32486">
        <ele>209.8</ele>
        <time>2022-07-30T05:47:36Z</time>
      </trkpt>
      <trkpt lat="46.48935" lon="5.32448">
        <ele>209.2</ele>
        <time>2022-07-30T05:47:39Z</time>
      </trkpt>
      <trkpt lat="46.48924" lon="5.32412">
        <ele>208.6</ele>
        <time>2022-07-30T05:47:42Z</time>
      </trkpt>
      <trkpt lat="46.48903" lon="5.32345">
        <ele>208.8</ele>
        <time>2022-07-30T05:47:48Z</time>
      </trkpt>
      <trkpt lat="46.48887" lon="5.32313">
        <ele>208.8</ele>
        <time>2022-07-30T05:47:52Z</time>
      </trkpt>
      <trkpt lat="46.48871" lon="5.3229">
        <ele>209.8</ele>
        <time>2022-07-30T05:47:56Z</time>
      </trkpt>
      <trkpt lat="46.48868" lon="5.32285">
        <ele>210.4</ele>
        <time>2022-07-30T05:47:57Z</time>
      </trkpt>
      <trkpt lat="46.4886" lon="5.32277">
        <ele>211.6</ele>
        <time>2022-07-30T05:47:59Z</time>
      </trkpt>
      <trkpt lat="46.48851" lon="5.32263">
        <ele>212.8</ele>
        <time>2022-07-30T05:48:02Z</time>
      </trkpt>
      <trkpt lat="46.48848" lon="5.32259">
        <ele>213.2</ele>
        <time>2022-07-30T05:48:03Z</time>
      </trkpt>
      <trkpt lat="46.48845" lon="5.32254">
        <ele>214</ele>
        <time>2022-07-30T05:48:04Z</time>
      </trkpt>
      <trkpt lat="46.48837" lon="5.3224">
        <ele>215.2</ele>
        <time>2022-07-30T05:48:07Z</time>
      </trkpt>
      <trkpt lat="46.48832" lon="5.32227">
        <ele>216</ele>
        <time>2022-07-30T05:48:09Z</time>
      </trkpt>
      <trkpt lat="46.4883" lon="5.32219">
        <ele>216.4</ele>
        <time>2022-07-30T05:48:10Z</time>
      </trkpt>
      <trkpt lat="46.48828" lon="5.32211">
        <ele>216.6</ele>
        <time>2022-07-30T05:48:11Z</time>
      </trkpt>
      <trkpt lat="46.48826" lon="5.32195">
        <ele>216.6</ele>
        <time>2022-07-30T05:48:13Z</time>
      </trkpt>
      <trkpt lat="46.48823" lon="5.32144">
        <ele>216.8</ele>
        <time>2022-07-30T05:48:18Z</time>
      </trkpt>
      <trkpt lat="46.48829" lon="5.321">
        <ele>215.6</ele>
        <time>2022-07-30T05:48:22Z</time>
      </trkpt>
      <trkpt lat="46.48831" lon="5.3209">
        <ele>215.4</ele>
        <time>2022-07-30T05:48:23Z</time>
      </trkpt>
      <trkpt lat="46.48839" lon="5.32046">
        <ele>214.2</ele>
        <time>2022-07-30T05:48:27Z</time>
      </trkpt>
      <trkpt lat="46.48846" lon="5.32002">
        <ele>213.4</ele>
        <time>2022-07-30T05:48:31Z</time>
      </trkpt>
      <trkpt lat="46.48847" lon="5.3198">
        <ele>213.2</ele>
        <time>2022-07-30T05:48:33Z</time>
      </trkpt>
      <trkpt lat="46.48846" lon="5.31945">
        <ele>212.8</ele>
        <time>2022-07-30T05:48:36Z</time>
      </trkpt>
      <trkpt lat="46.4884" lon="5.31887">
        <ele>212</ele>
        <time>2022-07-30T05:48:41Z</time>
      </trkpt>
      <trkpt lat="46.48837" lon="5.31876">
        <ele>211.8</ele>
        <time>2022-07-30T05:48:42Z</time>
      </trkpt>
      <trkpt lat="46.48827" lon="5.31857">
        <ele>211.2</ele>
        <time>2022-07-30T05:48:44Z</time>
      </trkpt>
      <trkpt lat="46.4882" lon="5.31851">
        <ele>211</ele>
        <time>2022-07-30T05:48:45Z</time>
      </trkpt>
      <trkpt lat="46.48813" lon="5.31847">
        <ele>210.8</ele>
        <time>2022-07-30T05:48:46Z</time>
      </trkpt>
      <trkpt lat="46.4879" lon="5.31835">
        <ele>210.6</ele>
        <time>2022-07-30T05:48:49Z</time>
      </trkpt>
      <trkpt lat="46.48781" lon="5.31819">
        <ele>210.6</ele>
        <time>2022-07-30T05:48:51Z</time>
      </trkpt>
      <trkpt lat="46.48778" lon="5.31788">
        <ele>210.8</ele>
        <time>2022-07-30T05:48:54Z</time>
      </trkpt>
      <trkpt lat="46.48774" lon="5.31726">
        <ele>211</ele>
        <time>2022-07-30T05:49:00Z</time>
      </trkpt>
      <trkpt lat="46.48768" lon="5.31709">
        <ele>211</ele>
        <time>2022-07-30T05:49:02Z</time>
      </trkpt>
      <trkpt lat="46.48763" lon="5.31703">
        <ele>211</ele>
        <time>2022-07-30T05:49:03Z</time>
      </trkpt>
      <trkpt lat="46.48739" lon="5.31674">
        <ele>211.4</ele>
        <time>2022-07-30T05:49:08Z</time>
      </trkpt>
      <trkpt lat="46.48721" lon="5.3165">
        <ele>211.8</ele>
        <time>2022-07-30T05:49:12Z</time>
      </trkpt>
      <trkpt lat="46.48681" lon="5.31597">
        <ele>212</ele>
        <time>2022-07-30T05:49:20Z</time>
      </trkpt>
      <trkpt lat="46.4865" lon="5.31556">
        <ele>212</ele>
        <time>2022-07-30T05:49:26Z</time>
      </trkpt>
      <trkpt lat="46.48623" lon="5.31521">
        <ele>211.8</ele>
        <time>2022-07-30T05:49:32Z</time>
      </trkpt>
      <trkpt lat="46.4862" lon="5.31515">
        <ele>212</ele>
        <time>2022-07-30T05:49:33Z</time>
      </trkpt>
      <trkpt lat="46.48617" lon="5.31508">
        <ele>212</ele>
        <time>2022-07-30T05:49:34Z</time>
      </trkpt>
      <trkpt lat="46.48611" lon="5.3149">
        <ele>211.8</ele>
        <time>2022-07-30T05:49:36Z</time>
      </trkpt>
      <trkpt lat="46.4861" lon="5.3148">
        <ele>211.8</ele>
        <time>2022-07-30T05:49:37Z</time>
      </trkpt>
      <trkpt lat="46.48609" lon="5.3147">
        <ele>211.6</ele>
        <time>2022-07-30T05:49:38Z</time>
      </trkpt>
      <trkpt lat="46.48608" lon="5.3144">
        <ele>211.4</ele>
        <time>2022-07-30T05:49:41Z</time>
      </trkpt>
      <trkpt lat="46.48607" lon="5.3143">
        <ele>211.6</ele>
        <time>2022-07-30T05:49:42Z</time>
      </trkpt>
      <trkpt lat="46.48605" lon="5.31422">
        <ele>211.8</ele>
        <time>2022-07-30T05:49:43Z</time>
      </trkpt>
      <trkpt lat="46.48598" lon="5.31409">
        <ele>211.8</ele>
        <time>2022-07-30T05:49:45Z</time>
      </trkpt>
      <trkpt lat="46.48587" lon="5.31394">
        <ele>212.2</ele>
        <time>2022-07-30T05:49:48Z</time>
      </trkpt>
      <trkpt lat="46.48579" lon="5.31386">
        <ele>212.8</ele>
        <time>2022-07-30T05:49:50Z</time>
      </trkpt>
      <trkpt lat="46.48572" lon="5.31377">
        <ele>213.4</ele>
        <time>2022-07-30T05:49:52Z</time>
      </trkpt>
      <trkpt lat="46.48563" lon="5.31364">
        <ele>214</ele>
        <time>2022-07-30T05:49:55Z</time>
      </trkpt>
      <trkpt lat="46.48561" lon="5.31359">
        <ele>214.4</ele>
        <time>2022-07-30T05:49:56Z</time>
      </trkpt>
      <trkpt lat="46.4856" lon="5.31353">
        <ele>214.6</ele>
        <time>2022-07-30T05:49:57Z</time>
      </trkpt>
      <trkpt lat="46.48557" lon="5.31342">
        <ele>215.6</ele>
        <time>2022-07-30T05:49:59Z</time>
      </trkpt>
      <trkpt lat="46.48557" lon="5.31336">
        <ele>215.8</ele>
        <time>2022-07-30T05:50:00Z</time>
      </trkpt>
      <trkpt lat="46.48555" lon="5.31324">
        <ele>216.4</ele>
        <time>2022-07-30T05:50:02Z</time>
      </trkpt>
      <trkpt lat="46.48555" lon="5.31311">
        <ele>216.8</ele>
        <time>2022-07-30T05:50:04Z</time>
      </trkpt>
      <trkpt lat="46.48551" lon="5.31268">
        <ele>218</ele>
        <time>2022-07-30T05:50:10Z</time>
      </trkpt>
      <trkpt lat="46.4855" lon="5.31252">
        <ele>218.2</ele>
        <time>2022-07-30T05:50:12Z</time>
      </trkpt>
      <trkpt lat="46.48555" lon="5.31231">
        <ele>218.6</ele>
        <time>2022-07-30T05:50:15Z</time>
      </trkpt>
      <trkpt lat="46.4856" lon="5.31219">
        <ele>218.8</ele>
        <time>2022-07-30T05:50:17Z</time>
      </trkpt>
      <trkpt lat="46.48569" lon="5.31201">
        <ele>219</ele>
        <time>2022-07-30T05:50:20Z</time>
      </trkpt>
      <trkpt lat="46.48571" lon="5.31195">
        <ele>219</ele>
        <time>2022-07-30T05:50:21Z</time>
      </trkpt>
      <trkpt lat="46.48588" lon="5.31161">
        <ele>220</ele>
        <time>2022-07-30T05:50:27Z</time>
      </trkpt>
      <trkpt lat="46.48602" lon="5.31133">
        <ele>220.6</ele>
        <time>2022-07-30T05:50:32Z</time>
      </trkpt>
      <trkpt lat="46.4861" lon="5.31116">
        <ele>221</ele>
        <time>2022-07-30T05:50:35Z</time>
      </trkpt>
      <trkpt lat="46.48625" lon="5.31082">
        <ele>221.8</ele>
        <time>2022-07-30T05:50:41Z</time>
      </trkpt>
      <trkpt lat="46.48628" lon="5.31076">
        <ele>222</ele>
        <time>2022-07-30T05:50:42Z</time>
      </trkpt>
      <trkpt lat="46.48649" lon="5.31033">
        <ele>223</ele>
        <time>2022-07-30T05:50:50Z</time>
      </trkpt>
      <trkpt lat="46.48657" lon="5.31016">
        <ele>223.4</ele>
        <time>2022-07-30T05:50:53Z</time>
      </trkpt>
      <trkpt lat="46.48671" lon="5.30989">
        <ele>224.4</ele>
        <time>2022-07-30T05:50:58Z</time>
      </trkpt>
      <trkpt lat="46.48686" lon="5.30958">
        <ele>224.8</ele>
        <time>2022-07-30T05:51:03Z</time>
      </trkpt>
      <trkpt lat="46.48705" lon="5.30924">
        <ele>224.6</ele>
        <time>2022-07-30T05:51:08Z</time>
      </trkpt>
      <trkpt lat="46.48709" lon="5.30918">
        <ele>224.6</ele>
        <time>2022-07-30T05:51:09Z</time>
      </trkpt>
      <trkpt lat="46.48715" lon="5.3091">
        <ele>224.4</ele>
        <time>2022-07-30T05:51:10Z</time>
      </trkpt>
      <trkpt lat="46.48722" lon="5.30891">
        <ele>223.4</ele>
        <time>2022-07-30T05:51:12Z</time>
      </trkpt>
      <trkpt lat="46.48722" lon="5.3088">
        <ele>223</ele>
        <time>2022-07-30T05:51:13Z</time>
      </trkpt>
      <trkpt lat="46.48719" lon="5.3087">
        <ele>222.4</ele>
        <time>2022-07-30T05:51:14Z</time>
      </trkpt>
      <trkpt lat="46.48709" lon="5.30854">
        <ele>221.6</ele>
        <time>2022-07-30T05:51:16Z</time>
      </trkpt>
      <trkpt lat="46.48703" lon="5.30847">
        <ele>221.2</ele>
        <time>2022-07-30T05:51:17Z</time>
      </trkpt>
      <trkpt lat="46.48689" lon="5.30836">
        <ele>220.6</ele>
        <time>2022-07-30T05:51:19Z</time>
      </trkpt>
      <trkpt lat="46.48675" lon="5.30827">
        <ele>220</ele>
        <time>2022-07-30T05:51:21Z</time>
      </trkpt>
      <trkpt lat="46.48667" lon="5.30823">
        <ele>220</ele>
        <time>2022-07-30T05:51:22Z</time>
      </trkpt>
      <trkpt lat="46.48628" lon="5.30799">
        <ele>219.8</ele>
        <time>2022-07-30T05:51:27Z</time>
      </trkpt>
      <trkpt lat="46.48607" lon="5.30784">
        <ele>219.4</ele>
        <time>2022-07-30T05:51:30Z</time>
      </trkpt>
      <trkpt lat="46.48577" lon="5.30757">
        <ele>219.4</ele>
        <time>2022-07-30T05:51:35Z</time>
      </trkpt>
      <trkpt lat="46.48559" lon="5.30734">
        <ele>219.8</ele>
        <time>2022-07-30T05:51:39Z</time>
      </trkpt>
      <trkpt lat="46.48555" lon="5.30727">
        <ele>220</ele>
        <time>2022-07-30T05:51:40Z</time>
      </trkpt>
      <trkpt lat="46.48552" lon="5.3072">
        <ele>220.2</ele>
        <time>2022-07-30T05:51:41Z</time>
      </trkpt>
      <trkpt lat="46.48548" lon="5.30705">
        <ele>220.8</ele>
        <time>2022-07-30T05:51:43Z</time>
      </trkpt>
      <trkpt lat="46.48546" lon="5.30698">
        <ele>221.2</ele>
        <time>2022-07-30T05:51:44Z</time>
      </trkpt>
      <trkpt lat="46.48543" lon="5.30684">
        <ele>221.6</ele>
        <time>2022-07-30T05:51:46Z</time>
      </trkpt>
      <trkpt lat="46.48542" lon="5.30676">
        <ele>222</ele>
        <time>2022-07-30T05:51:47Z</time>
      </trkpt>
      <trkpt lat="46.48542" lon="5.30669">
        <ele>222.2</ele>
        <time>2022-07-30T05:51:48Z</time>
      </trkpt>
      <trkpt lat="46.48542" lon="5.30661">
        <ele>222.4</ele>
        <time>2022-07-30T05:51:49Z</time>
      </trkpt>
      <trkpt lat="46.48546" lon="5.30634">
        <ele>223</ele>
        <time>2022-07-30T05:51:53Z</time>
      </trkpt>
      <trkpt lat="46.48547" lon="5.30621">
        <ele>223.4</ele>
        <time>2022-07-30T05:51:55Z</time>
      </trkpt>
      <trkpt lat="46.48549" lon="5.30602">
        <ele>224.2</ele>
        <time>2022-07-30T05:51:58Z</time>
      </trkpt>
      <trkpt lat="46.48553" lon="5.30575">
        <ele>225</ele>
        <time>2022-07-30T05:52:02Z</time>
      </trkpt>
      <trkpt lat="46.48553" lon="5.30569">
        <ele>225.2</ele>
        <time>2022-07-30T05:52:03Z</time>
      </trkpt>
      <trkpt lat="46.48558" lon="5.30529">
        <ele>226</ele>
        <time>2022-07-30T05:52:09Z</time>
      </trkpt>
      <trkpt lat="46.4856" lon="5.3051">
        <ele>226.2</ele>
        <time>2022-07-30T05:52:12Z</time>
      </trkpt>
      <trkpt lat="46.4856" lon="5.30504">
        <ele>226.4</ele>
        <time>2022-07-30T05:52:13Z</time>
      </trkpt>
      <trkpt lat="46.48558" lon="5.30499">
        <ele>226.4</ele>
        <time>2022-07-30T05:52:14Z</time>
      </trkpt>
      <trkpt lat="46.4855" lon="5.30494">
        <ele>226.8</ele>
        <time>2022-07-30T05:52:16Z</time>
      </trkpt>
      <trkpt lat="46.48546" lon="5.30493">
        <ele>227</ele>
        <time>2022-07-30T05:52:17Z</time>
      </trkpt>
      <trkpt lat="46.48541" lon="5.30495">
        <ele>227</ele>
        <time>2022-07-30T05:52:18Z</time>
      </trkpt>
      <trkpt lat="46.48536" lon="5.30498">
        <ele>227.2</ele>
        <time>2022-07-30T05:52:19Z</time>
      </trkpt>
      <trkpt lat="46.48525" lon="5.30505">
        <ele>227.2</ele>
        <time>2022-07-30T05:52:21Z</time>
      </trkpt>
      <trkpt lat="46.48513" lon="5.30513">
        <ele>227.4</ele>
        <time>2022-07-30T05:52:23Z</time>
      </trkpt>
      <trkpt lat="46.48492" lon="5.30531">
        <ele>227.2</ele>
        <time>2022-07-30T05:52:27Z</time>
      </trkpt>
      <trkpt lat="46.48453" lon="5.30568">
        <ele>226.6</ele>
        <time>2022-07-30T05:52:34Z</time>
      </trkpt>
      <trkpt lat="46.48409" lon="5.3061">
        <ele>226.4</ele>
        <time>2022-07-30T05:52:41Z</time>
      </trkpt>
      <trkpt lat="46.48369" lon="5.3065">
        <ele>226.4</ele>
        <time>2022-07-30T05:52:47Z</time>
      </trkpt>
      <trkpt lat="46.4835" lon="5.30669">
        <ele>226</ele>
        <time>2022-07-30T05:52:50Z</time>
      </trkpt>
      <trkpt lat="46.48316" lon="5.30694">
        <ele>225.4</ele>
        <time>2022-07-30T05:52:55Z</time>
      </trkpt>
      <trkpt lat="46.48308" lon="5.30697">
        <ele>225.2</ele>
        <time>2022-07-30T05:52:56Z</time>
      </trkpt>
      <trkpt lat="46.48301" lon="5.30699">
        <ele>225.2</ele>
        <time>2022-07-30T05:52:57Z</time>
      </trkpt>
      <trkpt lat="46.48278" lon="5.30699">
        <ele>225</ele>
        <time>2022-07-30T05:53:00Z</time>
      </trkpt>
      <trkpt lat="46.48243" lon="5.30689">
        <ele>224.8</ele>
        <time>2022-07-30T05:53:05Z</time>
      </trkpt>
      <trkpt lat="46.48224" lon="5.30686">
        <ele>224.8</ele>
        <time>2022-07-30T05:53:08Z</time>
      </trkpt>
      <trkpt lat="46.48212" lon="5.30686">
        <ele>225.6</ele>
        <time>2022-07-30T05:53:10Z</time>
      </trkpt>
      <trkpt lat="46.482" lon="5.30689">
        <ele>225.8</ele>
        <time>2022-07-30T05:53:12Z</time>
      </trkpt>
      <trkpt lat="46.48182" lon="5.30697">
        <ele>226.2</ele>
        <time>2022-07-30T05:53:15Z</time>
      </trkpt>
      <trkpt lat="46.48171" lon="5.30703">
        <ele>226.4</ele>
        <time>2022-07-30T05:53:17Z</time>
      </trkpt>
      <trkpt lat="46.48146" lon="5.30716">
        <ele>227.6</ele>
        <time>2022-07-30T05:53:22Z</time>
      </trkpt>
      <trkpt lat="46.4814" lon="5.30719">
        <ele>227.8</ele>
        <time>2022-07-30T05:53:23Z</time>
      </trkpt>
      <trkpt lat="46.48124" lon="5.30728">
        <ele>228.4</ele>
        <time>2022-07-30T05:53:26Z</time>
      </trkpt>
      <trkpt lat="46.48113" lon="5.30734">
        <ele>228.6</ele>
        <time>2022-07-30T05:53:28Z</time>
      </trkpt>
      <trkpt lat="46.48078" lon="5.30753">
        <ele>229.2</ele>
        <time>2022-07-30T05:53:34Z</time>
      </trkpt>
      <trkpt lat="46.48061" lon="5.30763">
        <ele>229.4</ele>
        <time>2022-07-30T05:53:37Z</time>
      </trkpt>
      <trkpt lat="46.48035" lon="5.30777">
        <ele>229.4</ele>
        <time>2022-07-30T05:53:41Z</time>
      </trkpt>
      <trkpt lat="46.47979" lon="5.30807">
        <ele>228</ele>
        <time>2022-07-30T05:53:49Z</time>
      </trkpt>
      <trkpt lat="46.47957" lon="5.30816">
        <ele>227.6</ele>
        <time>2022-07-30T05:53:52Z</time>
      </trkpt>
      <trkpt lat="46.47942" lon="5.30817">
        <ele>227.4</ele>
        <time>2022-07-30T05:53:54Z</time>
      </trkpt>
      <trkpt lat="46.47916" lon="5.30813">
        <ele>227.2</ele>
        <time>2022-07-30T05:53:58Z</time>
      </trkpt>
      <trkpt lat="46.47885" lon="5.30803">
        <ele>229</ele>
        <time>2022-07-30T05:54:04Z</time>
      </trkpt>
      <trkpt lat="46.47871" lon="5.308">
        <ele>230.4</ele>
        <time>2022-07-30T05:54:07Z</time>
      </trkpt>
      <trkpt lat="46.47853" lon="5.30798">
        <ele>231.6</ele>
        <time>2022-07-30T05:54:11Z</time>
      </trkpt>
      <trkpt lat="46.47845" lon="5.308">
        <ele>232.2</ele>
        <time>2022-07-30T05:54:13Z</time>
      </trkpt>
      <trkpt lat="46.47841" lon="5.30801">
        <ele>232.8</ele>
        <time>2022-07-30T05:54:14Z</time>
      </trkpt>
      <trkpt lat="46.47833" lon="5.30807">
        <ele>233.4</ele>
        <time>2022-07-30T05:54:16Z</time>
      </trkpt>
      <trkpt lat="46.47826" lon="5.30812">
        <ele>233.8</ele>
        <time>2022-07-30T05:54:18Z</time>
      </trkpt>
      <trkpt lat="46.47811" lon="5.30828">
        <ele>234.8</ele>
        <time>2022-07-30T05:54:22Z</time>
      </trkpt>
      <trkpt lat="46.47807" lon="5.30833">
        <ele>235.2</ele>
        <time>2022-07-30T05:54:23Z</time>
      </trkpt>
      <trkpt lat="46.47777" lon="5.30879">
        <ele>235.6</ele>
        <time>2022-07-30T05:54:31Z</time>
      </trkpt>
      <trkpt lat="46.47768" lon="5.3089">
        <ele>235.6</ele>
        <time>2022-07-30T05:54:33Z</time>
      </trkpt>
      <trkpt lat="46.47755" lon="5.30899">
        <ele>235.4</ele>
        <time>2022-07-30T05:54:35Z</time>
      </trkpt>
      <trkpt lat="46.47741" lon="5.30905">
        <ele>235.2</ele>
        <time>2022-07-30T05:54:37Z</time>
      </trkpt>
      <trkpt lat="46.47725" lon="5.30906">
        <ele>235</ele>
        <time>2022-07-30T05:54:39Z</time>
      </trkpt>
      <trkpt lat="46.47699" lon="5.30899">
        <ele>233.8</ele>
        <time>2022-07-30T05:54:42Z</time>
      </trkpt>
      <trkpt lat="46.47691" lon="5.30895">
        <ele>233.4</ele>
        <time>2022-07-30T05:54:43Z</time>
      </trkpt>
      <trkpt lat="46.47674" lon="5.30889">
        <ele>232.4</ele>
        <time>2022-07-30T05:54:45Z</time>
      </trkpt>
      <trkpt lat="46.47665" lon="5.30888">
        <ele>231.6</ele>
        <time>2022-07-30T05:54:46Z</time>
      </trkpt>
      <trkpt lat="46.47656" lon="5.30888">
        <ele>231.2</ele>
        <time>2022-07-30T05:54:47Z</time>
      </trkpt>
      <trkpt lat="46.47648" lon="5.30889">
        <ele>230.8</ele>
        <time>2022-07-30T05:54:48Z</time>
      </trkpt>
      <trkpt lat="46.47631" lon="5.30894">
        <ele>230.2</ele>
        <time>2022-07-30T05:54:50Z</time>
      </trkpt>
      <trkpt lat="46.47622" lon="5.30898">
        <ele>229.8</ele>
        <time>2022-07-30T05:54:51Z</time>
      </trkpt>
      <trkpt lat="46.47597" lon="5.30908">
        <ele>229.2</ele>
        <time>2022-07-30T05:54:54Z</time>
      </trkpt>
      <trkpt lat="46.47562" lon="5.30924">
        <ele>227.8</ele>
        <time>2022-07-30T05:54:58Z</time>
      </trkpt>
      <trkpt lat="46.47546" lon="5.30933">
        <ele>227.4</ele>
        <time>2022-07-30T05:55:00Z</time>
      </trkpt>
      <trkpt lat="46.47521" lon="5.30949">
        <ele>226.4</ele>
        <time>2022-07-30T05:55:03Z</time>
      </trkpt>
      <trkpt lat="46.47465" lon="5.30986">
        <ele>225.4</ele>
        <time>2022-07-30T05:55:10Z</time>
      </trkpt>
      <trkpt lat="46.47416" lon="5.31018">
        <ele>225.6</ele>
        <time>2022-07-30T05:55:17Z</time>
      </trkpt>
      <trkpt lat="46.47392" lon="5.31033">
        <ele>226.6</ele>
        <time>2022-07-30T05:55:21Z</time>
      </trkpt>
      <trkpt lat="46.4737" lon="5.31046">
        <ele>228</ele>
        <time>2022-07-30T05:55:25Z</time>
      </trkpt>
      <trkpt lat="46.47355" lon="5.31056">
        <ele>229</ele>
        <time>2022-07-30T05:55:28Z</time>
      </trkpt>
      <trkpt lat="46.47341" lon="5.31067">
        <ele>229.8</ele>
        <time>2022-07-30T05:55:31Z</time>
      </trkpt>
      <trkpt lat="46.47337" lon="5.31072">
        <ele>230.2</ele>
        <time>2022-07-30T05:55:32Z</time>
      </trkpt>
      <trkpt lat="46.47328" lon="5.31081">
        <ele>230.8</ele>
        <time>2022-07-30T05:55:34Z</time>
      </trkpt>
      <trkpt lat="46.4732" lon="5.31092">
        <ele>231.2</ele>
        <time>2022-07-30T05:55:36Z</time>
      </trkpt>
      <trkpt lat="46.47302" lon="5.31116">
        <ele>232.4</ele>
        <time>2022-07-30T05:55:41Z</time>
      </trkpt>
      <trkpt lat="46.47272" lon="5.31158">
        <ele>233</ele>
        <time>2022-07-30T05:55:48Z</time>
      </trkpt>
      <trkpt lat="46.47256" lon="5.31181">
        <ele>233.2</ele>
        <time>2022-07-30T05:55:52Z</time>
      </trkpt>
      <trkpt lat="46.4725" lon="5.3119">
        <ele>233.2</ele>
        <time>2022-07-30T05:55:54Z</time>
      </trkpt>
      <trkpt lat="46.47232" lon="5.31217">
        <ele>233.6</ele>
        <time>2022-07-30T05:55:58Z</time>
      </trkpt>
      <trkpt lat="46.47213" lon="5.31243">
        <ele>233.8</ele>
        <time>2022-07-30T05:56:02Z</time>
      </trkpt>
      <trkpt lat="46.472" lon="5.31263">
        <ele>233.8</ele>
        <time>2022-07-30T05:56:06Z</time>
      </trkpt>
      <trkpt lat="46.47196" lon="5.3127">
        <ele>233.8</ele>
        <time>2022-07-30T05:56:07Z</time>
      </trkpt>
      <trkpt lat="46.47163" lon="5.31321">
        <ele>234.6</ele>
        <time>2022-07-30T05:56:14Z</time>
      </trkpt>
      <trkpt lat="46.47153" lon="5.31335">
        <ele>234.6</ele>
        <time>2022-07-30T05:56:16Z</time>
      </trkpt>
      <trkpt lat="46.47129" lon="5.3137">
        <ele>234.8</ele>
        <time>2022-07-30T05:56:21Z</time>
      </trkpt>
      <trkpt lat="46.47098" lon="5.31413">
        <ele>235</ele>
        <time>2022-07-30T05:56:28Z</time>
      </trkpt>
      <trkpt lat="46.47061" lon="5.3146">
        <ele>235</ele>
        <time>2022-07-30T05:56:36Z</time>
      </trkpt>
      <trkpt lat="46.47029" lon="5.31499">
        <ele>235</ele>
        <time>2022-07-30T05:56:43Z</time>
      </trkpt>
      <trkpt lat="46.46988" lon="5.31551">
        <ele>235.4</ele>
        <time>2022-07-30T05:56:52Z</time>
      </trkpt>
      <trkpt lat="46.46983" lon="5.31556">
        <ele>235.6</ele>
        <time>2022-07-30T05:56:53Z</time>
      </trkpt>
      <trkpt lat="46.46956" lon="5.3159">
        <ele>236.2</ele>
        <time>2022-07-30T05:56:59Z</time>
      </trkpt>
      <trkpt lat="46.46951" lon="5.31595">
        <ele>236.4</ele>
        <time>2022-07-30T05:57:00Z</time>
      </trkpt>
      <trkpt lat="46.46926" lon="5.31625">
        <ele>236.6</ele>
        <time>2022-07-30T05:57:06Z</time>
      </trkpt>
      <trkpt lat="46.46922" lon="5.3163">
        <ele>236.8</ele>
        <time>2022-07-30T05:57:07Z</time>
      </trkpt>
      <trkpt lat="46.46899" lon="5.31658">
        <ele>236.8</ele>
        <time>2022-07-30T05:57:12Z</time>
      </trkpt>
      <trkpt lat="46.46876" lon="5.31686">
        <ele>236.6</ele>
        <time>2022-07-30T05:57:16Z</time>
      </trkpt>
      <trkpt lat="46.46842" lon="5.3173">
        <ele>236</ele>
        <time>2022-07-30T05:57:22Z</time>
      </trkpt>
      <trkpt lat="46.46796" lon="5.31788">
        <ele>235.6</ele>
        <time>2022-07-30T05:57:30Z</time>
      </trkpt>
      <trkpt lat="46.46779" lon="5.31809">
        <ele>235.2</ele>
        <time>2022-07-30T05:57:33Z</time>
      </trkpt>
      <trkpt lat="46.46735" lon="5.3186">
        <ele>234.8</ele>
        <time>2022-07-30T05:57:41Z</time>
      </trkpt>
      <trkpt lat="46.46685" lon="5.319">
        <ele>234.6</ele>
        <time>2022-07-30T05:57:49Z</time>
      </trkpt>
      <trkpt lat="46.46679" lon="5.31905">
        <ele>234.6</ele>
        <time>2022-07-30T05:57:50Z</time>
      </trkpt>
      <trkpt lat="46.46642" lon="5.31941">
        <ele>234.8</ele>
        <time>2022-07-30T05:57:57Z</time>
      </trkpt>
      <trkpt lat="46.46618" lon="5.31978">
        <ele>235.4</ele>
        <time>2022-07-30T05:58:03Z</time>
      </trkpt>
      <trkpt lat="46.46582" lon="5.32042">
        <ele>235.6</ele>
        <time>2022-07-30T05:58:12Z</time>
      </trkpt>
      <trkpt lat="46.46569" lon="5.32064">
        <ele>235.6</ele>
        <time>2022-07-30T05:58:15Z</time>
      </trkpt>
      <trkpt lat="46.46533" lon="5.32129">
        <ele>235.6</ele>
        <time>2022-07-30T05:58:24Z</time>
      </trkpt>
      <trkpt lat="46.46525" lon="5.32144">
        <ele>235.6</ele>
        <time>2022-07-30T05:58:26Z</time>
      </trkpt>
      <trkpt lat="46.46498" lon="5.32194">
        <ele>235.8</ele>
        <time>2022-07-30T05:58:33Z</time>
      </trkpt>
      <trkpt lat="46.46483" lon="5.32222">
        <ele>236</ele>
        <time>2022-07-30T05:58:37Z</time>
      </trkpt>
      <trkpt lat="46.46463" lon="5.32257">
        <ele>236.4</ele>
        <time>2022-07-30T05:58:42Z</time>
      </trkpt>
      <trkpt lat="46.46429" lon="5.3232">
        <ele>236.6</ele>
        <time>2022-07-30T05:58:51Z</time>
      </trkpt>
      <trkpt lat="46.46421" lon="5.32334">
        <ele>236.6</ele>
        <time>2022-07-30T05:58:53Z</time>
      </trkpt>
      <trkpt lat="46.46388" lon="5.32399">
        <ele>237</ele>
        <time>2022-07-30T05:59:02Z</time>
      </trkpt>
      <trkpt lat="46.46384" lon="5.32407">
        <ele>237</ele>
        <time>2022-07-30T05:59:03Z</time>
      </trkpt>
      <trkpt lat="46.46378" lon="5.32423">
        <ele>237</ele>
        <time>2022-07-30T05:59:05Z</time>
      </trkpt>
      <trkpt lat="46.4636" lon="5.32473">
        <ele>237</ele>
        <time>2022-07-30T05:59:11Z</time>
      </trkpt>
      <trkpt lat="46.46339" lon="5.32522">
        <ele>236.8</ele>
        <time>2022-07-30T05:59:17Z</time>
      </trkpt>
      <trkpt lat="46.4633" lon="5.32548">
        <ele>236.6</ele>
        <time>2022-07-30T05:59:20Z</time>
      </trkpt>
      <trkpt lat="46.4632" lon="5.32594">
        <ele>236.2</ele>
        <time>2022-07-30T05:59:25Z</time>
      </trkpt>
      <trkpt lat="46.46318" lon="5.32613">
        <ele>236</ele>
        <time>2022-07-30T05:59:27Z</time>
      </trkpt>
      <trkpt lat="46.46317" lon="5.32644">
        <ele>236</ele>
        <time>2022-07-30T05:59:30Z</time>
      </trkpt>
      <trkpt lat="46.46319" lon="5.32723">
        <ele>236</ele>
        <time>2022-07-30T05:59:38Z</time>
      </trkpt>
      <trkpt lat="46.46318" lon="5.32742">
        <ele>236</ele>
        <time>2022-07-30T05:59:40Z</time>
      </trkpt>
      <trkpt lat="46.46314" lon="5.32769">
        <ele>236</ele>
        <time>2022-07-30T05:59:43Z</time>
      </trkpt>
      <trkpt lat="46.46308" lon="5.32787">
        <ele>236</ele>
        <time>2022-07-30T05:59:45Z</time>
      </trkpt>
      <trkpt lat="46.46301" lon="5.32802">
        <ele>236</ele>
        <time>2022-07-30T05:59:47Z</time>
      </trkpt>
      <trkpt lat="46.46269" lon="5.32847">
        <ele>236.2</ele>
        <time>2022-07-30T05:59:54Z</time>
      </trkpt>
      <trkpt lat="46.46235" lon="5.32894">
        <ele>236.4</ele>
        <time>2022-07-30T06:00:01Z</time>
      </trkpt>
      <trkpt lat="46.46193" lon="5.32948">
        <ele>236</ele>
        <time>2022-07-30T06:00:09Z</time>
      </trkpt>
      <trkpt lat="46.46157" lon="5.32976">
        <ele>236.2</ele>
        <time>2022-07-30T06:00:15Z</time>
      </trkpt>
      <trkpt lat="46.46123" lon="5.32998">
        <ele>237</ele>
        <time>2022-07-30T06:00:21Z</time>
      </trkpt>
      <trkpt lat="46.46112" lon="5.33005">
        <ele>237.4</ele>
        <time>2022-07-30T06:00:23Z</time>
      </trkpt>
      <trkpt lat="46.46091" lon="5.33017">
        <ele>238</ele>
        <time>2022-07-30T06:00:27Z</time>
      </trkpt>
      <trkpt lat="46.46066" lon="5.33036">
        <ele>238.4</ele>
        <time>2022-07-30T06:00:32Z</time>
      </trkpt>
      <trkpt lat="46.46039" lon="5.33059">
        <ele>238.6</ele>
        <time>2022-07-30T06:00:37Z</time>
      </trkpt>
      <trkpt lat="46.46022" lon="5.33075">
        <ele>238.6</ele>
        <time>2022-07-30T06:00:40Z</time>
      </trkpt>
      <trkpt lat="46.45973" lon="5.33124">
        <ele>238.4</ele>
        <time>2022-07-30T06:00:49Z</time>
      </trkpt>
      <trkpt lat="46.45929" lon="5.33172">
        <ele>238.8</ele>
        <time>2022-07-30T06:00:58Z</time>
      </trkpt>
      <trkpt lat="46.45924" lon="5.33178">
        <ele>239</ele>
        <time>2022-07-30T06:00:59Z</time>
      </trkpt>
      <trkpt lat="46.45879" lon="5.33227">
        <ele>239.6</ele>
        <time>2022-07-30T06:01:08Z</time>
      </trkpt>
      <trkpt lat="46.45875" lon="5.33232">
        <ele>239.6</ele>
        <time>2022-07-30T06:01:09Z</time>
      </trkpt>
      <trkpt lat="46.45848" lon="5.3327">
        <ele>239.8</ele>
        <time>2022-07-30T06:01:15Z</time>
      </trkpt>
      <trkpt lat="46.45814" lon="5.33334">
        <ele>240.2</ele>
        <time>2022-07-30T06:01:24Z</time>
      </trkpt>
      <trkpt lat="46.4581" lon="5.33341">
        <ele>240.2</ele>
        <time>2022-07-30T06:01:25Z</time>
      </trkpt>
      <trkpt lat="46.45785" lon="5.33391">
        <ele>240.4</ele>
        <time>2022-07-30T06:01:32Z</time>
      </trkpt>
      <trkpt lat="46.4577" lon="5.33426">
        <ele>240.8</ele>
        <time>2022-07-30T06:01:37Z</time>
      </trkpt>
      <trkpt lat="46.45763" lon="5.3344">
        <ele>241</ele>
        <time>2022-07-30T06:01:39Z</time>
      </trkpt>
      <trkpt lat="46.4576" lon="5.33448">
        <ele>241</ele>
        <time>2022-07-30T06:01:40Z</time>
      </trkpt>
      <trkpt lat="46.45731" lon="5.33514">
        <ele>241.6</ele>
        <time>2022-07-30T06:01:49Z</time>
      </trkpt>
      <trkpt lat="46.45727" lon="5.33522">
        <ele>241.6</ele>
        <time>2022-07-30T06:01:50Z</time>
      </trkpt>
      <trkpt lat="46.45716" lon="5.33551">
        <ele>241.8</ele>
        <time>2022-07-30T06:01:54Z</time>
      </trkpt>
      <trkpt lat="46.45703" lon="5.33586">
        <ele>242.6</ele>
        <time>2022-07-30T06:01:59Z</time>
      </trkpt>
      <trkpt lat="46.457" lon="5.33593">
        <ele>243</ele>
        <time>2022-07-30T06:02:00Z</time>
      </trkpt>
      <trkpt lat="46.45688" lon="5.33622">
        <ele>244</ele>
        <time>2022-07-30T06:02:04Z</time>
      </trkpt>
      <trkpt lat="46.45681" lon="5.33638">
        <ele>244.4</ele>
        <time>2022-07-30T06:02:06Z</time>
      </trkpt>
      <trkpt lat="46.4566" lon="5.3369">
        <ele>244.8</ele>
        <time>2022-07-30T06:02:13Z</time>
      </trkpt>
      <trkpt lat="46.45652" lon="5.3371">
        <ele>245.2</ele>
        <time>2022-07-30T06:02:16Z</time>
      </trkpt>
      <trkpt lat="46.45635" lon="5.33751">
        <ele>245.8</ele>
        <time>2022-07-30T06:02:22Z</time>
      </trkpt>
      <trkpt lat="46.45626" lon="5.3377">
        <ele>246.2</ele>
        <time>2022-07-30T06:02:25Z</time>
      </trkpt>
      <trkpt lat="46.45612" lon="5.338">
        <ele>246.8</ele>
        <time>2022-07-30T06:02:30Z</time>
      </trkpt>
      <trkpt lat="46.45601" lon="5.33824">
        <ele>247.2</ele>
        <time>2022-07-30T06:02:34Z</time>
      </trkpt>
      <trkpt lat="46.45591" lon="5.33849">
        <ele>247.8</ele>
        <time>2022-07-30T06:02:38Z</time>
      </trkpt>
      <trkpt lat="46.45584" lon="5.33866">
        <ele>248.2</ele>
        <time>2022-07-30T06:02:41Z</time>
      </trkpt>
      <trkpt lat="46.4557" lon="5.33902">
        <ele>249.4</ele>
        <time>2022-07-30T06:02:47Z</time>
      </trkpt>
      <trkpt lat="46.45557" lon="5.33929">
        <ele>250.4</ele>
        <time>2022-07-30T06:02:52Z</time>
      </trkpt>
      <trkpt lat="46.45549" lon="5.33943">
        <ele>251</ele>
        <time>2022-07-30T06:02:55Z</time>
      </trkpt>
      <trkpt lat="46.45538" lon="5.33961">
        <ele>251.4</ele>
        <time>2022-07-30T06:02:59Z</time>
      </trkpt>
      <trkpt lat="46.45534" lon="5.33966">
        <ele>251.6</ele>
        <time>2022-07-30T06:03:00Z</time>
      </trkpt>
      <trkpt lat="46.45528" lon="5.33975">
        <ele>252</ele>
        <time>2022-07-30T06:03:02Z</time>
      </trkpt>
      <trkpt lat="46.45517" lon="5.33987">
        <ele>252.6</ele>
        <time>2022-07-30T06:03:05Z</time>
      </trkpt>
      <trkpt lat="46.4551" lon="5.33995">
        <ele>253</ele>
        <time>2022-07-30T06:03:07Z</time>
      </trkpt>
      <trkpt lat="46.45503" lon="5.34002">
        <ele>253.4</ele>
        <time>2022-07-30T06:03:09Z</time>
      </trkpt>
      <trkpt lat="46.45495" lon="5.34008">
        <ele>253.8</ele>
        <time>2022-07-30T06:03:11Z</time>
      </trkpt>
      <trkpt lat="46.45491" lon="5.34011">
        <ele>254</ele>
        <time>2022-07-30T06:03:12Z</time>
      </trkpt>
      <trkpt lat="46.45479" lon="5.34017">
        <ele>254.4</ele>
        <time>2022-07-30T06:03:15Z</time>
      </trkpt>
      <trkpt lat="46.45467" lon="5.34023">
        <ele>254.8</ele>
        <time>2022-07-30T06:03:18Z</time>
      </trkpt>
      <trkpt lat="46.45463" lon="5.34025">
        <ele>255.2</ele>
        <time>2022-07-30T06:03:19Z</time>
      </trkpt>
      <trkpt lat="46.45444" lon="5.34032">
        <ele>256.2</ele>
        <time>2022-07-30T06:03:23Z</time>
      </trkpt>
      <trkpt lat="46.45429" lon="5.34036">
        <ele>257</ele>
        <time>2022-07-30T06:03:26Z</time>
      </trkpt>
      <trkpt lat="46.45421" lon="5.34038">
        <ele>257.2</ele>
        <time>2022-07-30T06:03:28Z</time>
      </trkpt>
      <trkpt lat="46.45402" lon="5.3404">
        <ele>258</ele>
        <time>2022-07-30T06:03:32Z</time>
      </trkpt>
      <trkpt lat="46.45391" lon="5.34043">
        <ele>258.4</ele>
        <time>2022-07-30T06:03:34Z</time>
      </trkpt>
      <trkpt lat="46.45382" lon="5.34044">
        <ele>258.8</ele>
        <time>2022-07-30T06:03:36Z</time>
      </trkpt>
      <trkpt lat="46.45377" lon="5.34044">
        <ele>259.2</ele>
        <time>2022-07-30T06:03:37Z</time>
      </trkpt>
      <trkpt lat="46.45355" lon="5.34047">
        <ele>259.6</ele>
        <time>2022-07-30T06:03:42Z</time>
      </trkpt>
      <trkpt lat="46.45351" lon="5.34048">
        <ele>259.6</ele>
        <time>2022-07-30T06:03:43Z</time>
      </trkpt>
      <trkpt lat="46.45342" lon="5.34051">
        <ele>259.6</ele>
        <time>2022-07-30T06:03:45Z</time>
      </trkpt>
      <trkpt lat="46.45329" lon="5.34052">
        <ele>260</ele>
        <time>2022-07-30T06:03:48Z</time>
      </trkpt>
      <trkpt lat="46.45323" lon="5.34053">
        <ele>260</ele>
        <time>2022-07-30T06:03:49Z</time>
      </trkpt>
      <trkpt lat="46.45313" lon="5.34056">
        <ele>260.4</ele>
        <time>2022-07-30T06:03:51Z</time>
      </trkpt>
      <trkpt lat="46.45303" lon="5.34059">
        <ele>260.6</ele>
        <time>2022-07-30T06:03:53Z</time>
      </trkpt>
      <trkpt lat="46.45269" lon="5.34066">
        <ele>261.2</ele>
        <time>2022-07-30T06:03:59Z</time>
      </trkpt>
      <trkpt lat="46.45251" lon="5.34071">
        <ele>261.4</ele>
        <time>2022-07-30T06:04:02Z</time>
      </trkpt>
      <trkpt lat="46.45217" lon="5.34078">
        <ele>262.2</ele>
        <time>2022-07-30T06:04:08Z</time>
      </trkpt>
      <trkpt lat="46.45195" lon="5.34084">
        <ele>262.6</ele>
        <time>2022-07-30T06:04:12Z</time>
      </trkpt>
      <trkpt lat="46.45168" lon="5.3409">
        <ele>263</ele>
        <time>2022-07-30T06:04:17Z</time>
      </trkpt>
      <trkpt lat="46.45129" lon="5.34099">
        <ele>263.6</ele>
        <time>2022-07-30T06:04:24Z</time>
      </trkpt>
      <trkpt lat="46.45112" lon="5.34102">
        <ele>264</ele>
        <time>2022-07-30T06:04:27Z</time>
      </trkpt>
      <trkpt lat="46.45056" lon="5.34113">
        <ele>263.6</ele>
        <time>2022-07-30T06:04:36Z</time>
      </trkpt>
      <trkpt lat="46.45019" lon="5.34115">
        <ele>263</ele>
        <time>2022-07-30T06:04:41Z</time>
      </trkpt>
      <trkpt lat="46.45011" lon="5.34114">
        <ele>262.6</ele>
        <time>2022-07-30T06:04:42Z</time>
      </trkpt>
      <trkpt lat="46.44977" lon="5.34108">
        <ele>261.4</ele>
        <time>2022-07-30T06:04:46Z</time>
      </trkpt>
      <trkpt lat="46.44969" lon="5.34105">
        <ele>261.2</ele>
        <time>2022-07-30T06:04:47Z</time>
      </trkpt>
      <trkpt lat="46.44952" lon="5.34101">
        <ele>260.2</ele>
        <time>2022-07-30T06:04:49Z</time>
      </trkpt>
      <trkpt lat="46.44916" lon="5.3409">
        <ele>258.8</ele>
        <time>2022-07-30T06:04:53Z</time>
      </trkpt>
      <trkpt lat="46.44907" lon="5.34087">
        <ele>258.4</ele>
        <time>2022-07-30T06:04:54Z</time>
      </trkpt>
      <trkpt lat="46.44888" lon="5.34084">
        <ele>257.6</ele>
        <time>2022-07-30T06:04:56Z</time>
      </trkpt>
      <trkpt lat="46.44879" lon="5.34083">
        <ele>257.4</ele>
        <time>2022-07-30T06:04:57Z</time>
      </trkpt>
      <trkpt lat="46.44859" lon="5.34085">
        <ele>256.6</ele>
        <time>2022-07-30T06:04:59Z</time>
      </trkpt>
      <trkpt lat="46.44841" lon="5.34094">
        <ele>255.8</ele>
        <time>2022-07-30T06:05:01Z</time>
      </trkpt>
      <trkpt lat="46.44832" lon="5.34101">
        <ele>255</ele>
        <time>2022-07-30T06:05:02Z</time>
      </trkpt>
      <trkpt lat="46.44816" lon="5.34117">
        <ele>253.8</ele>
        <time>2022-07-30T06:05:04Z</time>
      </trkpt>
      <trkpt lat="46.44803" lon="5.34138">
        <ele>252.6</ele>
        <time>2022-07-30T06:05:06Z</time>
      </trkpt>
      <trkpt lat="46.44797" lon="5.34149">
        <ele>252.2</ele>
        <time>2022-07-30T06:05:07Z</time>
      </trkpt>
      <trkpt lat="46.44781" lon="5.34186">
        <ele>251.6</ele>
        <time>2022-07-30T06:05:10Z</time>
      </trkpt>
      <trkpt lat="46.44776" lon="5.34199">
        <ele>250.8</ele>
        <time>2022-07-30T06:05:11Z</time>
      </trkpt>
      <trkpt lat="46.4477" lon="5.34211">
        <ele>250</ele>
        <time>2022-07-30T06:05:12Z</time>
      </trkpt>
      <trkpt lat="46.44758" lon="5.34234">
        <ele>249</ele>
        <time>2022-07-30T06:05:14Z</time>
      </trkpt>
      <trkpt lat="46.44751" lon="5.34244">
        <ele>248.8</ele>
        <time>2022-07-30T06:05:15Z</time>
      </trkpt>
      <trkpt lat="46.44743" lon="5.34254">
        <ele>248.4</ele>
        <time>2022-07-30T06:05:16Z</time>
      </trkpt>
      <trkpt lat="46.44725" lon="5.34269">
        <ele>247.4</ele>
        <time>2022-07-30T06:05:18Z</time>
      </trkpt>
      <trkpt lat="46.44716" lon="5.34274">
        <ele>246.8</ele>
        <time>2022-07-30T06:05:19Z</time>
      </trkpt>
      <trkpt lat="46.44706" lon="5.34276">
        <ele>246.6</ele>
        <time>2022-07-30T06:05:20Z</time>
      </trkpt>
      <trkpt lat="46.44696" lon="5.34276">
        <ele>246.2</ele>
        <time>2022-07-30T06:05:21Z</time>
      </trkpt>
      <trkpt lat="46.44687" lon="5.34276">
        <ele>246.2</ele>
        <time>2022-07-30T06:05:22Z</time>
      </trkpt>
      <trkpt lat="46.44678" lon="5.34277">
        <ele>245.6</ele>
        <time>2022-07-30T06:05:23Z</time>
      </trkpt>
      <trkpt lat="46.4467" lon="5.34281">
        <ele>245.2</ele>
        <time>2022-07-30T06:05:24Z</time>
      </trkpt>
      <trkpt lat="46.44664" lon="5.34286">
        <ele>244.6</ele>
        <time>2022-07-30T06:05:25Z</time>
      </trkpt>
      <trkpt lat="46.4466" lon="5.34293">
        <ele>244</ele>
        <time>2022-07-30T06:05:26Z</time>
      </trkpt>
      <trkpt lat="46.44655" lon="5.34299">
        <ele>243.6</ele>
        <time>2022-07-30T06:05:27Z</time>
      </trkpt>
      <trkpt lat="46.44649" lon="5.34301">
        <ele>243.4</ele>
        <time>2022-07-30T06:05:28Z</time>
      </trkpt>
      <trkpt lat="46.44643" lon="5.34299">
        <ele>243.2</ele>
        <time>2022-07-30T06:05:29Z</time>
      </trkpt>
      <trkpt lat="46.44637" lon="5.34295">
        <ele>243</ele>
        <time>2022-07-30T06:05:30Z</time>
      </trkpt>
      <trkpt lat="46.44606" lon="5.34268">
        <ele>241.8</ele>
        <time>2022-07-30T06:05:35Z</time>
      </trkpt>
      <trkpt lat="46.44586" lon="5.34254">
        <ele>241.8</ele>
        <time>2022-07-30T06:05:38Z</time>
      </trkpt>
      <trkpt lat="46.44556" lon="5.34239">
        <ele>240.8</ele>
        <time>2022-07-30T06:05:42Z</time>
      </trkpt>
      <trkpt lat="46.4455" lon="5.34231">
        <ele>240.6</ele>
        <time>2022-07-30T06:05:43Z</time>
      </trkpt>
      <trkpt lat="46.44542" lon="5.34201">
        <ele>240</ele>
        <time>2022-07-30T06:05:46Z</time>
      </trkpt>
      <trkpt lat="46.44542" lon="5.34188">
        <ele>239.8</ele>
        <time>2022-07-30T06:05:47Z</time>
      </trkpt>
      <trkpt lat="46.44539" lon="5.34161">
        <ele>238.8</ele>
        <time>2022-07-30T06:05:49Z</time>
      </trkpt>
      <trkpt lat="46.44536" lon="5.34148">
        <ele>238.8</ele>
        <time>2022-07-30T06:05:50Z</time>
      </trkpt>
      <trkpt lat="46.44523" lon="5.34097">
        <ele>237.6</ele>
        <time>2022-07-30T06:05:54Z</time>
      </trkpt>
      <trkpt lat="46.44511" lon="5.3406">
        <ele>236.6</ele>
        <time>2022-07-30T06:05:57Z</time>
      </trkpt>
      <trkpt lat="46.44502" lon="5.34037">
        <ele>235.8</ele>
        <time>2022-07-30T06:05:59Z</time>
      </trkpt>
      <trkpt lat="46.44492" lon="5.34017">
        <ele>235.4</ele>
        <time>2022-07-30T06:06:01Z</time>
      </trkpt>
      <trkpt lat="46.44475" lon="5.33988">
        <ele>235.2</ele>
        <time>2022-07-30T06:06:04Z</time>
      </trkpt>
      <trkpt lat="46.44439" lon="5.33952">
        <ele>234.4</ele>
        <time>2022-07-30T06:06:09Z</time>
      </trkpt>
      <trkpt lat="46.44394" lon="5.33919">
        <ele>234</ele>
        <time>2022-07-30T06:06:15Z</time>
      </trkpt>
      <trkpt lat="46.44367" lon="5.3389">
        <ele>233.2</ele>
        <time>2022-07-30T06:06:19Z</time>
      </trkpt>
      <trkpt lat="46.44361" lon="5.33881">
        <ele>233</ele>
        <time>2022-07-30T06:06:20Z</time>
      </trkpt>
      <trkpt lat="46.44319" lon="5.33824">
        <ele>232.4</ele>
        <time>2022-07-30T06:06:27Z</time>
      </trkpt>
      <trkpt lat="46.44279" lon="5.33785">
        <ele>232</ele>
        <time>2022-07-30T06:06:33Z</time>
      </trkpt>
      <trkpt lat="46.44229" lon="5.33749">
        <ele>231.8</ele>
        <time>2022-07-30T06:06:40Z</time>
      </trkpt>
      <trkpt lat="46.44181" lon="5.33709">
        <ele>231.2</ele>
        <time>2022-07-30T06:06:47Z</time>
      </trkpt>
      <trkpt lat="46.44174" lon="5.33702">
        <ele>231.2</ele>
        <time>2022-07-30T06:06:48Z</time>
      </trkpt>
      <trkpt lat="46.44168" lon="5.33696">
        <ele>231.2</ele>
        <time>2022-07-30T06:06:49Z</time>
      </trkpt>
      <trkpt lat="46.44143" lon="5.33669">
        <ele>231</ele>
        <time>2022-07-30T06:06:53Z</time>
      </trkpt>
      <trkpt lat="46.44112" lon="5.33635">
        <ele>230.6</ele>
        <time>2022-07-30T06:06:58Z</time>
      </trkpt>
      <trkpt lat="46.44088" lon="5.33607">
        <ele>230.6</ele>
        <time>2022-07-30T06:07:02Z</time>
      </trkpt>
      <trkpt lat="46.44079" lon="5.33588">
        <ele>230.4</ele>
        <time>2022-07-30T06:07:04Z</time>
      </trkpt>
      <trkpt lat="46.44069" lon="5.33557">
        <ele>230.6</ele>
        <time>2022-07-30T06:07:07Z</time>
      </trkpt>
      <trkpt lat="46.44067" lon="5.33547">
        <ele>230.6</ele>
        <time>2022-07-30T06:07:08Z</time>
      </trkpt>
      <trkpt lat="46.44064" lon="5.33537">
        <ele>230.4</ele>
        <time>2022-07-30T06:07:09Z</time>
      </trkpt>
      <trkpt lat="46.44052" lon="5.33521">
        <ele>230.4</ele>
        <time>2022-07-30T06:07:11Z</time>
      </trkpt>
      <trkpt lat="46.44037" lon="5.33513">
        <ele>230.2</ele>
        <time>2022-07-30T06:07:13Z</time>
      </trkpt>
      <trkpt lat="46.4403" lon="5.3351">
        <ele>230.2</ele>
        <time>2022-07-30T06:07:14Z</time>
      </trkpt>
      <trkpt lat="46.44022" lon="5.33508">
        <ele>230.2</ele>
        <time>2022-07-30T06:07:15Z</time>
      </trkpt>
      <trkpt lat="46.43984" lon="5.33493">
        <ele>229.8</ele>
        <time>2022-07-30T06:07:20Z</time>
      </trkpt>
      <trkpt lat="46.43934" lon="5.33462">
        <ele>229.6</ele>
        <time>2022-07-30T06:07:27Z</time>
      </trkpt>
      <trkpt lat="46.43927" lon="5.33458">
        <ele>229.4</ele>
        <time>2022-07-30T06:07:28Z</time>
      </trkpt>
      <trkpt lat="46.43905" lon="5.33446">
        <ele>229.4</ele>
        <time>2022-07-30T06:07:31Z</time>
      </trkpt>
      <trkpt lat="46.4389" lon="5.33441">
        <ele>229.2</ele>
        <time>2022-07-30T06:07:33Z</time>
      </trkpt>
      <trkpt lat="46.43875" lon="5.33436">
        <ele>229</ele>
        <time>2022-07-30T06:07:35Z</time>
      </trkpt>
      <trkpt lat="46.43822" lon="5.33429">
        <ele>228.8</ele>
        <time>2022-07-30T06:07:42Z</time>
      </trkpt>
      <trkpt lat="46.43776" lon="5.33434">
        <ele>228.6</ele>
        <time>2022-07-30T06:07:48Z</time>
      </trkpt>
      <trkpt lat="46.43753" lon="5.33438">
        <ele>228.2</ele>
        <time>2022-07-30T06:07:51Z</time>
      </trkpt>
      <trkpt lat="46.43723" lon="5.33443">
        <ele>228</ele>
        <time>2022-07-30T06:07:55Z</time>
      </trkpt>
      <trkpt lat="46.43701" lon="5.33444">
        <ele>227.6</ele>
        <time>2022-07-30T06:07:58Z</time>
      </trkpt>
      <trkpt lat="46.43643" lon="5.33446">
        <ele>228</ele>
        <time>2022-07-30T06:08:06Z</time>
      </trkpt>
      <trkpt lat="46.43636" lon="5.33447">
        <ele>228.2</ele>
        <time>2022-07-30T06:08:07Z</time>
      </trkpt>
      <trkpt lat="46.4359" lon="5.33447">
        <ele>229</ele>
        <time>2022-07-30T06:08:14Z</time>
      </trkpt>
      <trkpt lat="46.43577" lon="5.33446">
        <ele>229.2</ele>
        <time>2022-07-30T06:08:16Z</time>
      </trkpt>
      <trkpt lat="46.43551" lon="5.33443">
        <ele>229.4</ele>
        <time>2022-07-30T06:08:20Z</time>
      </trkpt>
      <trkpt lat="46.43545" lon="5.33443">
        <ele>229.4</ele>
        <time>2022-07-30T06:08:21Z</time>
      </trkpt>
      <trkpt lat="46.43538" lon="5.33445">
        <ele>229.4</ele>
        <time>2022-07-30T06:08:22Z</time>
      </trkpt>
      <trkpt lat="46.43526" lon="5.33453">
        <ele>229.4</ele>
        <time>2022-07-30T06:08:24Z</time>
      </trkpt>
      <trkpt lat="46.43495" lon="5.33493">
        <ele>224.4</ele>
        <time>2022-07-30T06:08:30Z</time>
      </trkpt>
      <trkpt lat="46.43463" lon="5.33541">
        <ele>229</ele>
        <time>2022-07-30T06:08:37Z</time>
      </trkpt>
      <trkpt lat="46.43458" lon="5.33556">
        <ele>229.2</ele>
        <time>2022-07-30T06:08:39Z</time>
      </trkpt>
      <trkpt lat="46.43455" lon="5.33572">
        <ele>229.4</ele>
        <time>2022-07-30T06:08:41Z</time>
      </trkpt>
      <trkpt lat="46.43454" lon="5.33611">
        <ele>230.4</ele>
        <time>2022-07-30T06:08:46Z</time>
      </trkpt>
      <trkpt lat="46.43454" lon="5.33618">
        <ele>230.8</ele>
        <time>2022-07-30T06:08:47Z</time>
      </trkpt>
      <trkpt lat="46.43456" lon="5.33631">
        <ele>231.4</ele>
        <time>2022-07-30T06:08:49Z</time>
      </trkpt>
      <trkpt lat="46.43459" lon="5.33651">
        <ele>232</ele>
        <time>2022-07-30T06:08:52Z</time>
      </trkpt>
      <trkpt lat="46.43463" lon="5.33668">
        <ele>232.6</ele>
        <time>2022-07-30T06:08:55Z</time>
      </trkpt>
      <trkpt lat="46.43465" lon="5.33674">
        <ele>233</ele>
        <time>2022-07-30T06:08:56Z</time>
      </trkpt>
      <trkpt lat="46.43468" lon="5.3368">
        <ele>233.2</ele>
        <time>2022-07-30T06:08:57Z</time>
      </trkpt>
      <trkpt lat="46.4347" lon="5.33685">
        <ele>233.4</ele>
        <time>2022-07-30T06:08:58Z</time>
      </trkpt>
      <trkpt lat="46.43472" lon="5.33689">
        <ele>233.8</ele>
        <time>2022-07-30T06:08:59Z</time>
      </trkpt>
      <trkpt lat="46.43477" lon="5.33699">
        <ele>234.4</ele>
        <time>2022-07-30T06:09:01Z</time>
      </trkpt>
      <trkpt lat="46.43485" lon="5.33714">
        <ele>234.8</ele>
        <time>2022-07-30T06:09:04Z</time>
      </trkpt>
      <trkpt lat="46.43495" lon="5.33734">
        <ele>235.4</ele>
        <time>2022-07-30T06:09:08Z</time>
      </trkpt>
      <trkpt lat="46.43499" lon="5.33746">
        <ele>236</ele>
        <time>2022-07-30T06:09:10Z</time>
      </trkpt>
      <trkpt lat="46.43501" lon="5.3376">
        <ele>236.6</ele>
        <time>2022-07-30T06:09:12Z</time>
      </trkpt>
      <trkpt lat="46.435" lon="5.33766">
        <ele>236.8</ele>
        <time>2022-07-30T06:09:13Z</time>
      </trkpt>
      <trkpt lat="46.435" lon="5.33773">
        <ele>237</ele>
        <time>2022-07-30T06:09:14Z</time>
      </trkpt>
      <trkpt lat="46.43498" lon="5.33794">
        <ele>237.4</ele>
        <time>2022-07-30T06:09:17Z</time>
      </trkpt>
      <trkpt lat="46.43496" lon="5.33814">
        <ele>238</ele>
        <time>2022-07-30T06:09:20Z</time>
      </trkpt>
      <trkpt lat="46.43495" lon="5.33821">
        <ele>238.2</ele>
        <time>2022-07-30T06:09:21Z</time>
      </trkpt>
      <trkpt lat="46.43492" lon="5.33847">
        <ele>238.8</ele>
        <time>2022-07-30T06:09:25Z</time>
      </trkpt>
      <trkpt lat="46.43489" lon="5.33871">
        <ele>239.2</ele>
        <time>2022-07-30T06:09:29Z</time>
      </trkpt>
      <trkpt lat="46.43488" lon="5.3388">
        <ele>240</ele>
        <time>2022-07-30T06:09:31Z</time>
      </trkpt>
      <trkpt lat="46.43488" lon="5.33889">
        <ele>240.8</ele>
        <time>2022-07-30T06:09:33Z</time>
      </trkpt>
      <trkpt lat="46.43488" lon="5.33893">
        <ele>241</ele>
        <time>2022-07-30T06:09:34Z</time>
      </trkpt>
      <trkpt lat="46.43487" lon="5.33898">
        <ele>241.6</ele>
        <time>2022-07-30T06:09:35Z</time>
      </trkpt>
      <trkpt lat="46.43487" lon="5.33907">
        <ele>242</ele>
        <time>2022-07-30T06:09:37Z</time>
      </trkpt>
      <trkpt lat="46.43485" lon="5.3393">
        <ele>242.8</ele>
        <time>2022-07-30T06:09:41Z</time>
      </trkpt>
      <trkpt lat="46.43484" lon="5.33936">
        <ele>243.2</ele>
        <time>2022-07-30T06:09:42Z</time>
      </trkpt>
      <trkpt lat="46.43481" lon="5.33964">
        <ele>244.4</ele>
        <time>2022-07-30T06:09:47Z</time>
      </trkpt>
      <trkpt lat="46.43481" lon="5.3397">
        <ele>244.4</ele>
        <time>2022-07-30T06:09:48Z</time>
      </trkpt>
      <trkpt lat="46.43479" lon="5.33992">
        <ele>245.4</ele>
        <time>2022-07-30T06:09:52Z</time>
      </trkpt>
      <trkpt lat="46.43478" lon="5.34009">
        <ele>245.8</ele>
        <time>2022-07-30T06:09:55Z</time>
      </trkpt>
      <trkpt lat="46.43476" lon="5.34027">
        <ele>246.4</ele>
        <time>2022-07-30T06:09:58Z</time>
      </trkpt>
      <trkpt lat="46.43473" lon="5.34058">
        <ele>247</ele>
        <time>2022-07-30T06:10:03Z</time>
      </trkpt>
      <trkpt lat="46.43469" lon="5.34106">
        <ele>247.6</ele>
        <time>2022-07-30T06:10:10Z</time>
      </trkpt>
      <trkpt lat="46.43462" lon="5.34174">
        <ele>248.2</ele>
        <time>2022-07-30T06:10:20Z</time>
      </trkpt>
      <trkpt lat="46.43459" lon="5.34186">
        <ele>248.4</ele>
        <time>2022-07-30T06:10:22Z</time>
      </trkpt>
      <trkpt lat="46.43455" lon="5.34199">
        <ele>248.6</ele>
        <time>2022-07-30T06:10:24Z</time>
      </trkpt>
      <trkpt lat="46.43452" lon="5.34212">
        <ele>249</ele>
        <time>2022-07-30T06:10:26Z</time>
      </trkpt>
      <trkpt lat="46.43448" lon="5.34226">
        <ele>249.2</ele>
        <time>2022-07-30T06:10:28Z</time>
      </trkpt>
      <trkpt lat="46.43446" lon="5.34247">
        <ele>249.6</ele>
        <time>2022-07-30T06:10:31Z</time>
      </trkpt>
      <trkpt lat="46.43447" lon="5.34254">
        <ele>249.6</ele>
        <time>2022-07-30T06:10:32Z</time>
      </trkpt>
      <trkpt lat="46.43447" lon="5.34261">
        <ele>249.8</ele>
        <time>2022-07-30T06:10:33Z</time>
      </trkpt>
      <trkpt lat="46.43442" lon="5.34271">
        <ele>249.8</ele>
        <time>2022-07-30T06:10:35Z</time>
      </trkpt>
      <trkpt lat="46.4343" lon="5.34274">
        <ele>249.8</ele>
        <time>2022-07-30T06:10:37Z</time>
      </trkpt>
      <trkpt lat="46.43422" lon="5.34271">
        <ele>249.8</ele>
        <time>2022-07-30T06:10:38Z</time>
      </trkpt>
      <trkpt lat="46.43393" lon="5.34262">
        <ele>248.6</ele>
        <time>2022-07-30T06:10:41Z</time>
      </trkpt>
      <trkpt lat="46.43383" lon="5.34258">
        <ele>247.8</ele>
        <time>2022-07-30T06:10:42Z</time>
      </trkpt>
      <trkpt lat="46.43373" lon="5.34255">
        <ele>247.2</ele>
        <time>2022-07-30T06:10:43Z</time>
      </trkpt>
      <trkpt lat="46.43352" lon="5.34247">
        <ele>246</ele>
        <time>2022-07-30T06:10:45Z</time>
      </trkpt>
      <trkpt lat="46.43331" lon="5.34238">
        <ele>243.6</ele>
        <time>2022-07-30T06:10:47Z</time>
      </trkpt>
      <trkpt lat="46.43322" lon="5.34233">
        <ele>243</ele>
        <time>2022-07-30T06:10:48Z</time>
      </trkpt>
      <trkpt lat="46.43312" lon="5.34227">
        <ele>242</ele>
        <time>2022-07-30T06:10:49Z</time>
      </trkpt>
      <trkpt lat="46.43293" lon="5.34214">
        <ele>240.4</ele>
        <time>2022-07-30T06:10:51Z</time>
      </trkpt>
      <trkpt lat="46.43274" lon="5.34199">
        <ele>239</ele>
        <time>2022-07-30T06:10:53Z</time>
      </trkpt>
      <trkpt lat="46.43264" lon="5.34191">
        <ele>238.4</ele>
        <time>2022-07-30T06:10:54Z</time>
      </trkpt>
      <trkpt lat="46.43247" lon="5.34174">
        <ele>237.4</ele>
        <time>2022-07-30T06:10:56Z</time>
      </trkpt>
      <trkpt lat="46.43222" lon="5.34149">
        <ele>236.4</ele>
        <time>2022-07-30T06:10:59Z</time>
      </trkpt>
      <trkpt lat="46.43199" lon="5.34126">
        <ele>235.8</ele>
        <time>2022-07-30T06:11:02Z</time>
      </trkpt>
      <trkpt lat="46.43168" lon="5.34086">
        <ele>235.4</ele>
        <time>2022-07-30T06:11:07Z</time>
      </trkpt>
      <trkpt lat="46.43137" lon="5.34039">
        <ele>235.8</ele>
        <time>2022-07-30T06:11:13Z</time>
      </trkpt>
      <trkpt lat="46.43099" lon="5.3398">
        <ele>237.2</ele>
        <time>2022-07-30T06:11:21Z</time>
      </trkpt>
      <trkpt lat="46.43063" lon="5.33946">
        <ele>237.6</ele>
        <time>2022-07-30T06:11:27Z</time>
      </trkpt>
      <trkpt lat="46.43014" lon="5.33901">
        <ele>238</ele>
        <time>2022-07-30T06:11:35Z</time>
      </trkpt>
      <trkpt lat="46.42961" lon="5.33862">
        <ele>237.6</ele>
        <time>2022-07-30T06:11:43Z</time>
      </trkpt>
      <trkpt lat="46.4292" lon="5.3384">
        <ele>237.4</ele>
        <time>2022-07-30T06:11:49Z</time>
      </trkpt>
      <trkpt lat="46.42905" lon="5.33838">
        <ele>237.2</ele>
        <time>2022-07-30T06:11:51Z</time>
      </trkpt>
      <trkpt lat="46.42851" lon="5.33834">
        <ele>236.6</ele>
        <time>2022-07-30T06:11:58Z</time>
      </trkpt>
      <trkpt lat="46.42835" lon="5.33832">
        <ele>236</ele>
        <time>2022-07-30T06:12:00Z</time>
      </trkpt>
      <trkpt lat="46.42786" lon="5.33826">
        <ele>235.8</ele>
        <time>2022-07-30T06:12:07Z</time>
      </trkpt>
      <trkpt lat="46.42756" lon="5.33815">
        <ele>237.4</ele>
        <time>2022-07-30T06:12:13Z</time>
      </trkpt>
      <trkpt lat="46.42751" lon="5.33812">
        <ele>237.8</ele>
        <time>2022-07-30T06:12:14Z</time>
      </trkpt>
      <trkpt lat="46.42739" lon="5.33805">
        <ele>239</ele>
        <time>2022-07-30T06:12:17Z</time>
      </trkpt>
      <trkpt lat="46.42731" lon="5.338">
        <ele>239.2</ele>
        <time>2022-07-30T06:12:19Z</time>
      </trkpt>
      <trkpt lat="46.42722" lon="5.33796">
        <ele>239.6</ele>
        <time>2022-07-30T06:12:21Z</time>
      </trkpt>
      <trkpt lat="46.42713" lon="5.33794">
        <ele>240</ele>
        <time>2022-07-30T06:12:23Z</time>
      </trkpt>
      <trkpt lat="46.42699" lon="5.33791">
        <ele>241</ele>
        <time>2022-07-30T06:12:26Z</time>
      </trkpt>
      <trkpt lat="46.42688" lon="5.33791">
        <ele>241.2</ele>
        <time>2022-07-30T06:12:28Z</time>
      </trkpt>
      <trkpt lat="46.42663" lon="5.33792">
        <ele>242.2</ele>
        <time>2022-07-30T06:12:33Z</time>
      </trkpt>
      <trkpt lat="46.42657" lon="5.33792">
        <ele>242.2</ele>
        <time>2022-07-30T06:12:34Z</time>
      </trkpt>
      <trkpt lat="46.42608" lon="5.33798">
        <ele>242.4</ele>
        <time>2022-07-30T06:12:43Z</time>
      </trkpt>
      <trkpt lat="46.42576" lon="5.33791">
        <ele>243</ele>
        <time>2022-07-30T06:12:49Z</time>
      </trkpt>
      <trkpt lat="46.42566" lon="5.33786">
        <ele>243.2</ele>
        <time>2022-07-30T06:12:51Z</time>
      </trkpt>
      <trkpt lat="46.42549" lon="5.33775">
        <ele>244.2</ele>
        <time>2022-07-30T06:12:55Z</time>
      </trkpt>
      <trkpt lat="46.42541" lon="5.3377">
        <ele>244.6</ele>
        <time>2022-07-30T06:12:57Z</time>
      </trkpt>
      <trkpt lat="46.4252" lon="5.33757">
        <ele>245.6</ele>
        <time>2022-07-30T06:13:02Z</time>
      </trkpt>
      <trkpt lat="46.42517" lon="5.33755">
        <ele>245.8</ele>
        <time>2022-07-30T06:13:03Z</time>
      </trkpt>
      <trkpt lat="46.42503" lon="5.33746">
        <ele>246.8</ele>
        <time>2022-07-30T06:13:07Z</time>
      </trkpt>
      <trkpt lat="46.42499" lon="5.33743">
        <ele>247</ele>
        <time>2022-07-30T06:13:08Z</time>
      </trkpt>
      <trkpt lat="46.42483" lon="5.33732">
        <ele>248.2</ele>
        <time>2022-07-30T06:13:12Z</time>
      </trkpt>
      <trkpt lat="46.4248" lon="5.33729">
        <ele>248.4</ele>
        <time>2022-07-30T06:13:13Z</time>
      </trkpt>
      <trkpt lat="46.42465" lon="5.33715">
        <ele>249.2</ele>
        <time>2022-07-30T06:13:17Z</time>
      </trkpt>
      <trkpt lat="46.42443" lon="5.33697">
        <ele>250.2</ele>
        <time>2022-07-30T06:13:22Z</time>
      </trkpt>
      <trkpt lat="46.42428" lon="5.33688">
        <ele>250.6</ele>
        <time>2022-07-30T06:13:25Z</time>
      </trkpt>
      <trkpt lat="46.42394" lon="5.33675">
        <ele>250.8</ele>
        <time>2022-07-30T06:13:32Z</time>
      </trkpt>
      <trkpt lat="46.42389" lon="5.33675">
        <ele>251</ele>
        <time>2022-07-30T06:13:33Z</time>
      </trkpt>
      <trkpt lat="46.42385" lon="5.33675">
        <ele>251</ele>
        <time>2022-07-30T06:13:34Z</time>
      </trkpt>
      <trkpt lat="46.42376" lon="5.33678">
        <ele>251.2</ele>
        <time>2022-07-30T06:13:36Z</time>
      </trkpt>
      <trkpt lat="46.42371" lon="5.33681">
        <ele>251.2</ele>
        <time>2022-07-30T06:13:37Z</time>
      </trkpt>
      <trkpt lat="46.42367" lon="5.33683">
        <ele>251.4</ele>
        <time>2022-07-30T06:13:38Z</time>
      </trkpt>
      <trkpt lat="46.42352" lon="5.33694">
        <ele>252.4</ele>
        <time>2022-07-30T06:13:42Z</time>
      </trkpt>
      <trkpt lat="46.42348" lon="5.33696">
        <ele>252.6</ele>
        <time>2022-07-30T06:13:43Z</time>
      </trkpt>
      <trkpt lat="46.42332" lon="5.33706">
        <ele>253.6</ele>
        <time>2022-07-30T06:13:48Z</time>
      </trkpt>
      <trkpt lat="46.42329" lon="5.33709">
        <ele>254</ele>
        <time>2022-07-30T06:13:49Z</time>
      </trkpt>
      <trkpt lat="46.42315" lon="5.33721">
        <ele>254.8</ele>
        <time>2022-07-30T06:13:54Z</time>
      </trkpt>
      <trkpt lat="46.42313" lon="5.33724">
        <ele>255.2</ele>
        <time>2022-07-30T06:13:55Z</time>
      </trkpt>
      <trkpt lat="46.42305" lon="5.33734">
        <ele>256</ele>
        <time>2022-07-30T06:13:58Z</time>
      </trkpt>
      <trkpt lat="46.42293" lon="5.33753">
        <ele>257.2</ele>
        <time>2022-07-30T06:14:03Z</time>
      </trkpt>
      <trkpt lat="46.42279" lon="5.33779">
        <ele>258.4</ele>
        <time>2022-07-30T06:14:09Z</time>
      </trkpt>
      <trkpt lat="46.42272" lon="5.33793">
        <ele>258.6</ele>
        <time>2022-07-30T06:14:12Z</time>
      </trkpt>
      <trkpt lat="46.4226" lon="5.33818">
        <ele>259.6</ele>
        <time>2022-07-30T06:14:17Z</time>
      </trkpt>
      <trkpt lat="46.4225" lon="5.33837">
        <ele>260</ele>
        <time>2022-07-30T06:14:21Z</time>
      </trkpt>
      <trkpt lat="46.4223" lon="5.33874">
        <ele>260.8</ele>
        <time>2022-07-30T06:14:29Z</time>
      </trkpt>
      <trkpt lat="46.4222" lon="5.33892">
        <ele>261.8</ele>
        <time>2022-07-30T06:14:33Z</time>
      </trkpt>
      <trkpt lat="46.42211" lon="5.33909">
        <ele>262</ele>
        <time>2022-07-30T06:14:37Z</time>
      </trkpt>
      <trkpt lat="46.42202" lon="5.33921">
        <ele>263</ele>
        <time>2022-07-30T06:14:40Z</time>
      </trkpt>
      <trkpt lat="46.42193" lon="5.33929">
        <ele>263.4</ele>
        <time>2022-07-30T06:14:43Z</time>
      </trkpt>
      <trkpt lat="46.42183" lon="5.33933">
        <ele>264</ele>
        <time>2022-07-30T06:14:46Z</time>
      </trkpt>
      <trkpt lat="46.42171" lon="5.33933">
        <ele>264.6</ele>
        <time>2022-07-30T06:14:49Z</time>
      </trkpt>
      <trkpt lat="46.42155" lon="5.33928">
        <ele>265.2</ele>
        <time>2022-07-30T06:14:53Z</time>
      </trkpt>
      <trkpt lat="46.42136" lon="5.3392">
        <ele>266.2</ele>
        <time>2022-07-30T06:14:58Z</time>
      </trkpt>
      <trkpt lat="46.42112" lon="5.33909">
        <ele>267.2</ele>
        <time>2022-07-30T06:15:03Z</time>
      </trkpt>
      <trkpt lat="46.42108" lon="5.33907">
        <ele>267.2</ele>
        <time>2022-07-30T06:15:04Z</time>
      </trkpt>
      <trkpt lat="46.42075" lon="5.33898">
        <ele>267.4</ele>
        <time>2022-07-30T06:15:10Z</time>
      </trkpt>
      <trkpt lat="46.42027" lon="5.33899">
        <ele>267</ele>
        <time>2022-07-30T06:15:18Z</time>
      </trkpt>
      <trkpt lat="46.42007" lon="5.33897">
        <ele>266.4</ele>
        <time>2022-07-30T06:15:21Z</time>
      </trkpt>
      <trkpt lat="46.41992" lon="5.33891">
        <ele>266.2</ele>
        <time>2022-07-30T06:15:23Z</time>
      </trkpt>
      <trkpt lat="46.41985" lon="5.33885">
        <ele>266.2</ele>
        <time>2022-07-30T06:15:24Z</time>
      </trkpt>
      <trkpt lat="46.41961" lon="5.33871">
        <ele>265.2</ele>
        <time>2022-07-30T06:15:27Z</time>
      </trkpt>
      <trkpt lat="46.41943" lon="5.33867">
        <ele>264.2</ele>
        <time>2022-07-30T06:15:29Z</time>
      </trkpt>
      <trkpt lat="46.41924" lon="5.33868">
        <ele>263.8</ele>
        <time>2022-07-30T06:15:31Z</time>
      </trkpt>
      <trkpt lat="46.41915" lon="5.3387">
        <ele>262.8</ele>
        <time>2022-07-30T06:15:32Z</time>
      </trkpt>
      <trkpt lat="46.41896" lon="5.33875">
        <ele>261.6</ele>
        <time>2022-07-30T06:15:34Z</time>
      </trkpt>
      <trkpt lat="46.41878" lon="5.33877">
        <ele>260.4</ele>
        <time>2022-07-30T06:15:36Z</time>
      </trkpt>
      <trkpt lat="46.41838" lon="5.33877">
        <ele>259.6</ele>
        <time>2022-07-30T06:15:41Z</time>
      </trkpt>
      <trkpt lat="46.41807" lon="5.33871">
        <ele>260.6</ele>
        <time>2022-07-30T06:15:46Z</time>
      </trkpt>
      <trkpt lat="46.41792" lon="5.33865">
        <ele>262</ele>
        <time>2022-07-30T06:15:49Z</time>
      </trkpt>
      <trkpt lat="46.41781" lon="5.33862">
        <ele>263</ele>
        <time>2022-07-30T06:15:51Z</time>
      </trkpt>
      <trkpt lat="46.41772" lon="5.33859">
        <ele>263.2</ele>
        <time>2022-07-30T06:15:53Z</time>
      </trkpt>
      <trkpt lat="46.41754" lon="5.33856">
        <ele>264.4</ele>
        <time>2022-07-30T06:15:57Z</time>
      </trkpt>
      <trkpt lat="46.4175" lon="5.33856">
        <ele>265</ele>
        <time>2022-07-30T06:15:58Z</time>
      </trkpt>
      <trkpt lat="46.41741" lon="5.33859">
        <ele>265.6</ele>
        <time>2022-07-30T06:16:00Z</time>
      </trkpt>
      <trkpt lat="46.41733" lon="5.33862">
        <ele>266</ele>
        <time>2022-07-30T06:16:02Z</time>
      </trkpt>
      <trkpt lat="46.41726" lon="5.33866">
        <ele>266.8</ele>
        <time>2022-07-30T06:16:04Z</time>
      </trkpt>
      <trkpt lat="46.41715" lon="5.3387">
        <ele>267.8</ele>
        <time>2022-07-30T06:16:07Z</time>
      </trkpt>
      <trkpt lat="46.41712" lon="5.33871">
        <ele>268</ele>
        <time>2022-07-30T06:16:08Z</time>
      </trkpt>
      <trkpt lat="46.41701" lon="5.33874">
        <ele>269</ele>
        <time>2022-07-30T06:16:11Z</time>
      </trkpt>
      <trkpt lat="46.41686" lon="5.33876">
        <ele>270</ele>
        <time>2022-07-30T06:16:15Z</time>
      </trkpt>
      <trkpt lat="46.41681" lon="5.33876">
        <ele>270.6</ele>
        <time>2022-07-30T06:16:16Z</time>
      </trkpt>
      <trkpt lat="46.41671" lon="5.33878">
        <ele>271.2</ele>
        <time>2022-07-30T06:16:19Z</time>
      </trkpt>
      <trkpt lat="46.41655" lon="5.33876">
        <ele>272</ele>
        <time>2022-07-30T06:16:23Z</time>
      </trkpt>
      <trkpt lat="46.41646" lon="5.33876">
        <ele>272.4</ele>
        <time>2022-07-30T06:16:25Z</time>
      </trkpt>
      <trkpt lat="46.41629" lon="5.33879">
        <ele>273.2</ele>
        <time>2022-07-30T06:16:29Z</time>
      </trkpt>
      <trkpt lat="46.41624" lon="5.3388">
        <ele>273.4</ele>
        <time>2022-07-30T06:16:30Z</time>
      </trkpt>
      <trkpt lat="46.41594" lon="5.33884">
        <ele>274.4</ele>
        <time>2022-07-30T06:16:36Z</time>
      </trkpt>
      <trkpt lat="46.41589" lon="5.33883">
        <ele>274.6</ele>
        <time>2022-07-30T06:16:37Z</time>
      </trkpt>
      <trkpt lat="46.41544" lon="5.33875">
        <ele>274.8</ele>
        <time>2022-07-30T06:16:45Z</time>
      </trkpt>
      <trkpt lat="46.41503" lon="5.33866">
        <ele>274</ele>
        <time>2022-07-30T06:16:51Z</time>
      </trkpt>
      <trkpt lat="46.41475" lon="5.33847">
        <ele>273.4</ele>
        <time>2022-07-30T06:16:55Z</time>
      </trkpt>
      <trkpt lat="46.41452" lon="5.33832">
        <ele>272.2</ele>
        <time>2022-07-30T06:16:58Z</time>
      </trkpt>
      <trkpt lat="46.41443" lon="5.33829">
        <ele>272</ele>
        <time>2022-07-30T06:16:59Z</time>
      </trkpt>
      <trkpt lat="46.41434" lon="5.33826">
        <ele>271.8</ele>
        <time>2022-07-30T06:17:00Z</time>
      </trkpt>
      <trkpt lat="46.41416" lon="5.33821">
        <ele>271</ele>
        <time>2022-07-30T06:17:02Z</time>
      </trkpt>
      <trkpt lat="46.41389" lon="5.33813">
        <ele>269.4</ele>
        <time>2022-07-30T06:17:05Z</time>
      </trkpt>
      <trkpt lat="46.41361" lon="5.33805">
        <ele>268.4</ele>
        <time>2022-07-30T06:17:08Z</time>
      </trkpt>
      <trkpt lat="46.41352" lon="5.33802">
        <ele>267.8</ele>
        <time>2022-07-30T06:17:09Z</time>
      </trkpt>
      <trkpt lat="46.41333" lon="5.33796">
        <ele>267.2</ele>
        <time>2022-07-30T06:17:11Z</time>
      </trkpt>
      <trkpt lat="46.41323" lon="5.33791">
        <ele>266.8</ele>
        <time>2022-07-30T06:17:12Z</time>
      </trkpt>
      <trkpt lat="46.41306" lon="5.33777">
        <ele>266.2</ele>
        <time>2022-07-30T06:17:14Z</time>
      </trkpt>
      <trkpt lat="46.41273" lon="5.3374">
        <ele>264.8</ele>
        <time>2022-07-30T06:17:18Z</time>
      </trkpt>
      <trkpt lat="46.41265" lon="5.33732">
        <ele>264.2</ele>
        <time>2022-07-30T06:17:19Z</time>
      </trkpt>
      <trkpt lat="46.41256" lon="5.33724">
        <ele>263.4</ele>
        <time>2022-07-30T06:17:20Z</time>
      </trkpt>
      <trkpt lat="46.41239" lon="5.33708">
        <ele>262.4</ele>
        <time>2022-07-30T06:17:22Z</time>
      </trkpt>
      <trkpt lat="46.41197" lon="5.33669">
        <ele>261.2</ele>
        <time>2022-07-30T06:17:27Z</time>
      </trkpt>
      <trkpt lat="46.41188" lon="5.33662">
        <ele>261.2</ele>
        <time>2022-07-30T06:17:28Z</time>
      </trkpt>
      <trkpt lat="46.4114" lon="5.33617">
        <ele>260</ele>
        <time>2022-07-30T06:17:34Z</time>
      </trkpt>
      <trkpt lat="46.41132" lon="5.33611">
        <ele>260</ele>
        <time>2022-07-30T06:17:35Z</time>
      </trkpt>
      <trkpt lat="46.41086" lon="5.33582">
        <ele>260</ele>
        <time>2022-07-30T06:17:41Z</time>
      </trkpt>
      <trkpt lat="46.41044" lon="5.33562">
        <ele>260.8</ele>
        <time>2022-07-30T06:17:47Z</time>
      </trkpt>
      <trkpt lat="46.41023" lon="5.33556">
        <ele>261.2</ele>
        <time>2022-07-30T06:17:50Z</time>
      </trkpt>
      <trkpt lat="46.40996" lon="5.33549">
        <ele>261.8</ele>
        <time>2022-07-30T06:17:54Z</time>
      </trkpt>
      <trkpt lat="46.40989" lon="5.33547">
        <ele>262.2</ele>
        <time>2022-07-30T06:17:55Z</time>
      </trkpt>
      <trkpt lat="46.40983" lon="5.33545">
        <ele>262.6</ele>
        <time>2022-07-30T06:17:56Z</time>
      </trkpt>
      <trkpt lat="46.4097" lon="5.33542">
        <ele>263.2</ele>
        <time>2022-07-30T06:17:58Z</time>
      </trkpt>
      <trkpt lat="46.40932" lon="5.33534">
        <ele>264.4</ele>
        <time>2022-07-30T06:18:04Z</time>
      </trkpt>
      <trkpt lat="46.40899" lon="5.33525">
        <ele>265.4</ele>
        <time>2022-07-30T06:18:09Z</time>
      </trkpt>
      <trkpt lat="46.40885" lon="5.33521">
        <ele>265.6</ele>
        <time>2022-07-30T06:18:11Z</time>
      </trkpt>
      <trkpt lat="46.40836" lon="5.33508">
        <ele>265</ele>
        <time>2022-07-30T06:18:17Z</time>
      </trkpt>
      <trkpt lat="46.40818" lon="5.33502">
        <ele>264.4</ele>
        <time>2022-07-30T06:18:19Z</time>
      </trkpt>
      <trkpt lat="46.40782" lon="5.33492">
        <ele>263</ele>
        <time>2022-07-30T06:18:23Z</time>
      </trkpt>
      <trkpt lat="46.40755" lon="5.3348">
        <ele>261.8</ele>
        <time>2022-07-30T06:18:26Z</time>
      </trkpt>
      <trkpt lat="46.40737" lon="5.3347">
        <ele>261.2</ele>
        <time>2022-07-30T06:18:28Z</time>
      </trkpt>
      <trkpt lat="46.4072" lon="5.33459">
        <ele>260.6</ele>
        <time>2022-07-30T06:18:30Z</time>
      </trkpt>
      <trkpt lat="46.40694" lon="5.33443">
        <ele>259.2</ele>
        <time>2022-07-30T06:18:33Z</time>
      </trkpt>
      <trkpt lat="46.40667" lon="5.33428">
        <ele>258.4</ele>
        <time>2022-07-30T06:18:36Z</time>
      </trkpt>
      <trkpt lat="46.40659" lon="5.33422">
        <ele>258</ele>
        <time>2022-07-30T06:18:37Z</time>
      </trkpt>
      <trkpt lat="46.40622" lon="5.33401">
        <ele>256.8</ele>
        <time>2022-07-30T06:18:41Z</time>
      </trkpt>
      <trkpt lat="46.40594" lon="5.33383">
        <ele>255.2</ele>
        <time>2022-07-30T06:18:44Z</time>
      </trkpt>
      <trkpt lat="46.40585" lon="5.33378">
        <ele>255</ele>
        <time>2022-07-30T06:18:45Z</time>
      </trkpt>
      <trkpt lat="46.40556" lon="5.33361">
        <ele>253.6</ele>
        <time>2022-07-30T06:18:48Z</time>
      </trkpt>
      <trkpt lat="46.40527" lon="5.33342">
        <ele>252.6</ele>
        <time>2022-07-30T06:18:51Z</time>
      </trkpt>
      <trkpt lat="46.40518" lon="5.33334">
        <ele>252.4</ele>
        <time>2022-07-30T06:18:52Z</time>
      </trkpt>
      <trkpt lat="46.40509" lon="5.33325">
        <ele>251.8</ele>
        <time>2022-07-30T06:18:53Z</time>
      </trkpt>
      <trkpt lat="46.40501" lon="5.33316">
        <ele>251.4</ele>
        <time>2022-07-30T06:18:54Z</time>
      </trkpt>
      <trkpt lat="46.40492" lon="5.33308">
        <ele>250.6</ele>
        <time>2022-07-30T06:18:55Z</time>
      </trkpt>
      <trkpt lat="46.40483" lon="5.33301">
        <ele>250.4</ele>
        <time>2022-07-30T06:18:56Z</time>
      </trkpt>
      <trkpt lat="46.40474" lon="5.33296">
        <ele>250</ele>
        <time>2022-07-30T06:18:57Z</time>
      </trkpt>
      <trkpt lat="46.40447" lon="5.33282">
        <ele>248.6</ele>
        <time>2022-07-30T06:19:00Z</time>
      </trkpt>
      <trkpt lat="46.40415" lon="5.33256">
        <ele>247.8</ele>
        <time>2022-07-30T06:19:04Z</time>
      </trkpt>
      <trkpt lat="46.40375" lon="5.33208">
        <ele>247.8</ele>
        <time>2022-07-30T06:19:10Z</time>
      </trkpt>
      <trkpt lat="46.4034" lon="5.3316">
        <ele>248.6</ele>
        <time>2022-07-30T06:19:16Z</time>
      </trkpt>
      <trkpt lat="46.40302" lon="5.33107">
        <ele>249.6</ele>
        <time>2022-07-30T06:19:23Z</time>
      </trkpt>
      <trkpt lat="46.40283" lon="5.33077">
        <ele>250.8</ele>
        <time>2022-07-30T06:19:27Z</time>
      </trkpt>
      <trkpt lat="46.40268" lon="5.33056">
        <ele>251.2</ele>
        <time>2022-07-30T06:19:30Z</time>
      </trkpt>
      <trkpt lat="46.40248" lon="5.33027">
        <ele>252</ele>
        <time>2022-07-30T06:19:34Z</time>
      </trkpt>
      <trkpt lat="46.40232" lon="5.33006">
        <ele>252</ele>
        <time>2022-07-30T06:19:37Z</time>
      </trkpt>
      <trkpt lat="46.40201" lon="5.32957">
        <ele>251.6</ele>
        <time>2022-07-30T06:19:43Z</time>
      </trkpt>
      <trkpt lat="46.40178" lon="5.32916">
        <ele>250.8</ele>
        <time>2022-07-30T06:19:48Z</time>
      </trkpt>
      <trkpt lat="46.40155" lon="5.32866">
        <ele>250.8</ele>
        <time>2022-07-30T06:19:54Z</time>
      </trkpt>
      <trkpt lat="46.40124" lon="5.32796">
        <ele>251</ele>
        <time>2022-07-30T06:20:02Z</time>
      </trkpt>
      <trkpt lat="46.4012" lon="5.32787">
        <ele>251</ele>
        <time>2022-07-30T06:20:03Z</time>
      </trkpt>
      <trkpt lat="46.4009" lon="5.32715">
        <ele>250</ele>
        <time>2022-07-30T06:20:11Z</time>
      </trkpt>
      <trkpt lat="46.40086" lon="5.32706">
        <ele>249.8</ele>
        <time>2022-07-30T06:20:12Z</time>
      </trkpt>
      <trkpt lat="46.40071" lon="5.32647">
        <ele>249.4</ele>
        <time>2022-07-30T06:20:18Z</time>
      </trkpt>
      <trkpt lat="46.40068" lon="5.32637">
        <ele>249.4</ele>
        <time>2022-07-30T06:20:19Z</time>
      </trkpt>
      <trkpt lat="46.40058" lon="5.32622">
        <ele>249.2</ele>
        <time>2022-07-30T06:20:21Z</time>
      </trkpt>
      <trkpt lat="46.40045" lon="5.32619">
        <ele>249.2</ele>
        <time>2022-07-30T06:20:23Z</time>
      </trkpt>
      <trkpt lat="46.40039" lon="5.32622">
        <ele>249</ele>
        <time>2022-07-30T06:20:24Z</time>
      </trkpt>
      <trkpt lat="46.40019" lon="5.32635">
        <ele>249</ele>
        <time>2022-07-30T06:20:27Z</time>
      </trkpt>
      <trkpt lat="46.40012" lon="5.32639">
        <ele>249</ele>
        <time>2022-07-30T06:20:28Z</time>
      </trkpt>
      <trkpt lat="46.39998" lon="5.32646">
        <ele>248.8</ele>
        <time>2022-07-30T06:20:30Z</time>
      </trkpt>
      <trkpt lat="46.3996" lon="5.32665">
        <ele>248.8</ele>
        <time>2022-07-30T06:20:35Z</time>
      </trkpt>
      <trkpt lat="46.39903" lon="5.32693">
        <ele>247.8</ele>
        <time>2022-07-30T06:20:42Z</time>
      </trkpt>
      <trkpt lat="46.39894" lon="5.32697">
        <ele>247.6</ele>
        <time>2022-07-30T06:20:43Z</time>
      </trkpt>
      <trkpt lat="46.39851" lon="5.32716">
        <ele>246.8</ele>
        <time>2022-07-30T06:20:48Z</time>
      </trkpt>
      <trkpt lat="46.39842" lon="5.3272">
        <ele>246.4</ele>
        <time>2022-07-30T06:20:49Z</time>
      </trkpt>
      <trkpt lat="46.39799" lon="5.3274">
        <ele>245.6</ele>
        <time>2022-07-30T06:20:54Z</time>
      </trkpt>
      <trkpt lat="46.39774" lon="5.32752">
        <ele>244.6</ele>
        <time>2022-07-30T06:20:57Z</time>
      </trkpt>
      <trkpt lat="46.39747" lon="5.32766">
        <ele>243.2</ele>
        <time>2022-07-30T06:21:00Z</time>
      </trkpt>
      <trkpt lat="46.39719" lon="5.32782">
        <ele>242.2</ele>
        <time>2022-07-30T06:21:03Z</time>
      </trkpt>
      <trkpt lat="46.3971" lon="5.32787">
        <ele>242</ele>
        <time>2022-07-30T06:21:04Z</time>
      </trkpt>
      <trkpt lat="46.39691" lon="5.32798">
        <ele>240.6</ele>
        <time>2022-07-30T06:21:06Z</time>
      </trkpt>
      <trkpt lat="46.39671" lon="5.32808">
        <ele>239.6</ele>
        <time>2022-07-30T06:21:08Z</time>
      </trkpt>
      <trkpt lat="46.39661" lon="5.32813">
        <ele>238.4</ele>
        <time>2022-07-30T06:21:09Z</time>
      </trkpt>
      <trkpt lat="46.39651" lon="5.32817">
        <ele>238.2</ele>
        <time>2022-07-30T06:21:10Z</time>
      </trkpt>
      <trkpt lat="46.3963" lon="5.32823">
        <ele>236.8</ele>
        <time>2022-07-30T06:21:12Z</time>
      </trkpt>
      <trkpt lat="46.39598" lon="5.32832">
        <ele>235.8</ele>
        <time>2022-07-30T06:21:15Z</time>
      </trkpt>
      <trkpt lat="46.39569" lon="5.32846">
        <ele>234.4</ele>
        <time>2022-07-30T06:21:18Z</time>
      </trkpt>
      <trkpt lat="46.3956" lon="5.32851">
        <ele>233.8</ele>
        <time>2022-07-30T06:21:19Z</time>
      </trkpt>
      <trkpt lat="46.39516" lon="5.32873">
        <ele>233.2</ele>
        <time>2022-07-30T06:21:24Z</time>
      </trkpt>
      <trkpt lat="46.39471" lon="5.32893">
        <ele>232.8</ele>
        <time>2022-07-30T06:21:29Z</time>
      </trkpt>
      <trkpt lat="46.39442" lon="5.32903">
        <ele>232.2</ele>
        <time>2022-07-30T06:21:32Z</time>
      </trkpt>
      <trkpt lat="46.39412" lon="5.32908">
        <ele>231.2</ele>
        <time>2022-07-30T06:21:35Z</time>
      </trkpt>
      <trkpt lat="46.39402" lon="5.32907">
        <ele>230.8</ele>
        <time>2022-07-30T06:21:36Z</time>
      </trkpt>
      <trkpt lat="46.39383" lon="5.32898">
        <ele>229.8</ele>
        <time>2022-07-30T06:21:38Z</time>
      </trkpt>
      <trkpt lat="46.39371" lon="5.32887">
        <ele>228.2</ele>
        <time>2022-07-30T06:21:40Z</time>
      </trkpt>
      <trkpt lat="46.39365" lon="5.32884">
        <ele>228</ele>
        <time>2022-07-30T06:21:41Z</time>
      </trkpt>
      <trkpt lat="46.39359" lon="5.32885">
        <ele>227.6</ele>
        <time>2022-07-30T06:21:42Z</time>
      </trkpt>
      <trkpt lat="46.39354" lon="5.32889">
        <ele>227.6</ele>
        <time>2022-07-30T06:21:43Z</time>
      </trkpt>
      <trkpt lat="46.3935" lon="5.32897">
        <ele>227.6</ele>
        <time>2022-07-30T06:21:44Z</time>
      </trkpt>
      <trkpt lat="46.39349" lon="5.32906">
        <ele>227.4</ele>
        <time>2022-07-30T06:21:45Z</time>
      </trkpt>
      <trkpt lat="46.39347" lon="5.32916">
        <ele>227.4</ele>
        <time>2022-07-30T06:21:46Z</time>
      </trkpt>
      <trkpt lat="46.39344" lon="5.32924">
        <ele>227.4</ele>
        <time>2022-07-30T06:21:47Z</time>
      </trkpt>
      <trkpt lat="46.39338" lon="5.3293">
        <ele>227.2</ele>
        <time>2022-07-30T06:21:48Z</time>
      </trkpt>
      <trkpt lat="46.39332" lon="5.32934">
        <ele>227</ele>
        <time>2022-07-30T06:21:49Z</time>
      </trkpt>
      <trkpt lat="46.39325" lon="5.32937">
        <ele>226.8</ele>
        <time>2022-07-30T06:21:50Z</time>
      </trkpt>
      <trkpt lat="46.39302" lon="5.32948">
        <ele>225.6</ele>
        <time>2022-07-30T06:21:53Z</time>
      </trkpt>
      <trkpt lat="46.39287" lon="5.32956">
        <ele>225</ele>
        <time>2022-07-30T06:21:55Z</time>
      </trkpt>
      <trkpt lat="46.39279" lon="5.32959">
        <ele>224.4</ele>
        <time>2022-07-30T06:21:56Z</time>
      </trkpt>
      <trkpt lat="46.39222" lon="5.32984">
        <ele>223.6</ele>
        <time>2022-07-30T06:22:03Z</time>
      </trkpt>
      <trkpt lat="46.39191" lon="5.32998">
        <ele>223.4</ele>
        <time>2022-07-30T06:22:07Z</time>
      </trkpt>
      <trkpt lat="46.39167" lon="5.33006">
        <ele>223.4</ele>
        <time>2022-07-30T06:22:10Z</time>
      </trkpt>
      <trkpt lat="46.39114" lon="5.33021">
        <ele>222.8</ele>
        <time>2022-07-30T06:22:17Z</time>
      </trkpt>
      <trkpt lat="46.39077" lon="5.33021">
        <ele>223</ele>
        <time>2022-07-30T06:22:22Z</time>
      </trkpt>
      <trkpt lat="46.3902" lon="5.33001">
        <ele>223.6</ele>
        <time>2022-07-30T06:22:30Z</time>
      </trkpt>
      <trkpt lat="46.38975" lon="5.32985">
        <ele>223.2</ele>
        <time>2022-07-30T06:22:36Z</time>
      </trkpt>
      <trkpt lat="46.38931" lon="5.32967">
        <ele>222.4</ele>
        <time>2022-07-30T06:22:42Z</time>
      </trkpt>
      <trkpt lat="46.38908" lon="5.32959">
        <ele>222</ele>
        <time>2022-07-30T06:22:45Z</time>
      </trkpt>
      <trkpt lat="46.38893" lon="5.32952">
        <ele>221</ele>
        <time>2022-07-30T06:22:47Z</time>
      </trkpt>
      <trkpt lat="46.38842" lon="5.32932">
        <ele>220</ele>
        <time>2022-07-30T06:22:54Z</time>
      </trkpt>
      <trkpt lat="46.38787" lon="5.32911">
        <ele>221.2</ele>
        <time>2022-07-30T06:23:02Z</time>
      </trkpt>
      <trkpt lat="46.38781" lon="5.32908">
        <ele>221.4</ele>
        <time>2022-07-30T06:23:03Z</time>
      </trkpt>
      <trkpt lat="46.38771" lon="5.32898">
        <ele>221.2</ele>
        <time>2022-07-30T06:23:05Z</time>
      </trkpt>
      <trkpt lat="46.38767" lon="5.3289">
        <ele>221.2</ele>
        <time>2022-07-30T06:23:06Z</time>
      </trkpt>
      <trkpt lat="46.38764" lon="5.3288">
        <ele>221.2</ele>
        <time>2022-07-30T06:23:07Z</time>
      </trkpt>
      <trkpt lat="46.38762" lon="5.32859">
        <ele>221.4</ele>
        <time>2022-07-30T06:23:09Z</time>
      </trkpt>
      <trkpt lat="46.38762" lon="5.32848">
        <ele>221.4</ele>
        <time>2022-07-30T06:23:10Z</time>
      </trkpt>
      <trkpt lat="46.38763" lon="5.32825">
        <ele>221.2</ele>
        <time>2022-07-30T06:23:12Z</time>
      </trkpt>
      <trkpt lat="46.38765" lon="5.32814">
        <ele>221.2</ele>
        <time>2022-07-30T06:23:13Z</time>
      </trkpt>
      <trkpt lat="46.3878" lon="5.32764">
        <ele>220.4</ele>
        <time>2022-07-30T06:23:18Z</time>
      </trkpt>
      <trkpt lat="46.38789" lon="5.32722">
        <ele>220</ele>
        <time>2022-07-30T06:23:22Z</time>
      </trkpt>
      <trkpt lat="46.38791" lon="5.32711">
        <ele>220.2</ele>
        <time>2022-07-30T06:23:23Z</time>
      </trkpt>
      <trkpt lat="46.38792" lon="5.3268">
        <ele>220.2</ele>
        <time>2022-07-30T06:23:26Z</time>
      </trkpt>
      <trkpt lat="46.3879" lon="5.32659">
        <ele>220.2</ele>
        <time>2022-07-30T06:23:28Z</time>
      </trkpt>
      <trkpt lat="46.38784" lon="5.32641">
        <ele>220.4</ele>
        <time>2022-07-30T06:23:30Z</time>
      </trkpt>
      <trkpt lat="46.3878" lon="5.32636">
        <ele>220.6</ele>
        <time>2022-07-30T06:23:31Z</time>
      </trkpt>
      <trkpt lat="46.3875" lon="5.32613">
        <ele>220.8</ele>
        <time>2022-07-30T06:23:36Z</time>
      </trkpt>
      <trkpt lat="46.38701" lon="5.32572">
        <ele>221</ele>
        <time>2022-07-30T06:23:44Z</time>
      </trkpt>
      <trkpt lat="46.38696" lon="5.32567">
        <ele>221</ele>
        <time>2022-07-30T06:23:45Z</time>
      </trkpt>
      <trkpt lat="46.38649" lon="5.32521">
        <ele>220.6</ele>
        <time>2022-07-30T06:23:53Z</time>
      </trkpt>
      <trkpt lat="46.38603" lon="5.32487">
        <ele>220.6</ele>
        <time>2022-07-30T06:24:00Z</time>
      </trkpt>
      <trkpt lat="46.38565" lon="5.32453">
        <ele>220</ele>
        <time>2022-07-30T06:24:06Z</time>
      </trkpt>
      <trkpt lat="46.38518" lon="5.3241">
        <ele>219.8</ele>
        <time>2022-07-30T06:24:13Z</time>
      </trkpt>
      <trkpt lat="46.38512" lon="5.32403">
        <ele>219.6</ele>
        <time>2022-07-30T06:24:14Z</time>
      </trkpt>
      <trkpt lat="46.38494" lon="5.32382">
        <ele>219.4</ele>
        <time>2022-07-30T06:24:17Z</time>
      </trkpt>
      <trkpt lat="46.38481" lon="5.32372">
        <ele>219</ele>
        <time>2022-07-30T06:24:19Z</time>
      </trkpt>
      <trkpt lat="46.3846" lon="5.32364">
        <ele>219</ele>
        <time>2022-07-30T06:24:22Z</time>
      </trkpt>
      <trkpt lat="46.38453" lon="5.32364">
        <ele>218.8</ele>
        <time>2022-07-30T06:24:23Z</time>
      </trkpt>
      <trkpt lat="46.38446" lon="5.32366">
        <ele>218.8</ele>
        <time>2022-07-30T06:24:24Z</time>
      </trkpt>
      <trkpt lat="46.38434" lon="5.32375">
        <ele>218.8</ele>
        <time>2022-07-30T06:24:26Z</time>
      </trkpt>
      <trkpt lat="46.38423" lon="5.3239">
        <ele>218.6</ele>
        <time>2022-07-30T06:24:28Z</time>
      </trkpt>
      <trkpt lat="46.38419" lon="5.32399">
        <ele>218.6</ele>
        <time>2022-07-30T06:24:29Z</time>
      </trkpt>
      <trkpt lat="46.38409" lon="5.32426">
        <ele>218.6</ele>
        <time>2022-07-30T06:24:32Z</time>
      </trkpt>
      <trkpt lat="46.38407" lon="5.32436">
        <ele>218.6</ele>
        <time>2022-07-30T06:24:33Z</time>
      </trkpt>
      <trkpt lat="46.38402" lon="5.32467">
        <ele>218.6</ele>
        <time>2022-07-30T06:24:36Z</time>
      </trkpt>
      <trkpt lat="46.38396" lon="5.32485">
        <ele>218.8</ele>
        <time>2022-07-30T06:24:38Z</time>
      </trkpt>
      <trkpt lat="46.38386" lon="5.32499">
        <ele>218.8</ele>
        <time>2022-07-30T06:24:40Z</time>
      </trkpt>
      <trkpt lat="46.38372" lon="5.32502">
        <ele>218.8</ele>
        <time>2022-07-30T06:24:42Z</time>
      </trkpt>
      <trkpt lat="46.38365" lon="5.32502">
        <ele>218.8</ele>
        <time>2022-07-30T06:24:43Z</time>
      </trkpt>
      <trkpt lat="46.38322" lon="5.32488">
        <ele>218.4</ele>
        <time>2022-07-30T06:24:49Z</time>
      </trkpt>
      <trkpt lat="46.38288" lon="5.32475">
        <ele>218.6</ele>
        <time>2022-07-30T06:24:54Z</time>
      </trkpt>
      <trkpt lat="46.38274" lon="5.32472">
        <ele>218.2</ele>
        <time>2022-07-30T06:24:56Z</time>
      </trkpt>
      <trkpt lat="46.38238" lon="5.32468">
        <ele>218</ele>
        <time>2022-07-30T06:25:01Z</time>
      </trkpt>
      <trkpt lat="46.38231" lon="5.32465">
        <ele>218</ele>
        <time>2022-07-30T06:25:02Z</time>
      </trkpt>
      <trkpt lat="46.38225" lon="5.32461">
        <ele>217.8</ele>
        <time>2022-07-30T06:25:03Z</time>
      </trkpt>
      <trkpt lat="46.382" lon="5.32438">
        <ele>217.4</ele>
        <time>2022-07-30T06:25:07Z</time>
      </trkpt>
      <trkpt lat="46.38152" lon="5.32393">
        <ele>217.6</ele>
        <time>2022-07-30T06:25:15Z</time>
      </trkpt>
      <trkpt lat="46.38146" lon="5.32387">
        <ele>217.8</ele>
        <time>2022-07-30T06:25:16Z</time>
      </trkpt>
      <trkpt lat="46.38113" lon="5.32347">
        <ele>217.4</ele>
        <time>2022-07-30T06:25:22Z</time>
      </trkpt>
      <trkpt lat="46.3809" lon="5.32296">
        <ele>217.2</ele>
        <time>2022-07-30T06:25:28Z</time>
      </trkpt>
      <trkpt lat="46.38081" lon="5.32282">
        <ele>217</ele>
        <time>2022-07-30T06:25:30Z</time>
      </trkpt>
      <trkpt lat="46.3807" lon="5.32273">
        <ele>217.2</ele>
        <time>2022-07-30T06:25:32Z</time>
      </trkpt>
      <trkpt lat="46.3806" lon="5.32267">
        <ele>217.6</ele>
        <time>2022-07-30T06:25:34Z</time>
      </trkpt>
      <trkpt lat="46.38052" lon="5.32257">
        <ele>218.2</ele>
        <time>2022-07-30T06:25:36Z</time>
      </trkpt>
      <trkpt lat="46.38044" lon="5.32226">
        <ele>218.6</ele>
        <time>2022-07-30T06:25:40Z</time>
      </trkpt>
      <trkpt lat="46.38042" lon="5.32217">
        <ele>218.6</ele>
        <time>2022-07-30T06:25:41Z</time>
      </trkpt>
      <trkpt lat="46.38029" lon="5.32158">
        <ele>218.4</ele>
        <time>2022-07-30T06:25:47Z</time>
      </trkpt>
      <trkpt lat="46.38011" lon="5.32119">
        <ele>218</ele>
        <time>2022-07-30T06:25:51Z</time>
      </trkpt>
      <trkpt lat="46.37973" lon="5.32058">
        <ele>216.8</ele>
        <time>2022-07-30T06:25:58Z</time>
      </trkpt>
      <trkpt lat="46.37969" lon="5.32049">
        <ele>216.8</ele>
        <time>2022-07-30T06:25:59Z</time>
      </trkpt>
      <trkpt lat="46.37954" lon="5.3201">
        <ele>216.2</ele>
        <time>2022-07-30T06:26:03Z</time>
      </trkpt>
      <trkpt lat="46.37941" lon="5.31948">
        <ele>216</ele>
        <time>2022-07-30T06:26:09Z</time>
      </trkpt>
      <trkpt lat="46.3792" lon="5.31891">
        <ele>216.6</ele>
        <time>2022-07-30T06:26:15Z</time>
      </trkpt>
      <trkpt lat="46.37907" lon="5.31867">
        <ele>216.6</ele>
        <time>2022-07-30T06:26:18Z</time>
      </trkpt>
      <trkpt lat="46.37872" lon="5.31815">
        <ele>216.2</ele>
        <time>2022-07-30T06:26:25Z</time>
      </trkpt>
      <trkpt lat="46.3784" lon="5.31769">
        <ele>215.6</ele>
        <time>2022-07-30T06:26:31Z</time>
      </trkpt>
      <trkpt lat="46.37819" lon="5.31739">
        <ele>215.2</ele>
        <time>2022-07-30T06:26:35Z</time>
      </trkpt>
      <trkpt lat="46.37786" lon="5.3169">
        <ele>215.2</ele>
        <time>2022-07-30T06:26:41Z</time>
      </trkpt>
      <trkpt lat="46.37772" lon="5.31667">
        <ele>215</ele>
        <time>2022-07-30T06:26:44Z</time>
      </trkpt>
      <trkpt lat="46.37764" lon="5.31653">
        <ele>215</ele>
        <time>2022-07-30T06:26:46Z</time>
      </trkpt>
      <trkpt lat="46.37749" lon="5.3163">
        <ele>214.8</ele>
        <time>2022-07-30T06:26:49Z</time>
      </trkpt>
      <trkpt lat="46.37737" lon="5.31614">
        <ele>214.8</ele>
        <time>2022-07-30T06:26:51Z</time>
      </trkpt>
      <trkpt lat="46.37693" lon="5.31553">
        <ele>214.8</ele>
        <time>2022-07-30T06:26:59Z</time>
      </trkpt>
      <trkpt lat="46.3765" lon="5.31491">
        <ele>214.4</ele>
        <time>2022-07-30T06:27:07Z</time>
      </trkpt>
      <trkpt lat="46.37645" lon="5.31484">
        <ele>214.6</ele>
        <time>2022-07-30T06:27:08Z</time>
      </trkpt>
      <trkpt lat="46.37639" lon="5.31476">
        <ele>214.2</ele>
        <time>2022-07-30T06:27:09Z</time>
      </trkpt>
      <trkpt lat="46.37598" lon="5.31417">
        <ele>214</ele>
        <time>2022-07-30T06:27:17Z</time>
      </trkpt>
      <trkpt lat="46.37588" lon="5.31402">
        <ele>214</ele>
        <time>2022-07-30T06:27:19Z</time>
      </trkpt>
      <trkpt lat="46.37549" lon="5.31346">
        <ele>213.8</ele>
        <time>2022-07-30T06:27:27Z</time>
      </trkpt>
      <trkpt lat="46.37539" lon="5.31333">
        <ele>214</ele>
        <time>2022-07-30T06:27:29Z</time>
      </trkpt>
      <trkpt lat="46.375" lon="5.31276">
        <ele>214</ele>
        <time>2022-07-30T06:27:37Z</time>
      </trkpt>
      <trkpt lat="46.37485" lon="5.31254">
        <ele>214</ele>
        <time>2022-07-30T06:27:40Z</time>
      </trkpt>
      <trkpt lat="46.37445" lon="5.31196">
        <ele>214.2</ele>
        <time>2022-07-30T06:27:48Z</time>
      </trkpt>
      <trkpt lat="46.37436" lon="5.31183">
        <ele>214.2</ele>
        <time>2022-07-30T06:27:50Z</time>
      </trkpt>
      <trkpt lat="46.37396" lon="5.31123">
        <ele>214</ele>
        <time>2022-07-30T06:27:58Z</time>
      </trkpt>
      <trkpt lat="46.37381" lon="5.311">
        <ele>213.8</ele>
        <time>2022-07-30T06:28:01Z</time>
      </trkpt>
      <trkpt lat="46.37375" lon="5.31092">
        <ele>213.6</ele>
        <time>2022-07-30T06:28:02Z</time>
      </trkpt>
      <trkpt lat="46.37338" lon="5.31037">
        <ele>212.6</ele>
        <time>2022-07-30T06:28:09Z</time>
      </trkpt>
      <trkpt lat="46.37332" lon="5.3103">
        <ele>212.6</ele>
        <time>2022-07-30T06:28:10Z</time>
      </trkpt>
      <trkpt lat="46.37296" lon="5.30977">
        <ele>212</ele>
        <time>2022-07-30T06:28:17Z</time>
      </trkpt>
      <trkpt lat="46.37255" lon="5.30918">
        <ele>211.8</ele>
        <time>2022-07-30T06:28:25Z</time>
      </trkpt>
      <trkpt lat="46.37245" lon="5.30903">
        <ele>211.8</ele>
        <time>2022-07-30T06:28:27Z</time>
      </trkpt>
      <trkpt lat="46.37205" lon="5.30845">
        <ele>211.8</ele>
        <time>2022-07-30T06:28:35Z</time>
      </trkpt>
      <trkpt lat="46.372" lon="5.30837">
        <ele>211.8</ele>
        <time>2022-07-30T06:28:36Z</time>
      </trkpt>
      <trkpt lat="46.37169" lon="5.30784">
        <ele>212</ele>
        <time>2022-07-30T06:28:43Z</time>
      </trkpt>
      <trkpt lat="46.37146" lon="5.30725">
        <ele>212.2</ele>
        <time>2022-07-30T06:28:50Z</time>
      </trkpt>
      <trkpt lat="46.37126" lon="5.30653">
        <ele>212</ele>
        <time>2022-07-30T06:28:58Z</time>
      </trkpt>
      <trkpt lat="46.37116" lon="5.30586">
        <ele>211.8</ele>
        <time>2022-07-30T06:29:05Z</time>
      </trkpt>
      <trkpt lat="46.37119" lon="5.30529">
        <ele>211.8</ele>
        <time>2022-07-30T06:29:11Z</time>
      </trkpt>
      <trkpt lat="46.37126" lon="5.30446">
        <ele>212</ele>
        <time>2022-07-30T06:29:20Z</time>
      </trkpt>
      <trkpt lat="46.37131" lon="5.30382">
        <ele>212</ele>
        <time>2022-07-30T06:29:27Z</time>
      </trkpt>
      <trkpt lat="46.37137" lon="5.30302">
        <ele>212.6</ele>
        <time>2022-07-30T06:29:36Z</time>
      </trkpt>
      <trkpt lat="46.37139" lon="5.30285">
        <ele>212.6</ele>
        <time>2022-07-30T06:29:38Z</time>
      </trkpt>
      <trkpt lat="46.37146" lon="5.30254">
        <ele>213.4</ele>
        <time>2022-07-30T06:29:42Z</time>
      </trkpt>
      <trkpt lat="46.37149" lon="5.30247">
        <ele>213.4</ele>
        <time>2022-07-30T06:29:43Z</time>
      </trkpt>
      <trkpt lat="46.37155" lon="5.30237">
        <ele>213.6</ele>
        <time>2022-07-30T06:29:45Z</time>
      </trkpt>
      <trkpt lat="46.37159" lon="5.30232">
        <ele>213.8</ele>
        <time>2022-07-30T06:29:46Z</time>
      </trkpt>
      <trkpt lat="46.37164" lon="5.30228">
        <ele>213.8</ele>
        <time>2022-07-30T06:29:47Z</time>
      </trkpt>
      <trkpt lat="46.37168" lon="5.30225">
        <ele>214</ele>
        <time>2022-07-30T06:29:48Z</time>
      </trkpt>
      <trkpt lat="46.37177" lon="5.3022">
        <ele>214.6</ele>
        <time>2022-07-30T06:29:50Z</time>
      </trkpt>
      <trkpt lat="46.37186" lon="5.30216">
        <ele>214.8</ele>
        <time>2022-07-30T06:29:52Z</time>
      </trkpt>
      <trkpt lat="46.37191" lon="5.30214">
        <ele>215.2</ele>
        <time>2022-07-30T06:29:53Z</time>
      </trkpt>
      <trkpt lat="46.37212" lon="5.30203">
        <ele>216.4</ele>
        <time>2022-07-30T06:29:58Z</time>
      </trkpt>
      <trkpt lat="46.37224" lon="5.30197">
        <ele>217</ele>
        <time>2022-07-30T06:30:01Z</time>
      </trkpt>
      <trkpt lat="46.37232" lon="5.30192">
        <ele>217.4</ele>
        <time>2022-07-30T06:30:03Z</time>
      </trkpt>
      <trkpt lat="46.37243" lon="5.30182">
        <ele>218.4</ele>
        <time>2022-07-30T06:30:06Z</time>
      </trkpt>
      <trkpt lat="46.37246" lon="5.30178">
        <ele>218.6</ele>
        <time>2022-07-30T06:30:07Z</time>
      </trkpt>
      <trkpt lat="46.37249" lon="5.30173">
        <ele>218.8</ele>
        <time>2022-07-30T06:30:08Z</time>
      </trkpt>
      <trkpt lat="46.37255" lon="5.30164">
        <ele>219.4</ele>
        <time>2022-07-30T06:30:10Z</time>
      </trkpt>
      <trkpt lat="46.37257" lon="5.30159">
        <ele>219.8</ele>
        <time>2022-07-30T06:30:11Z</time>
      </trkpt>
      <trkpt lat="46.3726" lon="5.30148">
        <ele>220.2</ele>
        <time>2022-07-30T06:30:13Z</time>
      </trkpt>
      <trkpt lat="46.37262" lon="5.30142">
        <ele>220.4</ele>
        <time>2022-07-30T06:30:14Z</time>
      </trkpt>
      <trkpt lat="46.37263" lon="5.30136">
        <ele>220.6</ele>
        <time>2022-07-30T06:30:15Z</time>
      </trkpt>
      <trkpt lat="46.37262" lon="5.30118">
        <ele>221.2</ele>
        <time>2022-07-30T06:30:18Z</time>
      </trkpt>
      <trkpt lat="46.37262" lon="5.30112">
        <ele>221.6</ele>
        <time>2022-07-30T06:30:19Z</time>
      </trkpt>
      <trkpt lat="46.37262" lon="5.30095">
        <ele>222.2</ele>
        <time>2022-07-30T06:30:22Z</time>
      </trkpt>
      <trkpt lat="46.3726" lon="5.30062">
        <ele>223.4</ele>
        <time>2022-07-30T06:30:28Z</time>
      </trkpt>
      <trkpt lat="46.3726" lon="5.30051">
        <ele>223.6</ele>
        <time>2022-07-30T06:30:30Z</time>
      </trkpt>
      <trkpt lat="46.3726" lon="5.30024">
        <ele>224.8</ele>
        <time>2022-07-30T06:30:35Z</time>
      </trkpt>
      <trkpt lat="46.3726" lon="5.30018">
        <ele>225</ele>
        <time>2022-07-30T06:30:36Z</time>
      </trkpt>
      <trkpt lat="46.37269" lon="5.29994">
        <ele>226</ele>
        <time>2022-07-30T06:30:41Z</time>
      </trkpt>
      <trkpt lat="46.37285" lon="5.29979">
        <ele>227</ele>
        <time>2022-07-30T06:30:46Z</time>
      </trkpt>
      <trkpt lat="46.37288" lon="5.29977">
        <ele>227.2</ele>
        <time>2022-07-30T06:30:47Z</time>
      </trkpt>
      <trkpt lat="46.37302" lon="5.29969">
        <ele>228</ele>
        <time>2022-07-30T06:30:51Z</time>
      </trkpt>
      <trkpt lat="46.37312" lon="5.29961">
        <ele>228.8</ele>
        <time>2022-07-30T06:30:54Z</time>
      </trkpt>
      <trkpt lat="46.37316" lon="5.29953">
        <ele>229.2</ele>
        <time>2022-07-30T06:30:56Z</time>
      </trkpt>
      <trkpt lat="46.37318" lon="5.29943">
        <ele>230</ele>
        <time>2022-07-30T06:30:58Z</time>
      </trkpt>
      <trkpt lat="46.37316" lon="5.29932">
        <ele>230.4</ele>
        <time>2022-07-30T06:31:00Z</time>
      </trkpt>
      <trkpt lat="46.37312" lon="5.29923">
        <ele>230.8</ele>
        <time>2022-07-30T06:31:02Z</time>
      </trkpt>
      <trkpt lat="46.37303" lon="5.29913">
        <ele>231.8</ele>
        <time>2022-07-30T06:31:05Z</time>
      </trkpt>
      <trkpt lat="46.373" lon="5.2991">
        <ele>232</ele>
        <time>2022-07-30T06:31:06Z</time>
      </trkpt>
      <trkpt lat="46.37293" lon="5.29905">
        <ele>232.4</ele>
        <time>2022-07-30T06:31:08Z</time>
      </trkpt>
      <trkpt lat="46.37285" lon="5.29903">
        <ele>232.8</ele>
        <time>2022-07-30T06:31:10Z</time>
      </trkpt>
      <trkpt lat="46.37269" lon="5.29903">
        <ele>233.8</ele>
        <time>2022-07-30T06:31:14Z</time>
      </trkpt>
      <trkpt lat="46.37245" lon="5.29909">
        <ele>235</ele>
        <time>2022-07-30T06:31:20Z</time>
      </trkpt>
      <trkpt lat="46.37232" lon="5.29913">
        <ele>235.6</ele>
        <time>2022-07-30T06:31:23Z</time>
      </trkpt>
      <trkpt lat="46.3722" lon="5.29919">
        <ele>236</ele>
        <time>2022-07-30T06:31:26Z</time>
      </trkpt>
      <trkpt lat="46.37202" lon="5.29927">
        <ele>236.4</ele>
        <time>2022-07-30T06:31:30Z</time>
      </trkpt>
      <trkpt lat="46.37191" lon="5.2993">
        <ele>236.6</ele>
        <time>2022-07-30T06:31:32Z</time>
      </trkpt>
      <trkpt lat="46.37176" lon="5.29929">
        <ele>236.8</ele>
        <time>2022-07-30T06:31:35Z</time>
      </trkpt>
      <trkpt lat="46.37157" lon="5.29919">
        <ele>237</ele>
        <time>2022-07-30T06:31:39Z</time>
      </trkpt>
      <trkpt lat="46.37138" lon="5.29908">
        <ele>237.4</ele>
        <time>2022-07-30T06:31:43Z</time>
      </trkpt>
      <trkpt lat="46.37109" lon="5.29885">
        <ele>237</ele>
        <time>2022-07-30T06:31:48Z</time>
      </trkpt>
      <trkpt lat="46.37082" lon="5.29866">
        <ele>235.8</ele>
        <time>2022-07-30T06:31:52Z</time>
      </trkpt>
      <trkpt lat="46.37075" lon="5.29861">
        <ele>235.4</ele>
        <time>2022-07-30T06:31:53Z</time>
      </trkpt>
      <trkpt lat="46.37053" lon="5.29846">
        <ele>234.8</ele>
        <time>2022-07-30T06:31:56Z</time>
      </trkpt>
      <trkpt lat="46.3703" lon="5.29827">
        <ele>234.2</ele>
        <time>2022-07-30T06:31:59Z</time>
      </trkpt>
      <trkpt lat="46.37014" lon="5.2982">
        <ele>233.4</ele>
        <time>2022-07-30T06:32:01Z</time>
      </trkpt>
      <trkpt lat="46.37005" lon="5.29818">
        <ele>233</ele>
        <time>2022-07-30T06:32:02Z</time>
      </trkpt>
      <trkpt lat="46.36974" lon="5.29818">
        <ele>232.6</ele>
        <time>2022-07-30T06:32:06Z</time>
      </trkpt>
      <trkpt lat="46.36967" lon="5.29816">
        <ele>232.6</ele>
        <time>2022-07-30T06:32:07Z</time>
      </trkpt>
      <trkpt lat="46.36935" lon="5.29809">
        <ele>233.4</ele>
        <time>2022-07-30T06:32:12Z</time>
      </trkpt>
      <trkpt lat="46.36913" lon="5.29812">
        <ele>234.8</ele>
        <time>2022-07-30T06:32:16Z</time>
      </trkpt>
      <trkpt lat="46.36902" lon="5.29815">
        <ele>235.4</ele>
        <time>2022-07-30T06:32:18Z</time>
      </trkpt>
      <trkpt lat="46.36897" lon="5.29817">
        <ele>236</ele>
        <time>2022-07-30T06:32:19Z</time>
      </trkpt>
      <trkpt lat="46.36876" lon="5.29822">
        <ele>237.2</ele>
        <time>2022-07-30T06:32:23Z</time>
      </trkpt>
      <trkpt lat="46.36856" lon="5.29829">
        <ele>237.8</ele>
        <time>2022-07-30T06:32:27Z</time>
      </trkpt>
      <trkpt lat="46.36851" lon="5.29831">
        <ele>238.2</ele>
        <time>2022-07-30T06:32:28Z</time>
      </trkpt>
      <trkpt lat="46.36829" lon="5.29838">
        <ele>239.2</ele>
        <time>2022-07-30T06:32:32Z</time>
      </trkpt>
      <trkpt lat="46.36811" lon="5.29841">
        <ele>239.8</ele>
        <time>2022-07-30T06:32:35Z</time>
      </trkpt>
      <trkpt lat="46.36805" lon="5.29841">
        <ele>239.8</ele>
        <time>2022-07-30T06:32:36Z</time>
      </trkpt>
      <trkpt lat="46.36799" lon="5.29839">
        <ele>239.8</ele>
        <time>2022-07-30T06:32:37Z</time>
      </trkpt>
      <trkpt lat="46.36779" lon="5.29832">
        <ele>239.8</ele>
        <time>2022-07-30T06:32:40Z</time>
      </trkpt>
      <trkpt lat="46.3674" lon="5.29805">
        <ele>239</ele>
        <time>2022-07-30T06:32:46Z</time>
      </trkpt>
      <trkpt lat="46.36706" lon="5.29777">
        <ele>238.4</ele>
        <time>2022-07-30T06:32:51Z</time>
      </trkpt>
      <trkpt lat="46.36693" lon="5.29766">
        <ele>238</ele>
        <time>2022-07-30T06:32:53Z</time>
      </trkpt>
      <trkpt lat="46.36686" lon="5.29762">
        <ele>238.2</ele>
        <time>2022-07-30T06:32:54Z</time>
      </trkpt>
      <trkpt lat="46.36652" lon="5.29742">
        <ele>237.4</ele>
        <time>2022-07-30T06:32:59Z</time>
      </trkpt>
      <trkpt lat="46.36597" lon="5.29715">
        <ele>237.8</ele>
        <time>2022-07-30T06:33:07Z</time>
      </trkpt>
      <trkpt lat="46.3659" lon="5.29712">
        <ele>238</ele>
        <time>2022-07-30T06:33:08Z</time>
      </trkpt>
      <trkpt lat="46.36537" lon="5.29689">
        <ele>238.6</ele>
        <time>2022-07-30T06:33:16Z</time>
      </trkpt>
      <trkpt lat="46.3653" lon="5.29686">
        <ele>238.6</ele>
        <time>2022-07-30T06:33:17Z</time>
      </trkpt>
      <trkpt lat="46.36473" lon="5.29661">
        <ele>238.4</ele>
        <time>2022-07-30T06:33:25Z</time>
      </trkpt>
      <trkpt lat="46.36422" lon="5.29626">
        <ele>238.6</ele>
        <time>2022-07-30T06:33:33Z</time>
      </trkpt>
      <trkpt lat="46.3641" lon="5.29617">
        <ele>238.8</ele>
        <time>2022-07-30T06:33:35Z</time>
      </trkpt>
      <trkpt lat="46.36393" lon="5.29602">
        <ele>239.2</ele>
        <time>2022-07-30T06:33:38Z</time>
      </trkpt>
      <trkpt lat="46.36388" lon="5.29597">
        <ele>239.4</ele>
        <time>2022-07-30T06:33:39Z</time>
      </trkpt>
      <trkpt lat="46.36383" lon="5.29591">
        <ele>239.4</ele>
        <time>2022-07-30T06:33:40Z</time>
      </trkpt>
      <trkpt lat="46.36359" lon="5.29548">
        <ele>240.2</ele>
        <time>2022-07-30T06:33:46Z</time>
      </trkpt>
      <trkpt lat="46.36356" lon="5.2954">
        <ele>240.4</ele>
        <time>2022-07-30T06:33:47Z</time>
      </trkpt>
      <trkpt lat="46.36351" lon="5.29533">
        <ele>240.4</ele>
        <time>2022-07-30T06:33:48Z</time>
      </trkpt>
      <trkpt lat="46.36336" lon="5.29513">
        <ele>240.6</ele>
        <time>2022-07-30T06:33:51Z</time>
      </trkpt>
      <trkpt lat="46.36311" lon="5.2949">
        <ele>240.4</ele>
        <time>2022-07-30T06:33:55Z</time>
      </trkpt>
      <trkpt lat="46.36281" lon="5.29471">
        <ele>239.4</ele>
        <time>2022-07-30T06:33:59Z</time>
      </trkpt>
      <trkpt lat="46.36272" lon="5.29469">
        <ele>239</ele>
        <time>2022-07-30T06:34:00Z</time>
      </trkpt>
      <trkpt lat="46.36246" lon="5.29464">
        <ele>238</ele>
        <time>2022-07-30T06:34:03Z</time>
      </trkpt>
      <trkpt lat="46.36238" lon="5.29465">
        <ele>238</ele>
        <time>2022-07-30T06:34:04Z</time>
      </trkpt>
      <trkpt lat="46.36222" lon="5.29472">
        <ele>237.2</ele>
        <time>2022-07-30T06:34:06Z</time>
      </trkpt>
      <trkpt lat="46.36216" lon="5.29477">
        <ele>237</ele>
        <time>2022-07-30T06:34:07Z</time>
      </trkpt>
      <trkpt lat="46.36209" lon="5.29483">
        <ele>236.8</ele>
        <time>2022-07-30T06:34:08Z</time>
      </trkpt>
      <trkpt lat="46.36174" lon="5.29515">
        <ele>237.4</ele>
        <time>2022-07-30T06:34:14Z</time>
      </trkpt>
      <trkpt lat="46.3616" lon="5.29523">
        <ele>238.2</ele>
        <time>2022-07-30T06:34:16Z</time>
      </trkpt>
      <trkpt lat="46.36144" lon="5.29527">
        <ele>238.8</ele>
        <time>2022-07-30T06:34:18Z</time>
      </trkpt>
      <trkpt lat="46.36093" lon="5.29534">
        <ele>238.4</ele>
        <time>2022-07-30T06:34:24Z</time>
      </trkpt>
      <trkpt lat="46.36026" lon="5.2954">
        <ele>237.4</ele>
        <time>2022-07-30T06:34:31Z</time>
      </trkpt>
      <trkpt lat="46.36026" lon="5.2954">
        <ele>237.2</ele>
        <time>2022-07-30T06:34:32Z</time>
      </trkpt>
      <trkpt lat="46.3597" lon="5.29548">
        <ele>237</ele>
        <time>2022-07-30T06:34:39Z</time>
      </trkpt>
      <trkpt lat="46.35955" lon="5.2955">
        <ele>237</ele>
        <time>2022-07-30T06:34:41Z</time>
      </trkpt>
      <trkpt lat="46.35904" lon="5.29552">
        <ele>237.2</ele>
        <time>2022-07-30T06:34:48Z</time>
      </trkpt>
      <trkpt lat="46.35897" lon="5.29551">
        <ele>237.2</ele>
        <time>2022-07-30T06:34:49Z</time>
      </trkpt>
      <trkpt lat="46.35878" lon="5.29547">
        <ele>237.6</ele>
        <time>2022-07-30T06:34:52Z</time>
      </trkpt>
      <trkpt lat="46.3586" lon="5.29544">
        <ele>238.4</ele>
        <time>2022-07-30T06:34:55Z</time>
      </trkpt>
      <trkpt lat="46.35843" lon="5.29543">
        <ele>239.2</ele>
        <time>2022-07-30T06:34:58Z</time>
      </trkpt>
      <trkpt lat="46.35838" lon="5.29542">
        <ele>239.4</ele>
        <time>2022-07-30T06:34:59Z</time>
      </trkpt>
      <trkpt lat="46.35807" lon="5.29541">
        <ele>240.4</ele>
        <time>2022-07-30T06:35:04Z</time>
      </trkpt>
      <trkpt lat="46.35801" lon="5.29541">
        <ele>240.4</ele>
        <time>2022-07-30T06:35:05Z</time>
      </trkpt>
      <trkpt lat="46.35789" lon="5.29539">
        <ele>240.6</ele>
        <time>2022-07-30T06:35:07Z</time>
      </trkpt>
      <trkpt lat="46.35773" lon="5.29538">
        <ele>241</ele>
        <time>2022-07-30T06:35:10Z</time>
      </trkpt>
      <trkpt lat="46.3575" lon="5.29537">
        <ele>241.8</ele>
        <time>2022-07-30T06:35:14Z</time>
      </trkpt>
      <trkpt lat="46.35744" lon="5.29537">
        <ele>242.2</ele>
        <time>2022-07-30T06:35:15Z</time>
      </trkpt>
      <trkpt lat="46.35738" lon="5.29537">
        <ele>242.6</ele>
        <time>2022-07-30T06:35:16Z</time>
      </trkpt>
      <trkpt lat="46.35732" lon="5.29537">
        <ele>242.8</ele>
        <time>2022-07-30T06:35:17Z</time>
      </trkpt>
      <trkpt lat="46.3571" lon="5.29545">
        <ele>243.2</ele>
        <time>2022-07-30T06:35:21Z</time>
      </trkpt>
      <trkpt lat="46.35695" lon="5.29555">
        <ele>243.6</ele>
        <time>2022-07-30T06:35:24Z</time>
      </trkpt>
      <trkpt lat="46.35685" lon="5.29566">
        <ele>243.8</ele>
        <time>2022-07-30T06:35:26Z</time>
      </trkpt>
      <trkpt lat="46.3568" lon="5.29571">
        <ele>244</ele>
        <time>2022-07-30T06:35:27Z</time>
      </trkpt>
      <trkpt lat="46.35669" lon="5.29581">
        <ele>244.2</ele>
        <time>2022-07-30T06:35:29Z</time>
      </trkpt>
      <trkpt lat="46.35652" lon="5.29595">
        <ele>244.4</ele>
        <time>2022-07-30T06:35:32Z</time>
      </trkpt>
      <trkpt lat="46.35611" lon="5.29619">
        <ele>244.4</ele>
        <time>2022-07-30T06:35:39Z</time>
      </trkpt>
      <trkpt lat="46.35555" lon="5.29642">
        <ele>244.2</ele>
        <time>2022-07-30T06:35:48Z</time>
      </trkpt>
      <trkpt lat="46.35507" lon="5.29651">
        <ele>244</ele>
        <time>2022-07-30T06:35:55Z</time>
      </trkpt>
      <trkpt lat="46.355" lon="5.29654">
        <ele>244</ele>
        <time>2022-07-30T06:35:56Z</time>
      </trkpt>
      <trkpt lat="46.35494" lon="5.2966">
        <ele>243.8</ele>
        <time>2022-07-30T06:35:57Z</time>
      </trkpt>
      <trkpt lat="46.35484" lon="5.29675">
        <ele>243.6</ele>
        <time>2022-07-30T06:35:59Z</time>
      </trkpt>
      <trkpt lat="46.3548" lon="5.29683">
        <ele>243.4</ele>
        <time>2022-07-30T06:36:00Z</time>
      </trkpt>
      <trkpt lat="46.35468" lon="5.29694">
        <ele>243</ele>
        <time>2022-07-30T06:36:02Z</time>
      </trkpt>
      <trkpt lat="46.35455" lon="5.29693">
        <ele>243</ele>
        <time>2022-07-30T06:36:04Z</time>
      </trkpt>
      <trkpt lat="46.35448" lon="5.29691">
        <ele>243</ele>
        <time>2022-07-30T06:36:05Z</time>
      </trkpt>
      <trkpt lat="46.35392" lon="5.29672">
        <ele>243.6</ele>
        <time>2022-07-30T06:36:13Z</time>
      </trkpt>
      <trkpt lat="46.35362" lon="5.29662">
        <ele>244</ele>
        <time>2022-07-30T06:36:17Z</time>
      </trkpt>
      <trkpt lat="46.35325" lon="5.29652">
        <ele>244.2</ele>
        <time>2022-07-30T06:36:22Z</time>
      </trkpt>
      <trkpt lat="46.35265" lon="5.29642">
        <ele>244.2</ele>
        <time>2022-07-30T06:36:30Z</time>
      </trkpt>
      <trkpt lat="46.35257" lon="5.29642">
        <ele>244.2</ele>
        <time>2022-07-30T06:36:31Z</time>
      </trkpt>
      <trkpt lat="46.35203" lon="5.29648">
        <ele>243.6</ele>
        <time>2022-07-30T06:36:37Z</time>
      </trkpt>
      <trkpt lat="46.35144" lon="5.29656">
        <ele>243</ele>
        <time>2022-07-30T06:36:44Z</time>
      </trkpt>
      <trkpt lat="46.35126" lon="5.29658">
        <ele>242.6</ele>
        <time>2022-07-30T06:36:46Z</time>
      </trkpt>
      <trkpt lat="46.35099" lon="5.29661">
        <ele>241.4</ele>
        <time>2022-07-30T06:36:49Z</time>
      </trkpt>
      <trkpt lat="46.35081" lon="5.2966">
        <ele>241</ele>
        <time>2022-07-30T06:36:51Z</time>
      </trkpt>
      <trkpt lat="46.35056" lon="5.29652">
        <ele>240.4</ele>
        <time>2022-07-30T06:36:54Z</time>
      </trkpt>
      <trkpt lat="46.35056" lon="5.29652">
        <ele>240.4</ele>
        <time>2022-07-30T06:36:55Z</time>
      </trkpt>
      <trkpt lat="46.35042" lon="5.29643">
        <ele>240.4</ele>
        <time>2022-07-30T06:36:56Z</time>
      </trkpt>
      <trkpt lat="46.35035" lon="5.2964">
        <ele>240.2</ele>
        <time>2022-07-30T06:36:57Z</time>
      </trkpt>
      <trkpt lat="46.35021" lon="5.29635">
        <ele>240.6</ele>
        <time>2022-07-30T06:36:59Z</time>
      </trkpt>
      <trkpt lat="46.34982" lon="5.29633">
        <ele>241.6</ele>
        <time>2022-07-30T06:37:05Z</time>
      </trkpt>
      <trkpt lat="46.34969" lon="5.29637">
        <ele>242</ele>
        <time>2022-07-30T06:37:07Z</time>
      </trkpt>
      <trkpt lat="46.34957" lon="5.29645">
        <ele>242.6</ele>
        <time>2022-07-30T06:37:09Z</time>
      </trkpt>
      <trkpt lat="46.34938" lon="5.29663">
        <ele>243.2</ele>
        <time>2022-07-30T06:37:12Z</time>
      </trkpt>
      <trkpt lat="46.34931" lon="5.29666">
        <ele>243.2</ele>
        <time>2022-07-30T06:37:13Z</time>
      </trkpt>
      <trkpt lat="46.34923" lon="5.29665">
        <ele>243.2</ele>
        <time>2022-07-30T06:37:14Z</time>
      </trkpt>
      <trkpt lat="46.34909" lon="5.29658">
        <ele>243.2</ele>
        <time>2022-07-30T06:37:16Z</time>
      </trkpt>
      <trkpt lat="46.34864" lon="5.29629">
        <ele>243.2</ele>
        <time>2022-07-30T06:37:23Z</time>
      </trkpt>
      <trkpt lat="46.34822" lon="5.29613">
        <ele>243.6</ele>
        <time>2022-07-30T06:37:29Z</time>
      </trkpt>
      <trkpt lat="46.34815" lon="5.29613">
        <ele>243.6</ele>
        <time>2022-07-30T06:37:30Z</time>
      </trkpt>
      <trkpt lat="46.34785" lon="5.29614">
        <ele>243.6</ele>
        <time>2022-07-30T06:37:35Z</time>
      </trkpt>
      <trkpt lat="46.34748" lon="5.29621">
        <ele>243.4</ele>
        <time>2022-07-30T06:37:39Z</time>
      </trkpt>
      <trkpt lat="46.3474" lon="5.29625">
        <ele>243.4</ele>
        <time>2022-07-30T06:37:40Z</time>
      </trkpt>
      <trkpt lat="46.34711" lon="5.29643">
        <ele>242.8</ele>
        <time>2022-07-30T06:37:44Z</time>
      </trkpt>
      <trkpt lat="46.34703" lon="5.29644">
        <ele>242.8</ele>
        <time>2022-07-30T06:37:45Z</time>
      </trkpt>
      <trkpt lat="46.34694" lon="5.29642">
        <ele>242.6</ele>
        <time>2022-07-30T06:37:46Z</time>
      </trkpt>
      <trkpt lat="46.3466" lon="5.29636">
        <ele>242.2</ele>
        <time>2022-07-30T06:37:50Z</time>
      </trkpt>
      <trkpt lat="46.34643" lon="5.29633">
        <ele>241.6</ele>
        <time>2022-07-30T06:37:52Z</time>
      </trkpt>
      <trkpt lat="46.34601" lon="5.29623">
        <ele>240.8</ele>
        <time>2022-07-30T06:37:57Z</time>
      </trkpt>
      <trkpt lat="46.34575" lon="5.2962">
        <ele>240.6</ele>
        <time>2022-07-30T06:38:00Z</time>
      </trkpt>
      <trkpt lat="46.3455" lon="5.29617">
        <ele>240.4</ele>
        <time>2022-07-30T06:38:03Z</time>
      </trkpt>
      <trkpt lat="46.34503" lon="5.29605">
        <ele>240.2</ele>
        <time>2022-07-30T06:38:09Z</time>
      </trkpt>
      <trkpt lat="46.34473" lon="5.29598">
        <ele>240.4</ele>
        <time>2022-07-30T06:38:13Z</time>
      </trkpt>
      <trkpt lat="46.34466" lon="5.29594">
        <ele>240.4</ele>
        <time>2022-07-30T06:38:14Z</time>
      </trkpt>
      <trkpt lat="46.3446" lon="5.29587">
        <ele>240.6</ele>
        <time>2022-07-30T06:38:15Z</time>
      </trkpt>
      <trkpt lat="46.34454" lon="5.2957">
        <ele>240.6</ele>
        <time>2022-07-30T06:38:17Z</time>
      </trkpt>
      <trkpt lat="46.34457" lon="5.29542">
        <ele>240.8</ele>
        <time>2022-07-30T06:38:20Z</time>
      </trkpt>
      <trkpt lat="46.34463" lon="5.29516">
        <ele>241.6</ele>
        <time>2022-07-30T06:38:23Z</time>
      </trkpt>
      <trkpt lat="46.34468" lon="5.29481">
        <ele>242.8</ele>
        <time>2022-07-30T06:38:27Z</time>
      </trkpt>
      <trkpt lat="46.34469" lon="5.29472">
        <ele>243</ele>
        <time>2022-07-30T06:38:28Z</time>
      </trkpt>
      <trkpt lat="46.34466" lon="5.29454">
        <ele>243.2</ele>
        <time>2022-07-30T06:38:30Z</time>
      </trkpt>
      <trkpt lat="46.34459" lon="5.2944">
        <ele>243.4</ele>
        <time>2022-07-30T06:38:32Z</time>
      </trkpt>
      <trkpt lat="46.34454" lon="5.29434">
        <ele>243.8</ele>
        <time>2022-07-30T06:38:33Z</time>
      </trkpt>
      <trkpt lat="46.3445" lon="5.29428">
        <ele>243.8</ele>
        <time>2022-07-30T06:38:34Z</time>
      </trkpt>
      <trkpt lat="46.34435" lon="5.29401">
        <ele>244.8</ele>
        <time>2022-07-30T06:38:38Z</time>
      </trkpt>
      <trkpt lat="46.34431" lon="5.29393">
        <ele>244.8</ele>
        <time>2022-07-30T06:38:39Z</time>
      </trkpt>
      <trkpt lat="46.34424" lon="5.29378">
        <ele>245</ele>
        <time>2022-07-30T06:38:41Z</time>
      </trkpt>
      <trkpt lat="46.34417" lon="5.29364">
        <ele>245</ele>
        <time>2022-07-30T06:38:43Z</time>
      </trkpt>
      <trkpt lat="46.34407" lon="5.29351">
        <ele>245</ele>
        <time>2022-07-30T06:38:46Z</time>
      </trkpt>
      <trkpt lat="46.34394" lon="5.29342">
        <ele>245</ele>
        <time>2022-07-30T06:38:47Z</time>
      </trkpt>
      <trkpt lat="46.34381" lon="5.29337">
        <ele>245</ele>
        <time>2022-07-30T06:38:49Z</time>
      </trkpt>
      <trkpt lat="46.34359" lon="5.2933">
        <ele>244.8</ele>
        <time>2022-07-30T06:38:52Z</time>
      </trkpt>
      <trkpt lat="46.34346" lon="5.29322">
        <ele>244.4</ele>
        <time>2022-07-30T06:38:54Z</time>
      </trkpt>
      <trkpt lat="46.34339" lon="5.29317">
        <ele>244.2</ele>
        <time>2022-07-30T06:38:55Z</time>
      </trkpt>
      <trkpt lat="46.34326" lon="5.29307">
        <ele>243.8</ele>
        <time>2022-07-30T06:38:57Z</time>
      </trkpt>
      <trkpt lat="46.34297" lon="5.29294">
        <ele>243.6</ele>
        <time>2022-07-30T06:39:01Z</time>
      </trkpt>
      <trkpt lat="46.34237" lon="5.29278">
        <ele>243</ele>
        <time>2022-07-30T06:39:09Z</time>
      </trkpt>
      <trkpt lat="46.34222" lon="5.29273">
        <ele>242.8</ele>
        <time>2022-07-30T06:39:11Z</time>
      </trkpt>
      <trkpt lat="46.34193" lon="5.2926">
        <ele>242.8</ele>
        <time>2022-07-30T06:39:15Z</time>
      </trkpt>
      <trkpt lat="46.34185" lon="5.29259">
        <ele>242.8</ele>
        <time>2022-07-30T06:39:16Z</time>
      </trkpt>
      <trkpt lat="46.34137" lon="5.29266">
        <ele>242</ele>
        <time>2022-07-30T06:39:22Z</time>
      </trkpt>
      <trkpt lat="46.34122" lon="5.29269">
        <ele>241.8</ele>
        <time>2022-07-30T06:39:24Z</time>
      </trkpt>
      <trkpt lat="46.34114" lon="5.29272">
        <ele>241.6</ele>
        <time>2022-07-30T06:39:25Z</time>
      </trkpt>
      <trkpt lat="46.34101" lon="5.29283">
        <ele>241.6</ele>
        <time>2022-07-30T06:39:27Z</time>
      </trkpt>
      <trkpt lat="46.34091" lon="5.293">
        <ele>241.4</ele>
        <time>2022-07-30T06:39:29Z</time>
      </trkpt>
      <trkpt lat="46.34086" lon="5.29309">
        <ele>241.4</ele>
        <time>2022-07-30T06:39:30Z</time>
      </trkpt>
      <trkpt lat="46.34073" lon="5.29338">
        <ele>241.2</ele>
        <time>2022-07-30T06:39:33Z</time>
      </trkpt>
      <trkpt lat="46.34062" lon="5.29354">
        <ele>241</ele>
        <time>2022-07-30T06:39:35Z</time>
      </trkpt>
      <trkpt lat="46.34056" lon="5.2936">
        <ele>241</ele>
        <time>2022-07-30T06:39:36Z</time>
      </trkpt>
      <trkpt lat="46.34042" lon="5.29369">
        <ele>240.8</ele>
        <time>2022-07-30T06:39:38Z</time>
      </trkpt>
      <trkpt lat="46.34009" lon="5.29382">
        <ele>241</ele>
        <time>2022-07-30T06:39:43Z</time>
      </trkpt>
      <trkpt lat="46.33998" lon="5.29392">
        <ele>241.6</ele>
        <time>2022-07-30T06:39:45Z</time>
      </trkpt>
      <trkpt lat="46.33983" lon="5.2941">
        <ele>242</ele>
        <time>2022-07-30T06:39:48Z</time>
      </trkpt>
      <trkpt lat="46.33969" lon="5.29431">
        <ele>242.8</ele>
        <time>2022-07-30T06:39:51Z</time>
      </trkpt>
      <trkpt lat="46.33962" lon="5.29447">
        <ele>243.2</ele>
        <time>2022-07-30T06:39:53Z</time>
      </trkpt>
      <trkpt lat="46.3395" lon="5.29489">
        <ele>244</ele>
        <time>2022-07-30T06:39:58Z</time>
      </trkpt>
      <trkpt lat="46.33946" lon="5.29497">
        <ele>244.4</ele>
        <time>2022-07-30T06:39:59Z</time>
      </trkpt>
      <trkpt lat="46.33941" lon="5.29504">
        <ele>244.4</ele>
        <time>2022-07-30T06:40:00Z</time>
      </trkpt>
      <trkpt lat="46.33928" lon="5.29511">
        <ele>244.6</ele>
        <time>2022-07-30T06:40:02Z</time>
      </trkpt>
      <trkpt lat="46.339" lon="5.29515">
        <ele>244.6</ele>
        <time>2022-07-30T06:40:06Z</time>
      </trkpt>
      <trkpt lat="46.33893" lon="5.29515">
        <ele>244.6</ele>
        <time>2022-07-30T06:40:07Z</time>
      </trkpt>
      <trkpt lat="46.33836" lon="5.29516">
        <ele>244</ele>
        <time>2022-07-30T06:40:15Z</time>
      </trkpt>
      <trkpt lat="46.33814" lon="5.29515">
        <ele>244</ele>
        <time>2022-07-30T06:40:18Z</time>
      </trkpt>
      <trkpt lat="46.33807" lon="5.29514">
        <ele>244</ele>
        <time>2022-07-30T06:40:19Z</time>
      </trkpt>
      <trkpt lat="46.33787" lon="5.29503">
        <ele>243.8</ele>
        <time>2022-07-30T06:40:22Z</time>
      </trkpt>
      <trkpt lat="46.33747" lon="5.29466">
        <ele>244.2</ele>
        <time>2022-07-30T06:40:29Z</time>
      </trkpt>
      <trkpt lat="46.33706" lon="5.29411">
        <ele>245</ele>
        <time>2022-07-30T06:40:37Z</time>
      </trkpt>
      <trkpt lat="46.33682" lon="5.29378">
        <ele>245.2</ele>
        <time>2022-07-30T06:40:42Z</time>
      </trkpt>
      <trkpt lat="46.3367" lon="5.29368">
        <ele>245.4</ele>
        <time>2022-07-30T06:40:44Z</time>
      </trkpt>
      <trkpt lat="46.33657" lon="5.29363">
        <ele>245.4</ele>
        <time>2022-07-30T06:40:46Z</time>
      </trkpt>
      <trkpt lat="46.33644" lon="5.29363">
        <ele>245.6</ele>
        <time>2022-07-30T06:40:48Z</time>
      </trkpt>
      <trkpt lat="46.3361" lon="5.29371">
        <ele>245.6</ele>
        <time>2022-07-30T06:40:53Z</time>
      </trkpt>
      <trkpt lat="46.33592" lon="5.29369">
        <ele>245.8</ele>
        <time>2022-07-30T06:40:56Z</time>
      </trkpt>
      <trkpt lat="46.33574" lon="5.29365">
        <ele>246</ele>
        <time>2022-07-30T06:40:59Z</time>
      </trkpt>
      <trkpt lat="46.33549" lon="5.29357">
        <ele>246.4</ele>
        <time>2022-07-30T06:41:03Z</time>
      </trkpt>
      <trkpt lat="46.33523" lon="5.29348">
        <ele>246.6</ele>
        <time>2022-07-30T06:41:07Z</time>
      </trkpt>
      <trkpt lat="46.3347" lon="5.29325">
        <ele>246.6</ele>
        <time>2022-07-30T06:41:15Z</time>
      </trkpt>
      <trkpt lat="46.33433" lon="5.29295">
        <ele>246.2</ele>
        <time>2022-07-30T06:41:21Z</time>
      </trkpt>
      <trkpt lat="46.33426" lon="5.29284">
        <ele>246</ele>
        <time>2022-07-30T06:41:23Z</time>
      </trkpt>
      <trkpt lat="46.33424" lon="5.2928">
        <ele>245.8</ele>
        <time>2022-07-30T06:41:24Z</time>
      </trkpt>
      <trkpt lat="46.33423" lon="5.29277">
        <ele>245.8</ele>
        <time>2022-07-30T06:41:27Z</time>
      </trkpt>
      <trkpt lat="46.33424" lon="5.29277">
        <ele>245.6</ele>
        <time>2022-07-30T06:41:28Z</time>
      </trkpt>
      <trkpt lat="46.33424" lon="5.29272">
        <ele>245.6</ele>
        <time>2022-07-30T06:41:30Z</time>
      </trkpt>
      <trkpt lat="46.33425" lon="5.29264">
        <ele>245.6</ele>
        <time>2022-07-30T06:41:32Z</time>
      </trkpt>
      <trkpt lat="46.33425" lon="5.29259">
        <ele>245.6</ele>
        <time>2022-07-30T06:41:33Z</time>
      </trkpt>
      <trkpt lat="46.33419" lon="5.2925">
        <ele>245.6</ele>
        <time>2022-07-30T06:41:35Z</time>
      </trkpt>
      <trkpt lat="46.33394" lon="5.29238">
        <ele>245.4</ele>
        <time>2022-07-30T06:41:39Z</time>
      </trkpt>
      <trkpt lat="46.3338" lon="5.29233">
        <ele>245</ele>
        <time>2022-07-30T06:41:41Z</time>
      </trkpt>
      <trkpt lat="46.33357" lon="5.29225">
        <ele>244.8</ele>
        <time>2022-07-30T06:41:44Z</time>
      </trkpt>
      <trkpt lat="46.33321" lon="5.29206">
        <ele>244.4</ele>
        <time>2022-07-30T06:41:49Z</time>
      </trkpt>
      <trkpt lat="46.33291" lon="5.29173">
        <ele>244.4</ele>
        <time>2022-07-30T06:41:54Z</time>
      </trkpt>
      <trkpt lat="46.33272" lon="5.29152">
        <ele>244</ele>
        <time>2022-07-30T06:41:57Z</time>
      </trkpt>
      <trkpt lat="46.33265" lon="5.29147">
        <ele>244</ele>
        <time>2022-07-30T06:41:58Z</time>
      </trkpt>
      <trkpt lat="46.33251" lon="5.29139">
        <ele>244</ele>
        <time>2022-07-30T06:42:00Z</time>
      </trkpt>
      <trkpt lat="46.33213" lon="5.29133">
        <ele>243.6</ele>
        <time>2022-07-30T06:42:05Z</time>
      </trkpt>
      <trkpt lat="46.33157" lon="5.29122">
        <ele>243.8</ele>
        <time>2022-07-30T06:42:13Z</time>
      </trkpt>
      <trkpt lat="46.33116" lon="5.29104">
        <ele>244.8</ele>
        <time>2022-07-30T06:42:20Z</time>
      </trkpt>
      <trkpt lat="46.33105" lon="5.29096">
        <ele>245.2</ele>
        <time>2022-07-30T06:42:22Z</time>
      </trkpt>
      <trkpt lat="46.33064" lon="5.29067">
        <ele>245.4</ele>
        <time>2022-07-30T06:42:29Z</time>
      </trkpt>
      <trkpt lat="46.33012" lon="5.29034">
        <ele>245.6</ele>
        <time>2022-07-30T06:42:37Z</time>
      </trkpt>
      <trkpt lat="46.32958" lon="5.29001">
        <ele>245.4</ele>
        <time>2022-07-30T06:42:45Z</time>
      </trkpt>
      <trkpt lat="46.3291" lon="5.28975">
        <ele>245.2</ele>
        <time>2022-07-30T06:42:52Z</time>
      </trkpt>
      <trkpt lat="46.32896" lon="5.28967">
        <ele>245</ele>
        <time>2022-07-30T06:42:54Z</time>
      </trkpt>
      <trkpt lat="46.3284" lon="5.28938">
        <ele>244.4</ele>
        <time>2022-07-30T06:43:02Z</time>
      </trkpt>
      <trkpt lat="46.32825" lon="5.28932">
        <ele>244</ele>
        <time>2022-07-30T06:43:04Z</time>
      </trkpt>
      <trkpt lat="46.32798" lon="5.28918">
        <ele>243.8</ele>
        <time>2022-07-30T06:43:08Z</time>
      </trkpt>
      <trkpt lat="46.32742" lon="5.28891">
        <ele>243.4</ele>
        <time>2022-07-30T06:43:16Z</time>
      </trkpt>
      <trkpt lat="46.32715" lon="5.2888">
        <ele>243.4</ele>
        <time>2022-07-30T06:43:20Z</time>
      </trkpt>
      <trkpt lat="46.32701" lon="5.28877">
        <ele>243.4</ele>
        <time>2022-07-30T06:43:22Z</time>
      </trkpt>
      <trkpt lat="46.32648" lon="5.28856">
        <ele>243.4</ele>
        <time>2022-07-30T06:43:30Z</time>
      </trkpt>
      <trkpt lat="46.3259" lon="5.28831">
        <ele>243</ele>
        <time>2022-07-30T06:43:38Z</time>
      </trkpt>
      <trkpt lat="46.32583" lon="5.28828">
        <ele>243</ele>
        <time>2022-07-30T06:43:39Z</time>
      </trkpt>
      <trkpt lat="46.3254" lon="5.28805">
        <ele>242.2</ele>
        <time>2022-07-30T06:43:45Z</time>
      </trkpt>
      <trkpt lat="46.32513" lon="5.28772">
        <ele>242.2</ele>
        <time>2022-07-30T06:43:50Z</time>
      </trkpt>
      <trkpt lat="46.32475" lon="5.2873">
        <ele>242.6</ele>
        <time>2022-07-30T06:43:57Z</time>
      </trkpt>
      <trkpt lat="46.32428" lon="5.28676">
        <ele>243.2</ele>
        <time>2022-07-30T06:44:06Z</time>
      </trkpt>
      <trkpt lat="46.32389" lon="5.28619">
        <ele>243.4</ele>
        <time>2022-07-30T06:44:14Z</time>
      </trkpt>
      <trkpt lat="46.32383" lon="5.28613">
        <ele>243.4</ele>
        <time>2022-07-30T06:44:15Z</time>
      </trkpt>
      <trkpt lat="46.3237" lon="5.28604">
        <ele>243.4</ele>
        <time>2022-07-30T06:44:17Z</time>
      </trkpt>
      <trkpt lat="46.32358" lon="5.28596">
        <ele>243.4</ele>
        <time>2022-07-30T06:44:19Z</time>
      </trkpt>
      <trkpt lat="46.32315" lon="5.28568">
        <ele>243.6</ele>
        <time>2022-07-30T06:44:26Z</time>
      </trkpt>
      <trkpt lat="46.32273" lon="5.28533">
        <ele>243.6</ele>
        <time>2022-07-30T06:44:33Z</time>
      </trkpt>
      <trkpt lat="46.32254" lon="5.28519">
        <ele>243.4</ele>
        <time>2022-07-30T06:44:36Z</time>
      </trkpt>
      <trkpt lat="46.32239" lon="5.28515">
        <ele>243.2</ele>
        <time>2022-07-30T06:44:38Z</time>
      </trkpt>
      <trkpt lat="46.32194" lon="5.28512">
        <ele>242.6</ele>
        <time>2022-07-30T06:44:44Z</time>
      </trkpt>
      <trkpt lat="46.32165" lon="5.28506">
        <ele>242</ele>
        <time>2022-07-30T06:44:48Z</time>
      </trkpt>
      <trkpt lat="46.32152" lon="5.285">
        <ele>242</ele>
        <time>2022-07-30T06:44:50Z</time>
      </trkpt>
      <trkpt lat="46.32095" lon="5.28474">
        <ele>241.8</ele>
        <time>2022-07-30T06:44:58Z</time>
      </trkpt>
      <trkpt lat="46.32051" lon="5.28463">
        <ele>241.2</ele>
        <time>2022-07-30T06:45:04Z</time>
      </trkpt>
      <trkpt lat="46.32044" lon="5.28459">
        <ele>241</ele>
        <time>2022-07-30T06:45:05Z</time>
      </trkpt>
      <trkpt lat="46.32037" lon="5.28455">
        <ele>240.8</ele>
        <time>2022-07-30T06:45:06Z</time>
      </trkpt>
      <trkpt lat="46.32012" lon="5.28434">
        <ele>240.2</ele>
        <time>2022-07-30T06:45:10Z</time>
      </trkpt>
      <trkpt lat="46.32005" lon="5.28429">
        <ele>240.2</ele>
        <time>2022-07-30T06:45:11Z</time>
      </trkpt>
      <trkpt lat="46.31984" lon="5.28419">
        <ele>240.2</ele>
        <time>2022-07-30T06:45:14Z</time>
      </trkpt>
      <trkpt lat="46.31937" lon="5.28408">
        <ele>239.8</ele>
        <time>2022-07-30T06:45:20Z</time>
      </trkpt>
      <trkpt lat="46.31929" lon="5.28406">
        <ele>239.6</ele>
        <time>2022-07-30T06:45:21Z</time>
      </trkpt>
      <trkpt lat="46.3189" lon="5.28389">
        <ele>238.6</ele>
        <time>2022-07-30T06:45:26Z</time>
      </trkpt>
      <trkpt lat="46.31882" lon="5.28386">
        <ele>238.4</ele>
        <time>2022-07-30T06:45:27Z</time>
      </trkpt>
      <trkpt lat="46.31859" lon="5.28379">
        <ele>237.6</ele>
        <time>2022-07-30T06:45:30Z</time>
      </trkpt>
      <trkpt lat="46.31843" lon="5.28379">
        <ele>237.2</ele>
        <time>2022-07-30T06:45:32Z</time>
      </trkpt>
      <trkpt lat="46.31802" lon="5.28374">
        <ele>236.8</ele>
        <time>2022-07-30T06:45:37Z</time>
      </trkpt>
      <trkpt lat="46.31793" lon="5.28376">
        <ele>236.8</ele>
        <time>2022-07-30T06:45:38Z</time>
      </trkpt>
      <trkpt lat="46.31785" lon="5.28379">
        <ele>236.6</ele>
        <time>2022-07-30T06:45:39Z</time>
      </trkpt>
      <trkpt lat="46.31767" lon="5.28387">
        <ele>236.2</ele>
        <time>2022-07-30T06:45:41Z</time>
      </trkpt>
      <trkpt lat="46.31757" lon="5.28387">
        <ele>236</ele>
        <time>2022-07-30T06:45:42Z</time>
      </trkpt>
      <trkpt lat="46.31748" lon="5.28385">
        <ele>235.2</ele>
        <time>2022-07-30T06:45:43Z</time>
      </trkpt>
      <trkpt lat="46.31718" lon="5.28374">
        <ele>234</ele>
        <time>2022-07-30T06:45:46Z</time>
      </trkpt>
      <trkpt lat="46.31697" lon="5.28367">
        <ele>232.4</ele>
        <time>2022-07-30T06:45:48Z</time>
      </trkpt>
      <trkpt lat="46.31676" lon="5.28359">
        <ele>231.4</ele>
        <time>2022-07-30T06:45:50Z</time>
      </trkpt>
      <trkpt lat="46.31656" lon="5.2835">
        <ele>229.6</ele>
        <time>2022-07-30T06:45:52Z</time>
      </trkpt>
      <trkpt lat="46.31635" lon="5.28341">
        <ele>228.2</ele>
        <time>2022-07-30T06:45:54Z</time>
      </trkpt>
      <trkpt lat="46.31625" lon="5.28336">
        <ele>227</ele>
        <time>2022-07-30T06:45:56Z</time>
      </trkpt>
      <trkpt lat="46.31595" lon="5.28324">
        <ele>225.8</ele>
        <time>2022-07-30T06:45:58Z</time>
      </trkpt>
      <trkpt lat="46.31574" lon="5.28317">
        <ele>225</ele>
        <time>2022-07-30T06:46:00Z</time>
      </trkpt>
      <trkpt lat="46.31552" lon="5.28309">
        <ele>224.4</ele>
        <time>2022-07-30T06:46:02Z</time>
      </trkpt>
      <trkpt lat="46.3151" lon="5.28289">
        <ele>222.4</ele>
        <time>2022-07-30T06:46:06Z</time>
      </trkpt>
      <trkpt lat="46.31501" lon="5.28283">
        <ele>221.8</ele>
        <time>2022-07-30T06:46:07Z</time>
      </trkpt>
      <trkpt lat="46.31491" lon="5.28279">
        <ele>221</ele>
        <time>2022-07-30T06:46:08Z</time>
      </trkpt>
      <trkpt lat="46.31471" lon="5.2827">
        <ele>220</ele>
        <time>2022-07-30T06:46:10Z</time>
      </trkpt>
      <trkpt lat="46.31442" lon="5.2826">
        <ele>219</ele>
        <time>2022-07-30T06:46:13Z</time>
      </trkpt>
      <trkpt lat="46.31405" lon="5.28261">
        <ele>218.4</ele>
        <time>2022-07-30T06:46:17Z</time>
      </trkpt>
      <trkpt lat="46.31372" lon="5.28266">
        <ele>218.2</ele>
        <time>2022-07-30T06:46:21Z</time>
      </trkpt>
      <trkpt lat="46.3135" lon="5.28275">
        <ele>218.4</ele>
        <time>2022-07-30T06:46:24Z</time>
      </trkpt>
      <trkpt lat="46.31343" lon="5.28275">
        <ele>218.4</ele>
        <time>2022-07-30T06:46:25Z</time>
      </trkpt>
      <trkpt lat="46.31337" lon="5.28271">
        <ele>218.4</ele>
        <time>2022-07-30T06:46:26Z</time>
      </trkpt>
      <trkpt lat="46.31327" lon="5.28258">
        <ele>218.6</ele>
        <time>2022-07-30T06:46:28Z</time>
      </trkpt>
      <trkpt lat="46.31315" lon="5.2825">
        <ele>218.8</ele>
        <time>2022-07-30T06:46:30Z</time>
      </trkpt>
      <trkpt lat="46.31308" lon="5.28249">
        <ele>218.8</ele>
        <time>2022-07-30T06:46:31Z</time>
      </trkpt>
      <trkpt lat="46.31301" lon="5.2825">
        <ele>218.8</ele>
        <time>2022-07-30T06:46:32Z</time>
      </trkpt>
      <trkpt lat="46.31271" lon="5.28255">
        <ele>219</ele>
        <time>2022-07-30T06:46:36Z</time>
      </trkpt>
      <trkpt lat="46.31221" lon="5.28259">
        <ele>219.2</ele>
        <time>2022-07-30T06:46:43Z</time>
      </trkpt>
      <trkpt lat="46.31167" lon="5.28264">
        <ele>219.4</ele>
        <time>2022-07-30T06:46:51Z</time>
      </trkpt>
      <trkpt lat="46.31143" lon="5.28266">
        <ele>220</ele>
        <time>2022-07-30T06:46:55Z</time>
      </trkpt>
      <trkpt lat="46.31125" lon="5.28268">
        <ele>220.4</ele>
        <time>2022-07-30T06:46:58Z</time>
      </trkpt>
      <trkpt lat="46.31109" lon="5.28269">
        <ele>221</ele>
        <time>2022-07-30T06:47:01Z</time>
      </trkpt>
      <trkpt lat="46.31088" lon="5.28271">
        <ele>221.8</ele>
        <time>2022-07-30T06:47:05Z</time>
      </trkpt>
      <trkpt lat="46.31083" lon="5.28272">
        <ele>222.2</ele>
        <time>2022-07-30T06:47:06Z</time>
      </trkpt>
      <trkpt lat="46.31056" lon="5.28273">
        <ele>223</ele>
        <time>2022-07-30T06:47:12Z</time>
      </trkpt>
      <trkpt lat="46.31052" lon="5.28274">
        <ele>223.6</ele>
        <time>2022-07-30T06:47:13Z</time>
      </trkpt>
      <trkpt lat="46.31044" lon="5.28274">
        <ele>224.2</ele>
        <time>2022-07-30T06:47:15Z</time>
      </trkpt>
      <trkpt lat="46.31036" lon="5.28276">
        <ele>224.8</ele>
        <time>2022-07-30T06:47:17Z</time>
      </trkpt>
      <trkpt lat="46.31029" lon="5.28277">
        <ele>225.4</ele>
        <time>2022-07-30T06:47:19Z</time>
      </trkpt>
      <trkpt lat="46.31021" lon="5.28276">
        <ele>225.8</ele>
        <time>2022-07-30T06:47:21Z</time>
      </trkpt>
      <trkpt lat="46.31003" lon="5.28276">
        <ele>226.8</ele>
        <time>2022-07-30T06:47:26Z</time>
      </trkpt>
      <trkpt lat="46.31" lon="5.28277">
        <ele>227.2</ele>
        <time>2022-07-30T06:47:27Z</time>
      </trkpt>
      <trkpt lat="46.30988" lon="5.28275">
        <ele>228.4</ele>
        <time>2022-07-30T06:47:31Z</time>
      </trkpt>
      <trkpt lat="46.30981" lon="5.28275">
        <ele>229</ele>
        <time>2022-07-30T06:47:33Z</time>
      </trkpt>
      <trkpt lat="46.30974" lon="5.28274">
        <ele>229.6</ele>
        <time>2022-07-30T06:47:35Z</time>
      </trkpt>
      <trkpt lat="46.30964" lon="5.28273">
        <ele>230.8</ele>
        <time>2022-07-30T06:47:38Z</time>
      </trkpt>
      <trkpt lat="46.30961" lon="5.28273">
        <ele>231</ele>
        <time>2022-07-30T06:47:39Z</time>
      </trkpt>
      <trkpt lat="46.30949" lon="5.28273">
        <ele>232.2</ele>
        <time>2022-07-30T06:47:43Z</time>
      </trkpt>
      <trkpt lat="46.30935" lon="5.28272">
        <ele>233.4</ele>
        <time>2022-07-30T06:47:47Z</time>
      </trkpt>
      <trkpt lat="46.30921" lon="5.28269">
        <ele>234</ele>
        <time>2022-07-30T06:47:51Z</time>
      </trkpt>
      <trkpt lat="46.30909" lon="5.28268">
        <ele>234.6</ele>
        <time>2022-07-30T06:47:54Z</time>
      </trkpt>
      <trkpt lat="46.3089" lon="5.28265">
        <ele>235.6</ele>
        <time>2022-07-30T06:47:59Z</time>
      </trkpt>
      <trkpt lat="46.30866" lon="5.28261">
        <ele>236.8</ele>
        <time>2022-07-30T06:48:05Z</time>
      </trkpt>
      <trkpt lat="46.30858" lon="5.28259">
        <ele>237.2</ele>
        <time>2022-07-30T06:48:07Z</time>
      </trkpt>
      <trkpt lat="46.30846" lon="5.28258">
        <ele>237.8</ele>
        <time>2022-07-30T06:48:10Z</time>
      </trkpt>
      <trkpt lat="46.30826" lon="5.28254">
        <ele>238.6</ele>
        <time>2022-07-30T06:48:15Z</time>
      </trkpt>
      <trkpt lat="46.30813" lon="5.28252">
        <ele>239.2</ele>
        <time>2022-07-30T06:48:18Z</time>
      </trkpt>
      <trkpt lat="46.30796" lon="5.28249">
        <ele>239.8</ele>
        <time>2022-07-30T06:48:22Z</time>
      </trkpt>
      <trkpt lat="46.30778" lon="5.28246">
        <ele>240.2</ele>
        <time>2022-07-30T06:48:26Z</time>
      </trkpt>
      <trkpt lat="46.30751" lon="5.28242">
        <ele>241</ele>
        <time>2022-07-30T06:48:32Z</time>
      </trkpt>
      <trkpt lat="46.30742" lon="5.2824">
        <ele>241.4</ele>
        <time>2022-07-30T06:48:34Z</time>
      </trkpt>
      <trkpt lat="46.30712" lon="5.28236">
        <ele>242</ele>
        <time>2022-07-30T06:48:40Z</time>
      </trkpt>
      <trkpt lat="46.30686" lon="5.28232">
        <ele>242.4</ele>
        <time>2022-07-30T06:48:45Z</time>
      </trkpt>
      <trkpt lat="46.30675" lon="5.28229">
        <ele>242.6</ele>
        <time>2022-07-30T06:48:47Z</time>
      </trkpt>
      <trkpt lat="46.30636" lon="5.28223">
        <ele>243</ele>
        <time>2022-07-30T06:48:54Z</time>
      </trkpt>
      <trkpt lat="46.30625" lon="5.28223">
        <ele>243.2</ele>
        <time>2022-07-30T06:48:56Z</time>
      </trkpt>
      <trkpt lat="46.30607" lon="5.28224">
        <ele>243.4</ele>
        <time>2022-07-30T06:48:59Z</time>
      </trkpt>
      <trkpt lat="46.30601" lon="5.28224">
        <ele>243.4</ele>
        <time>2022-07-30T06:49:00Z</time>
      </trkpt>
      <trkpt lat="46.30557" lon="5.28234">
        <ele>243.6</ele>
        <time>2022-07-30T06:49:07Z</time>
      </trkpt>
      <trkpt lat="46.30507" lon="5.28252">
        <ele>243.8</ele>
        <time>2022-07-30T06:49:15Z</time>
      </trkpt>
      <trkpt lat="46.30452" lon="5.28266">
        <ele>243.8</ele>
        <time>2022-07-30T06:49:24Z</time>
      </trkpt>
      <trkpt lat="46.30396" lon="5.28266">
        <ele>244.2</ele>
        <time>2022-07-30T06:49:33Z</time>
      </trkpt>
      <trkpt lat="46.30389" lon="5.28265">
        <ele>244.4</ele>
        <time>2022-07-30T06:49:34Z</time>
      </trkpt>
      <trkpt lat="46.30346" lon="5.28249">
        <ele>244.2</ele>
        <time>2022-07-30T06:49:41Z</time>
      </trkpt>
      <trkpt lat="46.30313" lon="5.2823">
        <ele>244</ele>
        <time>2022-07-30T06:49:46Z</time>
      </trkpt>
      <trkpt lat="46.30304" lon="5.28225">
        <ele>243.2</ele>
        <time>2022-07-30T06:49:48Z</time>
      </trkpt>
      <trkpt lat="46.303" lon="5.28227">
        <ele>243</ele>
        <time>2022-07-30T06:49:49Z</time>
      </trkpt>
      <trkpt lat="46.30297" lon="5.2823">
        <ele>242.6</ele>
        <time>2022-07-30T06:49:50Z</time>
      </trkpt>
      <trkpt lat="46.30296" lon="5.28241">
        <ele>242.4</ele>
        <time>2022-07-30T06:49:52Z</time>
      </trkpt>
      <trkpt lat="46.30294" lon="5.28266">
        <ele>242</ele>
        <time>2022-07-30T06:49:54Z</time>
      </trkpt>
      <trkpt lat="46.30287" lon="5.28308">
        <ele>241</ele>
        <time>2022-07-30T06:49:57Z</time>
      </trkpt>
      <trkpt lat="46.30284" lon="5.28323">
        <ele>241</ele>
        <time>2022-07-30T06:49:58Z</time>
      </trkpt>
      <trkpt lat="46.30281" lon="5.28339">
        <ele>240</ele>
        <time>2022-07-30T06:49:59Z</time>
      </trkpt>
      <trkpt lat="46.30274" lon="5.28373">
        <ele>238.6</ele>
        <time>2022-07-30T06:50:01Z</time>
      </trkpt>
      <trkpt lat="46.3027" lon="5.2839">
        <ele>237</ele>
        <time>2022-07-30T06:50:02Z</time>
      </trkpt>
      <trkpt lat="46.30266" lon="5.28408">
        <ele>236.4</ele>
        <time>2022-07-30T06:50:03Z</time>
      </trkpt>
      <trkpt lat="46.30263" lon="5.28425">
        <ele>235.4</ele>
        <time>2022-07-30T06:50:04Z</time>
      </trkpt>
      <trkpt lat="46.30255" lon="5.2846">
        <ele>233.8</ele>
        <time>2022-07-30T06:50:06Z</time>
      </trkpt>
      <trkpt lat="46.30246" lon="5.28496">
        <ele>232</ele>
        <time>2022-07-30T06:50:08Z</time>
      </trkpt>
      <trkpt lat="46.30242" lon="5.28513">
        <ele>230.8</ele>
        <time>2022-07-30T06:50:09Z</time>
      </trkpt>
      <trkpt lat="46.30233" lon="5.28547">
        <ele>229</ele>
        <time>2022-07-30T06:50:11Z</time>
      </trkpt>
      <trkpt lat="46.30225" lon="5.28581">
        <ele>227.6</ele>
        <time>2022-07-30T06:50:13Z</time>
      </trkpt>
      <trkpt lat="46.30213" lon="5.28631">
        <ele>226.2</ele>
        <time>2022-07-30T06:50:16Z</time>
      </trkpt>
      <trkpt lat="46.30209" lon="5.28646">
        <ele>225.2</ele>
        <time>2022-07-30T06:50:17Z</time>
      </trkpt>
      <trkpt lat="46.30205" lon="5.28661">
        <ele>224.4</ele>
        <time>2022-07-30T06:50:18Z</time>
      </trkpt>
      <trkpt lat="46.30196" lon="5.28687">
        <ele>223.8</ele>
        <time>2022-07-30T06:50:20Z</time>
      </trkpt>
      <trkpt lat="46.3019" lon="5.28699">
        <ele>223.6</ele>
        <time>2022-07-30T06:50:21Z</time>
      </trkpt>
      <trkpt lat="46.30173" lon="5.28733">
        <ele>223.2</ele>
        <time>2022-07-30T06:50:24Z</time>
      </trkpt>
      <trkpt lat="46.30145" lon="5.2879">
        <ele>223</ele>
        <time>2022-07-30T06:50:29Z</time>
      </trkpt>
      <trkpt lat="46.3014" lon="5.28801">
        <ele>223</ele>
        <time>2022-07-30T06:50:30Z</time>
      </trkpt>
      <trkpt lat="46.30134" lon="5.28824">
        <ele>222.8</ele>
        <time>2022-07-30T06:50:32Z</time>
      </trkpt>
      <trkpt lat="46.30125" lon="5.28882">
        <ele>222.8</ele>
        <time>2022-07-30T06:50:37Z</time>
      </trkpt>
      <trkpt lat="46.30118" lon="5.28898">
        <ele>223.2</ele>
        <time>2022-07-30T06:50:39Z</time>
      </trkpt>
      <trkpt lat="46.30114" lon="5.28904">
        <ele>223.4</ele>
        <time>2022-07-30T06:50:40Z</time>
      </trkpt>
      <trkpt lat="46.30102" lon="5.28919">
        <ele>224.6</ele>
        <time>2022-07-30T06:50:43Z</time>
      </trkpt>
      <trkpt lat="46.30097" lon="5.28924">
        <ele>225.2</ele>
        <time>2022-07-30T06:50:44Z</time>
      </trkpt>
      <trkpt lat="46.30093" lon="5.28928">
        <ele>225.8</ele>
        <time>2022-07-30T06:50:45Z</time>
      </trkpt>
      <trkpt lat="46.30089" lon="5.28931">
        <ele>226.4</ele>
        <time>2022-07-30T06:50:46Z</time>
      </trkpt>
      <trkpt lat="46.30075" lon="5.28939">
        <ele>227</ele>
        <time>2022-07-30T06:50:49Z</time>
      </trkpt>
      <trkpt lat="46.30062" lon="5.28943">
        <ele>227.8</ele>
        <time>2022-07-30T06:50:52Z</time>
      </trkpt>
      <trkpt lat="46.30053" lon="5.28945">
        <ele>228.4</ele>
        <time>2022-07-30T06:50:54Z</time>
      </trkpt>
      <trkpt lat="46.30037" lon="5.2895">
        <ele>229.4</ele>
        <time>2022-07-30T06:50:58Z</time>
      </trkpt>
      <trkpt lat="46.30026" lon="5.28953">
        <ele>230.2</ele>
        <time>2022-07-30T06:51:01Z</time>
      </trkpt>
      <trkpt lat="46.30022" lon="5.28954">
        <ele>230.6</ele>
        <time>2022-07-30T06:51:02Z</time>
      </trkpt>
      <trkpt lat="46.30003" lon="5.2896">
        <ele>231.6</ele>
        <time>2022-07-30T06:51:07Z</time>
      </trkpt>
      <trkpt lat="46.29998" lon="5.28964">
        <ele>232.4</ele>
        <time>2022-07-30T06:51:09Z</time>
      </trkpt>
      <trkpt lat="46.29994" lon="5.28969">
        <ele>232.8</ele>
        <time>2022-07-30T06:51:11Z</time>
      </trkpt>
      <trkpt lat="46.29992" lon="5.28968">
        <ele>233.2</ele>
        <time>2022-07-30T06:51:13Z</time>
      </trkpt>
      <trkpt lat="46.29991" lon="5.28968">
        <ele>233.6</ele>
        <time>2022-07-30T06:51:17Z</time>
      </trkpt>
      <trkpt lat="46.29994" lon="5.28976">
        <ele>233.8</ele>
        <time>2022-07-30T06:52:16Z</time>
      </trkpt>
      <trkpt lat="46.29994" lon="5.2898">
        <ele>233.8</ele>
        <time>2022-07-30T06:52:17Z</time>
      </trkpt>
      <trkpt lat="46.29994" lon="5.29001">
        <ele>233.8</ele>
        <time>2022-07-30T06:52:21Z</time>
      </trkpt>
      <trkpt lat="46.29988" lon="5.2901">
        <ele>233.8</ele>
        <time>2022-07-30T06:52:23Z</time>
      </trkpt>
      <trkpt lat="46.29983" lon="5.29013">
        <ele>233.8</ele>
        <time>2022-07-30T06:52:24Z</time>
      </trkpt>
      <trkpt lat="46.29969" lon="5.2902">
        <ele>234</ele>
        <time>2022-07-30T06:52:27Z</time>
      </trkpt>
      <trkpt lat="46.2995" lon="5.29029">
        <ele>234.2</ele>
        <time>2022-07-30T06:52:31Z</time>
      </trkpt>
      <trkpt lat="46.29928" lon="5.29042">
        <ele>235</ele>
        <time>2022-07-30T06:52:36Z</time>
      </trkpt>
      <trkpt lat="46.29919" lon="5.29048">
        <ele>235.2</ele>
        <time>2022-07-30T06:52:38Z</time>
      </trkpt>
      <trkpt lat="46.29892" lon="5.29066">
        <ele>236</ele>
        <time>2022-07-30T06:52:44Z</time>
      </trkpt>
      <trkpt lat="46.29874" lon="5.29079">
        <ele>237</ele>
        <time>2022-07-30T06:52:48Z</time>
      </trkpt>
      <trkpt lat="46.29861" lon="5.29091">
        <ele>237.2</ele>
        <time>2022-07-30T06:52:51Z</time>
      </trkpt>
      <trkpt lat="46.29846" lon="5.2911">
        <ele>238</ele>
        <time>2022-07-30T06:52:55Z</time>
      </trkpt>
      <trkpt lat="46.29839" lon="5.29119">
        <ele>238.2</ele>
        <time>2022-07-30T06:52:57Z</time>
      </trkpt>
      <trkpt lat="46.29814" lon="5.29146">
        <ele>238.8</ele>
        <time>2022-07-30T06:53:03Z</time>
      </trkpt>
      <trkpt lat="46.29787" lon="5.29174">
        <ele>239.2</ele>
        <time>2022-07-30T06:53:09Z</time>
      </trkpt>
      <trkpt lat="46.29779" lon="5.29185">
        <ele>239.2</ele>
        <time>2022-07-30T06:53:11Z</time>
      </trkpt>
      <trkpt lat="46.29775" lon="5.29191">
        <ele>239.2</ele>
        <time>2022-07-30T06:53:12Z</time>
      </trkpt>
      <trkpt lat="46.29765" lon="5.29218">
        <ele>239.6</ele>
        <time>2022-07-30T06:53:16Z</time>
      </trkpt>
      <trkpt lat="46.29761" lon="5.29232">
        <ele>239.8</ele>
        <time>2022-07-30T06:53:18Z</time>
      </trkpt>
      <trkpt lat="46.29754" lon="5.2926">
        <ele>240.4</ele>
        <time>2022-07-30T06:53:22Z</time>
      </trkpt>
      <trkpt lat="46.29749" lon="5.2928">
        <ele>241.2</ele>
        <time>2022-07-30T06:53:25Z</time>
      </trkpt>
      <trkpt lat="46.29747" lon="5.29287">
        <ele>241.4</ele>
        <time>2022-07-30T06:53:26Z</time>
      </trkpt>
      <trkpt lat="46.29736" lon="5.29331">
        <ele>242.4</ele>
        <time>2022-07-30T06:53:33Z</time>
      </trkpt>
      <trkpt lat="46.2973" lon="5.29356">
        <ele>243.8</ele>
        <time>2022-07-30T06:53:37Z</time>
      </trkpt>
      <trkpt lat="46.29723" lon="5.29382">
        <ele>244.2</ele>
        <time>2022-07-30T06:53:41Z</time>
      </trkpt>
      <trkpt lat="46.2972" lon="5.29388">
        <ele>244.4</ele>
        <time>2022-07-30T06:53:42Z</time>
      </trkpt>
      <trkpt lat="46.29715" lon="5.29401">
        <ele>244.8</ele>
        <time>2022-07-30T06:53:44Z</time>
      </trkpt>
      <trkpt lat="46.29695" lon="5.29438">
        <ele>245.8</ele>
        <time>2022-07-30T06:53:50Z</time>
      </trkpt>
      <trkpt lat="46.2968" lon="5.2946">
        <ele>245.8</ele>
        <time>2022-07-30T06:53:54Z</time>
      </trkpt>
      <trkpt lat="46.29668" lon="5.29476">
        <ele>246.2</ele>
        <time>2022-07-30T06:53:57Z</time>
      </trkpt>
      <trkpt lat="46.29635" lon="5.29525">
        <ele>246.6</ele>
        <time>2022-07-30T06:54:05Z</time>
      </trkpt>
      <trkpt lat="46.29628" lon="5.29537">
        <ele>247</ele>
        <time>2022-07-30T06:54:07Z</time>
      </trkpt>
      <trkpt lat="46.29615" lon="5.29569">
        <ele>247.6</ele>
        <time>2022-07-30T06:54:12Z</time>
      </trkpt>
      <trkpt lat="46.29612" lon="5.29577">
        <ele>247.8</ele>
        <time>2022-07-30T06:54:13Z</time>
      </trkpt>
      <trkpt lat="46.29599" lon="5.29624">
        <ele>248</ele>
        <time>2022-07-30T06:54:19Z</time>
      </trkpt>
      <trkpt lat="46.29591" lon="5.29659">
        <ele>248</ele>
        <time>2022-07-30T06:54:23Z</time>
      </trkpt>
      <trkpt lat="46.29579" lon="5.29709">
        <ele>248.2</ele>
        <time>2022-07-30T06:54:29Z</time>
      </trkpt>
      <trkpt lat="46.29562" lon="5.29787">
        <ele>249</ele>
        <time>2022-07-30T06:54:38Z</time>
      </trkpt>
      <trkpt lat="46.29556" lon="5.29812">
        <ele>249</ele>
        <time>2022-07-30T06:54:41Z</time>
      </trkpt>
      <trkpt lat="46.29539" lon="5.29888">
        <ele>249.4</ele>
        <time>2022-07-30T06:54:50Z</time>
      </trkpt>
      <trkpt lat="46.2952" lon="5.2996">
        <ele>249.4</ele>
        <time>2022-07-30T06:54:59Z</time>
      </trkpt>
      <trkpt lat="46.29514" lon="5.29972">
        <ele>249.4</ele>
        <time>2022-07-30T06:55:01Z</time>
      </trkpt>
      <trkpt lat="46.29507" lon="5.29977">
        <ele>249.4</ele>
        <time>2022-07-30T06:55:03Z</time>
      </trkpt>
      <trkpt lat="46.29487" lon="5.29972">
        <ele>249.8</ele>
        <time>2022-07-30T06:55:07Z</time>
      </trkpt>
      <trkpt lat="46.29475" lon="5.29968">
        <ele>250.2</ele>
        <time>2022-07-30T06:55:09Z</time>
      </trkpt>
      <trkpt lat="46.29456" lon="5.29959">
        <ele>250.4</ele>
        <time>2022-07-30T06:55:12Z</time>
      </trkpt>
      <trkpt lat="46.2945" lon="5.29957">
        <ele>250.4</ele>
        <time>2022-07-30T06:55:13Z</time>
      </trkpt>
      <trkpt lat="46.29437" lon="5.2996">
        <ele>250.6</ele>
        <time>2022-07-30T06:55:15Z</time>
      </trkpt>
      <trkpt lat="46.29414" lon="5.29983">
        <ele>250.6</ele>
        <time>2022-07-30T06:55:19Z</time>
      </trkpt>
      <trkpt lat="46.29369" lon="5.30031">
        <ele>250.4</ele>
        <time>2022-07-30T06:55:27Z</time>
      </trkpt>
      <trkpt lat="46.29364" lon="5.30036">
        <ele>250.2</ele>
        <time>2022-07-30T06:55:28Z</time>
      </trkpt>
      <trkpt lat="46.29329" lon="5.30073">
        <ele>250.6</ele>
        <time>2022-07-30T06:55:35Z</time>
      </trkpt>
      <trkpt lat="46.2929" lon="5.30115">
        <ele>251.2</ele>
        <time>2022-07-30T06:55:43Z</time>
      </trkpt>
      <trkpt lat="46.29285" lon="5.3012">
        <ele>251.2</ele>
        <time>2022-07-30T06:55:44Z</time>
      </trkpt>
      <trkpt lat="46.29261" lon="5.30146">
        <ele>251.8</ele>
        <time>2022-07-30T06:55:49Z</time>
      </trkpt>
      <trkpt lat="46.29256" lon="5.30151">
        <ele>251.8</ele>
        <time>2022-07-30T06:55:50Z</time>
      </trkpt>
      <trkpt lat="46.2922" lon="5.3019">
        <ele>252</ele>
        <time>2022-07-30T06:55:57Z</time>
      </trkpt>
      <trkpt lat="46.29177" lon="5.30235">
        <ele>252.2</ele>
        <time>2022-07-30T06:56:05Z</time>
      </trkpt>
      <trkpt lat="46.29128" lon="5.30286">
        <ele>252.8</ele>
        <time>2022-07-30T06:56:14Z</time>
      </trkpt>
      <trkpt lat="46.291" lon="5.30316">
        <ele>252.6</ele>
        <time>2022-07-30T06:56:19Z</time>
      </trkpt>
      <trkpt lat="46.29056" lon="5.30359">
        <ele>252.4</ele>
        <time>2022-07-30T06:56:27Z</time>
      </trkpt>
      <trkpt lat="46.29046" lon="5.30368">
        <ele>252.4</ele>
        <time>2022-07-30T06:56:29Z</time>
      </trkpt>
      <trkpt lat="46.29034" lon="5.30373">
        <ele>252.4</ele>
        <time>2022-07-30T06:56:31Z</time>
      </trkpt>
      <trkpt lat="46.28985" lon="5.30387">
        <ele>253</ele>
        <time>2022-07-30T06:56:39Z</time>
      </trkpt>
      <trkpt lat="46.28967" lon="5.3039">
        <ele>253.4</ele>
        <time>2022-07-30T06:56:42Z</time>
      </trkpt>
      <trkpt lat="46.28937" lon="5.30397">
        <ele>254</ele>
        <time>2022-07-30T06:56:47Z</time>
      </trkpt>
      <trkpt lat="46.28926" lon="5.304">
        <ele>254.4</ele>
        <time>2022-07-30T06:56:49Z</time>
      </trkpt>
      <trkpt lat="46.2888" lon="5.30413">
        <ele>255.4</ele>
        <time>2022-07-30T06:56:57Z</time>
      </trkpt>
      <trkpt lat="46.28868" lon="5.30416">
        <ele>255.4</ele>
        <time>2022-07-30T06:56:59Z</time>
      </trkpt>
      <trkpt lat="46.28831" lon="5.30426">
        <ele>256</ele>
        <time>2022-07-30T06:57:05Z</time>
      </trkpt>
      <trkpt lat="46.28776" lon="5.30436">
        <ele>256</ele>
        <time>2022-07-30T06:57:13Z</time>
      </trkpt>
      <trkpt lat="46.28719" lon="5.30445">
        <ele>255.2</ele>
        <time>2022-07-30T06:57:21Z</time>
      </trkpt>
      <trkpt lat="46.28701" lon="5.30448">
        <ele>255.2</ele>
        <time>2022-07-30T06:57:24Z</time>
      </trkpt>
      <trkpt lat="46.28697" lon="5.30449">
        <ele>255.2</ele>
        <time>2022-07-30T06:57:25Z</time>
      </trkpt>
      <trkpt lat="46.28688" lon="5.30456">
        <ele>255</ele>
        <time>2022-07-30T06:57:28Z</time>
      </trkpt>
      <trkpt lat="46.28683" lon="5.30486">
        <ele>255.2</ele>
        <time>2022-07-30T06:57:32Z</time>
      </trkpt>
      <trkpt lat="46.2868" lon="5.30542">
        <ele>255.4</ele>
        <time>2022-07-30T06:57:38Z</time>
      </trkpt>
      <trkpt lat="46.28674" lon="5.30623">
        <ele>255.8</ele>
        <time>2022-07-30T06:57:46Z</time>
      </trkpt>
      <trkpt lat="46.28669" lon="5.30703">
        <ele>256.2</ele>
        <time>2022-07-30T06:57:54Z</time>
      </trkpt>
      <trkpt lat="46.28667" lon="5.30732">
        <ele>256.4</ele>
        <time>2022-07-30T06:57:57Z</time>
      </trkpt>
      <trkpt lat="46.28665" lon="5.30762">
        <ele>256.6</ele>
        <time>2022-07-30T06:58:00Z</time>
      </trkpt>
      <trkpt lat="46.2866" lon="5.30839">
        <ele>257.2</ele>
        <time>2022-07-30T06:58:08Z</time>
      </trkpt>
      <trkpt lat="46.28658" lon="5.30877">
        <ele>257.6</ele>
        <time>2022-07-30T06:58:12Z</time>
      </trkpt>
      <trkpt lat="46.28655" lon="5.30924">
        <ele>258.2</ele>
        <time>2022-07-30T06:58:17Z</time>
      </trkpt>
      <trkpt lat="46.28652" lon="5.30962">
        <ele>258.6</ele>
        <time>2022-07-30T06:58:21Z</time>
      </trkpt>
      <trkpt lat="46.28651" lon="5.31009">
        <ele>259.2</ele>
        <time>2022-07-30T06:58:26Z</time>
      </trkpt>
      <trkpt lat="46.28648" lon="5.31092">
        <ele>259.4</ele>
        <time>2022-07-30T06:58:34Z</time>
      </trkpt>
      <trkpt lat="46.28648" lon="5.31102">
        <ele>259.4</ele>
        <time>2022-07-30T06:58:35Z</time>
      </trkpt>
      <trkpt lat="46.28646" lon="5.31185">
        <ele>259.2</ele>
        <time>2022-07-30T06:58:43Z</time>
      </trkpt>
      <trkpt lat="46.28646" lon="5.31209">
        <ele>259.2</ele>
        <time>2022-07-30T06:58:45Z</time>
      </trkpt>
      <trkpt lat="46.28644" lon="5.31289">
        <ele>258.6</ele>
        <time>2022-07-30T06:58:52Z</time>
      </trkpt>
      <trkpt lat="46.28644" lon="5.313">
        <ele>258.6</ele>
        <time>2022-07-30T06:58:53Z</time>
      </trkpt>
      <trkpt lat="46.28639" lon="5.31358">
        <ele>258.8</ele>
        <time>2022-07-30T06:58:59Z</time>
      </trkpt>
      <trkpt lat="46.28627" lon="5.31402">
        <ele>259.6</ele>
        <time>2022-07-30T06:59:04Z</time>
      </trkpt>
      <trkpt lat="46.28624" lon="5.3141">
        <ele>260</ele>
        <time>2022-07-30T06:59:05Z</time>
      </trkpt>
      <trkpt lat="46.28621" lon="5.31418">
        <ele>260.2</ele>
        <time>2022-07-30T06:59:06Z</time>
      </trkpt>
      <trkpt lat="46.28604" lon="5.31449">
        <ele>260.6</ele>
        <time>2022-07-30T06:59:10Z</time>
      </trkpt>
      <trkpt lat="46.28568" lon="5.315">
        <ele>261</ele>
        <time>2022-07-30T06:59:17Z</time>
      </trkpt>
      <trkpt lat="46.28558" lon="5.31516">
        <ele>261</ele>
        <time>2022-07-30T06:59:19Z</time>
      </trkpt>
      <trkpt lat="46.28536" lon="5.31559">
        <ele>261.2</ele>
        <time>2022-07-30T06:59:24Z</time>
      </trkpt>
      <trkpt lat="46.2851" lon="5.31615">
        <ele>261.4</ele>
        <time>2022-07-30T06:59:30Z</time>
      </trkpt>
      <trkpt lat="46.28478" lon="5.31681">
        <ele>261.4</ele>
        <time>2022-07-30T06:59:37Z</time>
      </trkpt>
      <trkpt lat="46.28456" lon="5.31725">
        <ele>261.4</ele>
        <time>2022-07-30T06:59:42Z</time>
      </trkpt>
      <trkpt lat="46.28424" lon="5.31799">
        <ele>262</ele>
        <time>2022-07-30T06:59:50Z</time>
      </trkpt>
      <trkpt lat="46.2842" lon="5.31807">
        <ele>262</ele>
        <time>2022-07-30T06:59:51Z</time>
      </trkpt>
      <trkpt lat="46.28408" lon="5.31841">
        <ele>262.4</ele>
        <time>2022-07-30T06:59:55Z</time>
      </trkpt>
      <trkpt lat="46.28389" lon="5.31892">
        <ele>262.8</ele>
        <time>2022-07-30T07:00:00Z</time>
      </trkpt>
      <trkpt lat="46.2836" lon="5.31969">
        <ele>262.6</ele>
        <time>2022-07-30T07:00:07Z</time>
      </trkpt>
      <trkpt lat="46.28351" lon="5.31992">
        <ele>262.6</ele>
        <time>2022-07-30T07:00:09Z</time>
      </trkpt>
      <trkpt lat="46.28328" lon="5.32053">
        <ele>262.2</ele>
        <time>2022-07-30T07:00:14Z</time>
      </trkpt>
      <trkpt lat="46.28301" lon="5.32135">
        <ele>260.8</ele>
        <time>2022-07-30T07:00:20Z</time>
      </trkpt>
      <trkpt lat="46.28288" lon="5.32178">
        <ele>259.8</ele>
        <time>2022-07-30T07:00:23Z</time>
      </trkpt>
      <trkpt lat="46.2828" lon="5.32207">
        <ele>258.6</ele>
        <time>2022-07-30T07:00:25Z</time>
      </trkpt>
      <trkpt lat="46.28274" lon="5.32236">
        <ele>257.4</ele>
        <time>2022-07-30T07:00:27Z</time>
      </trkpt>
      <trkpt lat="46.28264" lon="5.32306">
        <ele>256.6</ele>
        <time>2022-07-30T07:00:32Z</time>
      </trkpt>
      <trkpt lat="46.2826" lon="5.32358">
        <ele>256.4</ele>
        <time>2022-07-30T07:00:36Z</time>
      </trkpt>
      <trkpt lat="46.28259" lon="5.32384">
        <ele>256.4</ele>
        <time>2022-07-30T07:00:38Z</time>
      </trkpt>
      <trkpt lat="46.28256" lon="5.32464">
        <ele>256.4</ele>
        <time>2022-07-30T07:00:44Z</time>
      </trkpt>
      <trkpt lat="46.28254" lon="5.32503">
        <ele>256.2</ele>
        <time>2022-07-30T07:00:47Z</time>
      </trkpt>
      <trkpt lat="46.28246" lon="5.32588">
        <ele>255.8</ele>
        <time>2022-07-30T07:00:54Z</time>
      </trkpt>
      <trkpt lat="46.28231" lon="5.32671">
        <ele>255.8</ele>
        <time>2022-07-30T07:01:01Z</time>
      </trkpt>
      <trkpt lat="46.28226" lon="5.32694">
        <ele>255.8</ele>
        <time>2022-07-30T07:01:03Z</time>
      </trkpt>
      <trkpt lat="46.28216" lon="5.32745">
        <ele>256</ele>
        <time>2022-07-30T07:01:08Z</time>
      </trkpt>
      <trkpt lat="46.28207" lon="5.32792">
        <ele>257.6</ele>
        <time>2022-07-30T07:01:13Z</time>
      </trkpt>
      <trkpt lat="46.282" lon="5.32819">
        <ele>258.4</ele>
        <time>2022-07-30T07:01:16Z</time>
      </trkpt>
      <trkpt lat="46.28199" lon="5.32827">
        <ele>258.8</ele>
        <time>2022-07-30T07:01:17Z</time>
      </trkpt>
      <trkpt lat="46.28191" lon="5.32873">
        <ele>259.8</ele>
        <time>2022-07-30T07:01:22Z</time>
      </trkpt>
      <trkpt lat="46.28187" lon="5.329">
        <ele>261</ele>
        <time>2022-07-30T07:01:25Z</time>
      </trkpt>
      <trkpt lat="46.28183" lon="5.32938">
        <ele>262.4</ele>
        <time>2022-07-30T07:01:29Z</time>
      </trkpt>
      <trkpt lat="46.28177" lon="5.32988">
        <ele>263.4</ele>
        <time>2022-07-30T07:01:34Z</time>
      </trkpt>
      <trkpt lat="46.28175" lon="5.33008">
        <ele>263.8</ele>
        <time>2022-07-30T07:01:36Z</time>
      </trkpt>
      <trkpt lat="46.28171" lon="5.33037">
        <ele>264.2</ele>
        <time>2022-07-30T07:01:39Z</time>
      </trkpt>
      <trkpt lat="46.28162" lon="5.33116">
        <ele>265.2</ele>
        <time>2022-07-30T07:01:47Z</time>
      </trkpt>
      <trkpt lat="46.2816" lon="5.33135">
        <ele>265.4</ele>
        <time>2022-07-30T07:01:49Z</time>
      </trkpt>
      <trkpt lat="46.28152" lon="5.33216">
        <ele>265.6</ele>
        <time>2022-07-30T07:01:57Z</time>
      </trkpt>
      <trkpt lat="46.28151" lon="5.33248">
        <ele>265.6</ele>
        <time>2022-07-30T07:02:00Z</time>
      </trkpt>
      <trkpt lat="46.28151" lon="5.3333">
        <ele>265.8</ele>
        <time>2022-07-30T07:02:08Z</time>
      </trkpt>
      <trkpt lat="46.28151" lon="5.3335">
        <ele>265.8</ele>
        <time>2022-07-30T07:02:10Z</time>
      </trkpt>
      <trkpt lat="46.28154" lon="5.33409">
        <ele>266.4</ele>
        <time>2022-07-30T07:02:16Z</time>
      </trkpt>
      <trkpt lat="46.28157" lon="5.33467">
        <ele>267.2</ele>
        <time>2022-07-30T07:02:22Z</time>
      </trkpt>
      <trkpt lat="46.28158" lon="5.33486">
        <ele>267.4</ele>
        <time>2022-07-30T07:02:24Z</time>
      </trkpt>
      <trkpt lat="46.28163" lon="5.33566">
        <ele>268</ele>
        <time>2022-07-30T07:02:32Z</time>
      </trkpt>
      <trkpt lat="46.28165" lon="5.33595">
        <ele>268.4</ele>
        <time>2022-07-30T07:02:35Z</time>
      </trkpt>
      <trkpt lat="46.28171" lon="5.33664">
        <ele>268.8</ele>
        <time>2022-07-30T07:02:42Z</time>
      </trkpt>
      <trkpt lat="46.28172" lon="5.33673">
        <ele>268.8</ele>
        <time>2022-07-30T07:02:43Z</time>
      </trkpt>
      <trkpt lat="46.28167" lon="5.3369">
        <ele>268.8</ele>
        <time>2022-07-30T07:02:45Z</time>
      </trkpt>
      <trkpt lat="46.28155" lon="5.33693">
        <ele>269</ele>
        <time>2022-07-30T07:02:47Z</time>
      </trkpt>
      <trkpt lat="46.28129" lon="5.33678">
        <ele>269</ele>
        <time>2022-07-30T07:02:51Z</time>
      </trkpt>
      <trkpt lat="46.28084" lon="5.33657">
        <ele>268.6</ele>
        <time>2022-07-30T07:02:57Z</time>
      </trkpt>
      <trkpt lat="46.28031" lon="5.33632">
        <ele>267.8</ele>
        <time>2022-07-30T07:03:04Z</time>
      </trkpt>
      <trkpt lat="46.28015" lon="5.33625">
        <ele>267.6</ele>
        <time>2022-07-30T07:03:06Z</time>
      </trkpt>
      <trkpt lat="46.27963" lon="5.336">
        <ele>267.6</ele>
        <time>2022-07-30T07:03:13Z</time>
      </trkpt>
      <trkpt lat="46.27949" lon="5.33593">
        <ele>267.4</ele>
        <time>2022-07-30T07:03:15Z</time>
      </trkpt>
      <trkpt lat="46.27912" lon="5.33576">
        <ele>267.2</ele>
        <time>2022-07-30T07:03:20Z</time>
      </trkpt>
      <trkpt lat="46.2789" lon="5.33566">
        <ele>267.2</ele>
        <time>2022-07-30T07:03:23Z</time>
      </trkpt>
      <trkpt lat="46.27839" lon="5.33541">
        <ele>267.2</ele>
        <time>2022-07-30T07:03:30Z</time>
      </trkpt>
      <trkpt lat="46.27824" lon="5.33535">
        <ele>267.2</ele>
        <time>2022-07-30T07:03:32Z</time>
      </trkpt>
      <trkpt lat="46.27809" lon="5.33526">
        <ele>267</ele>
        <time>2022-07-30T07:03:34Z</time>
      </trkpt>
      <trkpt lat="46.27796" lon="5.33513">
        <ele>267</ele>
        <time>2022-07-30T07:03:36Z</time>
      </trkpt>
      <trkpt lat="46.27761" lon="5.33455">
        <ele>267.2</ele>
        <time>2022-07-30T07:03:43Z</time>
      </trkpt>
      <trkpt lat="46.27723" lon="5.334">
        <ele>267.2</ele>
        <time>2022-07-30T07:03:50Z</time>
      </trkpt>
      <trkpt lat="46.27689" lon="5.33373">
        <ele>267.2</ele>
        <time>2022-07-30T07:03:55Z</time>
      </trkpt>
      <trkpt lat="46.27638" lon="5.3335">
        <ele>267</ele>
        <time>2022-07-30T07:04:02Z</time>
      </trkpt>
      <trkpt lat="46.27615" lon="5.3334">
        <ele>267</ele>
        <time>2022-07-30T07:04:05Z</time>
      </trkpt>
      <trkpt lat="46.27602" lon="5.33328">
        <ele>267</ele>
        <time>2022-07-30T07:04:07Z</time>
      </trkpt>
      <trkpt lat="46.27554" lon="5.33273">
        <ele>266.8</ele>
        <time>2022-07-30T07:04:15Z</time>
      </trkpt>
      <trkpt lat="46.27548" lon="5.33266">
        <ele>266.8</ele>
        <time>2022-07-30T07:04:16Z</time>
      </trkpt>
      <trkpt lat="46.27508" lon="5.33216">
        <ele>267</ele>
        <time>2022-07-30T07:04:23Z</time>
      </trkpt>
      <trkpt lat="46.27481" lon="5.33164">
        <ele>266.8</ele>
        <time>2022-07-30T07:04:29Z</time>
      </trkpt>
      <trkpt lat="46.27455" lon="5.33109">
        <ele>266.6</ele>
        <time>2022-07-30T07:04:35Z</time>
      </trkpt>
      <trkpt lat="46.27438" lon="5.3307">
        <ele>266.2</ele>
        <time>2022-07-30T07:04:39Z</time>
      </trkpt>
      <trkpt lat="46.27413" lon="5.33022">
        <ele>265.6</ele>
        <time>2022-07-30T07:04:44Z</time>
      </trkpt>
      <trkpt lat="46.27404" lon="5.33002">
        <ele>265</ele>
        <time>2022-07-30T07:04:46Z</time>
      </trkpt>
      <trkpt lat="46.27396" lon="5.32981">
        <ele>264.6</ele>
        <time>2022-07-30T07:04:48Z</time>
      </trkpt>
      <trkpt lat="46.27393" lon="5.3297">
        <ele>264.6</ele>
        <time>2022-07-30T07:04:49Z</time>
      </trkpt>
      <trkpt lat="46.27381" lon="5.32926">
        <ele>263.8</ele>
        <time>2022-07-30T07:04:53Z</time>
      </trkpt>
      <trkpt lat="46.27372" lon="5.32897">
        <ele>263.6</ele>
        <time>2022-07-30T07:04:56Z</time>
      </trkpt>
      <trkpt lat="46.27368" lon="5.32888">
        <ele>263.4</ele>
        <time>2022-07-30T07:04:57Z</time>
      </trkpt>
      <trkpt lat="46.27357" lon="5.32876">
        <ele>263.2</ele>
        <time>2022-07-30T07:04:59Z</time>
      </trkpt>
      <trkpt lat="46.27342" lon="5.32871">
        <ele>263</ele>
        <time>2022-07-30T07:05:01Z</time>
      </trkpt>
      <trkpt lat="46.27333" lon="5.32869">
        <ele>262.8</ele>
        <time>2022-07-30T07:05:02Z</time>
      </trkpt>
      <trkpt lat="46.27314" lon="5.32865">
        <ele>262.6</ele>
        <time>2022-07-30T07:05:04Z</time>
      </trkpt>
      <trkpt lat="46.27268" lon="5.32857">
        <ele>261.6</ele>
        <time>2022-07-30T07:05:09Z</time>
      </trkpt>
      <trkpt lat="46.27259" lon="5.32858">
        <ele>261.6</ele>
        <time>2022-07-30T07:05:10Z</time>
      </trkpt>
      <trkpt lat="46.2725" lon="5.32859">
        <ele>261.6</ele>
        <time>2022-07-30T07:05:11Z</time>
      </trkpt>
      <trkpt lat="46.27232" lon="5.3287">
        <ele>261.2</ele>
        <time>2022-07-30T07:05:13Z</time>
      </trkpt>
      <trkpt lat="46.27212" lon="5.32897">
        <ele>260.4</ele>
        <time>2022-07-30T07:05:16Z</time>
      </trkpt>
      <trkpt lat="46.27199" lon="5.32916">
        <ele>260.2</ele>
        <time>2022-07-30T07:05:18Z</time>
      </trkpt>
      <trkpt lat="46.27167" lon="5.32965">
        <ele>259.6</ele>
        <time>2022-07-30T07:05:23Z</time>
      </trkpt>
      <trkpt lat="46.27156" lon="5.32986">
        <ele>259.4</ele>
        <time>2022-07-30T07:05:25Z</time>
      </trkpt>
      <trkpt lat="46.27129" lon="5.33041">
        <ele>258.2</ele>
        <time>2022-07-30T07:05:30Z</time>
      </trkpt>
      <trkpt lat="46.27118" lon="5.33064">
        <ele>257.6</ele>
        <time>2022-07-30T07:05:32Z</time>
      </trkpt>
      <trkpt lat="46.27105" lon="5.33088">
        <ele>256.6</ele>
        <time>2022-07-30T07:05:34Z</time>
      </trkpt>
      <trkpt lat="46.27093" lon="5.33113">
        <ele>255.6</ele>
        <time>2022-07-30T07:05:36Z</time>
      </trkpt>
      <trkpt lat="46.2708" lon="5.33139">
        <ele>254.2</ele>
        <time>2022-07-30T07:05:38Z</time>
      </trkpt>
      <trkpt lat="46.27073" lon="5.33152">
        <ele>253.4</ele>
        <time>2022-07-30T07:05:39Z</time>
      </trkpt>
      <trkpt lat="46.27065" lon="5.33163">
        <ele>253.2</ele>
        <time>2022-07-30T07:05:40Z</time>
      </trkpt>
      <trkpt lat="46.27055" lon="5.33172">
        <ele>252.4</ele>
        <time>2022-07-30T07:05:41Z</time>
      </trkpt>
      <trkpt lat="46.27045" lon="5.33177">
        <ele>252.2</ele>
        <time>2022-07-30T07:05:42Z</time>
      </trkpt>
      <trkpt lat="46.27022" lon="5.33185">
        <ele>250.6</ele>
        <time>2022-07-30T07:05:44Z</time>
      </trkpt>
      <trkpt lat="46.27" lon="5.33193">
        <ele>249.4</ele>
        <time>2022-07-30T07:05:46Z</time>
      </trkpt>
      <trkpt lat="46.26979" lon="5.33201">
        <ele>248</ele>
        <time>2022-07-30T07:05:48Z</time>
      </trkpt>
      <trkpt lat="46.2696" lon="5.33208">
        <ele>246.8</ele>
        <time>2022-07-30T07:05:50Z</time>
      </trkpt>
      <trkpt lat="46.26923" lon="5.33223">
        <ele>245.8</ele>
        <time>2022-07-30T07:05:54Z</time>
      </trkpt>
      <trkpt lat="46.26865" lon="5.33246">
        <ele>246</ele>
        <time>2022-07-30T07:06:01Z</time>
      </trkpt>
      <trkpt lat="46.26832" lon="5.33259">
        <ele>247</ele>
        <time>2022-07-30T07:06:06Z</time>
      </trkpt>
      <trkpt lat="46.26813" lon="5.33267">
        <ele>248.6</ele>
        <time>2022-07-30T07:06:09Z</time>
      </trkpt>
      <trkpt lat="46.26789" lon="5.33276">
        <ele>249.6</ele>
        <time>2022-07-30T07:06:13Z</time>
      </trkpt>
      <trkpt lat="46.26761" lon="5.33285">
        <ele>251</ele>
        <time>2022-07-30T07:06:18Z</time>
      </trkpt>
      <trkpt lat="46.2675" lon="5.33288">
        <ele>251.4</ele>
        <time>2022-07-30T07:06:20Z</time>
      </trkpt>
      <trkpt lat="46.26733" lon="5.33293">
        <ele>252</ele>
        <time>2022-07-30T07:06:23Z</time>
      </trkpt>
      <trkpt lat="46.26708" lon="5.33302">
        <ele>253</ele>
        <time>2022-07-30T07:06:28Z</time>
      </trkpt>
      <trkpt lat="46.26699" lon="5.33297">
        <ele>253.4</ele>
        <time>2022-07-30T07:06:30Z</time>
      </trkpt>
      <trkpt lat="46.26695" lon="5.33293">
        <ele>253.4</ele>
        <time>2022-07-30T07:06:31Z</time>
      </trkpt>
      <trkpt lat="46.26689" lon="5.33283">
        <ele>254</ele>
        <time>2022-07-30T07:06:33Z</time>
      </trkpt>
      <trkpt lat="46.26685" lon="5.33278">
        <ele>254.2</ele>
        <time>2022-07-30T07:06:34Z</time>
      </trkpt>
      <trkpt lat="46.26674" lon="5.33259">
        <ele>254.2</ele>
        <time>2022-07-30T07:06:37Z</time>
      </trkpt>
      <trkpt lat="46.26658" lon="5.33239">
        <ele>254.2</ele>
        <time>2022-07-30T07:06:40Z</time>
      </trkpt>
      <trkpt lat="46.26651" lon="5.33234">
        <ele>253.8</ele>
        <time>2022-07-30T07:06:41Z</time>
      </trkpt>
      <trkpt lat="46.26644" lon="5.3323">
        <ele>253.6</ele>
        <time>2022-07-30T07:06:42Z</time>
      </trkpt>
      <trkpt lat="46.26628" lon="5.33224">
        <ele>253</ele>
        <time>2022-07-30T07:06:44Z</time>
      </trkpt>
      <trkpt lat="46.2662" lon="5.33222">
        <ele>252.8</ele>
        <time>2022-07-30T07:06:45Z</time>
      </trkpt>
      <trkpt lat="46.2658" lon="5.33213">
        <ele>251.8</ele>
        <time>2022-07-30T07:06:50Z</time>
      </trkpt>
      <trkpt lat="46.26564" lon="5.33212">
        <ele>251.2</ele>
        <time>2022-07-30T07:06:52Z</time>
      </trkpt>
      <trkpt lat="46.26539" lon="5.33213">
        <ele>250.6</ele>
        <time>2022-07-30T07:06:55Z</time>
      </trkpt>
      <trkpt lat="46.2653" lon="5.33212">
        <ele>250.4</ele>
        <time>2022-07-30T07:06:56Z</time>
      </trkpt>
      <trkpt lat="46.26514" lon="5.33207">
        <ele>249.8</ele>
        <time>2022-07-30T07:06:58Z</time>
      </trkpt>
      <trkpt lat="46.265" lon="5.33193">
        <ele>249.4</ele>
        <time>2022-07-30T07:07:00Z</time>
      </trkpt>
      <trkpt lat="46.26482" lon="5.33149">
        <ele>248.4</ele>
        <time>2022-07-30T07:07:04Z</time>
      </trkpt>
      <trkpt lat="46.26478" lon="5.33138">
        <ele>248.4</ele>
        <time>2022-07-30T07:07:05Z</time>
      </trkpt>
      <trkpt lat="46.26452" lon="5.3307">
        <ele>247.6</ele>
        <time>2022-07-30T07:07:12Z</time>
      </trkpt>
      <trkpt lat="46.26445" lon="5.3305">
        <ele>247.6</ele>
        <time>2022-07-30T07:07:14Z</time>
      </trkpt>
      <trkpt lat="46.26443" lon="5.3303">
        <ele>247.8</ele>
        <time>2022-07-30T07:07:16Z</time>
      </trkpt>
      <trkpt lat="46.26441" lon="5.32997">
        <ele>248</ele>
        <time>2022-07-30T07:07:20Z</time>
      </trkpt>
      <trkpt lat="46.26439" lon="5.3299">
        <ele>248.2</ele>
        <time>2022-07-30T07:07:21Z</time>
      </trkpt>
      <trkpt lat="46.26434" lon="5.32968">
        <ele>249.4</ele>
        <time>2022-07-30T07:07:24Z</time>
      </trkpt>
      <trkpt lat="46.26431" lon="5.32955">
        <ele>250.4</ele>
        <time>2022-07-30T07:07:26Z</time>
      </trkpt>
      <trkpt lat="46.26428" lon="5.32948">
        <ele>250.6</ele>
        <time>2022-07-30T07:07:27Z</time>
      </trkpt>
      <trkpt lat="46.26419" lon="5.32932">
        <ele>251.6</ele>
        <time>2022-07-30T07:07:30Z</time>
      </trkpt>
      <trkpt lat="46.26413" lon="5.32922">
        <ele>252</ele>
        <time>2022-07-30T07:07:32Z</time>
      </trkpt>
      <trkpt lat="46.26408" lon="5.32912">
        <ele>252.6</ele>
        <time>2022-07-30T07:07:34Z</time>
      </trkpt>
      <trkpt lat="46.26405" lon="5.32907">
        <ele>252.8</ele>
        <time>2022-07-30T07:07:35Z</time>
      </trkpt>
      <trkpt lat="46.26403" lon="5.32902">
        <ele>253</ele>
        <time>2022-07-30T07:07:36Z</time>
      </trkpt>
      <trkpt lat="46.26401" lon="5.32898">
        <ele>253.2</ele>
        <time>2022-07-30T07:07:37Z</time>
      </trkpt>
      <trkpt lat="46.26396" lon="5.32882">
        <ele>254</ele>
        <time>2022-07-30T07:07:40Z</time>
      </trkpt>
      <trkpt lat="46.26394" lon="5.32873">
        <ele>254.8</ele>
        <time>2022-07-30T07:07:42Z</time>
      </trkpt>
      <trkpt lat="46.26392" lon="5.32868">
        <ele>255</ele>
        <time>2022-07-30T07:07:43Z</time>
      </trkpt>
      <trkpt lat="46.26385" lon="5.32847">
        <ele>256.2</ele>
        <time>2022-07-30T07:07:47Z</time>
      </trkpt>
      <trkpt lat="46.26382" lon="5.32842">
        <ele>256.6</ele>
        <time>2022-07-30T07:07:48Z</time>
      </trkpt>
      <trkpt lat="46.2638" lon="5.32836">
        <ele>257.4</ele>
        <time>2022-07-30T07:07:49Z</time>
      </trkpt>
      <trkpt lat="46.26369" lon="5.32807">
        <ele>258.4</ele>
        <time>2022-07-30T07:07:54Z</time>
      </trkpt>
      <trkpt lat="46.26367" lon="5.32802">
        <ele>258.6</ele>
        <time>2022-07-30T07:07:55Z</time>
      </trkpt>
      <trkpt lat="46.26355" lon="5.32777">
        <ele>259.8</ele>
        <time>2022-07-30T07:08:00Z</time>
      </trkpt>
      <trkpt lat="46.26352" lon="5.32772">
        <ele>259.8</ele>
        <time>2022-07-30T07:08:01Z</time>
      </trkpt>
      <trkpt lat="46.26349" lon="5.32767">
        <ele>260</ele>
        <time>2022-07-30T07:08:02Z</time>
      </trkpt>
      <trkpt lat="46.26334" lon="5.3275">
        <ele>260.8</ele>
        <time>2022-07-30T07:08:06Z</time>
      </trkpt>
      <trkpt lat="46.2633" lon="5.32745">
        <ele>261</ele>
        <time>2022-07-30T07:08:07Z</time>
      </trkpt>
      <trkpt lat="46.26325" lon="5.32737">
        <ele>261.4</ele>
        <time>2022-07-30T07:08:10Z</time>
      </trkpt>
      <trkpt lat="46.26324" lon="5.32735">
        <ele>261.4</ele>
        <time>2022-07-30T07:08:11Z</time>
      </trkpt>
      <trkpt lat="46.26323" lon="5.3273">
        <ele>261.8</ele>
        <time>2022-07-30T07:08:13Z</time>
      </trkpt>
      <trkpt lat="46.26316" lon="5.3273">
        <ele>262</ele>
        <time>2022-07-30T07:08:15Z</time>
      </trkpt>
      <trkpt lat="46.26297" lon="5.32738">
        <ele>262.2</ele>
        <time>2022-07-30T07:08:19Z</time>
      </trkpt>
      <trkpt lat="46.26263" lon="5.32742">
        <ele>262.2</ele>
        <time>2022-07-30T07:08:25Z</time>
      </trkpt>
      <trkpt lat="46.2621" lon="5.32742">
        <ele>262.6</ele>
        <time>2022-07-30T07:08:34Z</time>
      </trkpt>
      <trkpt lat="46.26182" lon="5.32744">
        <ele>263</ele>
        <time>2022-07-30T07:08:39Z</time>
      </trkpt>
      <trkpt lat="46.26163" lon="5.32746">
        <ele>263.2</ele>
        <time>2022-07-30T07:08:42Z</time>
      </trkpt>
      <trkpt lat="46.26112" lon="5.32754">
        <ele>263.4</ele>
        <time>2022-07-30T07:08:50Z</time>
      </trkpt>
      <trkpt lat="46.26074" lon="5.32764">
        <ele>263.6</ele>
        <time>2022-07-30T07:08:56Z</time>
      </trkpt>
      <trkpt lat="46.26037" lon="5.32776">
        <ele>263.8</ele>
        <time>2022-07-30T07:09:02Z</time>
      </trkpt>
      <trkpt lat="46.26013" lon="5.3279">
        <ele>264</ele>
        <time>2022-07-30T07:09:06Z</time>
      </trkpt>
      <trkpt lat="46.25984" lon="5.32807">
        <ele>264.4</ele>
        <time>2022-07-30T07:09:11Z</time>
      </trkpt>
      <trkpt lat="46.25947" lon="5.3283">
        <ele>264.6</ele>
        <time>2022-07-30T07:09:18Z</time>
      </trkpt>
      <trkpt lat="46.25917" lon="5.3285">
        <ele>264.6</ele>
        <time>2022-07-30T07:09:24Z</time>
      </trkpt>
      <trkpt lat="46.25909" lon="5.32854">
        <ele>264.8</ele>
        <time>2022-07-30T07:09:26Z</time>
      </trkpt>
      <trkpt lat="46.25899" lon="5.32868">
        <ele>265</ele>
        <time>2022-07-30T07:09:29Z</time>
      </trkpt>
      <trkpt lat="46.25895" lon="5.32872">
        <ele>265</ele>
        <time>2022-07-30T07:09:30Z</time>
      </trkpt>
      <trkpt lat="46.25869" lon="5.32893">
        <ele>265</ele>
        <time>2022-07-30T07:09:35Z</time>
      </trkpt>
      <trkpt lat="46.25857" lon="5.32905">
        <ele>265</ele>
        <time>2022-07-30T07:09:37Z</time>
      </trkpt>
      <trkpt lat="46.2585" lon="5.32918">
        <ele>265</ele>
        <time>2022-07-30T07:09:39Z</time>
      </trkpt>
      <trkpt lat="46.25847" lon="5.32935">
        <ele>265.2</ele>
        <time>2022-07-30T07:09:41Z</time>
      </trkpt>
      <trkpt lat="46.25848" lon="5.32946">
        <ele>265.2</ele>
        <time>2022-07-30T07:09:42Z</time>
      </trkpt>
      <trkpt lat="46.25854" lon="5.33">
        <ele>265.8</ele>
        <time>2022-07-30T07:09:48Z</time>
      </trkpt>
      <trkpt lat="46.25855" lon="5.33016">
        <ele>266</ele>
        <time>2022-07-30T07:09:50Z</time>
      </trkpt>
      <trkpt lat="46.25855" lon="5.33037">
        <ele>266.4</ele>
        <time>2022-07-30T07:09:52Z</time>
      </trkpt>
      <trkpt lat="46.25856" lon="5.33055">
        <ele>266.4</ele>
        <time>2022-07-30T07:09:54Z</time>
      </trkpt>
      <trkpt lat="46.25858" lon="5.33081">
        <ele>266.4</ele>
        <time>2022-07-30T07:09:57Z</time>
      </trkpt>
      <trkpt lat="46.25863" lon="5.33124">
        <ele>266.8</ele>
        <time>2022-07-30T07:10:02Z</time>
      </trkpt>
      <trkpt lat="46.25866" lon="5.33151">
        <ele>267</ele>
        <time>2022-07-30T07:10:05Z</time>
      </trkpt>
      <trkpt lat="46.25872" lon="5.3319">
        <ele>267</ele>
        <time>2022-07-30T07:10:09Z</time>
      </trkpt>
      <trkpt lat="46.25868" lon="5.33227">
        <ele>266.6</ele>
        <time>2022-07-30T07:10:12Z</time>
      </trkpt>
      <trkpt lat="46.25867" lon="5.33239">
        <ele>266.6</ele>
        <time>2022-07-30T07:10:13Z</time>
      </trkpt>
      <trkpt lat="46.25866" lon="5.33264">
        <ele>266</ele>
        <time>2022-07-30T07:10:15Z</time>
      </trkpt>
      <trkpt lat="46.25866" lon="5.33277">
        <ele>265.8</ele>
        <time>2022-07-30T07:10:16Z</time>
      </trkpt>
      <trkpt lat="46.25867" lon="5.3329">
        <ele>265</ele>
        <time>2022-07-30T07:10:17Z</time>
      </trkpt>
      <trkpt lat="46.25868" lon="5.33318">
        <ele>264.2</ele>
        <time>2022-07-30T07:10:19Z</time>
      </trkpt>
      <trkpt lat="46.25866" lon="5.33332">
        <ele>264</ele>
        <time>2022-07-30T07:10:20Z</time>
      </trkpt>
      <trkpt lat="46.25863" lon="5.33347">
        <ele>263.6</ele>
        <time>2022-07-30T07:10:21Z</time>
      </trkpt>
      <trkpt lat="46.25858" lon="5.33359">
        <ele>262.6</ele>
        <time>2022-07-30T07:10:22Z</time>
      </trkpt>
      <trkpt lat="46.2585" lon="5.33368">
        <ele>262</ele>
        <time>2022-07-30T07:10:23Z</time>
      </trkpt>
      <trkpt lat="46.25842" lon="5.33376">
        <ele>261.4</ele>
        <time>2022-07-30T07:10:24Z</time>
      </trkpt>
      <trkpt lat="46.25826" lon="5.33392">
        <ele>260.2</ele>
        <time>2022-07-30T07:10:26Z</time>
      </trkpt>
      <trkpt lat="46.2581" lon="5.33408">
        <ele>259.4</ele>
        <time>2022-07-30T07:10:28Z</time>
      </trkpt>
      <trkpt lat="46.25802" lon="5.33416">
        <ele>259</ele>
        <time>2022-07-30T07:10:29Z</time>
      </trkpt>
      <trkpt lat="46.25758" lon="5.33459">
        <ele>258</ele>
        <time>2022-07-30T07:10:35Z</time>
      </trkpt>
      <trkpt lat="46.2575" lon="5.33468">
        <ele>258</ele>
        <time>2022-07-30T07:10:36Z</time>
      </trkpt>
      <trkpt lat="46.25704" lon="5.33516">
        <ele>256.6</ele>
        <time>2022-07-30T07:10:42Z</time>
      </trkpt>
      <trkpt lat="46.25689" lon="5.33531">
        <ele>256.2</ele>
        <time>2022-07-30T07:10:44Z</time>
      </trkpt>
      <trkpt lat="46.25682" lon="5.33536">
        <ele>255.6</ele>
        <time>2022-07-30T07:10:45Z</time>
      </trkpt>
      <trkpt lat="46.25671" lon="5.33543">
        <ele>255.4</ele>
        <time>2022-07-30T07:10:46Z</time>
      </trkpt>
      <trkpt lat="46.25653" lon="5.33554">
        <ele>254.6</ele>
        <time>2022-07-30T07:10:48Z</time>
      </trkpt>
      <trkpt lat="46.25627" lon="5.33568">
        <ele>253.8</ele>
        <time>2022-07-30T07:10:51Z</time>
      </trkpt>
      <trkpt lat="46.25619" lon="5.33574">
        <ele>253.4</ele>
        <time>2022-07-30T07:10:52Z</time>
      </trkpt>
      <trkpt lat="46.25577" lon="5.33597">
        <ele>252.8</ele>
        <time>2022-07-30T07:10:57Z</time>
      </trkpt>
      <trkpt lat="46.2553" lon="5.33621">
        <ele>252.6</ele>
        <time>2022-07-30T07:11:03Z</time>
      </trkpt>
      <trkpt lat="46.25485" lon="5.33645">
        <ele>253</ele>
        <time>2022-07-30T07:11:09Z</time>
      </trkpt>
      <trkpt lat="46.25478" lon="5.3365">
        <ele>253</ele>
        <time>2022-07-30T07:11:10Z</time>
      </trkpt>
      <trkpt lat="46.25471" lon="5.33653">
        <ele>253</ele>
        <time>2022-07-30T07:11:11Z</time>
      </trkpt>
      <trkpt lat="46.25455" lon="5.33659">
        <ele>253.2</ele>
        <time>2022-07-30T07:11:13Z</time>
      </trkpt>
      <trkpt lat="46.25448" lon="5.33661">
        <ele>253.4</ele>
        <time>2022-07-30T07:11:14Z</time>
      </trkpt>
      <trkpt lat="46.25395" lon="5.3369">
        <ele>253.8</ele>
        <time>2022-07-30T07:11:21Z</time>
      </trkpt>
      <trkpt lat="46.25372" lon="5.33703">
        <ele>253.6</ele>
        <time>2022-07-30T07:11:24Z</time>
      </trkpt>
      <trkpt lat="46.25349" lon="5.33712">
        <ele>253.6</ele>
        <time>2022-07-30T07:11:27Z</time>
      </trkpt>
      <trkpt lat="46.25327" lon="5.33724">
        <ele>253.6</ele>
        <time>2022-07-30T07:11:30Z</time>
      </trkpt>
      <trkpt lat="46.25314" lon="5.33734">
        <ele>253.8</ele>
        <time>2022-07-30T07:11:32Z</time>
      </trkpt>
      <trkpt lat="46.25308" lon="5.33741">
        <ele>253.8</ele>
        <time>2022-07-30T07:11:33Z</time>
      </trkpt>
      <trkpt lat="46.25291" lon="5.33765">
        <ele>254</ele>
        <time>2022-07-30T07:11:36Z</time>
      </trkpt>
      <trkpt lat="46.25262" lon="5.33817">
        <ele>254.2</ele>
        <time>2022-07-30T07:11:42Z</time>
      </trkpt>
      <trkpt lat="46.25258" lon="5.33826">
        <ele>254.4</ele>
        <time>2022-07-30T07:11:43Z</time>
      </trkpt>
      <trkpt lat="46.25235" lon="5.33879">
        <ele>255</ele>
        <time>2022-07-30T07:11:49Z</time>
      </trkpt>
      <trkpt lat="46.25223" lon="5.33901">
        <ele>255.4</ele>
        <time>2022-07-30T07:11:52Z</time>
      </trkpt>
      <trkpt lat="46.25212" lon="5.33922">
        <ele>255.6</ele>
        <time>2022-07-30T07:11:55Z</time>
      </trkpt>
      <trkpt lat="46.25203" lon="5.33942">
        <ele>256</ele>
        <time>2022-07-30T07:11:58Z</time>
      </trkpt>
      <trkpt lat="46.25199" lon="5.33959">
        <ele>256.2</ele>
        <time>2022-07-30T07:12:00Z</time>
      </trkpt>
      <trkpt lat="46.25197" lon="5.33967">
        <ele>256.6</ele>
        <time>2022-07-30T07:12:01Z</time>
      </trkpt>
      <trkpt lat="46.25193" lon="5.33985">
        <ele>257</ele>
        <time>2022-07-30T07:12:03Z</time>
      </trkpt>
      <trkpt lat="46.25184" lon="5.34">
        <ele>257.4</ele>
        <time>2022-07-30T07:12:05Z</time>
      </trkpt>
      <trkpt lat="46.25167" lon="5.34016">
        <ele>257.6</ele>
        <time>2022-07-30T07:12:08Z</time>
      </trkpt>
      <trkpt lat="46.25162" lon="5.3402">
        <ele>257.6</ele>
        <time>2022-07-30T07:12:09Z</time>
      </trkpt>
      <trkpt lat="46.25145" lon="5.34039">
        <ele>257.4</ele>
        <time>2022-07-30T07:12:12Z</time>
      </trkpt>
      <trkpt lat="46.25141" lon="5.34047">
        <ele>257.4</ele>
        <time>2022-07-30T07:12:13Z</time>
      </trkpt>
      <trkpt lat="46.25137" lon="5.34055">
        <ele>257.4</ele>
        <time>2022-07-30T07:12:14Z</time>
      </trkpt>
      <trkpt lat="46.25118" lon="5.34118">
        <ele>257.2</ele>
        <time>2022-07-30T07:12:21Z</time>
      </trkpt>
      <trkpt lat="46.25091" lon="5.34187">
        <ele>257.6</ele>
        <time>2022-07-30T07:12:29Z</time>
      </trkpt>
      <trkpt lat="46.25065" lon="5.34256">
        <ele>257.8</ele>
        <time>2022-07-30T07:12:37Z</time>
      </trkpt>
      <trkpt lat="46.25062" lon="5.34264">
        <ele>258</ele>
        <time>2022-07-30T07:12:38Z</time>
      </trkpt>
      <trkpt lat="46.2504" lon="5.34322">
        <ele>258.8</ele>
        <time>2022-07-30T07:12:45Z</time>
      </trkpt>
      <trkpt lat="46.25033" lon="5.34341">
        <ele>258.8</ele>
        <time>2022-07-30T07:12:47Z</time>
      </trkpt>
      <trkpt lat="46.25013" lon="5.34389">
        <ele>259.4</ele>
        <time>2022-07-30T07:12:53Z</time>
      </trkpt>
      <trkpt lat="46.25003" lon="5.34402">
        <ele>259.4</ele>
        <time>2022-07-30T07:12:55Z</time>
      </trkpt>
      <trkpt lat="46.2499" lon="5.34407">
        <ele>259.6</ele>
        <time>2022-07-30T07:12:57Z</time>
      </trkpt>
      <trkpt lat="46.24984" lon="5.34406">
        <ele>259.6</ele>
        <time>2022-07-30T07:12:58Z</time>
      </trkpt>
      <trkpt lat="46.24978" lon="5.34404">
        <ele>259.6</ele>
        <time>2022-07-30T07:12:59Z</time>
      </trkpt>
      <trkpt lat="46.24966" lon="5.34399">
        <ele>259.8</ele>
        <time>2022-07-30T07:13:01Z</time>
      </trkpt>
      <trkpt lat="46.2496" lon="5.34398">
        <ele>259.8</ele>
        <time>2022-07-30T07:13:02Z</time>
      </trkpt>
      <trkpt lat="46.24955" lon="5.34399">
        <ele>260</ele>
        <time>2022-07-30T07:13:03Z</time>
      </trkpt>
      <trkpt lat="46.24943" lon="5.34406">
        <ele>260.2</ele>
        <time>2022-07-30T07:13:05Z</time>
      </trkpt>
      <trkpt lat="46.24929" lon="5.34423">
        <ele>260.6</ele>
        <time>2022-07-30T07:13:08Z</time>
      </trkpt>
      <trkpt lat="46.2491" lon="5.34446">
        <ele>261.2</ele>
        <time>2022-07-30T07:13:12Z</time>
      </trkpt>
      <trkpt lat="46.24904" lon="5.34453">
        <ele>261.2</ele>
        <time>2022-07-30T07:13:13Z</time>
      </trkpt>
      <trkpt lat="46.24885" lon="5.3448">
        <ele>261.6</ele>
        <time>2022-07-30T07:13:17Z</time>
      </trkpt>
      <trkpt lat="46.24881" lon="5.34486">
        <ele>261.8</ele>
        <time>2022-07-30T07:13:18Z</time>
      </trkpt>
      <trkpt lat="46.24872" lon="5.34497">
        <ele>262.2</ele>
        <time>2022-07-30T07:13:20Z</time>
      </trkpt>
      <trkpt lat="46.24861" lon="5.34506">
        <ele>262.6</ele>
        <time>2022-07-30T07:13:22Z</time>
      </trkpt>
      <trkpt lat="46.24855" lon="5.34507">
        <ele>262.8</ele>
        <time>2022-07-30T07:13:23Z</time>
      </trkpt>
      <trkpt lat="46.2485" lon="5.34506">
        <ele>263</ele>
        <time>2022-07-30T07:13:24Z</time>
      </trkpt>
      <trkpt lat="46.24839" lon="5.34501">
        <ele>263.6</ele>
        <time>2022-07-30T07:13:26Z</time>
      </trkpt>
      <trkpt lat="46.24833" lon="5.34498">
        <ele>263.8</ele>
        <time>2022-07-30T07:13:27Z</time>
      </trkpt>
      <trkpt lat="46.24817" lon="5.34492">
        <ele>264.4</ele>
        <time>2022-07-30T07:13:30Z</time>
      </trkpt>
      <trkpt lat="46.24808" lon="5.34493">
        <ele>264.8</ele>
        <time>2022-07-30T07:13:32Z</time>
      </trkpt>
      <trkpt lat="46.24803" lon="5.34495">
        <ele>265</ele>
        <time>2022-07-30T07:13:33Z</time>
      </trkpt>
      <trkpt lat="46.24788" lon="5.34506">
        <ele>265.8</ele>
        <time>2022-07-30T07:13:37Z</time>
      </trkpt>
      <trkpt lat="46.24784" lon="5.34508">
        <ele>266.4</ele>
        <time>2022-07-30T07:13:38Z</time>
      </trkpt>
      <trkpt lat="46.24765" lon="5.34514">
        <ele>267.4</ele>
        <time>2022-07-30T07:13:42Z</time>
      </trkpt>
      <trkpt lat="46.24761" lon="5.34513">
        <ele>267.4</ele>
        <time>2022-07-30T07:13:43Z</time>
      </trkpt>
      <trkpt lat="46.24757" lon="5.3451">
        <ele>267.4</ele>
        <time>2022-07-30T07:13:44Z</time>
      </trkpt>
      <trkpt lat="46.24749" lon="5.345">
        <ele>267.8</ele>
        <time>2022-07-30T07:13:47Z</time>
      </trkpt>
      <trkpt lat="46.24748" lon="5.34498">
        <ele>268.2</ele>
        <time>2022-07-30T07:13:48Z</time>
      </trkpt>
      <trkpt lat="46.24748" lon="5.34493">
        <ele>268.4</ele>
        <time>2022-07-30T07:13:50Z</time>
      </trkpt>
      <trkpt lat="46.24748" lon="5.34489">
        <ele>268.4</ele>
        <time>2022-07-30T07:13:52Z</time>
      </trkpt>
      <trkpt lat="46.24748" lon="5.34483">
        <ele>268.6</ele>
        <time>2022-07-30T07:13:56Z</time>
      </trkpt>
      <trkpt lat="46.24741" lon="5.345">
        <ele>268.8</ele>
        <time>2022-07-30T07:14:00Z</time>
      </trkpt>
      <trkpt lat="46.24727" lon="5.3454">
        <ele>268.6</ele>
        <time>2022-07-30T07:14:06Z</time>
      </trkpt>
      <trkpt lat="46.24713" lon="5.3458">
        <ele>268.4</ele>
        <time>2022-07-30T07:14:11Z</time>
      </trkpt>
      <trkpt lat="46.24685" lon="5.3464">
        <ele>268.2</ele>
        <time>2022-07-30T07:14:19Z</time>
      </trkpt>
      <trkpt lat="46.24665" lon="5.34685">
        <ele>268</ele>
        <time>2022-07-30T07:14:25Z</time>
      </trkpt>
      <trkpt lat="46.24662" lon="5.34699">
        <ele>268.2</ele>
        <time>2022-07-30T07:14:27Z</time>
      </trkpt>
      <trkpt lat="46.24657" lon="5.34717">
        <ele>268</ele>
        <time>2022-07-30T07:14:29Z</time>
      </trkpt>
      <trkpt lat="46.24648" lon="5.34759">
        <ele>268</ele>
        <time>2022-07-30T07:14:34Z</time>
      </trkpt>
      <trkpt lat="46.24644" lon="5.34795">
        <ele>268</ele>
        <time>2022-07-30T07:14:38Z</time>
      </trkpt>
      <trkpt lat="46.24642" lon="5.34812">
        <ele>268</ele>
        <time>2022-07-30T07:14:40Z</time>
      </trkpt>
      <trkpt lat="46.2464" lon="5.34821">
        <ele>268.2</ele>
        <time>2022-07-30T07:14:41Z</time>
      </trkpt>
      <trkpt lat="46.24622" lon="5.3488">
        <ele>268.8</ele>
        <time>2022-07-30T07:14:48Z</time>
      </trkpt>
      <trkpt lat="46.24611" lon="5.3491">
        <ele>269.2</ele>
        <time>2022-07-30T07:14:52Z</time>
      </trkpt>
      <trkpt lat="46.24609" lon="5.34917">
        <ele>269.6</ele>
        <time>2022-07-30T07:14:53Z</time>
      </trkpt>
      <trkpt lat="46.24607" lon="5.34925">
        <ele>269.8</ele>
        <time>2022-07-30T07:14:54Z</time>
      </trkpt>
      <trkpt lat="46.24598" lon="5.34956">
        <ele>270.8</ele>
        <time>2022-07-30T07:14:58Z</time>
      </trkpt>
      <trkpt lat="46.24595" lon="5.34971">
        <ele>271.2</ele>
        <time>2022-07-30T07:15:00Z</time>
      </trkpt>
      <trkpt lat="46.24587" lon="5.34995">
        <ele>271.8</ele>
        <time>2022-07-30T07:15:03Z</time>
      </trkpt>
      <trkpt lat="46.24581" lon="5.35009">
        <ele>272.4</ele>
        <time>2022-07-30T07:15:05Z</time>
      </trkpt>
      <trkpt lat="46.24575" lon="5.35025">
        <ele>272.4</ele>
        <time>2022-07-30T07:15:07Z</time>
      </trkpt>
      <trkpt lat="46.24561" lon="5.35055">
        <ele>272.2</ele>
        <time>2022-07-30T07:15:11Z</time>
      </trkpt>
      <trkpt lat="46.24551" lon="5.35072">
        <ele>271.8</ele>
        <time>2022-07-30T07:15:15Z</time>
      </trkpt>
      <trkpt lat="46.24545" lon="5.35075">
        <ele>271.6</ele>
        <time>2022-07-30T07:15:17Z</time>
      </trkpt>
      <trkpt lat="46.24542" lon="5.35074">
        <ele>271.6</ele>
        <time>2022-07-30T07:15:18Z</time>
      </trkpt>
      <trkpt lat="46.24517" lon="5.35058">
        <ele>271.8</ele>
        <time>2022-07-30T07:15:24Z</time>
      </trkpt>
      <trkpt lat="46.24508" lon="5.35049">
        <ele>271.8</ele>
        <time>2022-07-30T07:15:26Z</time>
      </trkpt>
      <trkpt lat="46.24492" lon="5.35036">
        <ele>272</ele>
        <time>2022-07-30T07:15:29Z</time>
      </trkpt>
      <trkpt lat="46.24487" lon="5.35032">
        <ele>272</ele>
        <time>2022-07-30T07:15:30Z</time>
      </trkpt>
      <trkpt lat="46.24477" lon="5.35025">
        <ele>272.2</ele>
        <time>2022-07-30T07:15:32Z</time>
      </trkpt>
      <trkpt lat="46.24472" lon="5.35021">
        <ele>272.4</ele>
        <time>2022-07-30T07:15:33Z</time>
      </trkpt>
      <trkpt lat="46.24453" lon="5.35004">
        <ele>273</ele>
        <time>2022-07-30T07:15:37Z</time>
      </trkpt>
      <trkpt lat="46.24438" lon="5.34992">
        <ele>273.6</ele>
        <time>2022-07-30T07:15:40Z</time>
      </trkpt>
      <trkpt lat="46.24434" lon="5.34988">
        <ele>273.6</ele>
        <time>2022-07-30T07:15:41Z</time>
      </trkpt>
      <trkpt lat="46.24428" lon="5.34985">
        <ele>274.2</ele>
        <time>2022-07-30T07:15:42Z</time>
      </trkpt>
      <trkpt lat="46.24423" lon="5.34984">
        <ele>274</ele>
        <time>2022-07-30T07:15:43Z</time>
      </trkpt>
      <trkpt lat="46.24418" lon="5.34983">
        <ele>274.4</ele>
        <time>2022-07-30T07:15:44Z</time>
      </trkpt>
      <trkpt lat="46.24396" lon="5.34983">
        <ele>275</ele>
        <time>2022-07-30T07:15:48Z</time>
      </trkpt>
      <trkpt lat="46.24386" lon="5.34983">
        <ele>275.4</ele>
        <time>2022-07-30T07:15:50Z</time>
      </trkpt>
      <trkpt lat="46.24377" lon="5.34984">
        <ele>275.8</ele>
        <time>2022-07-30T07:15:52Z</time>
      </trkpt>
      <trkpt lat="46.24367" lon="5.34983">
        <ele>276.2</ele>
        <time>2022-07-30T07:15:54Z</time>
      </trkpt>
      <trkpt lat="46.24358" lon="5.34981">
        <ele>276.6</ele>
        <time>2022-07-30T07:15:56Z</time>
      </trkpt>
      <trkpt lat="46.24349" lon="5.3498">
        <ele>277.2</ele>
        <time>2022-07-30T07:15:58Z</time>
      </trkpt>
      <trkpt lat="46.24325" lon="5.34978">
        <ele>278.4</ele>
        <time>2022-07-30T07:16:03Z</time>
      </trkpt>
      <trkpt lat="46.24315" lon="5.34976">
        <ele>278.6</ele>
        <time>2022-07-30T07:16:05Z</time>
      </trkpt>
      <trkpt lat="46.24282" lon="5.34973">
        <ele>279.4</ele>
        <time>2022-07-30T07:16:11Z</time>
      </trkpt>
      <trkpt lat="46.24277" lon="5.34972">
        <ele>279.4</ele>
        <time>2022-07-30T07:16:12Z</time>
      </trkpt>
      <trkpt lat="46.24236" lon="5.34959">
        <ele>280</ele>
        <time>2022-07-30T07:16:19Z</time>
      </trkpt>
      <trkpt lat="46.24206" lon="5.34937">
        <ele>280.2</ele>
        <time>2022-07-30T07:16:25Z</time>
      </trkpt>
      <trkpt lat="46.24198" lon="5.34936">
        <ele>280.2</ele>
        <time>2022-07-30T07:16:26Z</time>
      </trkpt>
      <trkpt lat="46.24192" lon="5.34939">
        <ele>280.4</ele>
        <time>2022-07-30T07:16:27Z</time>
      </trkpt>
      <trkpt lat="46.24188" lon="5.34946">
        <ele>280.4</ele>
        <time>2022-07-30T07:16:28Z</time>
      </trkpt>
      <trkpt lat="46.24187" lon="5.34953">
        <ele>280.4</ele>
        <time>2022-07-30T07:16:29Z</time>
      </trkpt>
      <trkpt lat="46.24185" lon="5.3497">
        <ele>280.6</ele>
        <time>2022-07-30T07:16:31Z</time>
      </trkpt>
      <trkpt lat="46.24178" lon="5.35013">
        <ele>280.8</ele>
        <time>2022-07-30T07:16:37Z</time>
      </trkpt>
      <trkpt lat="46.24178" lon="5.35019">
        <ele>280.8</ele>
        <time>2022-07-30T07:16:38Z</time>
      </trkpt>
      <trkpt lat="46.24175" lon="5.3503">
        <ele>281.4</ele>
        <time>2022-07-30T07:16:40Z</time>
      </trkpt>
      <trkpt lat="46.24173" lon="5.35041">
        <ele>281.8</ele>
        <time>2022-07-30T07:16:42Z</time>
      </trkpt>
      <trkpt lat="46.2417" lon="5.35046">
        <ele>282</ele>
        <time>2022-07-30T07:16:43Z</time>
      </trkpt>
      <trkpt lat="46.24167" lon="5.3505">
        <ele>282.4</ele>
        <time>2022-07-30T07:16:44Z</time>
      </trkpt>
      <trkpt lat="46.24164" lon="5.35054">
        <ele>282.4</ele>
        <time>2022-07-30T07:16:45Z</time>
      </trkpt>
      <trkpt lat="46.2416" lon="5.35057">
        <ele>282.8</ele>
        <time>2022-07-30T07:16:46Z</time>
      </trkpt>
      <trkpt lat="46.24156" lon="5.35058">
        <ele>283.2</ele>
        <time>2022-07-30T07:16:47Z</time>
      </trkpt>
      <trkpt lat="46.24148" lon="5.35062">
        <ele>283.6</ele>
        <time>2022-07-30T07:16:49Z</time>
      </trkpt>
      <trkpt lat="46.24144" lon="5.35063">
        <ele>283.6</ele>
        <time>2022-07-30T07:16:50Z</time>
      </trkpt>
      <trkpt lat="46.24136" lon="5.35064">
        <ele>284</ele>
        <time>2022-07-30T07:16:52Z</time>
      </trkpt>
      <trkpt lat="46.24131" lon="5.35066">
        <ele>284.2</ele>
        <time>2022-07-30T07:16:53Z</time>
      </trkpt>
      <trkpt lat="46.24127" lon="5.35067">
        <ele>284.6</ele>
        <time>2022-07-30T07:16:54Z</time>
      </trkpt>
      <trkpt lat="46.24115" lon="5.35072">
        <ele>285.2</ele>
        <time>2022-07-30T07:16:57Z</time>
      </trkpt>
      <trkpt lat="46.24107" lon="5.35077">
        <ele>285.4</ele>
        <time>2022-07-30T07:16:59Z</time>
      </trkpt>
      <trkpt lat="46.24104" lon="5.3508">
        <ele>285.8</ele>
        <time>2022-07-30T07:17:00Z</time>
      </trkpt>
      <trkpt lat="46.24101" lon="5.35084">
        <ele>286</ele>
        <time>2022-07-30T07:17:01Z</time>
      </trkpt>
      <trkpt lat="46.24095" lon="5.35093">
        <ele>286.4</ele>
        <time>2022-07-30T07:17:03Z</time>
      </trkpt>
      <trkpt lat="46.2409" lon="5.35101">
        <ele>286.6</ele>
        <time>2022-07-30T07:17:05Z</time>
      </trkpt>
      <trkpt lat="46.24087" lon="5.35105">
        <ele>286.6</ele>
        <time>2022-07-30T07:17:06Z</time>
      </trkpt>
      <trkpt lat="46.24085" lon="5.3511">
        <ele>287</ele>
        <time>2022-07-30T07:17:07Z</time>
      </trkpt>
      <trkpt lat="46.24074" lon="5.35124">
        <ele>288</ele>
        <time>2022-07-30T07:17:11Z</time>
      </trkpt>
      <trkpt lat="46.24067" lon="5.35136">
        <ele>289.2</ele>
        <time>2022-07-30T07:17:14Z</time>
      </trkpt>
      <trkpt lat="46.24053" lon="5.35157">
        <ele>290.2</ele>
        <time>2022-07-30T07:17:19Z</time>
      </trkpt>
      <trkpt lat="46.24047" lon="5.35166">
        <ele>290.8</ele>
        <time>2022-07-30T07:17:21Z</time>
      </trkpt>
      <trkpt lat="46.24041" lon="5.35175">
        <ele>291.4</ele>
        <time>2022-07-30T07:17:23Z</time>
      </trkpt>
      <trkpt lat="46.24039" lon="5.35179">
        <ele>291.6</ele>
        <time>2022-07-30T07:17:24Z</time>
      </trkpt>
      <trkpt lat="46.24036" lon="5.35183">
        <ele>291.6</ele>
        <time>2022-07-30T07:17:25Z</time>
      </trkpt>
      <trkpt lat="46.24027" lon="5.35194">
        <ele>292.6</ele>
        <time>2022-07-30T07:17:28Z</time>
      </trkpt>
      <trkpt lat="46.24014" lon="5.35208">
        <ele>293.4</ele>
        <time>2022-07-30T07:17:32Z</time>
      </trkpt>
      <trkpt lat="46.24009" lon="5.35211">
        <ele>293.6</ele>
        <time>2022-07-30T07:17:33Z</time>
      </trkpt>
      <trkpt lat="46.24003" lon="5.35217">
        <ele>293.8</ele>
        <time>2022-07-30T07:17:34Z</time>
      </trkpt>
      <trkpt lat="46.23988" lon="5.35233">
        <ele>294</ele>
        <time>2022-07-30T07:17:37Z</time>
      </trkpt>
      <trkpt lat="46.23958" lon="5.35258">
        <ele>294</ele>
        <time>2022-07-30T07:17:43Z</time>
      </trkpt>
      <trkpt lat="46.23952" lon="5.3526">
        <ele>294</ele>
        <time>2022-07-30T07:17:44Z</time>
      </trkpt>
      <trkpt lat="46.23921" lon="5.35267">
        <ele>294</ele>
        <time>2022-07-30T07:17:49Z</time>
      </trkpt>
      <trkpt lat="46.23886" lon="5.35275">
        <ele>293.8</ele>
        <time>2022-07-30T07:17:54Z</time>
      </trkpt>
      <trkpt lat="46.23857" lon="5.35281">
        <ele>293</ele>
        <time>2022-07-30T07:17:58Z</time>
      </trkpt>
      <trkpt lat="46.23837" lon="5.3529">
        <ele>292.4</ele>
        <time>2022-07-30T07:18:01Z</time>
      </trkpt>
      <trkpt lat="46.2382" lon="5.35297">
        <ele>292.2</ele>
        <time>2022-07-30T07:18:04Z</time>
      </trkpt>
      <trkpt lat="46.23815" lon="5.35299">
        <ele>292.2</ele>
        <time>2022-07-30T07:18:05Z</time>
      </trkpt>
      <trkpt lat="46.2381" lon="5.35305">
        <ele>292.2</ele>
        <time>2022-07-30T07:18:07Z</time>
      </trkpt>
      <trkpt lat="46.23809" lon="5.35328">
        <ele>292.2</ele>
        <time>2022-07-30T07:18:11Z</time>
      </trkpt>
      <trkpt lat="46.23808" lon="5.35353">
        <ele>292</ele>
        <time>2022-07-30T07:18:14Z</time>
      </trkpt>
      <trkpt lat="46.23804" lon="5.3537">
        <ele>292</ele>
        <time>2022-07-30T07:18:16Z</time>
      </trkpt>
      <trkpt lat="46.23798" lon="5.35384">
        <ele>292</ele>
        <time>2022-07-30T07:18:18Z</time>
      </trkpt>
      <trkpt lat="46.2379" lon="5.35396">
        <ele>292</ele>
        <time>2022-07-30T07:18:20Z</time>
      </trkpt>
      <trkpt lat="46.23762" lon="5.35444">
        <ele>292.8</ele>
        <time>2022-07-30T07:18:28Z</time>
      </trkpt>
      <trkpt lat="46.23751" lon="5.35461">
        <ele>293.4</ele>
        <time>2022-07-30T07:18:31Z</time>
      </trkpt>
      <trkpt lat="46.23741" lon="5.35476">
        <ele>294.4</ele>
        <time>2022-07-30T07:18:34Z</time>
      </trkpt>
      <trkpt lat="46.23737" lon="5.3548">
        <ele>295</ele>
        <time>2022-07-30T07:18:35Z</time>
      </trkpt>
      <trkpt lat="46.23717" lon="5.35504">
        <ele>296</ele>
        <time>2022-07-30T07:18:40Z</time>
      </trkpt>
      <trkpt lat="46.23708" lon="5.35514">
        <ele>296.4</ele>
        <time>2022-07-30T07:18:42Z</time>
      </trkpt>
      <trkpt lat="46.23692" lon="5.35538">
        <ele>297</ele>
        <time>2022-07-30T07:18:46Z</time>
      </trkpt>
      <trkpt lat="46.23685" lon="5.3555">
        <ele>297.2</ele>
        <time>2022-07-30T07:18:48Z</time>
      </trkpt>
      <trkpt lat="46.23676" lon="5.35569">
        <ele>297.6</ele>
        <time>2022-07-30T07:18:51Z</time>
      </trkpt>
      <trkpt lat="46.23675" lon="5.35576">
        <ele>298</ele>
        <time>2022-07-30T07:18:52Z</time>
      </trkpt>
      <trkpt lat="46.23674" lon="5.35584">
        <ele>298</ele>
        <time>2022-07-30T07:18:53Z</time>
      </trkpt>
      <trkpt lat="46.23675" lon="5.35599">
        <ele>298.2</ele>
        <time>2022-07-30T07:18:55Z</time>
      </trkpt>
      <trkpt lat="46.23677" lon="5.35615">
        <ele>298.2</ele>
        <time>2022-07-30T07:18:57Z</time>
      </trkpt>
      <trkpt lat="46.23685" lon="5.35664">
        <ele>298.8</ele>
        <time>2022-07-30T07:19:03Z</time>
      </trkpt>
      <trkpt lat="46.23686" lon="5.35672">
        <ele>298.8</ele>
        <time>2022-07-30T07:19:04Z</time>
      </trkpt>
      <trkpt lat="46.23687" lon="5.3568">
        <ele>298.8</ele>
        <time>2022-07-30T07:19:05Z</time>
      </trkpt>
      <trkpt lat="46.23688" lon="5.35688">
        <ele>299</ele>
        <time>2022-07-30T07:19:06Z</time>
      </trkpt>
      <trkpt lat="46.23689" lon="5.35696">
        <ele>299</ele>
        <time>2022-07-30T07:19:07Z</time>
      </trkpt>
      <trkpt lat="46.23693" lon="5.35712">
        <ele>299.2</ele>
        <time>2022-07-30T07:19:09Z</time>
      </trkpt>
      <trkpt lat="46.2371" lon="5.35754">
        <ele>300</ele>
        <time>2022-07-30T07:19:15Z</time>
      </trkpt>
      <trkpt lat="46.23713" lon="5.35761">
        <ele>300</ele>
        <time>2022-07-30T07:19:16Z</time>
      </trkpt>
      <trkpt lat="46.23732" lon="5.35802">
        <ele>301</ele>
        <time>2022-07-30T07:19:22Z</time>
      </trkpt>
      <trkpt lat="46.23736" lon="5.35809">
        <ele>301</ele>
        <time>2022-07-30T07:19:23Z</time>
      </trkpt>
      <trkpt lat="46.23753" lon="5.35838">
        <ele>301.6</ele>
        <time>2022-07-30T07:19:28Z</time>
      </trkpt>
      <trkpt lat="46.2376" lon="5.35849">
        <ele>302.2</ele>
        <time>2022-07-30T07:19:30Z</time>
      </trkpt>
      <trkpt lat="46.23775" lon="5.35868">
        <ele>303.2</ele>
        <time>2022-07-30T07:19:34Z</time>
      </trkpt>
      <trkpt lat="46.23778" lon="5.35872">
        <ele>303.6</ele>
        <time>2022-07-30T07:19:35Z</time>
      </trkpt>
      <trkpt lat="46.23795" lon="5.35887">
        <ele>304.4</ele>
        <time>2022-07-30T07:19:39Z</time>
      </trkpt>
      <trkpt lat="46.23807" lon="5.35897">
        <ele>304.8</ele>
        <time>2022-07-30T07:19:42Z</time>
      </trkpt>
      <trkpt lat="46.2382" lon="5.35905">
        <ele>305.6</ele>
        <time>2022-07-30T07:19:45Z</time>
      </trkpt>
      <trkpt lat="46.23835" lon="5.35909">
        <ele>306.2</ele>
        <time>2022-07-30T07:19:48Z</time>
      </trkpt>
      <trkpt lat="46.23845" lon="5.3591">
        <ele>306.8</ele>
        <time>2022-07-30T07:19:50Z</time>
      </trkpt>
      <trkpt lat="46.23851" lon="5.35912">
        <ele>306.8</ele>
        <time>2022-07-30T07:19:51Z</time>
      </trkpt>
      <trkpt lat="46.23884" lon="5.35916">
        <ele>307.8</ele>
        <time>2022-07-30T07:19:57Z</time>
      </trkpt>
      <trkpt lat="46.23889" lon="5.35918">
        <ele>308</ele>
        <time>2022-07-30T07:19:58Z</time>
      </trkpt>
      <trkpt lat="46.23917" lon="5.35936">
        <ele>308.6</ele>
        <time>2022-07-30T07:20:04Z</time>
      </trkpt>
      <trkpt lat="46.23922" lon="5.35939">
        <ele>308.8</ele>
        <time>2022-07-30T07:20:05Z</time>
      </trkpt>
      <trkpt lat="46.23926" lon="5.35944">
        <ele>309</ele>
        <time>2022-07-30T07:20:06Z</time>
      </trkpt>
      <trkpt lat="46.23938" lon="5.35956">
        <ele>309</ele>
        <time>2022-07-30T07:20:09Z</time>
      </trkpt>
      <trkpt lat="46.23969" lon="5.35987">
        <ele>310</ele>
        <time>2022-07-30T07:20:17Z</time>
      </trkpt>
      <trkpt lat="46.23981" lon="5.35997">
        <ele>310.6</ele>
        <time>2022-07-30T07:20:20Z</time>
      </trkpt>
      <trkpt lat="46.23988" lon="5.36006">
        <ele>311</ele>
        <time>2022-07-30T07:20:22Z</time>
      </trkpt>
      <trkpt lat="46.23993" lon="5.36016">
        <ele>311.2</ele>
        <time>2022-07-30T07:20:24Z</time>
      </trkpt>
      <trkpt lat="46.23993" lon="5.36029">
        <ele>311.2</ele>
        <time>2022-07-30T07:20:26Z</time>
      </trkpt>
      <trkpt lat="46.23992" lon="5.36035">
        <ele>311.4</ele>
        <time>2022-07-30T07:20:27Z</time>
      </trkpt>
      <trkpt lat="46.23989" lon="5.36041">
        <ele>311.6</ele>
        <time>2022-07-30T07:20:28Z</time>
      </trkpt>
      <trkpt lat="46.23981" lon="5.36051">
        <ele>312</ele>
        <time>2022-07-30T07:20:30Z</time>
      </trkpt>
      <trkpt lat="46.23976" lon="5.36055">
        <ele>312.2</ele>
        <time>2022-07-30T07:20:31Z</time>
      </trkpt>
      <trkpt lat="46.23967" lon="5.36059">
        <ele>312.2</ele>
        <time>2022-07-30T07:20:33Z</time>
      </trkpt>
      <trkpt lat="46.23959" lon="5.3606">
        <ele>312.4</ele>
        <time>2022-07-30T07:20:35Z</time>
      </trkpt>
      <trkpt lat="46.23942" lon="5.36053">
        <ele>313.4</ele>
        <time>2022-07-30T07:20:40Z</time>
      </trkpt>
      <trkpt lat="46.23932" lon="5.36047">
        <ele>314.4</ele>
        <time>2022-07-30T07:20:43Z</time>
      </trkpt>
      <trkpt lat="46.23917" lon="5.36039">
        <ele>315.6</ele>
        <time>2022-07-30T07:20:47Z</time>
      </trkpt>
      <trkpt lat="46.23899" lon="5.36034">
        <ele>316.6</ele>
        <time>2022-07-30T07:20:52Z</time>
      </trkpt>
      <trkpt lat="46.23882" lon="5.36026">
        <ele>317.6</ele>
        <time>2022-07-30T07:20:57Z</time>
      </trkpt>
      <trkpt lat="46.23866" lon="5.36017">
        <ele>319</ele>
        <time>2022-07-30T07:21:02Z</time>
      </trkpt>
      <trkpt lat="46.23862" lon="5.36015">
        <ele>319.2</ele>
        <time>2022-07-30T07:21:03Z</time>
      </trkpt>
      <trkpt lat="46.23852" lon="5.3601">
        <ele>320</ele>
        <time>2022-07-30T07:21:06Z</time>
      </trkpt>
      <trkpt lat="46.23841" lon="5.36007">
        <ele>321</ele>
        <time>2022-07-30T07:21:09Z</time>
      </trkpt>
      <trkpt lat="46.23822" lon="5.35999">
        <ele>322.2</ele>
        <time>2022-07-30T07:21:14Z</time>
      </trkpt>
      <trkpt lat="46.2381" lon="5.35993">
        <ele>322.8</ele>
        <time>2022-07-30T07:21:17Z</time>
      </trkpt>
      <trkpt lat="46.23806" lon="5.35992">
        <ele>323.4</ele>
        <time>2022-07-30T07:21:18Z</time>
      </trkpt>
      <trkpt lat="46.23786" lon="5.35982">
        <ele>324.6</ele>
        <time>2022-07-30T07:21:24Z</time>
      </trkpt>
      <trkpt lat="46.23782" lon="5.35981">
        <ele>324.8</ele>
        <time>2022-07-30T07:21:25Z</time>
      </trkpt>
      <trkpt lat="46.2377" lon="5.35976">
        <ele>325.8</ele>
        <time>2022-07-30T07:21:29Z</time>
      </trkpt>
      <trkpt lat="46.23764" lon="5.35977">
        <ele>326.2</ele>
        <time>2022-07-30T07:21:31Z</time>
      </trkpt>
      <trkpt lat="46.23754" lon="5.35981">
        <ele>327</ele>
        <time>2022-07-30T07:21:34Z</time>
      </trkpt>
      <trkpt lat="46.23741" lon="5.35989">
        <ele>327.8</ele>
        <time>2022-07-30T07:21:38Z</time>
      </trkpt>
      <trkpt lat="46.23738" lon="5.35989">
        <ele>328.4</ele>
        <time>2022-07-30T07:21:39Z</time>
      </trkpt>
      <trkpt lat="46.23725" lon="5.35987">
        <ele>329.4</ele>
        <time>2022-07-30T07:21:43Z</time>
      </trkpt>
      <trkpt lat="46.23722" lon="5.35985">
        <ele>329.6</ele>
        <time>2022-07-30T07:21:44Z</time>
      </trkpt>
      <trkpt lat="46.23702" lon="5.35972">
        <ele>330.6</ele>
        <time>2022-07-30T07:21:50Z</time>
      </trkpt>
      <trkpt lat="46.23699" lon="5.3597">
        <ele>330.6</ele>
        <time>2022-07-30T07:21:51Z</time>
      </trkpt>
      <trkpt lat="46.23684" lon="5.35958">
        <ele>331.6</ele>
        <time>2022-07-30T07:21:56Z</time>
      </trkpt>
      <trkpt lat="46.23669" lon="5.35945">
        <ele>332.6</ele>
        <time>2022-07-30T07:22:01Z</time>
      </trkpt>
      <trkpt lat="46.23657" lon="5.35932">
        <ele>333.6</ele>
        <time>2022-07-30T07:22:05Z</time>
      </trkpt>
      <trkpt lat="46.23646" lon="5.35921">
        <ele>334.4</ele>
        <time>2022-07-30T07:22:09Z</time>
      </trkpt>
      <trkpt lat="46.23643" lon="5.35918">
        <ele>334.6</ele>
        <time>2022-07-30T07:22:10Z</time>
      </trkpt>
      <trkpt lat="46.23627" lon="5.359">
        <ele>335.6</ele>
        <time>2022-07-30T07:22:16Z</time>
      </trkpt>
      <trkpt lat="46.23624" lon="5.35896">
        <ele>335.8</ele>
        <time>2022-07-30T07:22:17Z</time>
      </trkpt>
      <trkpt lat="46.23611" lon="5.35879">
        <ele>336.8</ele>
        <time>2022-07-30T07:22:22Z</time>
      </trkpt>
      <trkpt lat="46.23609" lon="5.35876">
        <ele>337</ele>
        <time>2022-07-30T07:22:23Z</time>
      </trkpt>
      <trkpt lat="46.23594" lon="5.35858">
        <ele>338</ele>
        <time>2022-07-30T07:22:29Z</time>
      </trkpt>
      <trkpt lat="46.23586" lon="5.35849">
        <ele>338.8</ele>
        <time>2022-07-30T07:22:32Z</time>
      </trkpt>
      <trkpt lat="46.23581" lon="5.35844">
        <ele>339.2</ele>
        <time>2022-07-30T07:22:34Z</time>
      </trkpt>
      <trkpt lat="46.23566" lon="5.35831">
        <ele>340.2</ele>
        <time>2022-07-30T07:22:39Z</time>
      </trkpt>
      <trkpt lat="46.23561" lon="5.35826">
        <ele>340.6</ele>
        <time>2022-07-30T07:22:41Z</time>
      </trkpt>
      <trkpt lat="46.23552" lon="5.35819">
        <ele>341.2</ele>
        <time>2022-07-30T07:22:44Z</time>
      </trkpt>
      <trkpt lat="46.23541" lon="5.35814">
        <ele>342.2</ele>
        <time>2022-07-30T07:22:48Z</time>
      </trkpt>
      <trkpt lat="46.23539" lon="5.35813">
        <ele>342.4</ele>
        <time>2022-07-30T07:22:49Z</time>
      </trkpt>
      <trkpt lat="46.23533" lon="5.35809">
        <ele>343.4</ele>
        <time>2022-07-30T07:22:51Z</time>
      </trkpt>
      <trkpt lat="46.2352" lon="5.35802">
        <ele>344.2</ele>
        <time>2022-07-30T07:22:55Z</time>
      </trkpt>
      <trkpt lat="46.23511" lon="5.35797">
        <ele>344.6</ele>
        <time>2022-07-30T07:22:57Z</time>
      </trkpt>
      <trkpt lat="46.23497" lon="5.35783">
        <ele>345.6</ele>
        <time>2022-07-30T07:23:01Z</time>
      </trkpt>
      <trkpt lat="46.23494" lon="5.3578">
        <ele>345.8</ele>
        <time>2022-07-30T07:23:02Z</time>
      </trkpt>
      <trkpt lat="46.23473" lon="5.35763">
        <ele>347</ele>
        <time>2022-07-30T07:23:08Z</time>
      </trkpt>
      <trkpt lat="46.23458" lon="5.35756">
        <ele>348.2</ele>
        <time>2022-07-30T07:23:12Z</time>
      </trkpt>
      <trkpt lat="46.23444" lon="5.35748">
        <ele>349.4</ele>
        <time>2022-07-30T07:23:16Z</time>
      </trkpt>
      <trkpt lat="46.23423" lon="5.35736">
        <ele>350.6</ele>
        <time>2022-07-30T07:23:23Z</time>
      </trkpt>
      <trkpt lat="46.2342" lon="5.35734">
        <ele>350.6</ele>
        <time>2022-07-30T07:23:24Z</time>
      </trkpt>
      <trkpt lat="46.23408" lon="5.3573">
        <ele>351.8</ele>
        <time>2022-07-30T07:23:28Z</time>
      </trkpt>
      <trkpt lat="46.23401" lon="5.35727">
        <ele>352.2</ele>
        <time>2022-07-30T07:23:30Z</time>
      </trkpt>
      <trkpt lat="46.23394" lon="5.35725">
        <ele>353</ele>
        <time>2022-07-30T07:23:32Z</time>
      </trkpt>
      <trkpt lat="46.2338" lon="5.3572">
        <ele>354</ele>
        <time>2022-07-30T07:23:36Z</time>
      </trkpt>
      <trkpt lat="46.23363" lon="5.35714">
        <ele>355.2</ele>
        <time>2022-07-30T07:23:41Z</time>
      </trkpt>
      <trkpt lat="46.23353" lon="5.35712">
        <ele>355.8</ele>
        <time>2022-07-30T07:23:44Z</time>
      </trkpt>
      <trkpt lat="46.23347" lon="5.3571">
        <ele>356.4</ele>
        <time>2022-07-30T07:23:46Z</time>
      </trkpt>
      <trkpt lat="46.23326" lon="5.35706">
        <ele>357.4</ele>
        <time>2022-07-30T07:23:52Z</time>
      </trkpt>
      <trkpt lat="46.23323" lon="5.35706">
        <ele>357.6</ele>
        <time>2022-07-30T07:23:53Z</time>
      </trkpt>
      <trkpt lat="46.23309" lon="5.35704">
        <ele>358.8</ele>
        <time>2022-07-30T07:23:57Z</time>
      </trkpt>
      <trkpt lat="46.23306" lon="5.35705">
        <ele>359</ele>
        <time>2022-07-30T07:23:58Z</time>
      </trkpt>
      <trkpt lat="46.233" lon="5.35705">
        <ele>359.4</ele>
        <time>2022-07-30T07:24:00Z</time>
      </trkpt>
      <trkpt lat="46.23294" lon="5.35707">
        <ele>360</ele>
        <time>2022-07-30T07:24:02Z</time>
      </trkpt>
      <trkpt lat="46.23287" lon="5.35714">
        <ele>360.6</ele>
        <time>2022-07-30T07:24:05Z</time>
      </trkpt>
      <trkpt lat="46.23278" lon="5.35726">
        <ele>361.2</ele>
        <time>2022-07-30T07:24:08Z</time>
      </trkpt>
      <trkpt lat="46.23269" lon="5.35736">
        <ele>362</ele>
        <time>2022-07-30T07:24:11Z</time>
      </trkpt>
      <trkpt lat="46.23258" lon="5.35743">
        <ele>362.4</ele>
        <time>2022-07-30T07:24:14Z</time>
      </trkpt>
      <trkpt lat="46.23251" lon="5.35744">
        <ele>362.6</ele>
        <time>2022-07-30T07:24:16Z</time>
      </trkpt>
      <trkpt lat="46.23241" lon="5.35745">
        <ele>363.4</ele>
        <time>2022-07-30T07:24:19Z</time>
      </trkpt>
      <trkpt lat="46.23232" lon="5.35747">
        <ele>364.4</ele>
        <time>2022-07-30T07:24:22Z</time>
      </trkpt>
      <trkpt lat="46.23229" lon="5.35748">
        <ele>364.8</ele>
        <time>2022-07-30T07:24:23Z</time>
      </trkpt>
      <trkpt lat="46.23218" lon="5.35754">
        <ele>366</ele>
        <time>2022-07-30T07:24:27Z</time>
      </trkpt>
      <trkpt lat="46.23214" lon="5.35755">
        <ele>366.6</ele>
        <time>2022-07-30T07:24:28Z</time>
      </trkpt>
      <trkpt lat="46.23205" lon="5.35759">
        <ele>367.4</ele>
        <time>2022-07-30T07:24:31Z</time>
      </trkpt>
      <trkpt lat="46.23196" lon="5.35766">
        <ele>368.4</ele>
        <time>2022-07-30T07:24:34Z</time>
      </trkpt>
      <trkpt lat="46.23193" lon="5.35767">
        <ele>368.8</ele>
        <time>2022-07-30T07:24:35Z</time>
      </trkpt>
      <trkpt lat="46.23182" lon="5.35774">
        <ele>369.6</ele>
        <time>2022-07-30T07:24:39Z</time>
      </trkpt>
      <trkpt lat="46.23177" lon="5.35778">
        <ele>370.2</ele>
        <time>2022-07-30T07:24:41Z</time>
      </trkpt>
      <trkpt lat="46.23171" lon="5.35785">
        <ele>370.8</ele>
        <time>2022-07-30T07:24:43Z</time>
      </trkpt>
      <trkpt lat="46.23167" lon="5.35787">
        <ele>371</ele>
        <time>2022-07-30T07:24:44Z</time>
      </trkpt>
      <trkpt lat="46.23163" lon="5.35788">
        <ele>371</ele>
        <time>2022-07-30T07:24:45Z</time>
      </trkpt>
      <trkpt lat="46.23142" lon="5.35793">
        <ele>371.4</ele>
        <time>2022-07-30T07:24:50Z</time>
      </trkpt>
      <trkpt lat="46.23134" lon="5.35803">
        <ele>371.4</ele>
        <time>2022-07-30T07:24:52Z</time>
      </trkpt>
      <trkpt lat="46.23131" lon="5.35811">
        <ele>371.4</ele>
        <time>2022-07-30T07:24:53Z</time>
      </trkpt>
      <trkpt lat="46.23118" lon="5.35858">
        <ele>370.6</ele>
        <time>2022-07-30T07:24:58Z</time>
      </trkpt>
      <trkpt lat="46.23105" lon="5.35903">
        <ele>369.4</ele>
        <time>2022-07-30T07:25:02Z</time>
      </trkpt>
      <trkpt lat="46.23101" lon="5.35916">
        <ele>369</ele>
        <time>2022-07-30T07:25:03Z</time>
      </trkpt>
      <trkpt lat="46.23093" lon="5.35941">
        <ele>368.4</ele>
        <time>2022-07-30T07:25:05Z</time>
      </trkpt>
      <trkpt lat="46.23076" lon="5.35993">
        <ele>367</ele>
        <time>2022-07-30T07:25:09Z</time>
      </trkpt>
      <trkpt lat="46.23062" lon="5.36034">
        <ele>365.6</ele>
        <time>2022-07-30T07:25:12Z</time>
      </trkpt>
      <trkpt lat="46.23053" lon="5.36062">
        <ele>365</ele>
        <time>2022-07-30T07:25:14Z</time>
      </trkpt>
      <trkpt lat="46.23044" lon="5.3609">
        <ele>364.2</ele>
        <time>2022-07-30T07:25:16Z</time>
      </trkpt>
      <trkpt lat="46.23032" lon="5.36133">
        <ele>362.6</ele>
        <time>2022-07-30T07:25:19Z</time>
      </trkpt>
      <trkpt lat="46.23027" lon="5.36148">
        <ele>362.2</ele>
        <time>2022-07-30T07:25:20Z</time>
      </trkpt>
      <trkpt lat="46.23017" lon="5.36178">
        <ele>361.4</ele>
        <time>2022-07-30T07:25:22Z</time>
      </trkpt>
      <trkpt lat="46.23001" lon="5.36223">
        <ele>359.6</ele>
        <time>2022-07-30T07:25:25Z</time>
      </trkpt>
      <trkpt lat="46.22991" lon="5.36253">
        <ele>357.8</ele>
        <time>2022-07-30T07:25:27Z</time>
      </trkpt>
      <trkpt lat="46.22981" lon="5.36284">
        <ele>356.4</ele>
        <time>2022-07-30T07:25:29Z</time>
      </trkpt>
      <trkpt lat="46.22975" lon="5.363">
        <ele>355</ele>
        <time>2022-07-30T07:25:30Z</time>
      </trkpt>
      <trkpt lat="46.2296" lon="5.36347">
        <ele>353.6</ele>
        <time>2022-07-30T07:25:33Z</time>
      </trkpt>
      <trkpt lat="46.22955" lon="5.36363">
        <ele>353</ele>
        <time>2022-07-30T07:25:34Z</time>
      </trkpt>
      <trkpt lat="46.22946" lon="5.36393">
        <ele>352.4</ele>
        <time>2022-07-30T07:25:36Z</time>
      </trkpt>
      <trkpt lat="46.22936" lon="5.36423">
        <ele>351.2</ele>
        <time>2022-07-30T07:25:38Z</time>
      </trkpt>
      <trkpt lat="46.22925" lon="5.36453">
        <ele>349.8</ele>
        <time>2022-07-30T07:25:40Z</time>
      </trkpt>
      <trkpt lat="46.22916" lon="5.36483">
        <ele>348.4</ele>
        <time>2022-07-30T07:25:42Z</time>
      </trkpt>
      <trkpt lat="46.22911" lon="5.36498">
        <ele>348</ele>
        <time>2022-07-30T07:25:43Z</time>
      </trkpt>
      <trkpt lat="46.22907" lon="5.36512">
        <ele>347</ele>
        <time>2022-07-30T07:25:44Z</time>
      </trkpt>
      <trkpt lat="46.22898" lon="5.36541">
        <ele>345.8</ele>
        <time>2022-07-30T07:25:46Z</time>
      </trkpt>
      <trkpt lat="46.22879" lon="5.36598">
        <ele>344.8</ele>
        <time>2022-07-30T07:25:50Z</time>
      </trkpt>
      <trkpt lat="46.22874" lon="5.36612">
        <ele>344.6</ele>
        <time>2022-07-30T07:25:51Z</time>
      </trkpt>
      <trkpt lat="46.22861" lon="5.36654">
        <ele>343.6</ele>
        <time>2022-07-30T07:25:54Z</time>
      </trkpt>
      <trkpt lat="46.22852" lon="5.36681">
        <ele>342.2</ele>
        <time>2022-07-30T07:25:56Z</time>
      </trkpt>
      <trkpt lat="46.22826" lon="5.36763">
        <ele>341.2</ele>
        <time>2022-07-30T07:26:02Z</time>
      </trkpt>
      <trkpt lat="46.22821" lon="5.36776">
        <ele>340.4</ele>
        <time>2022-07-30T07:26:03Z</time>
      </trkpt>
      <trkpt lat="46.22817" lon="5.36789">
        <ele>340</ele>
        <time>2022-07-30T07:26:04Z</time>
      </trkpt>
      <trkpt lat="46.22804" lon="5.36827">
        <ele>339.2</ele>
        <time>2022-07-30T07:26:07Z</time>
      </trkpt>
      <trkpt lat="46.22784" lon="5.36888">
        <ele>338.8</ele>
        <time>2022-07-30T07:26:12Z</time>
      </trkpt>
      <trkpt lat="46.22767" lon="5.36937">
        <ele>337.8</ele>
        <time>2022-07-30T07:26:16Z</time>
      </trkpt>
      <trkpt lat="46.22754" lon="5.36976">
        <ele>336.8</ele>
        <time>2022-07-30T07:26:19Z</time>
      </trkpt>
      <trkpt lat="46.22746" lon="5.37002">
        <ele>335.8</ele>
        <time>2022-07-30T07:26:21Z</time>
      </trkpt>
      <trkpt lat="46.22733" lon="5.37042">
        <ele>334.4</ele>
        <time>2022-07-30T07:26:24Z</time>
      </trkpt>
      <trkpt lat="46.22721" lon="5.37084">
        <ele>333.4</ele>
        <time>2022-07-30T07:26:27Z</time>
      </trkpt>
      <trkpt lat="46.22716" lon="5.37098">
        <ele>332.2</ele>
        <time>2022-07-30T07:26:28Z</time>
      </trkpt>
      <trkpt lat="46.22704" lon="5.37138">
        <ele>330.6</ele>
        <time>2022-07-30T07:26:31Z</time>
      </trkpt>
      <trkpt lat="46.22697" lon="5.37159">
        <ele>330.2</ele>
        <time>2022-07-30T07:26:33Z</time>
      </trkpt>
      <trkpt lat="46.22686" lon="5.37171">
        <ele>329.8</ele>
        <time>2022-07-30T07:26:35Z</time>
      </trkpt>
      <trkpt lat="46.22679" lon="5.37173">
        <ele>329.4</ele>
        <time>2022-07-30T07:26:36Z</time>
      </trkpt>
      <trkpt lat="46.22664" lon="5.37176">
        <ele>329</ele>
        <time>2022-07-30T07:26:38Z</time>
      </trkpt>
      <trkpt lat="46.22643" lon="5.37187">
        <ele>328.8</ele>
        <time>2022-07-30T07:26:41Z</time>
      </trkpt>
      <trkpt lat="46.22628" lon="5.37192">
        <ele>328.8</ele>
        <time>2022-07-30T07:26:43Z</time>
      </trkpt>
      <trkpt lat="46.22593" lon="5.37197">
        <ele>329</ele>
        <time>2022-07-30T07:26:48Z</time>
      </trkpt>
      <trkpt lat="46.2258" lon="5.37196">
        <ele>329.2</ele>
        <time>2022-07-30T07:26:50Z</time>
      </trkpt>
      <trkpt lat="46.22546" lon="5.37179">
        <ele>330.4</ele>
        <time>2022-07-30T07:26:55Z</time>
      </trkpt>
      <trkpt lat="46.22501" lon="5.37158">
        <ele>330.2</ele>
        <time>2022-07-30T07:27:01Z</time>
      </trkpt>
      <trkpt lat="46.22457" lon="5.3715">
        <ele>330</ele>
        <time>2022-07-30T07:27:07Z</time>
      </trkpt>
      <trkpt lat="46.2243" lon="5.37145">
        <ele>330.4</ele>
        <time>2022-07-30T07:27:11Z</time>
      </trkpt>
      <trkpt lat="46.22423" lon="5.37142">
        <ele>330.4</ele>
        <time>2022-07-30T07:27:12Z</time>
      </trkpt>
      <trkpt lat="46.22402" lon="5.3713">
        <ele>330.4</ele>
        <time>2022-07-30T07:27:15Z</time>
      </trkpt>
      <trkpt lat="46.22381" lon="5.37115">
        <ele>330.2</ele>
        <time>2022-07-30T07:27:18Z</time>
      </trkpt>
      <trkpt lat="46.22335" lon="5.37085">
        <ele>330.6</ele>
        <time>2022-07-30T07:27:25Z</time>
      </trkpt>
      <trkpt lat="46.22296" lon="5.37067">
        <ele>331.6</ele>
        <time>2022-07-30T07:27:31Z</time>
      </trkpt>
      <trkpt lat="46.22249" lon="5.37048">
        <ele>331.6</ele>
        <time>2022-07-30T07:27:37Z</time>
      </trkpt>
      <trkpt lat="46.22206" lon="5.37027">
        <ele>330</ele>
        <time>2022-07-30T07:27:42Z</time>
      </trkpt>
      <trkpt lat="46.22198" lon="5.37022">
        <ele>329.4</ele>
        <time>2022-07-30T07:27:43Z</time>
      </trkpt>
      <trkpt lat="46.22181" lon="5.37012">
        <ele>328.4</ele>
        <time>2022-07-30T07:27:45Z</time>
      </trkpt>
      <trkpt lat="46.22133" lon="5.36983">
        <ele>327.8</ele>
        <time>2022-07-30T07:27:51Z</time>
      </trkpt>
      <trkpt lat="46.22109" lon="5.3697">
        <ele>327.4</ele>
        <time>2022-07-30T07:27:54Z</time>
      </trkpt>
      <trkpt lat="46.22084" lon="5.36955">
        <ele>326.2</ele>
        <time>2022-07-30T07:27:57Z</time>
      </trkpt>
      <trkpt lat="46.22076" lon="5.3695">
        <ele>326</ele>
        <time>2022-07-30T07:27:58Z</time>
      </trkpt>
      <trkpt lat="46.22022" lon="5.36914">
        <ele>325.6</ele>
        <time>2022-07-30T07:28:05Z</time>
      </trkpt>
      <trkpt lat="46.22014" lon="5.36909">
        <ele>325.8</ele>
        <time>2022-07-30T07:28:06Z</time>
      </trkpt>
      <trkpt lat="46.21994" lon="5.36892">
        <ele>325.8</ele>
        <time>2022-07-30T07:28:09Z</time>
      </trkpt>
      <trkpt lat="46.21982" lon="5.36878">
        <ele>325.8</ele>
        <time>2022-07-30T07:28:11Z</time>
      </trkpt>
      <trkpt lat="46.2196" lon="5.36852">
        <ele>326.2</ele>
        <time>2022-07-30T07:28:15Z</time>
      </trkpt>
      <trkpt lat="46.21927" lon="5.36831">
        <ele>326.6</ele>
        <time>2022-07-30T07:28:20Z</time>
      </trkpt>
      <trkpt lat="46.21876" lon="5.36817">
        <ele>326.6</ele>
        <time>2022-07-30T07:28:27Z</time>
      </trkpt>
      <trkpt lat="46.2183" lon="5.36807">
        <ele>326</ele>
        <time>2022-07-30T07:28:33Z</time>
      </trkpt>
      <trkpt lat="46.21793" lon="5.36805">
        <ele>326</ele>
        <time>2022-07-30T07:28:38Z</time>
      </trkpt>
      <trkpt lat="46.21738" lon="5.36816">
        <ele>326.4</ele>
        <time>2022-07-30T07:28:46Z</time>
      </trkpt>
      <trkpt lat="46.21726" lon="5.36821">
        <ele>326.6</ele>
        <time>2022-07-30T07:28:48Z</time>
      </trkpt>
      <trkpt lat="46.21695" lon="5.36833">
        <ele>326.8</ele>
        <time>2022-07-30T07:28:53Z</time>
      </trkpt>
      <trkpt lat="46.21683" lon="5.36832">
        <ele>327</ele>
        <time>2022-07-30T07:28:55Z</time>
      </trkpt>
      <trkpt lat="46.21672" lon="5.36824">
        <ele>327.2</ele>
        <time>2022-07-30T07:28:57Z</time>
      </trkpt>
      <trkpt lat="46.21642" lon="5.36797">
        <ele>328.2</ele>
        <time>2022-07-30T07:29:03Z</time>
      </trkpt>
      <trkpt lat="46.21637" lon="5.36792">
        <ele>328.4</ele>
        <time>2022-07-30T07:29:04Z</time>
      </trkpt>
      <trkpt lat="46.21605" lon="5.36769">
        <ele>329.2</ele>
        <time>2022-07-30T07:29:10Z</time>
      </trkpt>
      <trkpt lat="46.21591" lon="5.36754">
        <ele>329.4</ele>
        <time>2022-07-30T07:29:13Z</time>
      </trkpt>
      <trkpt lat="46.21577" lon="5.36738">
        <ele>329.6</ele>
        <time>2022-07-30T07:29:16Z</time>
      </trkpt>
      <trkpt lat="46.21543" lon="5.36706">
        <ele>330.2</ele>
        <time>2022-07-30T07:29:23Z</time>
      </trkpt>
      <trkpt lat="46.21524" lon="5.36688">
        <ele>330.4</ele>
        <time>2022-07-30T07:29:27Z</time>
      </trkpt>
      <trkpt lat="46.21505" lon="5.3667">
        <ele>330.8</ele>
        <time>2022-07-30T07:29:31Z</time>
      </trkpt>
      <trkpt lat="46.215" lon="5.36666">
        <ele>330.8</ele>
        <time>2022-07-30T07:29:32Z</time>
      </trkpt>
      <trkpt lat="46.21476" lon="5.36647">
        <ele>331.4</ele>
        <time>2022-07-30T07:29:37Z</time>
      </trkpt>
      <trkpt lat="46.21462" lon="5.36636">
        <ele>332.4</ele>
        <time>2022-07-30T07:29:40Z</time>
      </trkpt>
      <trkpt lat="46.21457" lon="5.36632">
        <ele>332.8</ele>
        <time>2022-07-30T07:29:41Z</time>
      </trkpt>
      <trkpt lat="46.21422" lon="5.36609">
        <ele>333.2</ele>
        <time>2022-07-30T07:29:47Z</time>
      </trkpt>
      <trkpt lat="46.21379" lon="5.36582">
        <ele>332.2</ele>
        <time>2022-07-30T07:29:53Z</time>
      </trkpt>
      <trkpt lat="46.21357" lon="5.36568">
        <ele>331.6</ele>
        <time>2022-07-30T07:29:56Z</time>
      </trkpt>
      <trkpt lat="46.21326" lon="5.36551">
        <ele>331</ele>
        <time>2022-07-30T07:30:00Z</time>
      </trkpt>
      <trkpt lat="46.21295" lon="5.36535">
        <ele>330.2</ele>
        <time>2022-07-30T07:30:04Z</time>
      </trkpt>
      <trkpt lat="46.21251" lon="5.36518">
        <ele>329.4</ele>
        <time>2022-07-30T07:30:09Z</time>
      </trkpt>
      <trkpt lat="46.21242" lon="5.36516">
        <ele>329.2</ele>
        <time>2022-07-30T07:30:10Z</time>
      </trkpt>
      <trkpt lat="46.21232" lon="5.36516">
        <ele>328.8</ele>
        <time>2022-07-30T07:30:11Z</time>
      </trkpt>
      <trkpt lat="46.21223" lon="5.36518">
        <ele>328.8</ele>
        <time>2022-07-30T07:30:12Z</time>
      </trkpt>
      <trkpt lat="46.21204" lon="5.36528">
        <ele>328.2</ele>
        <time>2022-07-30T07:30:14Z</time>
      </trkpt>
      <trkpt lat="46.21195" lon="5.36535">
        <ele>328</ele>
        <time>2022-07-30T07:30:15Z</time>
      </trkpt>
      <trkpt lat="46.21186" lon="5.36543">
        <ele>327.2</ele>
        <time>2022-07-30T07:30:16Z</time>
      </trkpt>
      <trkpt lat="46.21167" lon="5.36557">
        <ele>326</ele>
        <time>2022-07-30T07:30:18Z</time>
      </trkpt>
      <trkpt lat="46.21157" lon="5.36561">
        <ele>325.8</ele>
        <time>2022-07-30T07:30:19Z</time>
      </trkpt>
      <trkpt lat="46.21147" lon="5.36566">
        <ele>325</ele>
        <time>2022-07-30T07:30:20Z</time>
      </trkpt>
      <trkpt lat="46.21107" lon="5.36581">
        <ele>324</ele>
        <time>2022-07-30T07:30:24Z</time>
      </trkpt>
      <trkpt lat="46.21078" lon="5.36591">
        <ele>323.2</ele>
        <time>2022-07-30T07:30:27Z</time>
      </trkpt>
      <trkpt lat="46.21069" lon="5.36594">
        <ele>323</ele>
        <time>2022-07-30T07:30:28Z</time>
      </trkpt>
      <trkpt lat="46.21024" lon="5.36605">
        <ele>322</ele>
        <time>2022-07-30T07:30:33Z</time>
      </trkpt>
      <trkpt lat="46.20965" lon="5.36607">
        <ele>322.6</ele>
        <time>2022-07-30T07:30:40Z</time>
      </trkpt>
      <trkpt lat="46.20918" lon="5.36611">
        <ele>323.8</ele>
        <time>2022-07-30T07:30:46Z</time>
      </trkpt>
      <trkpt lat="46.2091" lon="5.36612">
        <ele>324</ele>
        <time>2022-07-30T07:30:47Z</time>
      </trkpt>
      <trkpt lat="46.20853" lon="5.36621">
        <ele>324.2</ele>
        <time>2022-07-30T07:30:54Z</time>
      </trkpt>
      <trkpt lat="46.20844" lon="5.36623">
        <ele>324.2</ele>
        <time>2022-07-30T07:30:55Z</time>
      </trkpt>
      <trkpt lat="46.20784" lon="5.36635">
        <ele>323.6</ele>
        <time>2022-07-30T07:31:02Z</time>
      </trkpt>
      <trkpt lat="46.20754" lon="5.3664">
        <ele>323.2</ele>
        <time>2022-07-30T07:31:06Z</time>
      </trkpt>
      <trkpt lat="46.20693" lon="5.36649">
        <ele>323.6</ele>
        <time>2022-07-30T07:31:14Z</time>
      </trkpt>
      <trkpt lat="46.20685" lon="5.3665">
        <ele>323.6</ele>
        <time>2022-07-30T07:31:15Z</time>
      </trkpt>
      <trkpt lat="46.2066" lon="5.36652">
        <ele>323.4</ele>
        <time>2022-07-30T07:31:18Z</time>
      </trkpt>
      <trkpt lat="46.20623" lon="5.36656">
        <ele>323.4</ele>
        <time>2022-07-30T07:31:23Z</time>
      </trkpt>
      <trkpt lat="46.20588" lon="5.36664">
        <ele>323.4</ele>
        <time>2022-07-30T07:31:28Z</time>
      </trkpt>
      <trkpt lat="46.2053" lon="5.36689">
        <ele>323.8</ele>
        <time>2022-07-30T07:31:36Z</time>
      </trkpt>
      <trkpt lat="46.20482" lon="5.36709">
        <ele>324</ele>
        <time>2022-07-30T07:31:43Z</time>
      </trkpt>
      <trkpt lat="46.20431" lon="5.36733">
        <ele>324.4</ele>
        <time>2022-07-30T07:31:51Z</time>
      </trkpt>
      <trkpt lat="46.20375" lon="5.36756">
        <ele>324.8</ele>
        <time>2022-07-30T07:31:59Z</time>
      </trkpt>
      <trkpt lat="46.20368" lon="5.36758">
        <ele>324.8</ele>
        <time>2022-07-30T07:32:00Z</time>
      </trkpt>
      <trkpt lat="46.20341" lon="5.36762">
        <ele>324.8</ele>
        <time>2022-07-30T07:32:04Z</time>
      </trkpt>
      <trkpt lat="46.20307" lon="5.36761">
        <ele>325</ele>
        <time>2022-07-30T07:32:09Z</time>
      </trkpt>
      <trkpt lat="46.20293" lon="5.36762">
        <ele>325.2</ele>
        <time>2022-07-30T07:32:11Z</time>
      </trkpt>
      <trkpt lat="46.20235" lon="5.36767">
        <ele>325.2</ele>
        <time>2022-07-30T07:32:19Z</time>
      </trkpt>
      <trkpt lat="46.20221" lon="5.36769">
        <ele>325.2</ele>
        <time>2022-07-30T07:32:21Z</time>
      </trkpt>
      <trkpt lat="46.20175" lon="5.36773">
        <ele>325.4</ele>
        <time>2022-07-30T07:32:28Z</time>
      </trkpt>
      <trkpt lat="46.2013" lon="5.36776">
        <ele>326</ele>
        <time>2022-07-30T07:32:35Z</time>
      </trkpt>
      <trkpt lat="46.20118" lon="5.36777">
        <ele>326</ele>
        <time>2022-07-30T07:32:37Z</time>
      </trkpt>
      <trkpt lat="46.20112" lon="5.36778">
        <ele>326.2</ele>
        <time>2022-07-30T07:32:38Z</time>
      </trkpt>
      <trkpt lat="46.20101" lon="5.36779">
        <ele>326.6</ele>
        <time>2022-07-30T07:32:40Z</time>
      </trkpt>
      <trkpt lat="46.20076" lon="5.36781">
        <ele>327.2</ele>
        <time>2022-07-30T07:32:44Z</time>
      </trkpt>
      <trkpt lat="46.20051" lon="5.36786">
        <ele>327.4</ele>
        <time>2022-07-30T07:32:48Z</time>
      </trkpt>
      <trkpt lat="46.20045" lon="5.36787">
        <ele>327.4</ele>
        <time>2022-07-30T07:32:49Z</time>
      </trkpt>
      <trkpt lat="46.20033" lon="5.36788">
        <ele>327.6</ele>
        <time>2022-07-30T07:32:51Z</time>
      </trkpt>
      <trkpt lat="46.20027" lon="5.36787">
        <ele>327.8</ele>
        <time>2022-07-30T07:32:52Z</time>
      </trkpt>
      <trkpt lat="46.19991" lon="5.36782">
        <ele>328</ele>
        <time>2022-07-30T07:32:58Z</time>
      </trkpt>
      <trkpt lat="46.19985" lon="5.3678">
        <ele>328</ele>
        <time>2022-07-30T07:32:59Z</time>
      </trkpt>
      <trkpt lat="46.19969" lon="5.36771">
        <ele>328.4</ele>
        <time>2022-07-30T07:33:02Z</time>
      </trkpt>
      <trkpt lat="46.19949" lon="5.36759">
        <ele>329.2</ele>
        <time>2022-07-30T07:33:06Z</time>
      </trkpt>
      <trkpt lat="46.19944" lon="5.36756">
        <ele>329.4</ele>
        <time>2022-07-30T07:33:07Z</time>
      </trkpt>
      <trkpt lat="46.19921" lon="5.36747">
        <ele>330.4</ele>
        <time>2022-07-30T07:33:11Z</time>
      </trkpt>
      <trkpt lat="46.19897" lon="5.36737">
        <ele>331.2</ele>
        <time>2022-07-30T07:33:15Z</time>
      </trkpt>
      <trkpt lat="46.19862" lon="5.36722">
        <ele>331.2</ele>
        <time>2022-07-30T07:33:20Z</time>
      </trkpt>
      <trkpt lat="46.19846" lon="5.36717">
        <ele>331</ele>
        <time>2022-07-30T07:33:22Z</time>
      </trkpt>
      <trkpt lat="46.19829" lon="5.36716">
        <ele>330.4</ele>
        <time>2022-07-30T07:33:24Z</time>
      </trkpt>
      <trkpt lat="46.19803" lon="5.36724">
        <ele>329.4</ele>
        <time>2022-07-30T07:33:27Z</time>
      </trkpt>
      <trkpt lat="46.19794" lon="5.36729">
        <ele>328.8</ele>
        <time>2022-07-30T07:33:28Z</time>
      </trkpt>
      <trkpt lat="46.19785" lon="5.36734">
        <ele>328.2</ele>
        <time>2022-07-30T07:33:29Z</time>
      </trkpt>
      <trkpt lat="46.19758" lon="5.36747">
        <ele>327</ele>
        <time>2022-07-30T07:33:32Z</time>
      </trkpt>
      <trkpt lat="46.19739" lon="5.36753">
        <ele>326.2</ele>
        <time>2022-07-30T07:33:34Z</time>
      </trkpt>
      <trkpt lat="46.19729" lon="5.36755">
        <ele>326</ele>
        <time>2022-07-30T07:33:35Z</time>
      </trkpt>
      <trkpt lat="46.19701" lon="5.36754">
        <ele>325</ele>
        <time>2022-07-30T07:33:38Z</time>
      </trkpt>
      <trkpt lat="46.19692" lon="5.36752">
        <ele>325</ele>
        <time>2022-07-30T07:33:39Z</time>
      </trkpt>
      <trkpt lat="46.19647" lon="5.36742">
        <ele>324.4</ele>
        <time>2022-07-30T07:33:44Z</time>
      </trkpt>
      <trkpt lat="46.19587" lon="5.36729">
        <ele>324.2</ele>
        <time>2022-07-30T07:33:51Z</time>
      </trkpt>
      <trkpt lat="46.19571" lon="5.36726">
        <ele>324.2</ele>
        <time>2022-07-30T07:33:53Z</time>
      </trkpt>
      <trkpt lat="46.19513" lon="5.36714">
        <ele>324.2</ele>
        <time>2022-07-30T07:34:00Z</time>
      </trkpt>
      <trkpt lat="46.1949" lon="5.36709">
        <ele>324.2</ele>
        <time>2022-07-30T07:34:03Z</time>
      </trkpt>
      <trkpt lat="46.19436" lon="5.36697">
        <ele>324.4</ele>
        <time>2022-07-30T07:34:10Z</time>
      </trkpt>
      <trkpt lat="46.19388" lon="5.36681">
        <ele>324.2</ele>
        <time>2022-07-30T07:34:16Z</time>
      </trkpt>
      <trkpt lat="46.19359" lon="5.36661">
        <ele>323.8</ele>
        <time>2022-07-30T07:34:20Z</time>
      </trkpt>
      <trkpt lat="46.19331" lon="5.36641">
        <ele>323.4</ele>
        <time>2022-07-30T07:34:24Z</time>
      </trkpt>
      <trkpt lat="46.19285" lon="5.36618">
        <ele>323.4</ele>
        <time>2022-07-30T07:34:31Z</time>
      </trkpt>
      <trkpt lat="46.19278" lon="5.36616">
        <ele>323.8</ele>
        <time>2022-07-30T07:34:32Z</time>
      </trkpt>
      <trkpt lat="46.19257" lon="5.36617">
        <ele>323.8</ele>
        <time>2022-07-30T07:34:35Z</time>
      </trkpt>
      <trkpt lat="46.19236" lon="5.36617">
        <ele>324.2</ele>
        <time>2022-07-30T07:34:38Z</time>
      </trkpt>
      <trkpt lat="46.19214" lon="5.36611">
        <ele>324.2</ele>
        <time>2022-07-30T07:34:41Z</time>
      </trkpt>
      <trkpt lat="46.19167" lon="5.36592">
        <ele>324.6</ele>
        <time>2022-07-30T07:34:48Z</time>
      </trkpt>
      <trkpt lat="46.1915" lon="5.36583">
        <ele>324.6</ele>
        <time>2022-07-30T07:34:51Z</time>
      </trkpt>
      <trkpt lat="46.19138" lon="5.36576">
        <ele>324.8</ele>
        <time>2022-07-30T07:34:53Z</time>
      </trkpt>
      <trkpt lat="46.19132" lon="5.36573">
        <ele>325</ele>
        <time>2022-07-30T07:34:54Z</time>
      </trkpt>
      <trkpt lat="46.19101" lon="5.36552">
        <ele>325.2</ele>
        <time>2022-07-30T07:34:59Z</time>
      </trkpt>
      <trkpt lat="46.19091" lon="5.36539">
        <ele>325.2</ele>
        <time>2022-07-30T07:35:01Z</time>
      </trkpt>
      <trkpt lat="46.19088" lon="5.36521">
        <ele>325.2</ele>
        <time>2022-07-30T07:35:03Z</time>
      </trkpt>
      <trkpt lat="46.19085" lon="5.36491">
        <ele>325.2</ele>
        <time>2022-07-30T07:35:06Z</time>
      </trkpt>
      <trkpt lat="46.19083" lon="5.36472">
        <ele>325.2</ele>
        <time>2022-07-30T07:35:08Z</time>
      </trkpt>
      <trkpt lat="46.19079" lon="5.36464">
        <ele>325.2</ele>
        <time>2022-07-30T07:35:09Z</time>
      </trkpt>
      <trkpt lat="46.19074" lon="5.3646">
        <ele>325.2</ele>
        <time>2022-07-30T07:35:10Z</time>
      </trkpt>
      <trkpt lat="46.19068" lon="5.36457">
        <ele>325.2</ele>
        <time>2022-07-30T07:35:11Z</time>
      </trkpt>
      <trkpt lat="46.19062" lon="5.36457">
        <ele>325.2</ele>
        <time>2022-07-30T07:35:12Z</time>
      </trkpt>
      <trkpt lat="46.19042" lon="5.3646">
        <ele>325.4</ele>
        <time>2022-07-30T07:35:15Z</time>
      </trkpt>
      <trkpt lat="46.19009" lon="5.36462">
        <ele>325.8</ele>
        <time>2022-07-30T07:35:19Z</time>
      </trkpt>
      <trkpt lat="46.19001" lon="5.36462">
        <ele>325.8</ele>
        <time>2022-07-30T07:35:20Z</time>
      </trkpt>
      <trkpt lat="46.18993" lon="5.3646">
        <ele>325.8</ele>
        <time>2022-07-30T07:35:21Z</time>
      </trkpt>
      <trkpt lat="46.18967" lon="5.36457">
        <ele>325.4</ele>
        <time>2022-07-30T07:35:24Z</time>
      </trkpt>
      <trkpt lat="46.18951" lon="5.36455">
        <ele>324.8</ele>
        <time>2022-07-30T07:35:26Z</time>
      </trkpt>
      <trkpt lat="46.18918" lon="5.3645">
        <ele>323.8</ele>
        <time>2022-07-30T07:35:30Z</time>
      </trkpt>
      <trkpt lat="46.18902" lon="5.36448">
        <ele>323.4</ele>
        <time>2022-07-30T07:35:32Z</time>
      </trkpt>
      <trkpt lat="46.18846" lon="5.36449">
        <ele>323.8</ele>
        <time>2022-07-30T07:35:39Z</time>
      </trkpt>
      <trkpt lat="46.18787" lon="5.36453">
        <ele>323.8</ele>
        <time>2022-07-30T07:35:47Z</time>
      </trkpt>
      <trkpt lat="46.1878" lon="5.36453">
        <ele>324</ele>
        <time>2022-07-30T07:35:48Z</time>
      </trkpt>
      <trkpt lat="46.18742" lon="5.36455">
        <ele>324.6</ele>
        <time>2022-07-30T07:35:54Z</time>
      </trkpt>
      <trkpt lat="46.18736" lon="5.36456">
        <ele>324.8</ele>
        <time>2022-07-30T07:35:55Z</time>
      </trkpt>
      <trkpt lat="46.18723" lon="5.36458">
        <ele>325</ele>
        <time>2022-07-30T07:35:57Z</time>
      </trkpt>
      <trkpt lat="46.18709" lon="5.36462">
        <ele>325.6</ele>
        <time>2022-07-30T07:35:59Z</time>
      </trkpt>
      <trkpt lat="46.18703" lon="5.36466">
        <ele>325.8</ele>
        <time>2022-07-30T07:36:00Z</time>
      </trkpt>
      <trkpt lat="46.18672" lon="5.36496">
        <ele>325</ele>
        <time>2022-07-30T07:36:05Z</time>
      </trkpt>
      <trkpt lat="46.18662" lon="5.36513">
        <ele>324.8</ele>
        <time>2022-07-30T07:36:07Z</time>
      </trkpt>
      <trkpt lat="46.18654" lon="5.36531">
        <ele>325</ele>
        <time>2022-07-30T07:36:09Z</time>
      </trkpt>
      <trkpt lat="46.18633" lon="5.36596">
        <ele>325</ele>
        <time>2022-07-30T07:36:16Z</time>
      </trkpt>
      <trkpt lat="46.1862" lon="5.36644">
        <ele>325.8</ele>
        <time>2022-07-30T07:36:22Z</time>
      </trkpt>
      <trkpt lat="46.18613" lon="5.36667">
        <ele>326.2</ele>
        <time>2022-07-30T07:36:25Z</time>
      </trkpt>
      <trkpt lat="46.18605" lon="5.36696">
        <ele>327.2</ele>
        <time>2022-07-30T07:36:29Z</time>
      </trkpt>
      <trkpt lat="46.18603" lon="5.36703">
        <ele>327.6</ele>
        <time>2022-07-30T07:36:30Z</time>
      </trkpt>
      <trkpt lat="46.18587" lon="5.36738">
        <ele>328.4</ele>
        <time>2022-07-30T07:36:35Z</time>
      </trkpt>
      <trkpt lat="46.18578" lon="5.36751">
        <ele>328.8</ele>
        <time>2022-07-30T07:36:37Z</time>
      </trkpt>
      <trkpt lat="46.18568" lon="5.36763">
        <ele>329.4</ele>
        <time>2022-07-30T07:36:39Z</time>
      </trkpt>
      <trkpt lat="46.18552" lon="5.36777">
        <ele>330</ele>
        <time>2022-07-30T07:36:42Z</time>
      </trkpt>
      <trkpt lat="46.18542" lon="5.36786">
        <ele>330.2</ele>
        <time>2022-07-30T07:36:44Z</time>
      </trkpt>
      <trkpt lat="46.1852" lon="5.36806">
        <ele>330.4</ele>
        <time>2022-07-30T07:36:48Z</time>
      </trkpt>
      <trkpt lat="46.1849" lon="5.36825">
        <ele>330.6</ele>
        <time>2022-07-30T07:36:53Z</time>
      </trkpt>
      <trkpt lat="46.18474" lon="5.36835">
        <ele>331</ele>
        <time>2022-07-30T07:36:56Z</time>
      </trkpt>
      <trkpt lat="46.18458" lon="5.36842">
        <ele>331.6</ele>
        <time>2022-07-30T07:36:59Z</time>
      </trkpt>
      <trkpt lat="46.18448" lon="5.36849">
        <ele>331.8</ele>
        <time>2022-07-30T07:37:01Z</time>
      </trkpt>
      <trkpt lat="46.18443" lon="5.36852">
        <ele>331.8</ele>
        <time>2022-07-30T07:37:02Z</time>
      </trkpt>
      <trkpt lat="46.18427" lon="5.36861">
        <ele>332.6</ele>
        <time>2022-07-30T07:37:05Z</time>
      </trkpt>
      <trkpt lat="46.18422" lon="5.36865">
        <ele>332.8</ele>
        <time>2022-07-30T07:37:06Z</time>
      </trkpt>
      <trkpt lat="46.18389" lon="5.36882">
        <ele>333.8</ele>
        <time>2022-07-30T07:37:12Z</time>
      </trkpt>
      <trkpt lat="46.18383" lon="5.36885">
        <ele>334</ele>
        <time>2022-07-30T07:37:13Z</time>
      </trkpt>
      <trkpt lat="46.18344" lon="5.369">
        <ele>334.2</ele>
        <time>2022-07-30T07:37:19Z</time>
      </trkpt>
      <trkpt lat="46.18323" lon="5.36914">
        <ele>333.6</ele>
        <time>2022-07-30T07:37:22Z</time>
      </trkpt>
      <trkpt lat="46.18317" lon="5.3692">
        <ele>333.4</ele>
        <time>2022-07-30T07:37:23Z</time>
      </trkpt>
      <trkpt lat="46.18312" lon="5.36929">
        <ele>333</ele>
        <time>2022-07-30T07:37:24Z</time>
      </trkpt>
      <trkpt lat="46.1831" lon="5.36939">
        <ele>332.8</ele>
        <time>2022-07-30T07:37:25Z</time>
      </trkpt>
      <trkpt lat="46.1831" lon="5.3695">
        <ele>332.4</ele>
        <time>2022-07-30T07:37:26Z</time>
      </trkpt>
      <trkpt lat="46.18314" lon="5.36975">
        <ele>331.2</ele>
        <time>2022-07-30T07:37:28Z</time>
      </trkpt>
      <trkpt lat="46.18324" lon="5.37015">
        <ele>330</ele>
        <time>2022-07-30T07:37:31Z</time>
      </trkpt>
      <trkpt lat="46.18331" lon="5.37042">
        <ele>329.2</ele>
        <time>2022-07-30T07:37:33Z</time>
      </trkpt>
      <trkpt lat="46.18335" lon="5.37056">
        <ele>328.8</ele>
        <time>2022-07-30T07:37:34Z</time>
      </trkpt>
      <trkpt lat="46.18349" lon="5.37097">
        <ele>327.2</ele>
        <time>2022-07-30T07:37:37Z</time>
      </trkpt>
      <trkpt lat="46.18355" lon="5.3711">
        <ele>326.2</ele>
        <time>2022-07-30T07:37:38Z</time>
      </trkpt>
      <trkpt lat="46.1836" lon="5.37124">
        <ele>325.8</ele>
        <time>2022-07-30T07:37:39Z</time>
      </trkpt>
      <trkpt lat="46.18368" lon="5.37155">
        <ele>324.6</ele>
        <time>2022-07-30T07:37:41Z</time>
      </trkpt>
      <trkpt lat="46.18371" lon="5.37171">
        <ele>323.2</ele>
        <time>2022-07-30T07:37:42Z</time>
      </trkpt>
      <trkpt lat="46.18372" lon="5.37187">
        <ele>322.6</ele>
        <time>2022-07-30T07:37:43Z</time>
      </trkpt>
      <trkpt lat="46.18373" lon="5.37204">
        <ele>321.8</ele>
        <time>2022-07-30T07:37:44Z</time>
      </trkpt>
      <trkpt lat="46.18373" lon="5.37237">
        <ele>320.2</ele>
        <time>2022-07-30T07:37:46Z</time>
      </trkpt>
      <trkpt lat="46.1837" lon="5.37285">
        <ele>318.8</ele>
        <time>2022-07-30T07:37:49Z</time>
      </trkpt>
      <trkpt lat="46.18365" lon="5.37313">
        <ele>318.4</ele>
        <time>2022-07-30T07:37:51Z</time>
      </trkpt>
      <trkpt lat="46.18362" lon="5.37326">
        <ele>318.2</ele>
        <time>2022-07-30T07:37:52Z</time>
      </trkpt>
      <trkpt lat="46.18351" lon="5.37362">
        <ele>317.8</ele>
        <time>2022-07-30T07:37:55Z</time>
      </trkpt>
      <trkpt lat="46.18347" lon="5.37372">
        <ele>317.8</ele>
        <time>2022-07-30T07:37:56Z</time>
      </trkpt>
      <trkpt lat="46.18331" lon="5.37424">
        <ele>318.2</ele>
        <time>2022-07-30T07:38:01Z</time>
      </trkpt>
      <trkpt lat="46.18327" lon="5.37446">
        <ele>319</ele>
        <time>2022-07-30T07:38:03Z</time>
      </trkpt>
      <trkpt lat="46.18326" lon="5.37478">
        <ele>319.6</ele>
        <time>2022-07-30T07:38:06Z</time>
      </trkpt>
      <trkpt lat="46.18326" lon="5.37488">
        <ele>320</ele>
        <time>2022-07-30T07:38:07Z</time>
      </trkpt>
      <trkpt lat="46.18329" lon="5.37519">
        <ele>321.2</ele>
        <time>2022-07-30T07:38:10Z</time>
      </trkpt>
      <trkpt lat="46.1833" lon="5.37529">
        <ele>321.4</ele>
        <time>2022-07-30T07:38:11Z</time>
      </trkpt>
      <trkpt lat="46.18335" lon="5.37556">
        <ele>321.8</ele>
        <time>2022-07-30T07:38:14Z</time>
      </trkpt>
      <trkpt lat="46.18336" lon="5.37565">
        <ele>322.4</ele>
        <time>2022-07-30T07:38:15Z</time>
      </trkpt>
      <trkpt lat="46.18335" lon="5.37575">
        <ele>322.6</ele>
        <time>2022-07-30T07:38:16Z</time>
      </trkpt>
      <trkpt lat="46.18328" lon="5.37646">
        <ele>323.6</ele>
        <time>2022-07-30T07:38:24Z</time>
      </trkpt>
      <trkpt lat="46.18327" lon="5.37653">
        <ele>323.6</ele>
        <time>2022-07-30T07:38:25Z</time>
      </trkpt>
      <trkpt lat="46.18325" lon="5.37668">
        <ele>324</ele>
        <time>2022-07-30T07:38:27Z</time>
      </trkpt>
      <trkpt lat="46.18318" lon="5.37681">
        <ele>324.2</ele>
        <time>2022-07-30T07:38:29Z</time>
      </trkpt>
      <trkpt lat="46.18307" lon="5.37686">
        <ele>324.4</ele>
        <time>2022-07-30T07:38:31Z</time>
      </trkpt>
      <trkpt lat="46.18301" lon="5.37686">
        <ele>324.6</ele>
        <time>2022-07-30T07:38:32Z</time>
      </trkpt>
      <trkpt lat="46.18295" lon="5.37684">
        <ele>324.6</ele>
        <time>2022-07-30T07:38:33Z</time>
      </trkpt>
      <trkpt lat="46.18255" lon="5.37674">
        <ele>324.6</ele>
        <time>2022-07-30T07:38:39Z</time>
      </trkpt>
      <trkpt lat="46.18233" lon="5.37666">
        <ele>324</ele>
        <time>2022-07-30T07:38:42Z</time>
      </trkpt>
      <trkpt lat="46.18225" lon="5.37665">
        <ele>323.8</ele>
        <time>2022-07-30T07:38:43Z</time>
      </trkpt>
      <trkpt lat="46.18217" lon="5.37667">
        <ele>323.8</ele>
        <time>2022-07-30T07:38:44Z</time>
      </trkpt>
      <trkpt lat="46.1821" lon="5.3767">
        <ele>323.4</ele>
        <time>2022-07-30T07:38:45Z</time>
      </trkpt>
      <trkpt lat="46.18203" lon="5.37671">
        <ele>323.2</ele>
        <time>2022-07-30T07:38:46Z</time>
      </trkpt>
      <trkpt lat="46.18175" lon="5.37665">
        <ele>322.6</ele>
        <time>2022-07-30T07:38:50Z</time>
      </trkpt>
      <trkpt lat="46.18144" lon="5.37659">
        <ele>322.6</ele>
        <time>2022-07-30T07:38:55Z</time>
      </trkpt>
      <trkpt lat="46.18108" lon="5.37649">
        <ele>324.2</ele>
        <time>2022-07-30T07:39:01Z</time>
      </trkpt>
      <trkpt lat="46.18102" lon="5.37647">
        <ele>324.6</ele>
        <time>2022-07-30T07:39:02Z</time>
      </trkpt>
      <trkpt lat="46.18061" lon="5.37637">
        <ele>325.8</ele>
        <time>2022-07-30T07:39:09Z</time>
      </trkpt>
      <trkpt lat="46.18056" lon="5.37636">
        <ele>326</ele>
        <time>2022-07-30T07:39:10Z</time>
      </trkpt>
      <trkpt lat="46.1803" lon="5.37632">
        <ele>327</ele>
        <time>2022-07-30T07:39:15Z</time>
      </trkpt>
      <trkpt lat="46.18025" lon="5.37631">
        <ele>327.2</ele>
        <time>2022-07-30T07:39:16Z</time>
      </trkpt>
      <trkpt lat="46.18021" lon="5.37633">
        <ele>327.4</ele>
        <time>2022-07-30T07:39:17Z</time>
      </trkpt>
      <trkpt lat="46.18018" lon="5.37638">
        <ele>327.6</ele>
        <time>2022-07-30T07:39:18Z</time>
      </trkpt>
      <trkpt lat="46.18014" lon="5.37652">
        <ele>327.6</ele>
        <time>2022-07-30T07:39:20Z</time>
      </trkpt>
      <trkpt lat="46.1801" lon="5.37681">
        <ele>327.8</ele>
        <time>2022-07-30T07:39:23Z</time>
      </trkpt>
      <trkpt lat="46.18007" lon="5.37691">
        <ele>327.8</ele>
        <time>2022-07-30T07:39:24Z</time>
      </trkpt>
      <trkpt lat="46.18003" lon="5.37701">
        <ele>327.6</ele>
        <time>2022-07-30T07:39:25Z</time>
      </trkpt>
      <trkpt lat="46.17994" lon="5.37721">
        <ele>327</ele>
        <time>2022-07-30T07:39:27Z</time>
      </trkpt>
      <trkpt lat="46.17992" lon="5.37743">
        <ele>326.2</ele>
        <time>2022-07-30T07:39:29Z</time>
      </trkpt>
      <trkpt lat="46.17995" lon="5.37751">
        <ele>326</ele>
        <time>2022-07-30T07:39:30Z</time>
      </trkpt>
      <trkpt lat="46.17999" lon="5.37758">
        <ele>325.4</ele>
        <time>2022-07-30T07:39:31Z</time>
      </trkpt>
      <trkpt lat="46.18002" lon="5.37764">
        <ele>324.8</ele>
        <time>2022-07-30T07:39:32Z</time>
      </trkpt>
      <trkpt lat="46.18007" lon="5.37768">
        <ele>324.2</ele>
        <time>2022-07-30T07:39:33Z</time>
      </trkpt>
      <trkpt lat="46.18015" lon="5.37767">
        <ele>323.4</ele>
        <time>2022-07-30T07:39:34Z</time>
      </trkpt>
      <trkpt lat="46.18028" lon="5.37764">
        <ele>323</ele>
        <time>2022-07-30T07:39:35Z</time>
      </trkpt>
      <trkpt lat="46.18054" lon="5.3776">
        <ele>321.8</ele>
        <time>2022-07-30T07:39:37Z</time>
      </trkpt>
      <trkpt lat="46.18067" lon="5.37761">
        <ele>321.4</ele>
        <time>2022-07-30T07:39:38Z</time>
      </trkpt>
      <trkpt lat="46.18079" lon="5.37763">
        <ele>320</ele>
        <time>2022-07-30T07:39:39Z</time>
      </trkpt>
      <trkpt lat="46.18103" lon="5.37767">
        <ele>318.8</ele>
        <time>2022-07-30T07:39:41Z</time>
      </trkpt>
      <trkpt lat="46.18127" lon="5.3777">
        <ele>317.4</ele>
        <time>2022-07-30T07:39:43Z</time>
      </trkpt>
      <trkpt lat="46.18138" lon="5.37774">
        <ele>316.6</ele>
        <time>2022-07-30T07:39:44Z</time>
      </trkpt>
      <trkpt lat="46.1815" lon="5.3778">
        <ele>315.8</ele>
        <time>2022-07-30T07:39:45Z</time>
      </trkpt>
      <trkpt lat="46.18171" lon="5.37795">
        <ele>314.6</ele>
        <time>2022-07-30T07:39:47Z</time>
      </trkpt>
      <trkpt lat="46.18191" lon="5.37814">
        <ele>313.4</ele>
        <time>2022-07-30T07:39:49Z</time>
      </trkpt>
      <trkpt lat="46.182" lon="5.37826">
        <ele>312.4</ele>
        <time>2022-07-30T07:39:50Z</time>
      </trkpt>
      <trkpt lat="46.18207" lon="5.37839">
        <ele>312</ele>
        <time>2022-07-30T07:39:51Z</time>
      </trkpt>
      <trkpt lat="46.18213" lon="5.37854">
        <ele>310.8</ele>
        <time>2022-07-30T07:39:52Z</time>
      </trkpt>
      <trkpt lat="46.18217" lon="5.3787">
        <ele>309.8</ele>
        <time>2022-07-30T07:39:53Z</time>
      </trkpt>
      <trkpt lat="46.18221" lon="5.37887">
        <ele>309.4</ele>
        <time>2022-07-30T07:39:54Z</time>
      </trkpt>
      <trkpt lat="46.18225" lon="5.37905">
        <ele>308.2</ele>
        <time>2022-07-30T07:39:55Z</time>
      </trkpt>
      <trkpt lat="46.18235" lon="5.37939">
        <ele>306.4</ele>
        <time>2022-07-30T07:39:57Z</time>
      </trkpt>
      <trkpt lat="46.18242" lon="5.37954">
        <ele>306</ele>
        <time>2022-07-30T07:39:58Z</time>
      </trkpt>
      <trkpt lat="46.1825" lon="5.37967">
        <ele>305.4</ele>
        <time>2022-07-30T07:39:59Z</time>
      </trkpt>
      <trkpt lat="46.18269" lon="5.37989">
        <ele>303.6</ele>
        <time>2022-07-30T07:40:01Z</time>
      </trkpt>
      <trkpt lat="46.18279" lon="5.37999">
        <ele>302.2</ele>
        <time>2022-07-30T07:40:02Z</time>
      </trkpt>
      <trkpt lat="46.183" lon="5.38016">
        <ele>300.6</ele>
        <time>2022-07-30T07:40:04Z</time>
      </trkpt>
      <trkpt lat="46.18319" lon="5.38033">
        <ele>299.2</ele>
        <time>2022-07-30T07:40:06Z</time>
      </trkpt>
      <trkpt lat="46.18346" lon="5.38058">
        <ele>298</ele>
        <time>2022-07-30T07:40:09Z</time>
      </trkpt>
      <trkpt lat="46.18362" lon="5.38074">
        <ele>297.6</ele>
        <time>2022-07-30T07:40:11Z</time>
      </trkpt>
      <trkpt lat="46.1841" lon="5.38116">
        <ele>297.4</ele>
        <time>2022-07-30T07:40:17Z</time>
      </trkpt>
      <trkpt lat="46.18443" lon="5.38157">
        <ele>297.2</ele>
        <time>2022-07-30T07:40:22Z</time>
      </trkpt>
      <trkpt lat="46.18471" lon="5.38195">
        <ele>297</ele>
        <time>2022-07-30T07:40:27Z</time>
      </trkpt>
      <trkpt lat="46.18504" lon="5.38236">
        <ele>297.4</ele>
        <time>2022-07-30T07:40:33Z</time>
      </trkpt>
      <trkpt lat="46.18513" lon="5.38249">
        <ele>297.6</ele>
        <time>2022-07-30T07:40:35Z</time>
      </trkpt>
      <trkpt lat="46.1852" lon="5.38265">
        <ele>297.8</ele>
        <time>2022-07-30T07:40:37Z</time>
      </trkpt>
      <trkpt lat="46.18518" lon="5.38294">
        <ele>297.8</ele>
        <time>2022-07-30T07:40:40Z</time>
      </trkpt>
      <trkpt lat="46.18516" lon="5.38304">
        <ele>297.8</ele>
        <time>2022-07-30T07:40:41Z</time>
      </trkpt>
      <trkpt lat="46.18506" lon="5.38332">
        <ele>297.6</ele>
        <time>2022-07-30T07:40:44Z</time>
      </trkpt>
      <trkpt lat="46.18502" lon="5.38341">
        <ele>297.4</ele>
        <time>2022-07-30T07:40:45Z</time>
      </trkpt>
      <trkpt lat="46.18487" lon="5.38367">
        <ele>296.8</ele>
        <time>2022-07-30T07:40:48Z</time>
      </trkpt>
      <trkpt lat="46.18482" lon="5.38376">
        <ele>296.4</ele>
        <time>2022-07-30T07:40:49Z</time>
      </trkpt>
      <trkpt lat="46.18471" lon="5.38391">
        <ele>295.8</ele>
        <time>2022-07-30T07:40:51Z</time>
      </trkpt>
      <trkpt lat="46.18465" lon="5.38397">
        <ele>295.6</ele>
        <time>2022-07-30T07:40:52Z</time>
      </trkpt>
      <trkpt lat="46.18459" lon="5.38402">
        <ele>295.4</ele>
        <time>2022-07-30T07:40:53Z</time>
      </trkpt>
      <trkpt lat="46.18452" lon="5.38406">
        <ele>295.2</ele>
        <time>2022-07-30T07:40:54Z</time>
      </trkpt>
      <trkpt lat="46.18436" lon="5.38411">
        <ele>294.8</ele>
        <time>2022-07-30T07:40:56Z</time>
      </trkpt>
      <trkpt lat="46.18428" lon="5.38411">
        <ele>294.6</ele>
        <time>2022-07-30T07:40:57Z</time>
      </trkpt>
      <trkpt lat="46.18396" lon="5.38404">
        <ele>293.4</ele>
        <time>2022-07-30T07:41:01Z</time>
      </trkpt>
      <trkpt lat="46.18388" lon="5.38402">
        <ele>293</ele>
        <time>2022-07-30T07:41:02Z</time>
      </trkpt>
      <trkpt lat="46.18372" lon="5.38399">
        <ele>292.4</ele>
        <time>2022-07-30T07:41:04Z</time>
      </trkpt>
      <trkpt lat="46.18364" lon="5.38399">
        <ele>292.2</ele>
        <time>2022-07-30T07:41:05Z</time>
      </trkpt>
      <trkpt lat="46.18356" lon="5.38401">
        <ele>292.2</ele>
        <time>2022-07-30T07:41:06Z</time>
      </trkpt>
      <trkpt lat="46.18343" lon="5.38411">
        <ele>291.8</ele>
        <time>2022-07-30T07:41:08Z</time>
      </trkpt>
      <trkpt lat="46.18338" lon="5.38418">
        <ele>291.8</ele>
        <time>2022-07-30T07:41:09Z</time>
      </trkpt>
      <trkpt lat="46.18332" lon="5.38425">
        <ele>291.8</ele>
        <time>2022-07-30T07:41:10Z</time>
      </trkpt>
      <trkpt lat="46.18307" lon="5.38454">
        <ele>291.6</ele>
        <time>2022-07-30T07:41:14Z</time>
      </trkpt>
      <trkpt lat="46.18279" lon="5.38483">
        <ele>291.2</ele>
        <time>2022-07-30T07:41:18Z</time>
      </trkpt>
      <trkpt lat="46.18272" lon="5.38489">
        <ele>291</ele>
        <time>2022-07-30T07:41:19Z</time>
      </trkpt>
      <trkpt lat="46.18225" lon="5.38536">
        <ele>290.4</ele>
        <time>2022-07-30T07:41:26Z</time>
      </trkpt>
      <trkpt lat="46.18212" lon="5.38549">
        <ele>290.2</ele>
        <time>2022-07-30T07:41:28Z</time>
      </trkpt>
      <trkpt lat="46.18187" lon="5.38574">
        <ele>290</ele>
        <time>2022-07-30T07:41:32Z</time>
      </trkpt>
      <trkpt lat="46.18143" lon="5.38619">
        <ele>290</ele>
        <time>2022-07-30T07:41:39Z</time>
      </trkpt>
      <trkpt lat="46.18101" lon="5.38665">
        <ele>290</ele>
        <time>2022-07-30T07:41:46Z</time>
      </trkpt>
      <trkpt lat="46.18058" lon="5.38703">
        <ele>289.2</ele>
        <time>2022-07-30T07:41:53Z</time>
      </trkpt>
      <trkpt lat="46.18052" lon="5.38707">
        <ele>289.2</ele>
        <time>2022-07-30T07:41:54Z</time>
      </trkpt>
      <trkpt lat="46.18006" lon="5.38735">
        <ele>289.8</ele>
        <time>2022-07-30T07:42:01Z</time>
      </trkpt>
      <trkpt lat="46.17953" lon="5.38769">
        <ele>289.8</ele>
        <time>2022-07-30T07:42:09Z</time>
      </trkpt>
      <trkpt lat="46.17946" lon="5.38773">
        <ele>289.8</ele>
        <time>2022-07-30T07:42:10Z</time>
      </trkpt>
      <trkpt lat="46.17901" lon="5.38803">
        <ele>290.2</ele>
        <time>2022-07-30T07:42:17Z</time>
      </trkpt>
      <trkpt lat="46.17852" lon="5.38844">
        <ele>290.2</ele>
        <time>2022-07-30T07:42:25Z</time>
      </trkpt>
      <trkpt lat="46.1782" lon="5.38866">
        <ele>290</ele>
        <time>2022-07-30T07:42:30Z</time>
      </trkpt>
      <trkpt lat="46.17805" lon="5.38868">
        <ele>289.8</ele>
        <time>2022-07-30T07:42:32Z</time>
      </trkpt>
      <trkpt lat="46.1779" lon="5.38867">
        <ele>289.8</ele>
        <time>2022-07-30T07:42:34Z</time>
      </trkpt>
      <trkpt lat="46.17749" lon="5.3886">
        <ele>289.6</ele>
        <time>2022-07-30T07:42:40Z</time>
      </trkpt>
      <trkpt lat="46.17737" lon="5.38865">
        <ele>289.6</ele>
        <time>2022-07-30T07:42:42Z</time>
      </trkpt>
      <trkpt lat="46.17731" lon="5.3887">
        <ele>289.6</ele>
        <time>2022-07-30T07:42:43Z</time>
      </trkpt>
      <trkpt lat="46.17696" lon="5.389">
        <ele>290.4</ele>
        <time>2022-07-30T07:42:49Z</time>
      </trkpt>
      <trkpt lat="46.1769" lon="5.38907">
        <ele>290.4</ele>
        <time>2022-07-30T07:42:50Z</time>
      </trkpt>
      <trkpt lat="46.17679" lon="5.38923">
        <ele>290.4</ele>
        <time>2022-07-30T07:42:52Z</time>
      </trkpt>
      <trkpt lat="46.1767" lon="5.38942">
        <ele>290.2</ele>
        <time>2022-07-30T07:42:54Z</time>
      </trkpt>
      <trkpt lat="46.17652" lon="5.38991">
        <ele>290</ele>
        <time>2022-07-30T07:42:59Z</time>
      </trkpt>
      <trkpt lat="46.17641" lon="5.39034">
        <ele>289.8</ele>
        <time>2022-07-30T07:43:04Z</time>
      </trkpt>
      <trkpt lat="46.17633" lon="5.3906">
        <ele>291.2</ele>
        <time>2022-07-30T07:43:08Z</time>
      </trkpt>
      <trkpt lat="46.1763" lon="5.39065">
        <ele>291.4</ele>
        <time>2022-07-30T07:43:09Z</time>
      </trkpt>
      <trkpt lat="46.17626" lon="5.39068">
        <ele>291.8</ele>
        <time>2022-07-30T07:43:10Z</time>
      </trkpt>
      <trkpt lat="46.17616" lon="5.39068">
        <ele>292</ele>
        <time>2022-07-30T07:43:12Z</time>
      </trkpt>
      <trkpt lat="46.17588" lon="5.39063">
        <ele>292.8</ele>
        <time>2022-07-30T07:43:17Z</time>
      </trkpt>
      <trkpt lat="46.17583" lon="5.39063">
        <ele>292.8</ele>
        <time>2022-07-30T07:43:18Z</time>
      </trkpt>
      <trkpt lat="46.17571" lon="5.39061">
        <ele>293</ele>
        <time>2022-07-30T07:43:20Z</time>
      </trkpt>
      <trkpt lat="46.17561" lon="5.39066">
        <ele>293.2</ele>
        <time>2022-07-30T07:43:22Z</time>
      </trkpt>
      <trkpt lat="46.17537" lon="5.39099">
        <ele>293.4</ele>
        <time>2022-07-30T07:43:28Z</time>
      </trkpt>
      <trkpt lat="46.17522" lon="5.39119">
        <ele>294</ele>
        <time>2022-07-30T07:43:32Z</time>
      </trkpt>
      <trkpt lat="46.17515" lon="5.39128">
        <ele>294.4</ele>
        <time>2022-07-30T07:43:34Z</time>
      </trkpt>
      <trkpt lat="46.17508" lon="5.39137">
        <ele>294.8</ele>
        <time>2022-07-30T07:43:36Z</time>
      </trkpt>
      <trkpt lat="46.175" lon="5.39145">
        <ele>295.4</ele>
        <time>2022-07-30T07:43:38Z</time>
      </trkpt>
      <trkpt lat="46.17488" lon="5.39154">
        <ele>296.2</ele>
        <time>2022-07-30T07:43:41Z</time>
      </trkpt>
      <trkpt lat="46.17479" lon="5.39159">
        <ele>296.4</ele>
        <time>2022-07-30T07:43:43Z</time>
      </trkpt>
      <trkpt lat="46.17465" lon="5.39165">
        <ele>296.8</ele>
        <time>2022-07-30T07:43:46Z</time>
      </trkpt>
      <trkpt lat="46.1745" lon="5.39169">
        <ele>297.4</ele>
        <time>2022-07-30T07:43:49Z</time>
      </trkpt>
      <trkpt lat="46.1744" lon="5.3917">
        <ele>297.6</ele>
        <time>2022-07-30T07:43:51Z</time>
      </trkpt>
      <trkpt lat="46.1743" lon="5.39173">
        <ele>298</ele>
        <time>2022-07-30T07:43:53Z</time>
      </trkpt>
      <trkpt lat="46.17425" lon="5.39176">
        <ele>298.2</ele>
        <time>2022-07-30T07:43:54Z</time>
      </trkpt>
      <trkpt lat="46.17421" lon="5.39179">
        <ele>298.2</ele>
        <time>2022-07-30T07:43:55Z</time>
      </trkpt>
      <trkpt lat="46.17414" lon="5.3919">
        <ele>298.4</ele>
        <time>2022-07-30T07:43:57Z</time>
      </trkpt>
      <trkpt lat="46.17411" lon="5.39197">
        <ele>298.4</ele>
        <time>2022-07-30T07:43:58Z</time>
      </trkpt>
      <trkpt lat="46.17407" lon="5.39212">
        <ele>298.4</ele>
        <time>2022-07-30T07:44:00Z</time>
      </trkpt>
      <trkpt lat="46.17403" lon="5.39237">
        <ele>299</ele>
        <time>2022-07-30T07:44:03Z</time>
      </trkpt>
      <trkpt lat="46.17398" lon="5.39282">
        <ele>299.2</ele>
        <time>2022-07-30T07:44:08Z</time>
      </trkpt>
      <trkpt lat="46.17396" lon="5.393">
        <ele>299.2</ele>
        <time>2022-07-30T07:44:10Z</time>
      </trkpt>
      <trkpt lat="46.17384" lon="5.39379">
        <ele>299</ele>
        <time>2022-07-30T07:44:19Z</time>
      </trkpt>
      <trkpt lat="46.17374" lon="5.39433">
        <ele>298.8</ele>
        <time>2022-07-30T07:44:25Z</time>
      </trkpt>
      <trkpt lat="46.1736" lon="5.39515">
        <ele>299.2</ele>
        <time>2022-07-30T07:44:34Z</time>
      </trkpt>
      <trkpt lat="46.17358" lon="5.39523">
        <ele>299.4</ele>
        <time>2022-07-30T07:44:35Z</time>
      </trkpt>
      <trkpt lat="46.17345" lon="5.39579">
        <ele>299.6</ele>
        <time>2022-07-30T07:44:42Z</time>
      </trkpt>
      <trkpt lat="46.17341" lon="5.39583">
        <ele>299.8</ele>
        <time>2022-07-30T07:44:43Z</time>
      </trkpt>
      <trkpt lat="46.17336" lon="5.39585">
        <ele>299.8</ele>
        <time>2022-07-30T07:44:44Z</time>
      </trkpt>
      <trkpt lat="46.17331" lon="5.39586">
        <ele>300</ele>
        <time>2022-07-30T07:44:45Z</time>
      </trkpt>
      <trkpt lat="46.173" lon="5.39584">
        <ele>300.4</ele>
        <time>2022-07-30T07:44:50Z</time>
      </trkpt>
      <trkpt lat="46.17253" lon="5.3958">
        <ele>300.8</ele>
        <time>2022-07-30T07:44:57Z</time>
      </trkpt>
      <trkpt lat="46.17198" lon="5.39575">
        <ele>301</ele>
        <time>2022-07-30T07:45:05Z</time>
      </trkpt>
      <trkpt lat="46.17176" lon="5.39574">
        <ele>301</ele>
        <time>2022-07-30T07:45:08Z</time>
      </trkpt>
      <trkpt lat="46.1712" lon="5.39568">
        <ele>300.8</ele>
        <time>2022-07-30T07:45:16Z</time>
      </trkpt>
      <trkpt lat="46.17059" lon="5.39562">
        <ele>301.2</ele>
        <time>2022-07-30T07:45:25Z</time>
      </trkpt>
      <trkpt lat="46.17028" lon="5.39559">
        <ele>301.8</ele>
        <time>2022-07-30T07:45:30Z</time>
      </trkpt>
      <trkpt lat="46.17004" lon="5.39556">
        <ele>302.4</ele>
        <time>2022-07-30T07:45:34Z</time>
      </trkpt>
      <trkpt lat="46.16986" lon="5.39554">
        <ele>302.8</ele>
        <time>2022-07-30T07:45:37Z</time>
      </trkpt>
      <trkpt lat="46.16942" lon="5.39548">
        <ele>303.4</ele>
        <time>2022-07-30T07:45:44Z</time>
      </trkpt>
      <trkpt lat="46.1689" lon="5.39541">
        <ele>303.8</ele>
        <time>2022-07-30T07:45:52Z</time>
      </trkpt>
      <trkpt lat="46.16883" lon="5.3954">
        <ele>303.8</ele>
        <time>2022-07-30T07:45:53Z</time>
      </trkpt>
      <trkpt lat="46.16823" lon="5.39532">
        <ele>304.2</ele>
        <time>2022-07-30T07:46:02Z</time>
      </trkpt>
      <trkpt lat="46.16802" lon="5.39529">
        <ele>304.2</ele>
        <time>2022-07-30T07:46:05Z</time>
      </trkpt>
      <trkpt lat="46.16744" lon="5.3952">
        <ele>304.4</ele>
        <time>2022-07-30T07:46:13Z</time>
      </trkpt>
      <trkpt lat="46.16686" lon="5.39511">
        <ele>304.6</ele>
        <time>2022-07-30T07:46:21Z</time>
      </trkpt>
      <trkpt lat="46.16679" lon="5.3951">
        <ele>304.6</ele>
        <time>2022-07-30T07:46:22Z</time>
      </trkpt>
      <trkpt lat="46.16643" lon="5.39509">
        <ele>304.8</ele>
        <time>2022-07-30T07:46:27Z</time>
      </trkpt>
      <trkpt lat="46.16614" lon="5.39511">
        <ele>305.2</ele>
        <time>2022-07-30T07:46:31Z</time>
      </trkpt>
      <trkpt lat="46.16556" lon="5.39509">
        <ele>305.4</ele>
        <time>2022-07-30T07:46:39Z</time>
      </trkpt>
      <trkpt lat="46.16506" lon="5.39493">
        <ele>305.2</ele>
        <time>2022-07-30T07:46:46Z</time>
      </trkpt>
      <trkpt lat="46.16449" lon="5.39465">
        <ele>305.2</ele>
        <time>2022-07-30T07:46:55Z</time>
      </trkpt>
      <trkpt lat="46.16435" lon="5.39458">
        <ele>305.2</ele>
        <time>2022-07-30T07:46:57Z</time>
      </trkpt>
      <trkpt lat="46.16379" lon="5.3943">
        <ele>305</ele>
        <time>2022-07-30T07:47:05Z</time>
      </trkpt>
      <trkpt lat="46.16359" lon="5.3942">
        <ele>304.8</ele>
        <time>2022-07-30T07:47:08Z</time>
      </trkpt>
      <trkpt lat="46.16303" lon="5.39399">
        <ele>305.4</ele>
        <time>2022-07-30T07:47:16Z</time>
      </trkpt>
      <trkpt lat="46.16296" lon="5.39398">
        <ele>305.4</ele>
        <time>2022-07-30T07:47:17Z</time>
      </trkpt>
      <trkpt lat="46.16237" lon="5.3939">
        <ele>305.4</ele>
        <time>2022-07-30T07:47:25Z</time>
      </trkpt>
      <trkpt lat="46.16194" lon="5.39389">
        <ele>304.6</ele>
        <time>2022-07-30T07:47:31Z</time>
      </trkpt>
      <trkpt lat="46.16159" lon="5.39389">
        <ele>304</ele>
        <time>2022-07-30T07:47:36Z</time>
      </trkpt>
      <trkpt lat="46.16138" lon="5.39388">
        <ele>303.8</ele>
        <time>2022-07-30T07:47:39Z</time>
      </trkpt>
      <trkpt lat="46.16094" lon="5.39384">
        <ele>303</ele>
        <time>2022-07-30T07:47:45Z</time>
      </trkpt>
      <trkpt lat="46.16081" lon="5.39387">
        <ele>302.6</ele>
        <time>2022-07-30T07:47:47Z</time>
      </trkpt>
      <trkpt lat="46.16073" lon="5.39392">
        <ele>302</ele>
        <time>2022-07-30T07:47:49Z</time>
      </trkpt>
      <trkpt lat="46.16071" lon="5.39394">
        <ele>302</ele>
        <time>2022-07-30T07:47:50Z</time>
      </trkpt>
      <trkpt lat="46.1607" lon="5.39396">
        <ele>301.4</ele>
        <time>2022-07-30T07:47:52Z</time>
      </trkpt>
      <trkpt lat="46.1607" lon="5.39396">
        <ele>301.2</ele>
        <time>2022-07-30T07:47:53Z</time>
      </trkpt>
      <trkpt lat="46.16066" lon="5.39401">
        <ele>300.8</ele>
        <time>2022-07-30T07:48:00Z</time>
      </trkpt>
      <trkpt lat="46.16067" lon="5.39408">
        <ele>300.8</ele>
        <time>2022-07-30T07:48:02Z</time>
      </trkpt>
      <trkpt lat="46.16081" lon="5.39428">
        <ele>301</ele>
        <time>2022-07-30T07:48:07Z</time>
      </trkpt>
      <trkpt lat="46.16101" lon="5.39449">
        <ele>301.6</ele>
        <time>2022-07-30T07:48:12Z</time>
      </trkpt>
      <trkpt lat="46.1611" lon="5.39457">
        <ele>302.2</ele>
        <time>2022-07-30T07:48:14Z</time>
      </trkpt>
      <trkpt lat="46.16133" lon="5.39476">
        <ele>303.2</ele>
        <time>2022-07-30T07:48:19Z</time>
      </trkpt>
      <trkpt lat="46.16137" lon="5.39479">
        <ele>303.4</ele>
        <time>2022-07-30T07:48:20Z</time>
      </trkpt>
      <trkpt lat="46.1615" lon="5.39489">
        <ele>304.6</ele>
        <time>2022-07-30T07:48:23Z</time>
      </trkpt>
      <trkpt lat="46.16172" lon="5.39507">
        <ele>305.8</ele>
        <time>2022-07-30T07:48:28Z</time>
      </trkpt>
      <trkpt lat="46.16176" lon="5.3951">
        <ele>306</ele>
        <time>2022-07-30T07:48:29Z</time>
      </trkpt>
      <trkpt lat="46.162" lon="5.3953">
        <ele>307</ele>
        <time>2022-07-30T07:48:35Z</time>
      </trkpt>
      <trkpt lat="46.16223" lon="5.39547">
        <ele>308</ele>
        <time>2022-07-30T07:48:41Z</time>
      </trkpt>
      <trkpt lat="46.16227" lon="5.3955">
        <ele>308.4</ele>
        <time>2022-07-30T07:48:42Z</time>
      </trkpt>
      <trkpt lat="46.16235" lon="5.39555">
        <ele>309.2</ele>
        <time>2022-07-30T07:48:44Z</time>
      </trkpt>
      <trkpt lat="46.16246" lon="5.39564">
        <ele>310.4</ele>
        <time>2022-07-30T07:48:47Z</time>
      </trkpt>
      <trkpt lat="46.16261" lon="5.39573">
        <ele>311.2</ele>
        <time>2022-07-30T07:48:51Z</time>
      </trkpt>
      <trkpt lat="46.16265" lon="5.39575">
        <ele>311.4</ele>
        <time>2022-07-30T07:48:52Z</time>
      </trkpt>
      <trkpt lat="46.1628" lon="5.39585">
        <ele>312.4</ele>
        <time>2022-07-30T07:48:56Z</time>
      </trkpt>
      <trkpt lat="46.16291" lon="5.39591">
        <ele>313.2</ele>
        <time>2022-07-30T07:48:59Z</time>
      </trkpt>
      <trkpt lat="46.16295" lon="5.39595">
        <ele>313.6</ele>
        <time>2022-07-30T07:49:00Z</time>
      </trkpt>
      <trkpt lat="46.16313" lon="5.39608">
        <ele>314.8</ele>
        <time>2022-07-30T07:49:05Z</time>
      </trkpt>
      <trkpt lat="46.16328" lon="5.39616">
        <ele>316</ele>
        <time>2022-07-30T07:49:09Z</time>
      </trkpt>
      <trkpt lat="46.16336" lon="5.39621">
        <ele>316.4</ele>
        <time>2022-07-30T07:49:11Z</time>
      </trkpt>
      <trkpt lat="46.1635" lon="5.3963">
        <ele>317</ele>
        <time>2022-07-30T07:49:15Z</time>
      </trkpt>
      <trkpt lat="46.1636" lon="5.39637">
        <ele>317.6</ele>
        <time>2022-07-30T07:49:18Z</time>
      </trkpt>
      <trkpt lat="46.16368" lon="5.39642">
        <ele>318.2</ele>
        <time>2022-07-30T07:49:20Z</time>
      </trkpt>
      <trkpt lat="46.16383" lon="5.39653">
        <ele>319</ele>
        <time>2022-07-30T07:49:24Z</time>
      </trkpt>
      <trkpt lat="46.164" lon="5.39669">
        <ele>320</ele>
        <time>2022-07-30T07:49:29Z</time>
      </trkpt>
      <trkpt lat="46.16417" lon="5.39689">
        <ele>321</ele>
        <time>2022-07-30T07:49:34Z</time>
      </trkpt>
      <trkpt lat="46.1642" lon="5.39692">
        <ele>321.2</ele>
        <time>2022-07-30T07:49:35Z</time>
      </trkpt>
      <trkpt lat="46.16429" lon="5.39703">
        <ele>322.2</ele>
        <time>2022-07-30T07:49:38Z</time>
      </trkpt>
      <trkpt lat="46.16443" lon="5.39724">
        <ele>323.2</ele>
        <time>2022-07-30T07:49:43Z</time>
      </trkpt>
      <trkpt lat="46.16445" lon="5.39728">
        <ele>323.4</ele>
        <time>2022-07-30T07:49:44Z</time>
      </trkpt>
      <trkpt lat="46.16452" lon="5.39741">
        <ele>324.4</ele>
        <time>2022-07-30T07:49:47Z</time>
      </trkpt>
      <trkpt lat="46.16457" lon="5.3975">
        <ele>325</ele>
        <time>2022-07-30T07:49:49Z</time>
      </trkpt>
      <trkpt lat="46.16463" lon="5.39764">
        <ele>325.6</ele>
        <time>2022-07-30T07:49:52Z</time>
      </trkpt>
      <trkpt lat="46.16473" lon="5.39788">
        <ele>327</ele>
        <time>2022-07-30T07:49:57Z</time>
      </trkpt>
      <trkpt lat="46.16483" lon="5.39815">
        <ele>328.2</ele>
        <time>2022-07-30T07:50:03Z</time>
      </trkpt>
      <trkpt lat="46.16486" lon="5.39824">
        <ele>328.6</ele>
        <time>2022-07-30T07:50:05Z</time>
      </trkpt>
      <trkpt lat="46.1649" lon="5.39838">
        <ele>329.2</ele>
        <time>2022-07-30T07:50:08Z</time>
      </trkpt>
      <trkpt lat="46.16494" lon="5.39848">
        <ele>329.6</ele>
        <time>2022-07-30T07:50:10Z</time>
      </trkpt>
      <trkpt lat="46.16498" lon="5.39857">
        <ele>330</ele>
        <time>2022-07-30T07:50:12Z</time>
      </trkpt>
      <trkpt lat="46.165" lon="5.39861">
        <ele>330.2</ele>
        <time>2022-07-30T07:50:13Z</time>
      </trkpt>
      <trkpt lat="46.16511" lon="5.39883">
        <ele>331.6</ele>
        <time>2022-07-30T07:50:18Z</time>
      </trkpt>
      <trkpt lat="46.16531" lon="5.39918">
        <ele>332.6</ele>
        <time>2022-07-30T07:50:25Z</time>
      </trkpt>
      <trkpt lat="46.16537" lon="5.39933">
        <ele>333.2</ele>
        <time>2022-07-30T07:50:28Z</time>
      </trkpt>
      <trkpt lat="46.16545" lon="5.39947">
        <ele>333.8</ele>
        <time>2022-07-30T07:50:31Z</time>
      </trkpt>
      <trkpt lat="46.16552" lon="5.39961">
        <ele>334.4</ele>
        <time>2022-07-30T07:50:34Z</time>
      </trkpt>
      <trkpt lat="46.1656" lon="5.39975">
        <ele>335</ele>
        <time>2022-07-30T07:50:37Z</time>
      </trkpt>
      <trkpt lat="46.16567" lon="5.39992">
        <ele>336.2</ele>
        <time>2022-07-30T07:50:41Z</time>
      </trkpt>
      <trkpt lat="46.16571" lon="5.40001">
        <ele>336.6</ele>
        <time>2022-07-30T07:50:43Z</time>
      </trkpt>
      <trkpt lat="46.16578" lon="5.40018">
        <ele>337.4</ele>
        <time>2022-07-30T07:50:47Z</time>
      </trkpt>
      <trkpt lat="46.16589" lon="5.40039">
        <ele>338.4</ele>
        <time>2022-07-30T07:50:52Z</time>
      </trkpt>
      <trkpt lat="46.16592" lon="5.40043">
        <ele>338.6</ele>
        <time>2022-07-30T07:50:53Z</time>
      </trkpt>
      <trkpt lat="46.1661" lon="5.40069">
        <ele>339.6</ele>
        <time>2022-07-30T07:50:59Z</time>
      </trkpt>
      <trkpt lat="46.1662" lon="5.40078">
        <ele>340.8</ele>
        <time>2022-07-30T07:51:02Z</time>
      </trkpt>
      <trkpt lat="46.16636" lon="5.40089">
        <ele>341.6</ele>
        <time>2022-07-30T07:51:06Z</time>
      </trkpt>
      <trkpt lat="46.1664" lon="5.40091">
        <ele>341.8</ele>
        <time>2022-07-30T07:51:07Z</time>
      </trkpt>
      <trkpt lat="46.16657" lon="5.40097">
        <ele>343</ele>
        <time>2022-07-30T07:51:11Z</time>
      </trkpt>
      <trkpt lat="46.16662" lon="5.40098">
        <ele>343.2</ele>
        <time>2022-07-30T07:51:12Z</time>
      </trkpt>
      <trkpt lat="46.16672" lon="5.40099">
        <ele>343.4</ele>
        <time>2022-07-30T07:51:14Z</time>
      </trkpt>
      <trkpt lat="46.16676" lon="5.40099">
        <ele>343.6</ele>
        <time>2022-07-30T07:51:15Z</time>
      </trkpt>
      <trkpt lat="46.16686" lon="5.40098">
        <ele>344</ele>
        <time>2022-07-30T07:51:17Z</time>
      </trkpt>
      <trkpt lat="46.16706" lon="5.40097">
        <ele>344.6</ele>
        <time>2022-07-30T07:51:21Z</time>
      </trkpt>
      <trkpt lat="46.16721" lon="5.40096">
        <ele>345.2</ele>
        <time>2022-07-30T07:51:24Z</time>
      </trkpt>
      <trkpt lat="46.16736" lon="5.40098">
        <ele>346</ele>
        <time>2022-07-30T07:51:27Z</time>
      </trkpt>
      <trkpt lat="46.16745" lon="5.40099">
        <ele>346.4</ele>
        <time>2022-07-30T07:51:29Z</time>
      </trkpt>
      <trkpt lat="46.1676" lon="5.40101">
        <ele>347.2</ele>
        <time>2022-07-30T07:51:32Z</time>
      </trkpt>
      <trkpt lat="46.16781" lon="5.40104">
        <ele>348</ele>
        <time>2022-07-30T07:51:37Z</time>
      </trkpt>
      <trkpt lat="46.16785" lon="5.40105">
        <ele>348.2</ele>
        <time>2022-07-30T07:51:38Z</time>
      </trkpt>
      <trkpt lat="46.16803" lon="5.40108">
        <ele>349.2</ele>
        <time>2022-07-30T07:51:42Z</time>
      </trkpt>
      <trkpt lat="46.1682" lon="5.40113">
        <ele>350.4</ele>
        <time>2022-07-30T07:51:46Z</time>
      </trkpt>
      <trkpt lat="46.16848" lon="5.40123">
        <ele>351.4</ele>
        <time>2022-07-30T07:51:52Z</time>
      </trkpt>
      <trkpt lat="46.16857" lon="5.40127">
        <ele>351.8</ele>
        <time>2022-07-30T07:51:54Z</time>
      </trkpt>
      <trkpt lat="46.1687" lon="5.40133">
        <ele>352.6</ele>
        <time>2022-07-30T07:51:57Z</time>
      </trkpt>
      <trkpt lat="46.16887" lon="5.40142">
        <ele>353.8</ele>
        <time>2022-07-30T07:52:01Z</time>
      </trkpt>
      <trkpt lat="46.16891" lon="5.40144">
        <ele>354</ele>
        <time>2022-07-30T07:52:02Z</time>
      </trkpt>
      <trkpt lat="46.16903" lon="5.40151">
        <ele>354.8</ele>
        <time>2022-07-30T07:52:05Z</time>
      </trkpt>
      <trkpt lat="46.16926" lon="5.40162">
        <ele>356</ele>
        <time>2022-07-30T07:52:11Z</time>
      </trkpt>
      <trkpt lat="46.16938" lon="5.40168">
        <ele>356.8</ele>
        <time>2022-07-30T07:52:14Z</time>
      </trkpt>
      <trkpt lat="46.16945" lon="5.40172">
        <ele>357.4</ele>
        <time>2022-07-30T07:52:16Z</time>
      </trkpt>
      <trkpt lat="46.16963" lon="5.40184">
        <ele>358.4</ele>
        <time>2022-07-30T07:52:21Z</time>
      </trkpt>
      <trkpt lat="46.16977" lon="5.40195">
        <ele>359.2</ele>
        <time>2022-07-30T07:52:25Z</time>
      </trkpt>
      <trkpt lat="46.16983" lon="5.40202">
        <ele>359.4</ele>
        <time>2022-07-30T07:52:27Z</time>
      </trkpt>
      <trkpt lat="46.16998" lon="5.40222">
        <ele>360.6</ele>
        <time>2022-07-30T07:52:32Z</time>
      </trkpt>
      <trkpt lat="46.17003" lon="5.4023">
        <ele>361</ele>
        <time>2022-07-30T07:52:34Z</time>
      </trkpt>
      <trkpt lat="46.1701" lon="5.40244">
        <ele>361.6</ele>
        <time>2022-07-30T07:52:37Z</time>
      </trkpt>
      <trkpt lat="46.17017" lon="5.40264">
        <ele>362.4</ele>
        <time>2022-07-30T07:52:41Z</time>
      </trkpt>
      <trkpt lat="46.17019" lon="5.4027">
        <ele>362.8</ele>
        <time>2022-07-30T07:52:42Z</time>
      </trkpt>
      <trkpt lat="46.17024" lon="5.40296">
        <ele>363.6</ele>
        <time>2022-07-30T07:52:47Z</time>
      </trkpt>
      <trkpt lat="46.17025" lon="5.40302">
        <ele>364</ele>
        <time>2022-07-30T07:52:48Z</time>
      </trkpt>
      <trkpt lat="46.17026" lon="5.4033">
        <ele>364.8</ele>
        <time>2022-07-30T07:52:53Z</time>
      </trkpt>
      <trkpt lat="46.17026" lon="5.40336">
        <ele>365.4</ele>
        <time>2022-07-30T07:52:54Z</time>
      </trkpt>
      <trkpt lat="46.17025" lon="5.40353">
        <ele>366</ele>
        <time>2022-07-30T07:52:57Z</time>
      </trkpt>
      <trkpt lat="46.17022" lon="5.40376">
        <ele>366.6</ele>
        <time>2022-07-30T07:53:01Z</time>
      </trkpt>
      <trkpt lat="46.1702" lon="5.40386">
        <ele>367.4</ele>
        <time>2022-07-30T07:53:03Z</time>
      </trkpt>
      <trkpt lat="46.17012" lon="5.40418">
        <ele>368.6</ele>
        <time>2022-07-30T07:53:09Z</time>
      </trkpt>
      <trkpt lat="46.17011" lon="5.40424">
        <ele>368.8</ele>
        <time>2022-07-30T07:53:10Z</time>
      </trkpt>
      <trkpt lat="46.17006" lon="5.40438">
        <ele>369.4</ele>
        <time>2022-07-30T07:53:13Z</time>
      </trkpt>
      <trkpt lat="46.16995" lon="5.40462">
        <ele>370</ele>
        <time>2022-07-30T07:53:18Z</time>
      </trkpt>
      <trkpt lat="46.16993" lon="5.40467">
        <ele>370.4</ele>
        <time>2022-07-30T07:53:19Z</time>
      </trkpt>
      <trkpt lat="46.16979" lon="5.40483">
        <ele>371.4</ele>
        <time>2022-07-30T07:53:24Z</time>
      </trkpt>
      <trkpt lat="46.16967" lon="5.40497">
        <ele>372.6</ele>
        <time>2022-07-30T07:53:28Z</time>
      </trkpt>
      <trkpt lat="46.16964" lon="5.40501">
        <ele>372.8</ele>
        <time>2022-07-30T07:53:29Z</time>
      </trkpt>
      <trkpt lat="46.16941" lon="5.4052">
        <ele>373.8</ele>
        <time>2022-07-30T07:53:35Z</time>
      </trkpt>
      <trkpt lat="46.16928" lon="5.40531">
        <ele>374.8</ele>
        <time>2022-07-30T07:53:39Z</time>
      </trkpt>
      <trkpt lat="46.16919" lon="5.40537">
        <ele>375.4</ele>
        <time>2022-07-30T07:53:41Z</time>
      </trkpt>
      <trkpt lat="46.16911" lon="5.40541">
        <ele>376</ele>
        <time>2022-07-30T07:53:43Z</time>
      </trkpt>
      <trkpt lat="46.16899" lon="5.40549">
        <ele>377.2</ele>
        <time>2022-07-30T07:53:46Z</time>
      </trkpt>
      <trkpt lat="46.16879" lon="5.40561">
        <ele>378.4</ele>
        <time>2022-07-30T07:53:51Z</time>
      </trkpt>
      <trkpt lat="46.16871" lon="5.40566">
        <ele>378.8</ele>
        <time>2022-07-30T07:53:53Z</time>
      </trkpt>
      <trkpt lat="46.1686" lon="5.40574">
        <ele>379.6</ele>
        <time>2022-07-30T07:53:56Z</time>
      </trkpt>
      <trkpt lat="46.16847" lon="5.40583">
        <ele>380.6</ele>
        <time>2022-07-30T07:54:00Z</time>
      </trkpt>
      <trkpt lat="46.16829" lon="5.40596">
        <ele>381.6</ele>
        <time>2022-07-30T07:54:05Z</time>
      </trkpt>
      <trkpt lat="46.16818" lon="5.40605">
        <ele>382.2</ele>
        <time>2022-07-30T07:54:08Z</time>
      </trkpt>
      <trkpt lat="46.16811" lon="5.40611">
        <ele>382.6</ele>
        <time>2022-07-30T07:54:10Z</time>
      </trkpt>
      <trkpt lat="46.16789" lon="5.40623">
        <ele>383.6</ele>
        <time>2022-07-30T07:54:16Z</time>
      </trkpt>
      <trkpt lat="46.16766" lon="5.40628">
        <ele>385</ele>
        <time>2022-07-30T07:54:22Z</time>
      </trkpt>
      <trkpt lat="46.16763" lon="5.40629">
        <ele>385</ele>
        <time>2022-07-30T07:54:23Z</time>
      </trkpt>
      <trkpt lat="46.1675" lon="5.4063">
        <ele>386</ele>
        <time>2022-07-30T07:54:27Z</time>
      </trkpt>
      <trkpt lat="46.16739" lon="5.40628">
        <ele>386.8</ele>
        <time>2022-07-30T07:54:30Z</time>
      </trkpt>
      <trkpt lat="46.16735" lon="5.40627">
        <ele>387</ele>
        <time>2022-07-30T07:54:31Z</time>
      </trkpt>
      <trkpt lat="46.16715" lon="5.40618">
        <ele>388.2</ele>
        <time>2022-07-30T07:54:36Z</time>
      </trkpt>
      <trkpt lat="46.16706" lon="5.40613">
        <ele>388.6</ele>
        <time>2022-07-30T07:54:38Z</time>
      </trkpt>
      <trkpt lat="46.16692" lon="5.40604">
        <ele>389.4</ele>
        <time>2022-07-30T07:54:42Z</time>
      </trkpt>
      <trkpt lat="46.16673" lon="5.40591">
        <ele>390.8</ele>
        <time>2022-07-30T07:54:47Z</time>
      </trkpt>
      <trkpt lat="46.1667" lon="5.40589">
        <ele>391</ele>
        <time>2022-07-30T07:54:48Z</time>
      </trkpt>
      <trkpt lat="46.16659" lon="5.40584">
        <ele>391.8</ele>
        <time>2022-07-30T07:54:51Z</time>
      </trkpt>
      <trkpt lat="46.1664" lon="5.40578">
        <ele>392.8</ele>
        <time>2022-07-30T07:54:56Z</time>
      </trkpt>
      <trkpt lat="46.16632" lon="5.40576">
        <ele>393</ele>
        <time>2022-07-30T07:54:58Z</time>
      </trkpt>
      <trkpt lat="46.16613" lon="5.40576">
        <ele>394</ele>
        <time>2022-07-30T07:55:03Z</time>
      </trkpt>
      <trkpt lat="46.16601" lon="5.40578">
        <ele>394.6</ele>
        <time>2022-07-30T07:55:06Z</time>
      </trkpt>
      <trkpt lat="46.16591" lon="5.40582">
        <ele>395.2</ele>
        <time>2022-07-30T07:55:09Z</time>
      </trkpt>
      <trkpt lat="46.16576" lon="5.40591">
        <ele>396.4</ele>
        <time>2022-07-30T07:55:13Z</time>
      </trkpt>
      <trkpt lat="46.16556" lon="5.40604">
        <ele>397.2</ele>
        <time>2022-07-30T07:55:19Z</time>
      </trkpt>
      <trkpt lat="46.16546" lon="5.40611">
        <ele>398</ele>
        <time>2022-07-30T07:55:22Z</time>
      </trkpt>
      <trkpt lat="46.16538" lon="5.40617">
        <ele>398.4</ele>
        <time>2022-07-30T07:55:24Z</time>
      </trkpt>
      <trkpt lat="46.16515" lon="5.40635">
        <ele>399.4</ele>
        <time>2022-07-30T07:55:30Z</time>
      </trkpt>
      <trkpt lat="46.1651" lon="5.40638">
        <ele>400</ele>
        <time>2022-07-30T07:55:31Z</time>
      </trkpt>
      <trkpt lat="46.16499" lon="5.40649">
        <ele>400.8</ele>
        <time>2022-07-30T07:55:34Z</time>
      </trkpt>
      <trkpt lat="46.1649" lon="5.40661">
        <ele>401</ele>
        <time>2022-07-30T07:55:37Z</time>
      </trkpt>
      <trkpt lat="46.16481" lon="5.40672">
        <ele>402</ele>
        <time>2022-07-30T07:55:40Z</time>
      </trkpt>
      <trkpt lat="46.1647" lon="5.4069">
        <ele>403</ele>
        <time>2022-07-30T07:55:44Z</time>
      </trkpt>
      <trkpt lat="46.16468" lon="5.40694">
        <ele>403.2</ele>
        <time>2022-07-30T07:55:45Z</time>
      </trkpt>
      <trkpt lat="46.16458" lon="5.4072">
        <ele>404.2</ele>
        <time>2022-07-30T07:55:50Z</time>
      </trkpt>
      <trkpt lat="46.16453" lon="5.40743">
        <ele>404.8</ele>
        <time>2022-07-30T07:55:54Z</time>
      </trkpt>
      <trkpt lat="46.1645" lon="5.40762">
        <ele>405.2</ele>
        <time>2022-07-30T07:55:57Z</time>
      </trkpt>
      <trkpt lat="46.16449" lon="5.40791">
        <ele>405.8</ele>
        <time>2022-07-30T07:56:01Z</time>
      </trkpt>
      <trkpt lat="46.16447" lon="5.40814">
        <ele>406.2</ele>
        <time>2022-07-30T07:56:04Z</time>
      </trkpt>
      <trkpt lat="46.16446" lon="5.40847">
        <ele>406.4</ele>
        <time>2022-07-30T07:56:08Z</time>
      </trkpt>
      <trkpt lat="46.16441" lon="5.40881">
        <ele>406.4</ele>
        <time>2022-07-30T07:56:12Z</time>
      </trkpt>
      <trkpt lat="46.16437" lon="5.40899">
        <ele>406.2</ele>
        <time>2022-07-30T07:56:14Z</time>
      </trkpt>
      <trkpt lat="46.16418" lon="5.4094">
        <ele>405.8</ele>
        <time>2022-07-30T07:56:19Z</time>
      </trkpt>
      <trkpt lat="46.16406" lon="5.40956">
        <ele>405.6</ele>
        <time>2022-07-30T07:56:21Z</time>
      </trkpt>
      <trkpt lat="46.16399" lon="5.40964">
        <ele>405</ele>
        <time>2022-07-30T07:56:22Z</time>
      </trkpt>
      <trkpt lat="46.16391" lon="5.40971">
        <ele>404.8</ele>
        <time>2022-07-30T07:56:23Z</time>
      </trkpt>
      <trkpt lat="46.16365" lon="5.40989">
        <ele>403.6</ele>
        <time>2022-07-30T07:56:26Z</time>
      </trkpt>
      <trkpt lat="46.16345" lon="5.41002">
        <ele>402.4</ele>
        <time>2022-07-30T07:56:28Z</time>
      </trkpt>
      <trkpt lat="46.16326" lon="5.41019">
        <ele>401.6</ele>
        <time>2022-07-30T07:56:30Z</time>
      </trkpt>
      <trkpt lat="46.16316" lon="5.41029">
        <ele>400.6</ele>
        <time>2022-07-30T07:56:31Z</time>
      </trkpt>
      <trkpt lat="46.16307" lon="5.41039">
        <ele>399.2</ele>
        <time>2022-07-30T07:56:32Z</time>
      </trkpt>
      <trkpt lat="46.16287" lon="5.41059">
        <ele>397.8</ele>
        <time>2022-07-30T07:56:34Z</time>
      </trkpt>
      <trkpt lat="46.16267" lon="5.41076">
        <ele>396.4</ele>
        <time>2022-07-30T07:56:36Z</time>
      </trkpt>
      <trkpt lat="46.16257" lon="5.41083">
        <ele>395.8</ele>
        <time>2022-07-30T07:56:37Z</time>
      </trkpt>
      <trkpt lat="46.16246" lon="5.41088">
        <ele>394.8</ele>
        <time>2022-07-30T07:56:38Z</time>
      </trkpt>
      <trkpt lat="46.16223" lon="5.41094">
        <ele>393.8</ele>
        <time>2022-07-30T07:56:40Z</time>
      </trkpt>
      <trkpt lat="46.16211" lon="5.41095">
        <ele>393.2</ele>
        <time>2022-07-30T07:56:41Z</time>
      </trkpt>
      <trkpt lat="46.16187" lon="5.41098">
        <ele>391.8</ele>
        <time>2022-07-30T07:56:43Z</time>
      </trkpt>
      <trkpt lat="46.16152" lon="5.41099">
        <ele>390.6</ele>
        <time>2022-07-30T07:56:46Z</time>
      </trkpt>
      <trkpt lat="46.16129" lon="5.41103">
        <ele>389.4</ele>
        <time>2022-07-30T07:56:48Z</time>
      </trkpt>
      <trkpt lat="46.16106" lon="5.41111">
        <ele>388.2</ele>
        <time>2022-07-30T07:56:50Z</time>
      </trkpt>
      <trkpt lat="46.16084" lon="5.41126">
        <ele>387.2</ele>
        <time>2022-07-30T07:56:52Z</time>
      </trkpt>
      <trkpt lat="46.16074" lon="5.41135">
        <ele>386.6</ele>
        <time>2022-07-30T07:56:53Z</time>
      </trkpt>
      <trkpt lat="46.16064" lon="5.41146">
        <ele>386.2</ele>
        <time>2022-07-30T07:56:54Z</time>
      </trkpt>
      <trkpt lat="46.16056" lon="5.41159">
        <ele>385.6</ele>
        <time>2022-07-30T07:56:55Z</time>
      </trkpt>
      <trkpt lat="46.16048" lon="5.41174">
        <ele>385.4</ele>
        <time>2022-07-30T07:56:56Z</time>
      </trkpt>
      <trkpt lat="46.16037" lon="5.41206">
        <ele>384.2</ele>
        <time>2022-07-30T07:56:58Z</time>
      </trkpt>
      <trkpt lat="46.16033" lon="5.41222">
        <ele>383.4</ele>
        <time>2022-07-30T07:56:59Z</time>
      </trkpt>
      <trkpt lat="46.16029" lon="5.41239">
        <ele>382.4</ele>
        <time>2022-07-30T07:57:00Z</time>
      </trkpt>
      <trkpt lat="46.16027" lon="5.41257">
        <ele>382</ele>
        <time>2022-07-30T07:57:01Z</time>
      </trkpt>
      <trkpt lat="46.16025" lon="5.41275">
        <ele>380.8</ele>
        <time>2022-07-30T07:57:02Z</time>
      </trkpt>
      <trkpt lat="46.1602" lon="5.41309">
        <ele>379.4</ele>
        <time>2022-07-30T07:57:04Z</time>
      </trkpt>
      <trkpt lat="46.16017" lon="5.41325">
        <ele>379</ele>
        <time>2022-07-30T07:57:05Z</time>
      </trkpt>
      <trkpt lat="46.16014" lon="5.41342">
        <ele>378.2</ele>
        <time>2022-07-30T07:57:06Z</time>
      </trkpt>
      <trkpt lat="46.16005" lon="5.41391">
        <ele>376.8</ele>
        <time>2022-07-30T07:57:09Z</time>
      </trkpt>
      <trkpt lat="46.16" lon="5.41407">
        <ele>376.4</ele>
        <time>2022-07-30T07:57:10Z</time>
      </trkpt>
      <trkpt lat="46.15994" lon="5.41439">
        <ele>375.6</ele>
        <time>2022-07-30T07:57:12Z</time>
      </trkpt>
      <trkpt lat="46.15988" lon="5.4147">
        <ele>374.2</ele>
        <time>2022-07-30T07:57:14Z</time>
      </trkpt>
      <trkpt lat="46.1598" lon="5.41513">
        <ele>373.2</ele>
        <time>2022-07-30T07:57:17Z</time>
      </trkpt>
      <trkpt lat="46.15975" lon="5.41539">
        <ele>372</ele>
        <time>2022-07-30T07:57:19Z</time>
      </trkpt>
      <trkpt lat="46.15965" lon="5.41598">
        <ele>371</ele>
        <time>2022-07-30T07:57:24Z</time>
      </trkpt>
      <trkpt lat="46.15963" lon="5.4161">
        <ele>370.4</ele>
        <time>2022-07-30T07:57:25Z</time>
      </trkpt>
      <trkpt lat="46.15957" lon="5.41648">
        <ele>369.2</ele>
        <time>2022-07-30T07:57:28Z</time>
      </trkpt>
      <trkpt lat="46.15953" lon="5.41672">
        <ele>368.8</ele>
        <time>2022-07-30T07:57:30Z</time>
      </trkpt>
      <trkpt lat="46.15946" lon="5.41703">
        <ele>367.8</ele>
        <time>2022-07-30T07:57:33Z</time>
      </trkpt>
      <trkpt lat="46.15945" lon="5.41711">
        <ele>367</ele>
        <time>2022-07-30T07:57:34Z</time>
      </trkpt>
      <trkpt lat="46.15946" lon="5.41719">
        <ele>366.6</ele>
        <time>2022-07-30T07:57:35Z</time>
      </trkpt>
      <trkpt lat="46.15949" lon="5.41726">
        <ele>366.2</ele>
        <time>2022-07-30T07:57:36Z</time>
      </trkpt>
      <trkpt lat="46.15954" lon="5.4173">
        <ele>365.4</ele>
        <time>2022-07-30T07:57:37Z</time>
      </trkpt>
      <trkpt lat="46.15959" lon="5.41733">
        <ele>365.2</ele>
        <time>2022-07-30T07:57:38Z</time>
      </trkpt>
      <trkpt lat="46.15965" lon="5.41736">
        <ele>364.8</ele>
        <time>2022-07-30T07:57:39Z</time>
      </trkpt>
      <trkpt lat="46.15982" lon="5.41742">
        <ele>364.4</ele>
        <time>2022-07-30T07:57:42Z</time>
      </trkpt>
      <trkpt lat="46.16004" lon="5.4175">
        <ele>364.4</ele>
        <time>2022-07-30T07:57:46Z</time>
      </trkpt>
      <trkpt lat="46.1601" lon="5.41751">
        <ele>364.4</ele>
        <time>2022-07-30T07:57:47Z</time>
      </trkpt>
      <trkpt lat="46.16027" lon="5.41755">
        <ele>365.8</ele>
        <time>2022-07-30T07:57:50Z</time>
      </trkpt>
      <trkpt lat="46.16032" lon="5.41756">
        <ele>366.2</ele>
        <time>2022-07-30T07:57:51Z</time>
      </trkpt>
      <trkpt lat="46.16038" lon="5.41755">
        <ele>366.2</ele>
        <time>2022-07-30T07:57:52Z</time>
      </trkpt>
      <trkpt lat="46.16043" lon="5.41755">
        <ele>367</ele>
        <time>2022-07-30T07:57:53Z</time>
      </trkpt>
      <trkpt lat="46.16049" lon="5.41756">
        <ele>367.2</ele>
        <time>2022-07-30T07:57:54Z</time>
      </trkpt>
      <trkpt lat="46.16054" lon="5.41759">
        <ele>367.4</ele>
        <time>2022-07-30T07:57:55Z</time>
      </trkpt>
      <trkpt lat="46.16063" lon="5.41767">
        <ele>367.6</ele>
        <time>2022-07-30T07:57:57Z</time>
      </trkpt>
      <trkpt lat="46.16077" lon="5.41788">
        <ele>367.6</ele>
        <time>2022-07-30T07:58:00Z</time>
      </trkpt>
      <trkpt lat="46.16092" lon="5.41811">
        <ele>367.2</ele>
        <time>2022-07-30T07:58:03Z</time>
      </trkpt>
      <trkpt lat="46.16098" lon="5.41816">
        <ele>366.8</ele>
        <time>2022-07-30T07:58:04Z</time>
      </trkpt>
      <trkpt lat="46.16106" lon="5.41819">
        <ele>366.2</ele>
        <time>2022-07-30T07:58:05Z</time>
      </trkpt>
      <trkpt lat="46.16114" lon="5.41821">
        <ele>365.8</ele>
        <time>2022-07-30T07:58:06Z</time>
      </trkpt>
      <trkpt lat="46.16122" lon="5.41823">
        <ele>365.4</ele>
        <time>2022-07-30T07:58:07Z</time>
      </trkpt>
      <trkpt lat="46.1614" lon="5.4183">
        <ele>364.8</ele>
        <time>2022-07-30T07:58:09Z</time>
      </trkpt>
      <trkpt lat="46.16149" lon="5.41835">
        <ele>364.6</ele>
        <time>2022-07-30T07:58:10Z</time>
      </trkpt>
      <trkpt lat="46.16157" lon="5.41843">
        <ele>364.2</ele>
        <time>2022-07-30T07:58:11Z</time>
      </trkpt>
      <trkpt lat="46.16164" lon="5.41851">
        <ele>363.6</ele>
        <time>2022-07-30T07:58:12Z</time>
      </trkpt>
      <trkpt lat="46.16188" lon="5.41877">
        <ele>362.4</ele>
        <time>2022-07-30T07:58:15Z</time>
      </trkpt>
      <trkpt lat="46.16196" lon="5.41887">
        <ele>361</ele>
        <time>2022-07-30T07:58:16Z</time>
      </trkpt>
      <trkpt lat="46.16203" lon="5.41897">
        <ele>360.6</ele>
        <time>2022-07-30T07:58:17Z</time>
      </trkpt>
      <trkpt lat="46.16218" lon="5.41919">
        <ele>359.8</ele>
        <time>2022-07-30T07:58:19Z</time>
      </trkpt>
      <trkpt lat="46.16225" lon="5.4193">
        <ele>358.6</ele>
        <time>2022-07-30T07:58:20Z</time>
      </trkpt>
      <trkpt lat="46.16232" lon="5.4194">
        <ele>357</ele>
        <time>2022-07-30T07:58:21Z</time>
      </trkpt>
      <trkpt lat="46.16238" lon="5.41952">
        <ele>356</ele>
        <time>2022-07-30T07:58:22Z</time>
      </trkpt>
      <trkpt lat="46.16245" lon="5.41963">
        <ele>354.2</ele>
        <time>2022-07-30T07:58:23Z</time>
      </trkpt>
      <trkpt lat="46.16258" lon="5.41985">
        <ele>352.8</ele>
        <time>2022-07-30T07:58:25Z</time>
      </trkpt>
      <trkpt lat="46.1628" lon="5.42015">
        <ele>351.6</ele>
        <time>2022-07-30T07:58:28Z</time>
      </trkpt>
      <trkpt lat="46.16288" lon="5.42023">
        <ele>351.2</ele>
        <time>2022-07-30T07:58:29Z</time>
      </trkpt>
      <trkpt lat="46.16297" lon="5.42031">
        <ele>350.6</ele>
        <time>2022-07-30T07:58:30Z</time>
      </trkpt>
      <trkpt lat="46.16323" lon="5.42052">
        <ele>349.2</ele>
        <time>2022-07-30T07:58:33Z</time>
      </trkpt>
      <trkpt lat="46.16341" lon="5.42065">
        <ele>348.4</ele>
        <time>2022-07-30T07:58:35Z</time>
      </trkpt>
      <trkpt lat="46.1635" lon="5.4207">
        <ele>348.2</ele>
        <time>2022-07-30T07:58:36Z</time>
      </trkpt>
      <trkpt lat="46.16368" lon="5.42078">
        <ele>347.4</ele>
        <time>2022-07-30T07:58:38Z</time>
      </trkpt>
      <trkpt lat="46.16377" lon="5.4208">
        <ele>346.2</ele>
        <time>2022-07-30T07:58:39Z</time>
      </trkpt>
      <trkpt lat="46.16386" lon="5.42082">
        <ele>345.8</ele>
        <time>2022-07-30T07:58:40Z</time>
      </trkpt>
      <trkpt lat="46.16403" lon="5.42085">
        <ele>344.4</ele>
        <time>2022-07-30T07:58:42Z</time>
      </trkpt>
      <trkpt lat="46.16437" lon="5.42089">
        <ele>343.4</ele>
        <time>2022-07-30T07:58:46Z</time>
      </trkpt>
      <trkpt lat="46.16454" lon="5.42092">
        <ele>343.2</ele>
        <time>2022-07-30T07:58:48Z</time>
      </trkpt>
      <trkpt lat="46.16496" lon="5.421">
        <ele>343.2</ele>
        <time>2022-07-30T07:58:53Z</time>
      </trkpt>
      <trkpt lat="46.1655" lon="5.42109">
        <ele>343</ele>
        <time>2022-07-30T07:58:59Z</time>
      </trkpt>
      <trkpt lat="46.16559" lon="5.42112">
        <ele>342.8</ele>
        <time>2022-07-30T07:59:00Z</time>
      </trkpt>
      <trkpt lat="46.16578" lon="5.42119">
        <ele>342.4</ele>
        <time>2022-07-30T07:59:02Z</time>
      </trkpt>
      <trkpt lat="46.16605" lon="5.42131">
        <ele>341.2</ele>
        <time>2022-07-30T07:59:05Z</time>
      </trkpt>
      <trkpt lat="46.16623" lon="5.42139">
        <ele>340.4</ele>
        <time>2022-07-30T07:59:07Z</time>
      </trkpt>
      <trkpt lat="46.16632" lon="5.42142">
        <ele>340.2</ele>
        <time>2022-07-30T07:59:08Z</time>
      </trkpt>
      <trkpt lat="46.16682" lon="5.42162">
        <ele>339.2</ele>
        <time>2022-07-30T07:59:14Z</time>
      </trkpt>
      <trkpt lat="46.16729" lon="5.42184">
        <ele>338.4</ele>
        <time>2022-07-30T07:59:20Z</time>
      </trkpt>
      <trkpt lat="46.16752" lon="5.42199">
        <ele>338</ele>
        <time>2022-07-30T07:59:23Z</time>
      </trkpt>
      <trkpt lat="46.16796" lon="5.42231">
        <ele>337.8</ele>
        <time>2022-07-30T07:59:29Z</time>
      </trkpt>
      <trkpt lat="46.1684" lon="5.42264">
        <ele>337</ele>
        <time>2022-07-30T07:59:35Z</time>
      </trkpt>
      <trkpt lat="46.16862" lon="5.4228">
        <ele>336.2</ele>
        <time>2022-07-30T07:59:38Z</time>
      </trkpt>
      <trkpt lat="46.16876" lon="5.4229">
        <ele>336</ele>
        <time>2022-07-30T07:59:40Z</time>
      </trkpt>
      <trkpt lat="46.16923" lon="5.42324">
        <ele>336</ele>
        <time>2022-07-30T07:59:47Z</time>
      </trkpt>
      <trkpt lat="46.16959" lon="5.42344">
        <ele>336</ele>
        <time>2022-07-30T07:59:52Z</time>
      </trkpt>
      <trkpt lat="46.16997" lon="5.42364">
        <ele>335.6</ele>
        <time>2022-07-30T07:59:57Z</time>
      </trkpt>
      <trkpt lat="46.1702" lon="5.42378">
        <ele>334.6</ele>
        <time>2022-07-30T08:00:00Z</time>
      </trkpt>
      <trkpt lat="46.17047" lon="5.42399">
        <ele>334.2</ele>
        <time>2022-07-30T08:00:04Z</time>
      </trkpt>
      <trkpt lat="46.17095" lon="5.42448">
        <ele>333.8</ele>
        <time>2022-07-30T08:00:12Z</time>
      </trkpt>
      <trkpt lat="46.17132" lon="5.42484">
        <ele>334.6</ele>
        <time>2022-07-30T08:00:19Z</time>
      </trkpt>
      <trkpt lat="46.17164" lon="5.42507">
        <ele>335.6</ele>
        <time>2022-07-30T08:00:25Z</time>
      </trkpt>
      <trkpt lat="46.17169" lon="5.4251">
        <ele>335.6</ele>
        <time>2022-07-30T08:00:26Z</time>
      </trkpt>
      <trkpt lat="46.17207" lon="5.42532">
        <ele>336.4</ele>
        <time>2022-07-30T08:00:33Z</time>
      </trkpt>
      <trkpt lat="46.17235" lon="5.42554">
        <ele>336.8</ele>
        <time>2022-07-30T08:00:38Z</time>
      </trkpt>
      <trkpt lat="46.17246" lon="5.42565">
        <ele>336.8</ele>
        <time>2022-07-30T08:00:40Z</time>
      </trkpt>
      <trkpt lat="46.17291" lon="5.42619">
        <ele>337.4</ele>
        <time>2022-07-30T08:00:50Z</time>
      </trkpt>
      <trkpt lat="46.17301" lon="5.42629">
        <ele>337.4</ele>
        <time>2022-07-30T08:00:52Z</time>
      </trkpt>
      <trkpt lat="46.17327" lon="5.42656">
        <ele>337.8</ele>
        <time>2022-07-30T08:00:58Z</time>
      </trkpt>
      <trkpt lat="46.17335" lon="5.42664">
        <ele>338</ele>
        <time>2022-07-30T08:01:00Z</time>
      </trkpt>
      <trkpt lat="46.17355" lon="5.42682">
        <ele>339.2</ele>
        <time>2022-07-30T08:01:05Z</time>
      </trkpt>
      <trkpt lat="46.17367" lon="5.42692">
        <ele>340.4</ele>
        <time>2022-07-30T08:01:08Z</time>
      </trkpt>
      <trkpt lat="46.17389" lon="5.42711">
        <ele>341.4</ele>
        <time>2022-07-30T08:01:13Z</time>
      </trkpt>
      <trkpt lat="46.17402" lon="5.42722">
        <ele>341.8</ele>
        <time>2022-07-30T08:01:16Z</time>
      </trkpt>
      <trkpt lat="46.1744" lon="5.42756">
        <ele>342.2</ele>
        <time>2022-07-30T08:01:24Z</time>
      </trkpt>
      <trkpt lat="46.17455" lon="5.42768">
        <ele>342.6</ele>
        <time>2022-07-30T08:01:27Z</time>
      </trkpt>
      <trkpt lat="46.1749" lon="5.428">
        <ele>343</ele>
        <time>2022-07-30T08:01:34Z</time>
      </trkpt>
      <trkpt lat="46.17532" lon="5.4284">
        <ele>342.8</ele>
        <time>2022-07-30T08:01:43Z</time>
      </trkpt>
      <trkpt lat="46.17562" lon="5.42872">
        <ele>343.6</ele>
        <time>2022-07-30T08:01:50Z</time>
      </trkpt>
      <trkpt lat="46.1757" lon="5.42881">
        <ele>344</ele>
        <time>2022-07-30T08:01:52Z</time>
      </trkpt>
      <trkpt lat="46.17604" lon="5.42916">
        <ele>344.6</ele>
        <time>2022-07-30T08:02:00Z</time>
      </trkpt>
      <trkpt lat="46.17618" lon="5.42929">
        <ele>345</ele>
        <time>2022-07-30T08:02:03Z</time>
      </trkpt>
      <trkpt lat="46.17658" lon="5.42958">
        <ele>345.2</ele>
        <time>2022-07-30T08:02:11Z</time>
      </trkpt>
      <trkpt lat="46.17696" lon="5.4298">
        <ele>344.8</ele>
        <time>2022-07-30T08:02:17Z</time>
      </trkpt>
      <trkpt lat="46.17743" lon="5.43011">
        <ele>344.2</ele>
        <time>2022-07-30T08:02:25Z</time>
      </trkpt>
      <trkpt lat="46.17778" lon="5.43034">
        <ele>343.6</ele>
        <time>2022-07-30T08:02:31Z</time>
      </trkpt>
      <trkpt lat="46.17784" lon="5.43037">
        <ele>343.4</ele>
        <time>2022-07-30T08:02:32Z</time>
      </trkpt>
      <trkpt lat="46.17834" lon="5.43066">
        <ele>342.8</ele>
        <time>2022-07-30T08:02:40Z</time>
      </trkpt>
      <trkpt lat="46.17881" lon="5.43091">
        <ele>342.6</ele>
        <time>2022-07-30T08:02:47Z</time>
      </trkpt>
      <trkpt lat="46.17888" lon="5.43095">
        <ele>342.4</ele>
        <time>2022-07-30T08:02:48Z</time>
      </trkpt>
      <trkpt lat="46.1791" lon="5.43107">
        <ele>341.2</ele>
        <time>2022-07-30T08:02:51Z</time>
      </trkpt>
      <trkpt lat="46.17941" lon="5.43127">
        <ele>340</ele>
        <time>2022-07-30T08:02:55Z</time>
      </trkpt>
      <trkpt lat="46.17948" lon="5.43133">
        <ele>339.8</ele>
        <time>2022-07-30T08:02:56Z</time>
      </trkpt>
      <trkpt lat="46.17962" lon="5.43148">
        <ele>338.8</ele>
        <time>2022-07-30T08:02:58Z</time>
      </trkpt>
      <trkpt lat="46.17987" lon="5.43179">
        <ele>338</ele>
        <time>2022-07-30T08:03:02Z</time>
      </trkpt>
      <trkpt lat="46.17998" lon="5.43194">
        <ele>337.4</ele>
        <time>2022-07-30T08:03:04Z</time>
      </trkpt>
      <trkpt lat="46.18031" lon="5.43236">
        <ele>336.4</ele>
        <time>2022-07-30T08:03:10Z</time>
      </trkpt>
      <trkpt lat="46.18044" lon="5.4325">
        <ele>336.4</ele>
        <time>2022-07-30T08:03:12Z</time>
      </trkpt>
      <trkpt lat="46.18071" lon="5.43271">
        <ele>336.2</ele>
        <time>2022-07-30T08:03:16Z</time>
      </trkpt>
      <trkpt lat="46.18092" lon="5.43286">
        <ele>335.2</ele>
        <time>2022-07-30T08:03:19Z</time>
      </trkpt>
      <trkpt lat="46.18127" lon="5.43313">
        <ele>334.2</ele>
        <time>2022-07-30T08:03:24Z</time>
      </trkpt>
      <trkpt lat="46.18134" lon="5.43319">
        <ele>333.8</ele>
        <time>2022-07-30T08:03:25Z</time>
      </trkpt>
      <trkpt lat="46.1817" lon="5.43346">
        <ele>332.8</ele>
        <time>2022-07-30T08:03:30Z</time>
      </trkpt>
      <trkpt lat="46.18193" lon="5.43362">
        <ele>332.2</ele>
        <time>2022-07-30T08:03:33Z</time>
      </trkpt>
      <trkpt lat="46.18224" lon="5.43382">
        <ele>331</ele>
        <time>2022-07-30T08:03:37Z</time>
      </trkpt>
      <trkpt lat="46.18248" lon="5.43397">
        <ele>329.6</ele>
        <time>2022-07-30T08:03:40Z</time>
      </trkpt>
      <trkpt lat="46.18263" lon="5.43407">
        <ele>328.8</ele>
        <time>2022-07-30T08:03:42Z</time>
      </trkpt>
      <trkpt lat="46.18279" lon="5.43416">
        <ele>328.6</ele>
        <time>2022-07-30T08:03:44Z</time>
      </trkpt>
      <trkpt lat="46.18332" lon="5.4345">
        <ele>328.2</ele>
        <time>2022-07-30T08:03:51Z</time>
      </trkpt>
      <trkpt lat="46.18362" lon="5.43471">
        <ele>327.6</ele>
        <time>2022-07-30T08:03:55Z</time>
      </trkpt>
      <trkpt lat="46.18391" lon="5.43491">
        <ele>327</ele>
        <time>2022-07-30T08:03:59Z</time>
      </trkpt>
      <trkpt lat="46.18418" lon="5.4351">
        <ele>326.6</ele>
        <time>2022-07-30T08:04:03Z</time>
      </trkpt>
      <trkpt lat="46.18447" lon="5.4353">
        <ele>325.4</ele>
        <time>2022-07-30T08:04:07Z</time>
      </trkpt>
      <trkpt lat="46.18454" lon="5.43535">
        <ele>325.4</ele>
        <time>2022-07-30T08:04:08Z</time>
      </trkpt>
      <trkpt lat="46.18505" lon="5.43573">
        <ele>324.4</ele>
        <time>2022-07-30T08:04:16Z</time>
      </trkpt>
      <trkpt lat="46.18513" lon="5.4358">
        <ele>324.4</ele>
        <time>2022-07-30T08:04:17Z</time>
      </trkpt>
      <trkpt lat="46.1852" lon="5.43586">
        <ele>324.4</ele>
        <time>2022-07-30T08:04:18Z</time>
      </trkpt>
      <trkpt lat="46.18561" lon="5.43635">
        <ele>323.6</ele>
        <time>2022-07-30T08:04:25Z</time>
      </trkpt>
      <trkpt lat="46.18569" lon="5.43644">
        <ele>323.4</ele>
        <time>2022-07-30T08:04:26Z</time>
      </trkpt>
      <trkpt lat="46.1861" lon="5.43698">
        <ele>322.8</ele>
        <time>2022-07-30T08:04:33Z</time>
      </trkpt>
      <trkpt lat="46.18649" lon="5.43744">
        <ele>322.8</ele>
        <time>2022-07-30T08:04:40Z</time>
      </trkpt>
      <trkpt lat="46.18694" lon="5.43788">
        <ele>323.2</ele>
        <time>2022-07-30T08:04:48Z</time>
      </trkpt>
      <trkpt lat="46.18746" lon="5.43831">
        <ele>323.6</ele>
        <time>2022-07-30T08:04:57Z</time>
      </trkpt>
      <trkpt lat="46.18792" lon="5.43878">
        <ele>323.6</ele>
        <time>2022-07-30T08:05:06Z</time>
      </trkpt>
      <trkpt lat="46.18819" lon="5.43909">
        <ele>324.2</ele>
        <time>2022-07-30T08:05:12Z</time>
      </trkpt>
      <trkpt lat="46.18838" lon="5.43932">
        <ele>324.8</ele>
        <time>2022-07-30T08:05:16Z</time>
      </trkpt>
      <trkpt lat="46.18852" lon="5.43948">
        <ele>325.2</ele>
        <time>2022-07-30T08:05:19Z</time>
      </trkpt>
      <trkpt lat="46.18883" lon="5.43982">
        <ele>325.8</ele>
        <time>2022-07-30T08:05:26Z</time>
      </trkpt>
      <trkpt lat="46.18887" lon="5.43987">
        <ele>326</ele>
        <time>2022-07-30T08:05:27Z</time>
      </trkpt>
      <trkpt lat="46.18907" lon="5.44012">
        <ele>326.8</ele>
        <time>2022-07-30T08:05:32Z</time>
      </trkpt>
      <trkpt lat="46.18922" lon="5.44032">
        <ele>327.6</ele>
        <time>2022-07-30T08:05:36Z</time>
      </trkpt>
      <trkpt lat="46.18929" lon="5.44042">
        <ele>328</ele>
        <time>2022-07-30T08:05:38Z</time>
      </trkpt>
      <trkpt lat="46.18952" lon="5.44076">
        <ele>329</ele>
        <time>2022-07-30T08:05:44Z</time>
      </trkpt>
      <trkpt lat="46.18959" lon="5.44088">
        <ele>329.6</ele>
        <time>2022-07-30T08:05:46Z</time>
      </trkpt>
      <trkpt lat="46.18967" lon="5.44099">
        <ele>330</ele>
        <time>2022-07-30T08:05:48Z</time>
      </trkpt>
      <trkpt lat="46.18991" lon="5.44127">
        <ele>330.8</ele>
        <time>2022-07-30T08:05:54Z</time>
      </trkpt>
      <trkpt lat="46.19015" lon="5.44145">
        <ele>331.2</ele>
        <time>2022-07-30T08:05:59Z</time>
      </trkpt>
      <trkpt lat="46.19024" lon="5.4415">
        <ele>331.4</ele>
        <time>2022-07-30T08:06:01Z</time>
      </trkpt>
      <trkpt lat="46.19055" lon="5.44159">
        <ele>332.4</ele>
        <time>2022-07-30T08:06:08Z</time>
      </trkpt>
      <trkpt lat="46.19059" lon="5.4416">
        <ele>332.8</ele>
        <time>2022-07-30T08:06:09Z</time>
      </trkpt>
      <trkpt lat="46.19064" lon="5.4416">
        <ele>333</ele>
        <time>2022-07-30T08:06:10Z</time>
      </trkpt>
      <trkpt lat="46.19073" lon="5.4416">
        <ele>333.4</ele>
        <time>2022-07-30T08:06:12Z</time>
      </trkpt>
      <trkpt lat="46.19088" lon="5.44159">
        <ele>334.2</ele>
        <time>2022-07-30T08:06:15Z</time>
      </trkpt>
      <trkpt lat="46.19093" lon="5.44159">
        <ele>334.6</ele>
        <time>2022-07-30T08:06:16Z</time>
      </trkpt>
      <trkpt lat="46.19116" lon="5.44159">
        <ele>335.6</ele>
        <time>2022-07-30T08:06:21Z</time>
      </trkpt>
      <trkpt lat="46.19131" lon="5.4416">
        <ele>336.2</ele>
        <time>2022-07-30T08:06:24Z</time>
      </trkpt>
      <trkpt lat="46.19153" lon="5.44159">
        <ele>336.6</ele>
        <time>2022-07-30T08:06:28Z</time>
      </trkpt>
      <trkpt lat="46.19176" lon="5.44159">
        <ele>337</ele>
        <time>2022-07-30T08:06:32Z</time>
      </trkpt>
      <trkpt lat="46.1922" lon="5.44165">
        <ele>336.6</ele>
        <time>2022-07-30T08:06:39Z</time>
      </trkpt>
      <trkpt lat="46.19247" lon="5.44169">
        <ele>335.8</ele>
        <time>2022-07-30T08:06:43Z</time>
      </trkpt>
      <trkpt lat="46.19279" lon="5.44174">
        <ele>335</ele>
        <time>2022-07-30T08:06:47Z</time>
      </trkpt>
      <trkpt lat="46.19303" lon="5.44178">
        <ele>334.4</ele>
        <time>2022-07-30T08:06:50Z</time>
      </trkpt>
      <trkpt lat="46.19328" lon="5.44182">
        <ele>333.8</ele>
        <time>2022-07-30T08:06:53Z</time>
      </trkpt>
      <trkpt lat="46.19345" lon="5.44185">
        <ele>333.2</ele>
        <time>2022-07-30T08:06:55Z</time>
      </trkpt>
      <trkpt lat="46.19369" lon="5.44189">
        <ele>332</ele>
        <time>2022-07-30T08:06:58Z</time>
      </trkpt>
      <trkpt lat="46.19402" lon="5.44192">
        <ele>330.8</ele>
        <time>2022-07-30T08:07:02Z</time>
      </trkpt>
      <trkpt lat="46.19427" lon="5.44191">
        <ele>329.6</ele>
        <time>2022-07-30T08:07:05Z</time>
      </trkpt>
      <trkpt lat="46.19452" lon="5.44185">
        <ele>329</ele>
        <time>2022-07-30T08:07:08Z</time>
      </trkpt>
      <trkpt lat="46.19477" lon="5.44177">
        <ele>328.4</ele>
        <time>2022-07-30T08:07:11Z</time>
      </trkpt>
      <trkpt lat="46.19522" lon="5.44169">
        <ele>328.2</ele>
        <time>2022-07-30T08:07:17Z</time>
      </trkpt>
      <trkpt lat="46.19555" lon="5.44175">
        <ele>329</ele>
        <time>2022-07-30T08:07:22Z</time>
      </trkpt>
      <trkpt lat="46.19593" lon="5.44194">
        <ele>329.4</ele>
        <time>2022-07-30T08:07:28Z</time>
      </trkpt>
      <trkpt lat="46.19636" lon="5.44222">
        <ele>329.2</ele>
        <time>2022-07-30T08:07:34Z</time>
      </trkpt>
      <trkpt lat="46.1965" lon="5.44231">
        <ele>328.6</ele>
        <time>2022-07-30T08:07:36Z</time>
      </trkpt>
      <trkpt lat="46.19696" lon="5.44266">
        <ele>327.6</ele>
        <time>2022-07-30T08:07:43Z</time>
      </trkpt>
      <trkpt lat="46.19701" lon="5.44272">
        <ele>327.4</ele>
        <time>2022-07-30T08:07:44Z</time>
      </trkpt>
      <trkpt lat="46.19732" lon="5.44311">
        <ele>327.2</ele>
        <time>2022-07-30T08:07:49Z</time>
      </trkpt>
      <trkpt lat="46.19774" lon="5.44366">
        <ele>327.2</ele>
        <time>2022-07-30T08:07:57Z</time>
      </trkpt>
      <trkpt lat="46.19779" lon="5.44372">
        <ele>327.4</ele>
        <time>2022-07-30T08:07:58Z</time>
      </trkpt>
      <trkpt lat="46.19824" lon="5.44424">
        <ele>327.8</ele>
        <time>2022-07-30T08:08:06Z</time>
      </trkpt>
      <trkpt lat="46.19871" lon="5.44467">
        <ele>327.2</ele>
        <time>2022-07-30T08:08:13Z</time>
      </trkpt>
      <trkpt lat="46.19878" lon="5.44473">
        <ele>326.8</ele>
        <time>2022-07-30T08:08:14Z</time>
      </trkpt>
      <trkpt lat="46.19893" lon="5.44484">
        <ele>326.4</ele>
        <time>2022-07-30T08:08:16Z</time>
      </trkpt>
      <trkpt lat="46.19914" lon="5.44501">
        <ele>325.2</ele>
        <time>2022-07-30T08:08:19Z</time>
      </trkpt>
      <trkpt lat="46.19924" lon="5.44508">
        <ele>325</ele>
        <time>2022-07-30T08:08:20Z</time>
      </trkpt>
      <trkpt lat="46.19954" lon="5.4453">
        <ele>324.2</ele>
        <time>2022-07-30T08:08:24Z</time>
      </trkpt>
      <trkpt lat="46.19981" lon="5.44548">
        <ele>323.8</ele>
        <time>2022-07-30T08:08:28Z</time>
      </trkpt>
      <trkpt lat="46.20029" lon="5.44578">
        <ele>323.4</ele>
        <time>2022-07-30T08:08:35Z</time>
      </trkpt>
      <trkpt lat="46.20076" lon="5.44606">
        <ele>323.4</ele>
        <time>2022-07-30T08:08:42Z</time>
      </trkpt>
      <trkpt lat="46.20117" lon="5.44629">
        <ele>323.2</ele>
        <time>2022-07-30T08:08:48Z</time>
      </trkpt>
      <trkpt lat="46.20139" lon="5.4464">
        <ele>322.8</ele>
        <time>2022-07-30T08:08:51Z</time>
      </trkpt>
      <trkpt lat="46.20182" lon="5.44661">
        <ele>322.2</ele>
        <time>2022-07-30T08:08:57Z</time>
      </trkpt>
      <trkpt lat="46.20222" lon="5.4468">
        <ele>322</ele>
        <time>2022-07-30T08:09:03Z</time>
      </trkpt>
      <trkpt lat="46.20279" lon="5.44706">
        <ele>322.4</ele>
        <time>2022-07-30T08:09:12Z</time>
      </trkpt>
      <trkpt lat="46.2029" lon="5.44701">
        <ele>322.6</ele>
        <time>2022-07-30T08:09:14Z</time>
      </trkpt>
      <trkpt lat="46.20293" lon="5.44695">
        <ele>322.8</ele>
        <time>2022-07-30T08:09:15Z</time>
      </trkpt>
      <trkpt lat="46.20302" lon="5.44672">
        <ele>323.6</ele>
        <time>2022-07-30T08:09:18Z</time>
      </trkpt>
      <trkpt lat="46.20309" lon="5.44648">
        <ele>324</ele>
        <time>2022-07-30T08:09:21Z</time>
      </trkpt>
      <trkpt lat="46.20315" lon="5.44624">
        <ele>324.4</ele>
        <time>2022-07-30T08:09:24Z</time>
      </trkpt>
      <trkpt lat="46.20327" lon="5.44578">
        <ele>325.6</ele>
        <time>2022-07-30T08:09:30Z</time>
      </trkpt>
      <trkpt lat="46.20338" lon="5.44541">
        <ele>326.8</ele>
        <time>2022-07-30T08:09:35Z</time>
      </trkpt>
      <trkpt lat="46.20341" lon="5.44533">
        <ele>327</ele>
        <time>2022-07-30T08:09:36Z</time>
      </trkpt>
      <trkpt lat="46.20351" lon="5.44502">
        <ele>328</ele>
        <time>2022-07-30T08:09:40Z</time>
      </trkpt>
      <trkpt lat="46.20358" lon="5.44488">
        <ele>328.4</ele>
        <time>2022-07-30T08:09:42Z</time>
      </trkpt>
      <trkpt lat="46.20361" lon="5.44482">
        <ele>328.6</ele>
        <time>2022-07-30T08:09:43Z</time>
      </trkpt>
      <trkpt lat="46.20377" lon="5.44459">
        <ele>329</ele>
        <time>2022-07-30T08:09:47Z</time>
      </trkpt>
      <trkpt lat="46.20388" lon="5.44453">
        <ele>329.2</ele>
        <time>2022-07-30T08:09:49Z</time>
      </trkpt>
      <trkpt lat="46.20393" lon="5.44454">
        <ele>329.2</ele>
        <time>2022-07-30T08:09:50Z</time>
      </trkpt>
      <trkpt lat="46.20398" lon="5.44456">
        <ele>329.2</ele>
        <time>2022-07-30T08:09:51Z</time>
      </trkpt>
      <trkpt lat="46.20419" lon="5.44468">
        <ele>329.4</ele>
        <time>2022-07-30T08:09:55Z</time>
      </trkpt>
      <trkpt lat="46.20448" lon="5.44485">
        <ele>330.2</ele>
        <time>2022-07-30T08:10:01Z</time>
      </trkpt>
      <trkpt lat="46.20453" lon="5.44487">
        <ele>330.2</ele>
        <time>2022-07-30T08:10:02Z</time>
      </trkpt>
      <trkpt lat="46.20468" lon="5.44494">
        <ele>330.4</ele>
        <time>2022-07-30T08:10:05Z</time>
      </trkpt>
      <trkpt lat="46.20477" lon="5.44504">
        <ele>330.6</ele>
        <time>2022-07-30T08:10:07Z</time>
      </trkpt>
      <trkpt lat="46.20492" lon="5.44526">
        <ele>330.6</ele>
        <time>2022-07-30T08:10:11Z</time>
      </trkpt>
      <trkpt lat="46.20502" lon="5.44531">
        <ele>330.6</ele>
        <time>2022-07-30T08:10:13Z</time>
      </trkpt>
      <trkpt lat="46.20524" lon="5.44524">
        <ele>330.8</ele>
        <time>2022-07-30T08:10:17Z</time>
      </trkpt>
      <trkpt lat="46.20576" lon="5.44508">
        <ele>331.2</ele>
        <time>2022-07-30T08:10:26Z</time>
      </trkpt>
      <trkpt lat="46.20593" lon="5.44503">
        <ele>331.2</ele>
        <time>2022-07-30T08:10:29Z</time>
      </trkpt>
      <trkpt lat="46.20619" lon="5.44497">
        <ele>331.2</ele>
        <time>2022-07-30T08:10:34Z</time>
      </trkpt>
      <trkpt lat="46.20624" lon="5.44496">
        <ele>331.4</ele>
        <time>2022-07-30T08:10:35Z</time>
      </trkpt>
      <trkpt lat="46.20641" lon="5.44496">
        <ele>332.2</ele>
        <time>2022-07-30T08:10:39Z</time>
      </trkpt>
      <trkpt lat="46.20657" lon="5.44496">
        <ele>333.6</ele>
        <time>2022-07-30T08:10:43Z</time>
      </trkpt>
      <trkpt lat="46.20669" lon="5.44495">
        <ele>334.2</ele>
        <time>2022-07-30T08:10:46Z</time>
      </trkpt>
      <trkpt lat="46.20678" lon="5.44493">
        <ele>334.6</ele>
        <time>2022-07-30T08:10:48Z</time>
      </trkpt>
      <trkpt lat="46.20703" lon="5.44482">
        <ele>335.8</ele>
        <time>2022-07-30T08:10:54Z</time>
      </trkpt>
      <trkpt lat="46.20708" lon="5.4448">
        <ele>336</ele>
        <time>2022-07-30T08:10:55Z</time>
      </trkpt>
      <trkpt lat="46.20724" lon="5.44471">
        <ele>337</ele>
        <time>2022-07-30T08:10:59Z</time>
      </trkpt>
      <trkpt lat="46.20739" lon="5.4446">
        <ele>337.8</ele>
        <time>2022-07-30T08:11:03Z</time>
      </trkpt>
      <trkpt lat="46.20747" lon="5.44454">
        <ele>338.2</ele>
        <time>2022-07-30T08:11:05Z</time>
      </trkpt>
      <trkpt lat="46.20769" lon="5.44437">
        <ele>339.2</ele>
        <time>2022-07-30T08:11:11Z</time>
      </trkpt>
      <trkpt lat="46.20789" lon="5.44423">
        <ele>340.6</ele>
        <time>2022-07-30T08:11:16Z</time>
      </trkpt>
      <trkpt lat="46.20793" lon="5.44421">
        <ele>340.8</ele>
        <time>2022-07-30T08:11:17Z</time>
      </trkpt>
      <trkpt lat="46.20802" lon="5.4442">
        <ele>341.2</ele>
        <time>2022-07-30T08:11:19Z</time>
      </trkpt>
      <trkpt lat="46.20806" lon="5.4442">
        <ele>341.6</ele>
        <time>2022-07-30T08:11:20Z</time>
      </trkpt>
      <trkpt lat="46.20818" lon="5.44418">
        <ele>342.4</ele>
        <time>2022-07-30T08:11:23Z</time>
      </trkpt>
      <trkpt lat="46.20822" lon="5.44417">
        <ele>342.6</ele>
        <time>2022-07-30T08:11:24Z</time>
      </trkpt>
      <trkpt lat="46.20833" lon="5.44415">
        <ele>343.2</ele>
        <time>2022-07-30T08:11:27Z</time>
      </trkpt>
      <trkpt lat="46.20837" lon="5.44415">
        <ele>343.6</ele>
        <time>2022-07-30T08:11:28Z</time>
      </trkpt>
      <trkpt lat="46.2084" lon="5.44414">
        <ele>344</ele>
        <time>2022-07-30T08:11:29Z</time>
      </trkpt>
      <trkpt lat="46.20865" lon="5.4441">
        <ele>344.8</ele>
        <time>2022-07-30T08:11:36Z</time>
      </trkpt>
      <trkpt lat="46.20869" lon="5.4441">
        <ele>345.2</ele>
        <time>2022-07-30T08:11:37Z</time>
      </trkpt>
      <trkpt lat="46.2089" lon="5.44405">
        <ele>346.2</ele>
        <time>2022-07-30T08:11:43Z</time>
      </trkpt>
      <trkpt lat="46.209" lon="5.44403">
        <ele>346.6</ele>
        <time>2022-07-30T08:11:46Z</time>
      </trkpt>
      <trkpt lat="46.20911" lon="5.44399">
        <ele>347.2</ele>
        <time>2022-07-30T08:11:49Z</time>
      </trkpt>
      <trkpt lat="46.20924" lon="5.4439">
        <ele>348.6</ele>
        <time>2022-07-30T08:11:53Z</time>
      </trkpt>
      <trkpt lat="46.20937" lon="5.4438">
        <ele>349.8</ele>
        <time>2022-07-30T08:11:57Z</time>
      </trkpt>
      <trkpt lat="46.20948" lon="5.44374">
        <ele>350.4</ele>
        <time>2022-07-30T08:12:00Z</time>
      </trkpt>
      <trkpt lat="46.20964" lon="5.44373">
        <ele>351</ele>
        <time>2022-07-30T08:12:04Z</time>
      </trkpt>
      <trkpt lat="46.20972" lon="5.44376">
        <ele>351.2</ele>
        <time>2022-07-30T08:12:06Z</time>
      </trkpt>
      <trkpt lat="46.20989" lon="5.44386">
        <ele>352.2</ele>
        <time>2022-07-30T08:12:11Z</time>
      </trkpt>
      <trkpt lat="46.20999" lon="5.44392">
        <ele>353</ele>
        <time>2022-07-30T08:12:14Z</time>
      </trkpt>
      <trkpt lat="46.21003" lon="5.44394">
        <ele>353</ele>
        <time>2022-07-30T08:12:15Z</time>
      </trkpt>
      <trkpt lat="46.21016" lon="5.44402">
        <ele>354.2</ele>
        <time>2022-07-30T08:12:19Z</time>
      </trkpt>
      <trkpt lat="46.21022" lon="5.44406">
        <ele>355</ele>
        <time>2022-07-30T08:12:21Z</time>
      </trkpt>
      <trkpt lat="46.21042" lon="5.44418">
        <ele>356.4</ele>
        <time>2022-07-30T08:12:27Z</time>
      </trkpt>
      <trkpt lat="46.21055" lon="5.44427">
        <ele>357.4</ele>
        <time>2022-07-30T08:12:31Z</time>
      </trkpt>
      <trkpt lat="46.21062" lon="5.44432">
        <ele>357.6</ele>
        <time>2022-07-30T08:12:33Z</time>
      </trkpt>
      <trkpt lat="46.21087" lon="5.44447">
        <ele>358.8</ele>
        <time>2022-07-30T08:12:40Z</time>
      </trkpt>
      <trkpt lat="46.21108" lon="5.4446">
        <ele>359.6</ele>
        <time>2022-07-30T08:12:46Z</time>
      </trkpt>
      <trkpt lat="46.21124" lon="5.44472">
        <ele>360.4</ele>
        <time>2022-07-30T08:12:51Z</time>
      </trkpt>
      <trkpt lat="46.21131" lon="5.44476">
        <ele>360.8</ele>
        <time>2022-07-30T08:12:53Z</time>
      </trkpt>
      <trkpt lat="46.21154" lon="5.44491">
        <ele>362</ele>
        <time>2022-07-30T08:13:00Z</time>
      </trkpt>
      <trkpt lat="46.21157" lon="5.44493">
        <ele>362.2</ele>
        <time>2022-07-30T08:13:01Z</time>
      </trkpt>
      <trkpt lat="46.21166" lon="5.445">
        <ele>362.8</ele>
        <time>2022-07-30T08:13:04Z</time>
      </trkpt>
      <trkpt lat="46.21181" lon="5.44511">
        <ele>364</ele>
        <time>2022-07-30T08:13:09Z</time>
      </trkpt>
      <trkpt lat="46.21191" lon="5.44518">
        <ele>364.2</ele>
        <time>2022-07-30T08:13:12Z</time>
      </trkpt>
      <trkpt lat="46.21198" lon="5.44523">
        <ele>365.2</ele>
        <time>2022-07-30T08:13:14Z</time>
      </trkpt>
      <trkpt lat="46.21216" lon="5.44534">
        <ele>366.2</ele>
        <time>2022-07-30T08:13:19Z</time>
      </trkpt>
      <trkpt lat="46.21225" lon="5.4454">
        <ele>367.2</ele>
        <time>2022-07-30T08:13:22Z</time>
      </trkpt>
      <trkpt lat="46.21229" lon="5.44543">
        <ele>367.4</ele>
        <time>2022-07-30T08:13:23Z</time>
      </trkpt>
      <trkpt lat="46.21249" lon="5.44555">
        <ele>368</ele>
        <time>2022-07-30T08:13:29Z</time>
      </trkpt>
      <trkpt lat="46.2126" lon="5.44561">
        <ele>368.6</ele>
        <time>2022-07-30T08:13:32Z</time>
      </trkpt>
      <trkpt lat="46.21287" lon="5.44576">
        <ele>369.4</ele>
        <time>2022-07-30T08:13:39Z</time>
      </trkpt>
      <trkpt lat="46.21291" lon="5.44578">
        <ele>369.8</ele>
        <time>2022-07-30T08:13:40Z</time>
      </trkpt>
      <trkpt lat="46.21313" lon="5.44592">
        <ele>370.8</ele>
        <time>2022-07-30T08:13:46Z</time>
      </trkpt>
      <trkpt lat="46.21316" lon="5.44594">
        <ele>371.2</ele>
        <time>2022-07-30T08:13:47Z</time>
      </trkpt>
      <trkpt lat="46.21334" lon="5.44607">
        <ele>372.4</ele>
        <time>2022-07-30T08:13:52Z</time>
      </trkpt>
      <trkpt lat="46.21338" lon="5.44609">
        <ele>372.6</ele>
        <time>2022-07-30T08:13:53Z</time>
      </trkpt>
      <trkpt lat="46.21345" lon="5.44614">
        <ele>373.4</ele>
        <time>2022-07-30T08:13:55Z</time>
      </trkpt>
      <trkpt lat="46.21359" lon="5.44625">
        <ele>374.4</ele>
        <time>2022-07-30T08:13:59Z</time>
      </trkpt>
      <trkpt lat="46.21366" lon="5.44632">
        <ele>374.6</ele>
        <time>2022-07-30T08:14:01Z</time>
      </trkpt>
      <trkpt lat="46.21383" lon="5.44645">
        <ele>375.6</ele>
        <time>2022-07-30T08:14:06Z</time>
      </trkpt>
      <trkpt lat="46.21396" lon="5.44656">
        <ele>376.4</ele>
        <time>2022-07-30T08:14:10Z</time>
      </trkpt>
      <trkpt lat="46.214" lon="5.44658">
        <ele>376.6</ele>
        <time>2022-07-30T08:14:11Z</time>
      </trkpt>
      <trkpt lat="46.21413" lon="5.44668">
        <ele>377.6</ele>
        <time>2022-07-30T08:14:15Z</time>
      </trkpt>
      <trkpt lat="46.21434" lon="5.44682">
        <ele>378.8</ele>
        <time>2022-07-30T08:14:21Z</time>
      </trkpt>
      <trkpt lat="46.21455" lon="5.44695">
        <ele>379.6</ele>
        <time>2022-07-30T08:14:27Z</time>
      </trkpt>
      <trkpt lat="46.21462" lon="5.447">
        <ele>380.2</ele>
        <time>2022-07-30T08:14:29Z</time>
      </trkpt>
      <trkpt lat="46.21469" lon="5.44704">
        <ele>380.8</ele>
        <time>2022-07-30T08:14:31Z</time>
      </trkpt>
      <trkpt lat="46.21486" lon="5.44715">
        <ele>381.6</ele>
        <time>2022-07-30T08:14:36Z</time>
      </trkpt>
      <trkpt lat="46.2149" lon="5.44718">
        <ele>381.8</ele>
        <time>2022-07-30T08:14:37Z</time>
      </trkpt>
      <trkpt lat="46.21507" lon="5.4473">
        <ele>382.8</ele>
        <time>2022-07-30T08:14:42Z</time>
      </trkpt>
      <trkpt lat="46.21511" lon="5.44733">
        <ele>383</ele>
        <time>2022-07-30T08:14:43Z</time>
      </trkpt>
      <trkpt lat="46.21534" lon="5.44742">
        <ele>384</ele>
        <time>2022-07-30T08:14:49Z</time>
      </trkpt>
      <trkpt lat="46.2155" lon="5.44747">
        <ele>384.8</ele>
        <time>2022-07-30T08:14:53Z</time>
      </trkpt>
      <trkpt lat="46.21554" lon="5.44749">
        <ele>385.6</ele>
        <time>2022-07-30T08:14:54Z</time>
      </trkpt>
      <trkpt lat="46.21562" lon="5.44753">
        <ele>385.8</ele>
        <time>2022-07-30T08:14:56Z</time>
      </trkpt>
      <trkpt lat="46.21574" lon="5.44758">
        <ele>386.6</ele>
        <time>2022-07-30T08:14:59Z</time>
      </trkpt>
      <trkpt lat="46.21594" lon="5.44763">
        <ele>388</ele>
        <time>2022-07-30T08:15:04Z</time>
      </trkpt>
      <trkpt lat="46.21599" lon="5.44763">
        <ele>388.2</ele>
        <time>2022-07-30T08:15:05Z</time>
      </trkpt>
      <trkpt lat="46.21613" lon="5.44764">
        <ele>388.8</ele>
        <time>2022-07-30T08:15:08Z</time>
      </trkpt>
      <trkpt lat="46.21622" lon="5.44764">
        <ele>389</ele>
        <time>2022-07-30T08:15:10Z</time>
      </trkpt>
      <trkpt lat="46.2165" lon="5.44763">
        <ele>389.8</ele>
        <time>2022-07-30T08:15:16Z</time>
      </trkpt>
      <trkpt lat="46.21659" lon="5.44768">
        <ele>390</ele>
        <time>2022-07-30T08:15:18Z</time>
      </trkpt>
      <trkpt lat="46.21662" lon="5.44774">
        <ele>390</ele>
        <time>2022-07-30T08:15:19Z</time>
      </trkpt>
      <trkpt lat="46.21664" lon="5.4478">
        <ele>390</ele>
        <time>2022-07-30T08:15:20Z</time>
      </trkpt>
      <trkpt lat="46.21671" lon="5.44806">
        <ele>389.8</ele>
        <time>2022-07-30T08:15:23Z</time>
      </trkpt>
      <trkpt lat="46.21685" lon="5.44843">
        <ele>389.2</ele>
        <time>2022-07-30T08:15:27Z</time>
      </trkpt>
      <trkpt lat="46.21691" lon="5.44852">
        <ele>389</ele>
        <time>2022-07-30T08:15:28Z</time>
      </trkpt>
      <trkpt lat="46.21703" lon="5.44867">
        <ele>388.2</ele>
        <time>2022-07-30T08:15:30Z</time>
      </trkpt>
      <trkpt lat="46.2171" lon="5.44875">
        <ele>387.6</ele>
        <time>2022-07-30T08:15:31Z</time>
      </trkpt>
      <trkpt lat="46.21717" lon="5.44882">
        <ele>387.2</ele>
        <time>2022-07-30T08:15:32Z</time>
      </trkpt>
      <trkpt lat="46.21732" lon="5.44898">
        <ele>386.4</ele>
        <time>2022-07-30T08:15:34Z</time>
      </trkpt>
      <trkpt lat="46.21747" lon="5.44916">
        <ele>385.2</ele>
        <time>2022-07-30T08:15:36Z</time>
      </trkpt>
      <trkpt lat="46.21761" lon="5.44934">
        <ele>384.2</ele>
        <time>2022-07-30T08:15:38Z</time>
      </trkpt>
      <trkpt lat="46.21781" lon="5.44962">
        <ele>383</ele>
        <time>2022-07-30T08:15:41Z</time>
      </trkpt>
      <trkpt lat="46.21802" lon="5.4499">
        <ele>381.8</ele>
        <time>2022-07-30T08:15:44Z</time>
      </trkpt>
      <trkpt lat="46.21821" lon="5.45017">
        <ele>380.8</ele>
        <time>2022-07-30T08:15:47Z</time>
      </trkpt>
      <trkpt lat="46.21829" lon="5.45029">
        <ele>380.4</ele>
        <time>2022-07-30T08:15:48Z</time>
      </trkpt>
      <trkpt lat="46.21844" lon="5.45049">
        <ele>379.4</ele>
        <time>2022-07-30T08:15:50Z</time>
      </trkpt>
      <trkpt lat="46.21866" lon="5.45078">
        <ele>378.2</ele>
        <time>2022-07-30T08:15:53Z</time>
      </trkpt>
      <trkpt lat="46.2188" lon="5.45096">
        <ele>377.6</ele>
        <time>2022-07-30T08:15:55Z</time>
      </trkpt>
      <trkpt lat="46.21895" lon="5.45113">
        <ele>377</ele>
        <time>2022-07-30T08:15:57Z</time>
      </trkpt>
      <trkpt lat="46.21919" lon="5.45138">
        <ele>375.8</ele>
        <time>2022-07-30T08:16:00Z</time>
      </trkpt>
      <trkpt lat="46.21926" lon="5.45146">
        <ele>375.4</ele>
        <time>2022-07-30T08:16:01Z</time>
      </trkpt>
      <trkpt lat="46.21942" lon="5.45164">
        <ele>374.6</ele>
        <time>2022-07-30T08:16:03Z</time>
      </trkpt>
      <trkpt lat="46.21971" lon="5.45203">
        <ele>373.8</ele>
        <time>2022-07-30T08:16:07Z</time>
      </trkpt>
      <trkpt lat="46.21979" lon="5.45212">
        <ele>373.4</ele>
        <time>2022-07-30T08:16:08Z</time>
      </trkpt>
      <trkpt lat="46.21993" lon="5.45225">
        <ele>373</ele>
        <time>2022-07-30T08:16:10Z</time>
      </trkpt>
      <trkpt lat="46.22001" lon="5.45231">
        <ele>372.6</ele>
        <time>2022-07-30T08:16:11Z</time>
      </trkpt>
      <trkpt lat="46.22009" lon="5.45239">
        <ele>372.6</ele>
        <time>2022-07-30T08:16:12Z</time>
      </trkpt>
      <trkpt lat="46.22017" lon="5.45247">
        <ele>372</ele>
        <time>2022-07-30T08:16:13Z</time>
      </trkpt>
      <trkpt lat="46.22024" lon="5.45256">
        <ele>371.8</ele>
        <time>2022-07-30T08:16:14Z</time>
      </trkpt>
      <trkpt lat="46.22037" lon="5.45277">
        <ele>370.4</ele>
        <time>2022-07-30T08:16:16Z</time>
      </trkpt>
      <trkpt lat="46.22048" lon="5.45301">
        <ele>370</ele>
        <time>2022-07-30T08:16:18Z</time>
      </trkpt>
      <trkpt lat="46.22053" lon="5.45314">
        <ele>370</ele>
        <time>2022-07-30T08:16:19Z</time>
      </trkpt>
      <trkpt lat="46.22056" lon="5.45328">
        <ele>369.6</ele>
        <time>2022-07-30T08:16:20Z</time>
      </trkpt>
      <trkpt lat="46.22058" lon="5.45355">
        <ele>369.2</ele>
        <time>2022-07-30T08:16:22Z</time>
      </trkpt>
      <trkpt lat="46.22055" lon="5.45408">
        <ele>368.4</ele>
        <time>2022-07-30T08:16:26Z</time>
      </trkpt>
      <trkpt lat="46.22052" lon="5.4542">
        <ele>368.2</ele>
        <time>2022-07-30T08:16:27Z</time>
      </trkpt>
      <trkpt lat="46.22045" lon="5.45443">
        <ele>368.2</ele>
        <time>2022-07-30T08:16:29Z</time>
      </trkpt>
      <trkpt lat="46.22044" lon="5.45455">
        <ele>368.2</ele>
        <time>2022-07-30T08:16:30Z</time>
      </trkpt>
      <trkpt lat="46.22043" lon="5.45467">
        <ele>368</ele>
        <time>2022-07-30T08:16:31Z</time>
      </trkpt>
      <trkpt lat="46.22039" lon="5.45527">
        <ele>368.4</ele>
        <time>2022-07-30T08:16:36Z</time>
      </trkpt>
      <trkpt lat="46.22038" lon="5.45538">
        <ele>368.4</ele>
        <time>2022-07-30T08:16:37Z</time>
      </trkpt>
      <trkpt lat="46.22028" lon="5.45569">
        <ele>368.2</ele>
        <time>2022-07-30T08:16:40Z</time>
      </trkpt>
      <trkpt lat="46.22006" lon="5.45631">
        <ele>369</ele>
        <time>2022-07-30T08:16:46Z</time>
      </trkpt>
      <trkpt lat="46.21981" lon="5.45673">
        <ele>368.8</ele>
        <time>2022-07-30T08:16:51Z</time>
      </trkpt>
      <trkpt lat="46.21964" lon="5.45722">
        <ele>368.8</ele>
        <time>2022-07-30T08:16:56Z</time>
      </trkpt>
      <trkpt lat="46.2196" lon="5.4576">
        <ele>368.8</ele>
        <time>2022-07-30T08:17:00Z</time>
      </trkpt>
      <trkpt lat="46.21961" lon="5.4578">
        <ele>368.8</ele>
        <time>2022-07-30T08:17:02Z</time>
      </trkpt>
      <trkpt lat="46.21967" lon="5.45799">
        <ele>368.6</ele>
        <time>2022-07-30T08:17:04Z</time>
      </trkpt>
      <trkpt lat="46.21991" lon="5.45848">
        <ele>367.4</ele>
        <time>2022-07-30T08:17:09Z</time>
      </trkpt>
      <trkpt lat="46.21994" lon="5.45858">
        <ele>367.2</ele>
        <time>2022-07-30T08:17:10Z</time>
      </trkpt>
      <trkpt lat="46.21999" lon="5.45867">
        <ele>366.6</ele>
        <time>2022-07-30T08:17:11Z</time>
      </trkpt>
      <trkpt lat="46.22012" lon="5.45878">
        <ele>366</ele>
        <time>2022-07-30T08:17:13Z</time>
      </trkpt>
      <trkpt lat="46.2203" lon="5.45881">
        <ele>365.8</ele>
        <time>2022-07-30T08:17:16Z</time>
      </trkpt>
      <trkpt lat="46.22036" lon="5.45883">
        <ele>365.8</ele>
        <time>2022-07-30T08:17:17Z</time>
      </trkpt>
      <trkpt lat="46.2205" lon="5.45895">
        <ele>366</ele>
        <time>2022-07-30T08:17:20Z</time>
      </trkpt>
      <trkpt lat="46.22069" lon="5.45917">
        <ele>367.6</ele>
        <time>2022-07-30T08:17:25Z</time>
      </trkpt>
      <trkpt lat="46.22072" lon="5.4592">
        <ele>368</ele>
        <time>2022-07-30T08:17:26Z</time>
      </trkpt>
      <trkpt lat="46.22075" lon="5.45922">
        <ele>368</ele>
        <time>2022-07-30T08:17:27Z</time>
      </trkpt>
      <trkpt lat="46.22084" lon="5.45928">
        <ele>369</ele>
        <time>2022-07-30T08:17:29Z</time>
      </trkpt>
      <trkpt lat="46.22097" lon="5.45929">
        <ele>370.2</ele>
        <time>2022-07-30T08:17:32Z</time>
      </trkpt>
      <trkpt lat="46.22101" lon="5.45929">
        <ele>371</ele>
        <time>2022-07-30T08:17:33Z</time>
      </trkpt>
      <trkpt lat="46.22108" lon="5.45927">
        <ele>371.4</ele>
        <time>2022-07-30T08:17:35Z</time>
      </trkpt>
      <trkpt lat="46.22117" lon="5.45919">
        <ele>372</ele>
        <time>2022-07-30T08:17:38Z</time>
      </trkpt>
      <trkpt lat="46.22123" lon="5.45907">
        <ele>372.6</ele>
        <time>2022-07-30T08:17:40Z</time>
      </trkpt>
      <trkpt lat="46.22129" lon="5.45891">
        <ele>373.6</ele>
        <time>2022-07-30T08:17:43Z</time>
      </trkpt>
      <trkpt lat="46.22139" lon="5.45879">
        <ele>374.8</ele>
        <time>2022-07-30T08:17:47Z</time>
      </trkpt>
      <trkpt lat="46.22142" lon="5.45877">
        <ele>375</ele>
        <time>2022-07-30T08:17:48Z</time>
      </trkpt>
      <trkpt lat="46.22154" lon="5.45881">
        <ele>375.4</ele>
        <time>2022-07-30T08:17:52Z</time>
      </trkpt>
      <trkpt lat="46.22159" lon="5.45887">
        <ele>375.8</ele>
        <time>2022-07-30T08:17:54Z</time>
      </trkpt>
      <trkpt lat="46.22163" lon="5.45899">
        <ele>376.6</ele>
        <time>2022-07-30T08:17:57Z</time>
      </trkpt>
      <trkpt lat="46.22166" lon="5.45907">
        <ele>376.8</ele>
        <time>2022-07-30T08:17:59Z</time>
      </trkpt>
      <trkpt lat="46.22173" lon="5.45928">
        <ele>378</ele>
        <time>2022-07-30T08:18:04Z</time>
      </trkpt>
      <trkpt lat="46.22174" lon="5.45933">
        <ele>378.2</ele>
        <time>2022-07-30T08:18:05Z</time>
      </trkpt>
      <trkpt lat="46.22179" lon="5.45951">
        <ele>379</ele>
        <time>2022-07-30T08:18:09Z</time>
      </trkpt>
      <trkpt lat="46.22183" lon="5.45965">
        <ele>379.6</ele>
        <time>2022-07-30T08:18:12Z</time>
      </trkpt>
      <trkpt lat="46.22185" lon="5.45974">
        <ele>380</ele>
        <time>2022-07-30T08:18:14Z</time>
      </trkpt>
      <trkpt lat="46.22188" lon="5.45992">
        <ele>381</ele>
        <time>2022-07-30T08:18:18Z</time>
      </trkpt>
      <trkpt lat="46.22189" lon="5.45996">
        <ele>381.2</ele>
        <time>2022-07-30T08:18:19Z</time>
      </trkpt>
      <trkpt lat="46.22194" lon="5.46017">
        <ele>382</ele>
        <time>2022-07-30T08:18:23Z</time>
      </trkpt>
      <trkpt lat="46.22195" lon="5.46022">
        <ele>382.2</ele>
        <time>2022-07-30T08:18:24Z</time>
      </trkpt>
      <trkpt lat="46.22199" lon="5.4604">
        <ele>383.2</ele>
        <time>2022-07-30T08:18:28Z</time>
      </trkpt>
      <trkpt lat="46.22201" lon="5.46056">
        <ele>384</ele>
        <time>2022-07-30T08:18:31Z</time>
      </trkpt>
      <trkpt lat="46.22201" lon="5.46066">
        <ele>384.2</ele>
        <time>2022-07-30T08:18:33Z</time>
      </trkpt>
      <trkpt lat="46.22204" lon="5.46093">
        <ele>385.4</ele>
        <time>2022-07-30T08:18:38Z</time>
      </trkpt>
      <trkpt lat="46.22204" lon="5.46098">
        <ele>385.4</ele>
        <time>2022-07-30T08:18:39Z</time>
      </trkpt>
      <trkpt lat="46.22203" lon="5.46123">
        <ele>386.4</ele>
        <time>2022-07-30T08:18:44Z</time>
      </trkpt>
      <trkpt lat="46.22203" lon="5.46128">
        <ele>386.8</ele>
        <time>2022-07-30T08:18:45Z</time>
      </trkpt>
      <trkpt lat="46.222" lon="5.46158">
        <ele>387.8</ele>
        <time>2022-07-30T08:18:51Z</time>
      </trkpt>
      <trkpt lat="46.22199" lon="5.46167">
        <ele>388.2</ele>
        <time>2022-07-30T08:18:53Z</time>
      </trkpt>
      <trkpt lat="46.22201" lon="5.46182">
        <ele>388.8</ele>
        <time>2022-07-30T08:18:56Z</time>
      </trkpt>
      <trkpt lat="46.22204" lon="5.46191">
        <ele>389</ele>
        <time>2022-07-30T08:18:58Z</time>
      </trkpt>
      <trkpt lat="46.22215" lon="5.46214">
        <ele>390</ele>
        <time>2022-07-30T08:19:04Z</time>
      </trkpt>
      <trkpt lat="46.22218" lon="5.46218">
        <ele>390.4</ele>
        <time>2022-07-30T08:19:05Z</time>
      </trkpt>
      <trkpt lat="46.22226" lon="5.4623">
        <ele>391.2</ele>
        <time>2022-07-30T08:19:08Z</time>
      </trkpt>
      <trkpt lat="46.22237" lon="5.46245">
        <ele>392.4</ele>
        <time>2022-07-30T08:19:12Z</time>
      </trkpt>
      <trkpt lat="46.22245" lon="5.46255">
        <ele>392.8</ele>
        <time>2022-07-30T08:19:15Z</time>
      </trkpt>
      <trkpt lat="46.22254" lon="5.46264">
        <ele>393.4</ele>
        <time>2022-07-30T08:19:18Z</time>
      </trkpt>
      <trkpt lat="46.2226" lon="5.4627">
        <ele>393.6</ele>
        <time>2022-07-30T08:19:20Z</time>
      </trkpt>
      <trkpt lat="46.22275" lon="5.46291">
        <ele>394.4</ele>
        <time>2022-07-30T08:19:26Z</time>
      </trkpt>
      <trkpt lat="46.2228" lon="5.46298">
        <ele>395</ele>
        <time>2022-07-30T08:19:28Z</time>
      </trkpt>
      <trkpt lat="46.22283" lon="5.46301">
        <ele>395.6</ele>
        <time>2022-07-30T08:19:29Z</time>
      </trkpt>
      <trkpt lat="46.22289" lon="5.46312">
        <ele>396.8</ele>
        <time>2022-07-30T08:19:32Z</time>
      </trkpt>
      <trkpt lat="46.22294" lon="5.46319">
        <ele>397.4</ele>
        <time>2022-07-30T08:19:34Z</time>
      </trkpt>
      <trkpt lat="46.22298" lon="5.46326">
        <ele>397.8</ele>
        <time>2022-07-30T08:19:36Z</time>
      </trkpt>
      <trkpt lat="46.22307" lon="5.46339">
        <ele>398.4</ele>
        <time>2022-07-30T08:19:40Z</time>
      </trkpt>
      <trkpt lat="46.22311" lon="5.46345">
        <ele>398.8</ele>
        <time>2022-07-30T08:19:42Z</time>
      </trkpt>
      <trkpt lat="46.22322" lon="5.46361">
        <ele>400.4</ele>
        <time>2022-07-30T08:19:47Z</time>
      </trkpt>
      <trkpt lat="46.22324" lon="5.46364">
        <ele>400.8</ele>
        <time>2022-07-30T08:19:48Z</time>
      </trkpt>
      <trkpt lat="46.22333" lon="5.46373">
        <ele>401.4</ele>
        <time>2022-07-30T08:19:51Z</time>
      </trkpt>
      <trkpt lat="46.22341" lon="5.46382">
        <ele>401.8</ele>
        <time>2022-07-30T08:19:54Z</time>
      </trkpt>
      <trkpt lat="46.2235" lon="5.46391">
        <ele>402.6</ele>
        <time>2022-07-30T08:19:57Z</time>
      </trkpt>
      <trkpt lat="46.2236" lon="5.46402">
        <ele>403.6</ele>
        <time>2022-07-30T08:20:01Z</time>
      </trkpt>
      <trkpt lat="46.22363" lon="5.46405">
        <ele>403.8</ele>
        <time>2022-07-30T08:20:02Z</time>
      </trkpt>
      <trkpt lat="46.22379" lon="5.46422">
        <ele>405.2</ele>
        <time>2022-07-30T08:20:08Z</time>
      </trkpt>
      <trkpt lat="46.22387" lon="5.46431">
        <ele>406.2</ele>
        <time>2022-07-30T08:20:11Z</time>
      </trkpt>
      <trkpt lat="46.22408" lon="5.46457">
        <ele>407</ele>
        <time>2022-07-30T08:20:19Z</time>
      </trkpt>
      <trkpt lat="46.22413" lon="5.46463">
        <ele>407.2</ele>
        <time>2022-07-30T08:20:21Z</time>
      </trkpt>
      <trkpt lat="46.22424" lon="5.46478">
        <ele>408.4</ele>
        <time>2022-07-30T08:20:25Z</time>
      </trkpt>
      <trkpt lat="46.22426" lon="5.46482">
        <ele>408.2</ele>
        <time>2022-07-30T08:20:26Z</time>
      </trkpt>
      <trkpt lat="46.22443" lon="5.46496">
        <ele>408.8</ele>
        <time>2022-07-30T08:20:31Z</time>
      </trkpt>
      <trkpt lat="46.22447" lon="5.46498">
        <ele>408.8</ele>
        <time>2022-07-30T08:20:32Z</time>
      </trkpt>
      <trkpt lat="46.2247" lon="5.46509">
        <ele>409.2</ele>
        <time>2022-07-30T08:20:37Z</time>
      </trkpt>
      <trkpt lat="46.22475" lon="5.46511">
        <ele>409.2</ele>
        <time>2022-07-30T08:20:38Z</time>
      </trkpt>
      <trkpt lat="46.22509" lon="5.46527">
        <ele>410</ele>
        <time>2022-07-30T08:20:45Z</time>
      </trkpt>
      <trkpt lat="46.22519" lon="5.46534">
        <ele>410.2</ele>
        <time>2022-07-30T08:20:47Z</time>
      </trkpt>
      <trkpt lat="46.22542" lon="5.46554">
        <ele>410.6</ele>
        <time>2022-07-30T08:20:52Z</time>
      </trkpt>
      <trkpt lat="46.22546" lon="5.46559">
        <ele>410.8</ele>
        <time>2022-07-30T08:20:53Z</time>
      </trkpt>
      <trkpt lat="46.22557" lon="5.46571">
        <ele>411.2</ele>
        <time>2022-07-30T08:20:56Z</time>
      </trkpt>
      <trkpt lat="46.2256" lon="5.46576">
        <ele>411.2</ele>
        <time>2022-07-30T08:20:57Z</time>
      </trkpt>
      <trkpt lat="46.22577" lon="5.46596">
        <ele>411.6</ele>
        <time>2022-07-30T08:21:02Z</time>
      </trkpt>
      <trkpt lat="46.2259" lon="5.46612">
        <ele>412.6</ele>
        <time>2022-07-30T08:21:06Z</time>
      </trkpt>
      <trkpt lat="46.22595" lon="5.46616">
        <ele>413</ele>
        <time>2022-07-30T08:21:07Z</time>
      </trkpt>
      <trkpt lat="46.22607" lon="5.46626">
        <ele>413.6</ele>
        <time>2022-07-30T08:21:10Z</time>
      </trkpt>
      <trkpt lat="46.22621" lon="5.46638">
        <ele>414.4</ele>
        <time>2022-07-30T08:21:13Z</time>
      </trkpt>
      <trkpt lat="46.22626" lon="5.46642">
        <ele>414.6</ele>
        <time>2022-07-30T08:21:14Z</time>
      </trkpt>
      <trkpt lat="46.22643" lon="5.46653">
        <ele>414.8</ele>
        <time>2022-07-30T08:21:17Z</time>
      </trkpt>
      <trkpt lat="46.22653" lon="5.4666">
        <ele>415.2</ele>
        <time>2022-07-30T08:21:19Z</time>
      </trkpt>
      <trkpt lat="46.2267" lon="5.46672">
        <ele>415.6</ele>
        <time>2022-07-30T08:21:23Z</time>
      </trkpt>
      <trkpt lat="46.22679" lon="5.46678">
        <ele>416</ele>
        <time>2022-07-30T08:21:25Z</time>
      </trkpt>
      <trkpt lat="46.22689" lon="5.46684">
        <ele>416.4</ele>
        <time>2022-07-30T08:21:27Z</time>
      </trkpt>
      <trkpt lat="46.22693" lon="5.46688">
        <ele>416.8</ele>
        <time>2022-07-30T08:21:28Z</time>
      </trkpt>
      <trkpt lat="46.22721" lon="5.46707">
        <ele>418</ele>
        <time>2022-07-30T08:21:35Z</time>
      </trkpt>
      <trkpt lat="46.2275" lon="5.46727">
        <ele>419</ele>
        <time>2022-07-30T08:21:42Z</time>
      </trkpt>
      <trkpt lat="46.22754" lon="5.46729">
        <ele>419.2</ele>
        <time>2022-07-30T08:21:43Z</time>
      </trkpt>
      <trkpt lat="46.22776" lon="5.46743">
        <ele>420.4</ele>
        <time>2022-07-30T08:21:49Z</time>
      </trkpt>
      <trkpt lat="46.2279" lon="5.4675">
        <ele>421.6</ele>
        <time>2022-07-30T08:21:53Z</time>
      </trkpt>
      <trkpt lat="46.22809" lon="5.46759">
        <ele>422.6</ele>
        <time>2022-07-30T08:21:58Z</time>
      </trkpt>
      <trkpt lat="46.2283" lon="5.46771">
        <ele>423.6</ele>
        <time>2022-07-30T08:22:04Z</time>
      </trkpt>
      <trkpt lat="46.22837" lon="5.46774">
        <ele>423.8</ele>
        <time>2022-07-30T08:22:06Z</time>
      </trkpt>
      <trkpt lat="46.22847" lon="5.46781">
        <ele>425</ele>
        <time>2022-07-30T08:22:10Z</time>
      </trkpt>
      <trkpt lat="46.22854" lon="5.46786">
        <ele>425.4</ele>
        <time>2022-07-30T08:22:12Z</time>
      </trkpt>
      <trkpt lat="46.2286" lon="5.46792">
        <ele>426</ele>
        <time>2022-07-30T08:22:14Z</time>
      </trkpt>
      <trkpt lat="46.22874" lon="5.46805">
        <ele>427.2</ele>
        <time>2022-07-30T08:22:19Z</time>
      </trkpt>
      <trkpt lat="46.22892" lon="5.46824">
        <ele>428.6</ele>
        <time>2022-07-30T08:22:26Z</time>
      </trkpt>
      <trkpt lat="46.22899" lon="5.46834">
        <ele>429</ele>
        <time>2022-07-30T08:22:29Z</time>
      </trkpt>
      <trkpt lat="46.22906" lon="5.46845">
        <ele>429.6</ele>
        <time>2022-07-30T08:22:32Z</time>
      </trkpt>
      <trkpt lat="46.22915" lon="5.4686">
        <ele>430.4</ele>
        <time>2022-07-30T08:22:36Z</time>
      </trkpt>
      <trkpt lat="46.22919" lon="5.46867">
        <ele>430.8</ele>
        <time>2022-07-30T08:22:38Z</time>
      </trkpt>
      <trkpt lat="46.22931" lon="5.46891">
        <ele>432.2</ele>
        <time>2022-07-30T08:22:44Z</time>
      </trkpt>
      <trkpt lat="46.22935" lon="5.46898">
        <ele>432.8</ele>
        <time>2022-07-30T08:22:46Z</time>
      </trkpt>
      <trkpt lat="46.22937" lon="5.46902">
        <ele>433.2</ele>
        <time>2022-07-30T08:22:47Z</time>
      </trkpt>
      <trkpt lat="46.22951" lon="5.46932">
        <ele>434.4</ele>
        <time>2022-07-30T08:22:54Z</time>
      </trkpt>
      <trkpt lat="46.22953" lon="5.46936">
        <ele>434.4</ele>
        <time>2022-07-30T08:22:55Z</time>
      </trkpt>
      <trkpt lat="46.22966" lon="5.46959">
        <ele>435.4</ele>
        <time>2022-07-30T08:23:01Z</time>
      </trkpt>
      <trkpt lat="46.22976" lon="5.46972">
        <ele>435.8</ele>
        <time>2022-07-30T08:23:05Z</time>
      </trkpt>
      <trkpt lat="46.22983" lon="5.46981">
        <ele>436.8</ele>
        <time>2022-07-30T08:23:08Z</time>
      </trkpt>
      <trkpt lat="46.22994" lon="5.46994">
        <ele>437.8</ele>
        <time>2022-07-30T08:23:12Z</time>
      </trkpt>
      <trkpt lat="46.23006" lon="5.47005">
        <ele>438.4</ele>
        <time>2022-07-30T08:23:16Z</time>
      </trkpt>
      <trkpt lat="46.23014" lon="5.47012">
        <ele>439</ele>
        <time>2022-07-30T08:23:19Z</time>
      </trkpt>
      <trkpt lat="46.23023" lon="5.47018">
        <ele>440.2</ele>
        <time>2022-07-30T08:23:22Z</time>
      </trkpt>
      <trkpt lat="46.23032" lon="5.47022">
        <ele>440.8</ele>
        <time>2022-07-30T08:23:25Z</time>
      </trkpt>
      <trkpt lat="46.23039" lon="5.47023">
        <ele>441.4</ele>
        <time>2022-07-30T08:23:27Z</time>
      </trkpt>
      <trkpt lat="46.23052" lon="5.47027">
        <ele>442.6</ele>
        <time>2022-07-30T08:23:31Z</time>
      </trkpt>
      <trkpt lat="46.23061" lon="5.47033">
        <ele>443.2</ele>
        <time>2022-07-30T08:23:34Z</time>
      </trkpt>
      <trkpt lat="46.23067" lon="5.47039">
        <ele>443.8</ele>
        <time>2022-07-30T08:23:36Z</time>
      </trkpt>
      <trkpt lat="46.23072" lon="5.47045">
        <ele>444.2</ele>
        <time>2022-07-30T08:23:38Z</time>
      </trkpt>
      <trkpt lat="46.23077" lon="5.47056">
        <ele>444.8</ele>
        <time>2022-07-30T08:23:41Z</time>
      </trkpt>
      <trkpt lat="46.23086" lon="5.47082">
        <ele>446</ele>
        <time>2022-07-30T08:23:47Z</time>
      </trkpt>
      <trkpt lat="46.23088" lon="5.47091">
        <ele>446.4</ele>
        <time>2022-07-30T08:23:49Z</time>
      </trkpt>
      <trkpt lat="46.23092" lon="5.47104">
        <ele>447.2</ele>
        <time>2022-07-30T08:23:52Z</time>
      </trkpt>
      <trkpt lat="46.23098" lon="5.47126">
        <ele>448.2</ele>
        <time>2022-07-30T08:23:57Z</time>
      </trkpt>
      <trkpt lat="46.23099" lon="5.4713">
        <ele>448.2</ele>
        <time>2022-07-30T08:23:58Z</time>
      </trkpt>
      <trkpt lat="46.23103" lon="5.47141">
        <ele>449.4</ele>
        <time>2022-07-30T08:24:01Z</time>
      </trkpt>
      <trkpt lat="46.23105" lon="5.47145">
        <ele>449.6</ele>
        <time>2022-07-30T08:24:02Z</time>
      </trkpt>
      <trkpt lat="46.2311" lon="5.47157">
        <ele>450.2</ele>
        <time>2022-07-30T08:24:05Z</time>
      </trkpt>
      <trkpt lat="46.23118" lon="5.47173">
        <ele>451.4</ele>
        <time>2022-07-30T08:24:09Z</time>
      </trkpt>
      <trkpt lat="46.23121" lon="5.47178">
        <ele>451.6</ele>
        <time>2022-07-30T08:24:10Z</time>
      </trkpt>
      <trkpt lat="46.23132" lon="5.47201">
        <ele>452.4</ele>
        <time>2022-07-30T08:24:15Z</time>
      </trkpt>
      <trkpt lat="46.23139" lon="5.47219">
        <ele>453.6</ele>
        <time>2022-07-30T08:24:19Z</time>
      </trkpt>
      <trkpt lat="46.23141" lon="5.4723">
        <ele>454.2</ele>
        <time>2022-07-30T08:24:21Z</time>
      </trkpt>
      <trkpt lat="46.23142" lon="5.47241">
        <ele>454.6</ele>
        <time>2022-07-30T08:24:23Z</time>
      </trkpt>
      <trkpt lat="46.23143" lon="5.47248">
        <ele>454.8</ele>
        <time>2022-07-30T08:24:24Z</time>
      </trkpt>
      <trkpt lat="46.23144" lon="5.47279">
        <ele>455.8</ele>
        <time>2022-07-30T08:24:29Z</time>
      </trkpt>
      <trkpt lat="46.23144" lon="5.47285">
        <ele>456</ele>
        <time>2022-07-30T08:24:30Z</time>
      </trkpt>
      <trkpt lat="46.23147" lon="5.47312">
        <ele>456.6</ele>
        <time>2022-07-30T08:24:35Z</time>
      </trkpt>
      <trkpt lat="46.23148" lon="5.47318">
        <ele>457</ele>
        <time>2022-07-30T08:24:36Z</time>
      </trkpt>
      <trkpt lat="46.23155" lon="5.47337">
        <ele>457.8</ele>
        <time>2022-07-30T08:24:40Z</time>
      </trkpt>
      <trkpt lat="46.23157" lon="5.47341">
        <ele>458</ele>
        <time>2022-07-30T08:24:41Z</time>
      </trkpt>
      <trkpt lat="46.23175" lon="5.47362">
        <ele>459.2</ele>
        <time>2022-07-30T08:24:47Z</time>
      </trkpt>
      <trkpt lat="46.232" lon="5.47382">
        <ele>460</ele>
        <time>2022-07-30T08:24:53Z</time>
      </trkpt>
      <trkpt lat="46.23205" lon="5.47386">
        <ele>460</ele>
        <time>2022-07-30T08:24:54Z</time>
      </trkpt>
      <trkpt lat="46.23209" lon="5.4739">
        <ele>460.2</ele>
        <time>2022-07-30T08:24:55Z</time>
      </trkpt>
      <trkpt lat="46.23218" lon="5.474">
        <ele>460.2</ele>
        <time>2022-07-30T08:24:57Z</time>
      </trkpt>
      <trkpt lat="46.23222" lon="5.47405">
        <ele>460.2</ele>
        <time>2022-07-30T08:24:58Z</time>
      </trkpt>
      <trkpt lat="46.23237" lon="5.47419">
        <ele>460.2</ele>
        <time>2022-07-30T08:25:01Z</time>
      </trkpt>
      <trkpt lat="46.23248" lon="5.47424">
        <ele>460.2</ele>
        <time>2022-07-30T08:25:03Z</time>
      </trkpt>
      <trkpt lat="46.2326" lon="5.47423">
        <ele>460</ele>
        <time>2022-07-30T08:25:05Z</time>
      </trkpt>
      <trkpt lat="46.23266" lon="5.47419">
        <ele>460</ele>
        <time>2022-07-30T08:25:06Z</time>
      </trkpt>
      <trkpt lat="46.23271" lon="5.47414">
        <ele>460</ele>
        <time>2022-07-30T08:25:07Z</time>
      </trkpt>
      <trkpt lat="46.23279" lon="5.47398">
        <ele>460</ele>
        <time>2022-07-30T08:25:09Z</time>
      </trkpt>
      <trkpt lat="46.23288" lon="5.4736">
        <ele>459.8</ele>
        <time>2022-07-30T08:25:13Z</time>
      </trkpt>
      <trkpt lat="46.23296" lon="5.47321">
        <ele>459.4</ele>
        <time>2022-07-30T08:25:17Z</time>
      </trkpt>
      <trkpt lat="46.23298" lon="5.47312">
        <ele>459</ele>
        <time>2022-07-30T08:25:18Z</time>
      </trkpt>
      <trkpt lat="46.23302" lon="5.47303">
        <ele>459</ele>
        <time>2022-07-30T08:25:19Z</time>
      </trkpt>
      <trkpt lat="46.23311" lon="5.47289">
        <ele>458.8</ele>
        <time>2022-07-30T08:25:21Z</time>
      </trkpt>
      <trkpt lat="46.23334" lon="5.47272">
        <ele>458.8</ele>
        <time>2022-07-30T08:25:25Z</time>
      </trkpt>
      <trkpt lat="46.23347" lon="5.47265">
        <ele>458.8</ele>
        <time>2022-07-30T08:25:27Z</time>
      </trkpt>
      <trkpt lat="46.23361" lon="5.47263">
        <ele>458.8</ele>
        <time>2022-07-30T08:25:29Z</time>
      </trkpt>
      <trkpt lat="46.23367" lon="5.47264">
        <ele>458.8</ele>
        <time>2022-07-30T08:25:30Z</time>
      </trkpt>
      <trkpt lat="46.23406" lon="5.47269">
        <ele>459.2</ele>
        <time>2022-07-30T08:25:36Z</time>
      </trkpt>
      <trkpt lat="46.23418" lon="5.47276">
        <ele>459.6</ele>
        <time>2022-07-30T08:25:38Z</time>
      </trkpt>
      <trkpt lat="46.23424" lon="5.47279">
        <ele>459.8</ele>
        <time>2022-07-30T08:25:39Z</time>
      </trkpt>
      <trkpt lat="46.23429" lon="5.47284">
        <ele>460</ele>
        <time>2022-07-30T08:25:40Z</time>
      </trkpt>
      <trkpt lat="46.23434" lon="5.47289">
        <ele>460.2</ele>
        <time>2022-07-30T08:25:41Z</time>
      </trkpt>
      <trkpt lat="46.23439" lon="5.47295">
        <ele>460.4</ele>
        <time>2022-07-30T08:25:42Z</time>
      </trkpt>
      <trkpt lat="46.23475" lon="5.47335">
        <ele>460.4</ele>
        <time>2022-07-30T08:25:49Z</time>
      </trkpt>
      <trkpt lat="46.2348" lon="5.47339">
        <ele>460.4</ele>
        <time>2022-07-30T08:25:50Z</time>
      </trkpt>
      <trkpt lat="46.23497" lon="5.47349">
        <ele>460.2</ele>
        <time>2022-07-30T08:25:53Z</time>
      </trkpt>
      <trkpt lat="46.23503" lon="5.4735">
        <ele>460.2</ele>
        <time>2022-07-30T08:25:54Z</time>
      </trkpt>
      <trkpt lat="46.23539" lon="5.47355">
        <ele>460.2</ele>
        <time>2022-07-30T08:26:00Z</time>
      </trkpt>
      <trkpt lat="46.2358" lon="5.47358">
        <ele>460.6</ele>
        <time>2022-07-30T08:26:07Z</time>
      </trkpt>
      <trkpt lat="46.23586" lon="5.47358">
        <ele>460.8</ele>
        <time>2022-07-30T08:26:08Z</time>
      </trkpt>
      <trkpt lat="46.23592" lon="5.47359">
        <ele>461</ele>
        <time>2022-07-30T08:26:09Z</time>
      </trkpt>
      <trkpt lat="46.23616" lon="5.47358">
        <ele>461.6</ele>
        <time>2022-07-30T08:26:13Z</time>
      </trkpt>
      <trkpt lat="46.23651" lon="5.4735">
        <ele>461.8</ele>
        <time>2022-07-30T08:26:19Z</time>
      </trkpt>
      <trkpt lat="46.23668" lon="5.47344">
        <ele>462</ele>
        <time>2022-07-30T08:26:22Z</time>
      </trkpt>
      <trkpt lat="46.23702" lon="5.4733">
        <ele>462.4</ele>
        <time>2022-07-30T08:26:28Z</time>
      </trkpt>
      <trkpt lat="46.2373" lon="5.47322">
        <ele>462.2</ele>
        <time>2022-07-30T08:26:33Z</time>
      </trkpt>
      <trkpt lat="46.23736" lon="5.47322">
        <ele>462.2</ele>
        <time>2022-07-30T08:26:34Z</time>
      </trkpt>
      <trkpt lat="46.23742" lon="5.47323">
        <ele>462</ele>
        <time>2022-07-30T08:26:35Z</time>
      </trkpt>
      <trkpt lat="46.23774" lon="5.47336">
        <ele>461.4</ele>
        <time>2022-07-30T08:26:40Z</time>
      </trkpt>
      <trkpt lat="46.23825" lon="5.47365">
        <ele>461.2</ele>
        <time>2022-07-30T08:26:49Z</time>
      </trkpt>
      <trkpt lat="46.23855" lon="5.47381">
        <ele>462.2</ele>
        <time>2022-07-30T08:26:55Z</time>
      </trkpt>
      <trkpt lat="46.23868" lon="5.47389">
        <ele>462.4</ele>
        <time>2022-07-30T08:26:58Z</time>
      </trkpt>
      <trkpt lat="46.23876" lon="5.47397">
        <ele>462.6</ele>
        <time>2022-07-30T08:27:00Z</time>
      </trkpt>
      <trkpt lat="46.23883" lon="5.47418">
        <ele>462.8</ele>
        <time>2022-07-30T08:27:03Z</time>
      </trkpt>
      <trkpt lat="46.23901" lon="5.47481">
        <ele>462.2</ele>
        <time>2022-07-30T08:27:10Z</time>
      </trkpt>
      <trkpt lat="46.2392" lon="5.47551">
        <ele>461.2</ele>
        <time>2022-07-30T08:27:17Z</time>
      </trkpt>
      <trkpt lat="46.2393" lon="5.47591">
        <ele>460.8</ele>
        <time>2022-07-30T08:27:21Z</time>
      </trkpt>
      <trkpt lat="46.23945" lon="5.47641">
        <ele>459.8</ele>
        <time>2022-07-30T08:27:26Z</time>
      </trkpt>
      <trkpt lat="46.23959" lon="5.47691">
        <ele>458.8</ele>
        <time>2022-07-30T08:27:31Z</time>
      </trkpt>
      <trkpt lat="46.23971" lon="5.47733">
        <ele>458</ele>
        <time>2022-07-30T08:27:35Z</time>
      </trkpt>
      <trkpt lat="46.2398" lon="5.47765">
        <ele>457.6</ele>
        <time>2022-07-30T08:27:38Z</time>
      </trkpt>
      <trkpt lat="46.23986" lon="5.47787">
        <ele>457.2</ele>
        <time>2022-07-30T08:27:40Z</time>
      </trkpt>
      <trkpt lat="46.23992" lon="5.47809">
        <ele>456.4</ele>
        <time>2022-07-30T08:27:42Z</time>
      </trkpt>
      <trkpt lat="46.23998" lon="5.47832">
        <ele>455.4</ele>
        <time>2022-07-30T08:27:44Z</time>
      </trkpt>
      <trkpt lat="46.24001" lon="5.47843">
        <ele>455.2</ele>
        <time>2022-07-30T08:27:45Z</time>
      </trkpt>
      <trkpt lat="46.24017" lon="5.47888">
        <ele>453.8</ele>
        <time>2022-07-30T08:27:49Z</time>
      </trkpt>
      <trkpt lat="46.24022" lon="5.47898">
        <ele>453.6</ele>
        <time>2022-07-30T08:27:50Z</time>
      </trkpt>
      <trkpt lat="46.24039" lon="5.47927">
        <ele>452.8</ele>
        <time>2022-07-30T08:27:53Z</time>
      </trkpt>
      <trkpt lat="46.24058" lon="5.47953">
        <ele>452.2</ele>
        <time>2022-07-30T08:27:56Z</time>
      </trkpt>
      <trkpt lat="46.24077" lon="5.47979">
        <ele>451.6</ele>
        <time>2022-07-30T08:27:59Z</time>
      </trkpt>
      <trkpt lat="46.24103" lon="5.48012">
        <ele>450.6</ele>
        <time>2022-07-30T08:28:03Z</time>
      </trkpt>
      <trkpt lat="46.24116" lon="5.48028">
        <ele>450.2</ele>
        <time>2022-07-30T08:28:05Z</time>
      </trkpt>
      <trkpt lat="46.24134" lon="5.48051">
        <ele>449.4</ele>
        <time>2022-07-30T08:28:08Z</time>
      </trkpt>
      <trkpt lat="46.24156" lon="5.48086">
        <ele>448.6</ele>
        <time>2022-07-30T08:28:12Z</time>
      </trkpt>
      <trkpt lat="46.24172" lon="5.48115">
        <ele>448.2</ele>
        <time>2022-07-30T08:28:15Z</time>
      </trkpt>
      <trkpt lat="46.24183" lon="5.48129">
        <ele>448</ele>
        <time>2022-07-30T08:28:17Z</time>
      </trkpt>
      <trkpt lat="46.24214" lon="5.48157">
        <ele>447</ele>
        <time>2022-07-30T08:28:21Z</time>
      </trkpt>
      <trkpt lat="46.24222" lon="5.48164">
        <ele>446.4</ele>
        <time>2022-07-30T08:28:22Z</time>
      </trkpt>
      <trkpt lat="46.2424" lon="5.48175">
        <ele>445.8</ele>
        <time>2022-07-30T08:28:24Z</time>
      </trkpt>
      <trkpt lat="46.24263" lon="5.48192">
        <ele>444.4</ele>
        <time>2022-07-30T08:28:27Z</time>
      </trkpt>
      <trkpt lat="46.24271" lon="5.48197">
        <ele>444.2</ele>
        <time>2022-07-30T08:28:28Z</time>
      </trkpt>
      <trkpt lat="46.24291" lon="5.48207">
        <ele>444</ele>
        <time>2022-07-30T08:28:31Z</time>
      </trkpt>
      <trkpt lat="46.24298" lon="5.48208">
        <ele>444</ele>
        <time>2022-07-30T08:28:32Z</time>
      </trkpt>
      <trkpt lat="46.2431" lon="5.4821">
        <ele>444.2</ele>
        <time>2022-07-30T08:28:34Z</time>
      </trkpt>
      <trkpt lat="46.24321" lon="5.48212">
        <ele>445.4</ele>
        <time>2022-07-30T08:28:36Z</time>
      </trkpt>
      <trkpt lat="46.24326" lon="5.48214">
        <ele>445.6</ele>
        <time>2022-07-30T08:28:37Z</time>
      </trkpt>
      <trkpt lat="46.24342" lon="5.48219">
        <ele>446.8</ele>
        <time>2022-07-30T08:28:40Z</time>
      </trkpt>
      <trkpt lat="46.24351" lon="5.48228">
        <ele>447.8</ele>
        <time>2022-07-30T08:28:42Z</time>
      </trkpt>
      <trkpt lat="46.24356" lon="5.48234">
        <ele>448</ele>
        <time>2022-07-30T08:28:43Z</time>
      </trkpt>
      <trkpt lat="46.24371" lon="5.48248">
        <ele>448.6</ele>
        <time>2022-07-30T08:28:46Z</time>
      </trkpt>
      <trkpt lat="46.24383" lon="5.48253">
        <ele>449</ele>
        <time>2022-07-30T08:28:48Z</time>
      </trkpt>
      <trkpt lat="46.24394" lon="5.48255">
        <ele>449.2</ele>
        <time>2022-07-30T08:28:50Z</time>
      </trkpt>
      <trkpt lat="46.24411" lon="5.48259">
        <ele>449.4</ele>
        <time>2022-07-30T08:28:53Z</time>
      </trkpt>
      <trkpt lat="46.24422" lon="5.48258">
        <ele>449.6</ele>
        <time>2022-07-30T08:28:55Z</time>
      </trkpt>
      <trkpt lat="46.24439" lon="5.48257">
        <ele>449.8</ele>
        <time>2022-07-30T08:28:58Z</time>
      </trkpt>
      <trkpt lat="46.24475" lon="5.48253">
        <ele>450</ele>
        <time>2022-07-30T08:29:04Z</time>
      </trkpt>
      <trkpt lat="46.2451" lon="5.48249">
        <ele>449.8</ele>
        <time>2022-07-30T08:29:10Z</time>
      </trkpt>
      <trkpt lat="46.24515" lon="5.4825">
        <ele>449.8</ele>
        <time>2022-07-30T08:29:11Z</time>
      </trkpt>
      <trkpt lat="46.24526" lon="5.48252">
        <ele>450</ele>
        <time>2022-07-30T08:29:13Z</time>
      </trkpt>
      <trkpt lat="46.24555" lon="5.48261">
        <ele>450</ele>
        <time>2022-07-30T08:29:18Z</time>
      </trkpt>
      <trkpt lat="46.24567" lon="5.48264">
        <ele>449.8</ele>
        <time>2022-07-30T08:29:20Z</time>
      </trkpt>
      <trkpt lat="46.24581" lon="5.48264">
        <ele>449.6</ele>
        <time>2022-07-30T08:29:22Z</time>
      </trkpt>
      <trkpt lat="46.24614" lon="5.48251">
        <ele>449</ele>
        <time>2022-07-30T08:29:27Z</time>
      </trkpt>
      <trkpt lat="46.24622" lon="5.4825">
        <ele>449</ele>
        <time>2022-07-30T08:29:28Z</time>
      </trkpt>
      <trkpt lat="46.24665" lon="5.48257">
        <ele>448.2</ele>
        <time>2022-07-30T08:29:34Z</time>
      </trkpt>
      <trkpt lat="46.24717" lon="5.48274">
        <ele>448.4</ele>
        <time>2022-07-30T08:29:42Z</time>
      </trkpt>
      <trkpt lat="46.24774" lon="5.48287">
        <ele>448.2</ele>
        <time>2022-07-30T08:29:51Z</time>
      </trkpt>
      <trkpt lat="46.24832" lon="5.483">
        <ele>448.6</ele>
        <time>2022-07-30T08:30:00Z</time>
      </trkpt>
      <trkpt lat="46.24838" lon="5.48301">
        <ele>448.6</ele>
        <time>2022-07-30T08:30:01Z</time>
      </trkpt>
      <trkpt lat="46.24894" lon="5.48318">
        <ele>449.4</ele>
        <time>2022-07-30T08:30:10Z</time>
      </trkpt>
      <trkpt lat="46.249" lon="5.4832">
        <ele>449.4</ele>
        <time>2022-07-30T08:30:11Z</time>
      </trkpt>
      <trkpt lat="46.24958" lon="5.48338">
        <ele>449.4</ele>
        <time>2022-07-30T08:30:21Z</time>
      </trkpt>
      <trkpt lat="46.2501" lon="5.48354">
        <ele>450</ele>
        <time>2022-07-30T08:30:30Z</time>
      </trkpt>
      <trkpt lat="46.25056" lon="5.48367">
        <ele>450.4</ele>
        <time>2022-07-30T08:30:38Z</time>
      </trkpt>
      <trkpt lat="46.25067" lon="5.4837">
        <ele>450.4</ele>
        <time>2022-07-30T08:30:40Z</time>
      </trkpt>
      <trkpt lat="46.251" lon="5.4838">
        <ele>450.6</ele>
        <time>2022-07-30T08:30:46Z</time>
      </trkpt>
      <trkpt lat="46.25145" lon="5.48391">
        <ele>451</ele>
        <time>2022-07-30T08:30:54Z</time>
      </trkpt>
      <trkpt lat="46.25155" lon="5.48394">
        <ele>451</ele>
        <time>2022-07-30T08:30:56Z</time>
      </trkpt>
      <trkpt lat="46.25195" lon="5.48409">
        <ele>451.2</ele>
        <time>2022-07-30T08:31:03Z</time>
      </trkpt>
      <trkpt lat="46.25229" lon="5.4843">
        <ele>452</ele>
        <time>2022-07-30T08:31:10Z</time>
      </trkpt>
      <trkpt lat="46.25238" lon="5.48437">
        <ele>452.2</ele>
        <time>2022-07-30T08:31:12Z</time>
      </trkpt>
      <trkpt lat="46.25277" lon="5.48467">
        <ele>453</ele>
        <time>2022-07-30T08:31:20Z</time>
      </trkpt>
      <trkpt lat="46.25286" lon="5.48475">
        <ele>453.2</ele>
        <time>2022-07-30T08:31:22Z</time>
      </trkpt>
      <trkpt lat="46.25322" lon="5.48513">
        <ele>453.4</ele>
        <time>2022-07-30T08:31:30Z</time>
      </trkpt>
      <trkpt lat="46.25348" lon="5.48542">
        <ele>454.4</ele>
        <time>2022-07-30T08:31:36Z</time>
      </trkpt>
      <trkpt lat="46.2536" lon="5.48554">
        <ele>454.6</ele>
        <time>2022-07-30T08:31:39Z</time>
      </trkpt>
      <trkpt lat="46.25393" lon="5.48582">
        <ele>455</ele>
        <time>2022-07-30T08:31:46Z</time>
      </trkpt>
      <trkpt lat="46.25408" lon="5.48593">
        <ele>455.4</ele>
        <time>2022-07-30T08:31:49Z</time>
      </trkpt>
      <trkpt lat="46.25448" lon="5.48618">
        <ele>456.4</ele>
        <time>2022-07-30T08:31:57Z</time>
      </trkpt>
      <trkpt lat="46.25483" lon="5.48641">
        <ele>457.6</ele>
        <time>2022-07-30T08:32:04Z</time>
      </trkpt>
      <trkpt lat="46.25496" lon="5.48649">
        <ele>457.8</ele>
        <time>2022-07-30T08:32:07Z</time>
      </trkpt>
      <trkpt lat="46.2552" lon="5.48661">
        <ele>458.6</ele>
        <time>2022-07-30T08:32:12Z</time>
      </trkpt>
      <trkpt lat="46.25534" lon="5.48669">
        <ele>459.4</ele>
        <time>2022-07-30T08:32:15Z</time>
      </trkpt>
      <trkpt lat="46.25544" lon="5.48673">
        <ele>459.8</ele>
        <time>2022-07-30T08:32:17Z</time>
      </trkpt>
      <trkpt lat="46.25553" lon="5.48677">
        <ele>460.2</ele>
        <time>2022-07-30T08:32:19Z</time>
      </trkpt>
      <trkpt lat="46.25568" lon="5.48686">
        <ele>460.8</ele>
        <time>2022-07-30T08:32:22Z</time>
      </trkpt>
      <trkpt lat="46.25573" lon="5.4869">
        <ele>460.8</ele>
        <time>2022-07-30T08:32:23Z</time>
      </trkpt>
      <trkpt lat="46.25578" lon="5.48694">
        <ele>461</ele>
        <time>2022-07-30T08:32:24Z</time>
      </trkpt>
      <trkpt lat="46.25608" lon="5.4872">
        <ele>461</ele>
        <time>2022-07-30T08:32:30Z</time>
      </trkpt>
      <trkpt lat="46.25655" lon="5.48763">
        <ele>461.8</ele>
        <time>2022-07-30T08:32:40Z</time>
      </trkpt>
      <trkpt lat="46.2566" lon="5.48767">
        <ele>462</ele>
        <time>2022-07-30T08:32:41Z</time>
      </trkpt>
      <trkpt lat="46.25665" lon="5.48772">
        <ele>462</ele>
        <time>2022-07-30T08:32:42Z</time>
      </trkpt>
      <trkpt lat="46.25699" lon="5.48796">
        <ele>461.8</ele>
        <time>2022-07-30T08:32:48Z</time>
      </trkpt>
      <trkpt lat="46.25726" lon="5.48813">
        <ele>460.8</ele>
        <time>2022-07-30T08:32:52Z</time>
      </trkpt>
      <trkpt lat="46.25734" lon="5.48816">
        <ele>460.6</ele>
        <time>2022-07-30T08:32:53Z</time>
      </trkpt>
      <trkpt lat="46.25751" lon="5.48815">
        <ele>460</ele>
        <time>2022-07-30T08:32:55Z</time>
      </trkpt>
      <trkpt lat="46.25759" lon="5.48812">
        <ele>460</ele>
        <time>2022-07-30T08:32:56Z</time>
      </trkpt>
      <trkpt lat="46.25767" lon="5.48808">
        <ele>459.6</ele>
        <time>2022-07-30T08:32:57Z</time>
      </trkpt>
      <trkpt lat="46.258" lon="5.48791">
        <ele>458.2</ele>
        <time>2022-07-30T08:33:01Z</time>
      </trkpt>
      <trkpt lat="46.25833" lon="5.48784">
        <ele>457.4</ele>
        <time>2022-07-30T08:33:05Z</time>
      </trkpt>
      <trkpt lat="46.25841" lon="5.48785">
        <ele>457</ele>
        <time>2022-07-30T08:33:06Z</time>
      </trkpt>
      <trkpt lat="46.25848" lon="5.48788">
        <ele>457</ele>
        <time>2022-07-30T08:33:07Z</time>
      </trkpt>
      <trkpt lat="46.25869" lon="5.48801">
        <ele>456.8</ele>
        <time>2022-07-30T08:33:10Z</time>
      </trkpt>
      <trkpt lat="46.25912" lon="5.48843">
        <ele>456.6</ele>
        <time>2022-07-30T08:33:17Z</time>
      </trkpt>
      <trkpt lat="46.25958" lon="5.48891">
        <ele>457.6</ele>
        <time>2022-07-30T08:33:25Z</time>
      </trkpt>
      <trkpt lat="46.2598" lon="5.48915">
        <ele>458.2</ele>
        <time>2022-07-30T08:33:29Z</time>
      </trkpt>
      <trkpt lat="46.25995" lon="5.48931">
        <ele>458.4</ele>
        <time>2022-07-30T08:33:32Z</time>
      </trkpt>
      <trkpt lat="46.2603" lon="5.48969">
        <ele>459</ele>
        <time>2022-07-30T08:33:39Z</time>
      </trkpt>
      <trkpt lat="46.26044" lon="5.48986">
        <ele>459.4</ele>
        <time>2022-07-30T08:33:42Z</time>
      </trkpt>
      <trkpt lat="46.2606" lon="5.48999">
        <ele>459.4</ele>
        <time>2022-07-30T08:33:45Z</time>
      </trkpt>
      <trkpt lat="46.26065" lon="5.49002">
        <ele>459.4</ele>
        <time>2022-07-30T08:33:46Z</time>
      </trkpt>
      <trkpt lat="46.26071" lon="5.49003">
        <ele>459.6</ele>
        <time>2022-07-30T08:33:47Z</time>
      </trkpt>
      <trkpt lat="46.26087" lon="5.49003">
        <ele>460</ele>
        <time>2022-07-30T08:33:50Z</time>
      </trkpt>
      <trkpt lat="46.26099" lon="5.49">
        <ele>460.4</ele>
        <time>2022-07-30T08:33:52Z</time>
      </trkpt>
      <trkpt lat="46.26124" lon="5.48995">
        <ele>461.2</ele>
        <time>2022-07-30T08:33:57Z</time>
      </trkpt>
      <trkpt lat="46.26135" lon="5.48993">
        <ele>461.6</ele>
        <time>2022-07-30T08:33:59Z</time>
      </trkpt>
      <trkpt lat="46.26158" lon="5.48991">
        <ele>462.6</ele>
        <time>2022-07-30T08:34:03Z</time>
      </trkpt>
      <trkpt lat="46.26164" lon="5.48991">
        <ele>463</ele>
        <time>2022-07-30T08:34:04Z</time>
      </trkpt>
      <trkpt lat="46.26182" lon="5.48995">
        <ele>463.4</ele>
        <time>2022-07-30T08:34:07Z</time>
      </trkpt>
      <trkpt lat="46.26194" lon="5.48999">
        <ele>463.8</ele>
        <time>2022-07-30T08:34:09Z</time>
      </trkpt>
      <trkpt lat="46.262" lon="5.49002">
        <ele>463.8</ele>
        <time>2022-07-30T08:34:10Z</time>
      </trkpt>
      <trkpt lat="46.26252" lon="5.49026">
        <ele>464</ele>
        <time>2022-07-30T08:34:19Z</time>
      </trkpt>
      <trkpt lat="46.26305" lon="5.49047">
        <ele>463.8</ele>
        <time>2022-07-30T08:34:28Z</time>
      </trkpt>
      <trkpt lat="46.26318" lon="5.49051">
        <ele>463.6</ele>
        <time>2022-07-30T08:34:30Z</time>
      </trkpt>
      <trkpt lat="46.26375" lon="5.49066">
        <ele>464</ele>
        <time>2022-07-30T08:34:39Z</time>
      </trkpt>
      <trkpt lat="46.26423" lon="5.49061">
        <ele>463.8</ele>
        <time>2022-07-30T08:34:46Z</time>
      </trkpt>
      <trkpt lat="46.26479" lon="5.49045">
        <ele>463.4</ele>
        <time>2022-07-30T08:34:54Z</time>
      </trkpt>
      <trkpt lat="46.26536" lon="5.49025">
        <ele>463.4</ele>
        <time>2022-07-30T08:35:02Z</time>
      </trkpt>
      <trkpt lat="46.26574" lon="5.49027">
        <ele>463.4</ele>
        <time>2022-07-30T08:35:07Z</time>
      </trkpt>
      <trkpt lat="46.26632" lon="5.49039">
        <ele>463.6</ele>
        <time>2022-07-30T08:35:15Z</time>
      </trkpt>
      <trkpt lat="46.26639" lon="5.49041">
        <ele>463.6</ele>
        <time>2022-07-30T08:35:16Z</time>
      </trkpt>
      <trkpt lat="46.26696" lon="5.49054">
        <ele>463.8</ele>
        <time>2022-07-30T08:35:24Z</time>
      </trkpt>
      <trkpt lat="46.26703" lon="5.49055">
        <ele>463.8</ele>
        <time>2022-07-30T08:35:25Z</time>
      </trkpt>
      <trkpt lat="46.2676" lon="5.4907">
        <ele>464.4</ele>
        <time>2022-07-30T08:35:33Z</time>
      </trkpt>
      <trkpt lat="46.26767" lon="5.49072">
        <ele>464.6</ele>
        <time>2022-07-30T08:35:34Z</time>
      </trkpt>
      <trkpt lat="46.26804" lon="5.49096">
        <ele>465</ele>
        <time>2022-07-30T08:35:40Z</time>
      </trkpt>
      <trkpt lat="46.26832" lon="5.49113">
        <ele>465.2</ele>
        <time>2022-07-30T08:35:44Z</time>
      </trkpt>
      <trkpt lat="46.26841" lon="5.49115">
        <ele>465.2</ele>
        <time>2022-07-30T08:35:45Z</time>
      </trkpt>
      <trkpt lat="46.2687" lon="5.49116">
        <ele>465.6</ele>
        <time>2022-07-30T08:35:49Z</time>
      </trkpt>
      <trkpt lat="46.26886" lon="5.49116">
        <ele>465.8</ele>
        <time>2022-07-30T08:35:51Z</time>
      </trkpt>
      <trkpt lat="46.26944" lon="5.49112">
        <ele>466.4</ele>
        <time>2022-07-30T08:35:59Z</time>
      </trkpt>
      <trkpt lat="46.26974" lon="5.49108">
        <ele>466.6</ele>
        <time>2022-07-30T08:36:03Z</time>
      </trkpt>
      <trkpt lat="46.27004" lon="5.49101">
        <ele>466.4</ele>
        <time>2022-07-30T08:36:07Z</time>
      </trkpt>
      <trkpt lat="46.27048" lon="5.49086">
        <ele>465.6</ele>
        <time>2022-07-30T08:36:13Z</time>
      </trkpt>
      <trkpt lat="46.27062" lon="5.4908">
        <ele>465.4</ele>
        <time>2022-07-30T08:36:15Z</time>
      </trkpt>
      <trkpt lat="46.27106" lon="5.49061">
        <ele>465.4</ele>
        <time>2022-07-30T08:36:21Z</time>
      </trkpt>
      <trkpt lat="46.27113" lon="5.49059">
        <ele>465.6</ele>
        <time>2022-07-30T08:36:22Z</time>
      </trkpt>
      <trkpt lat="46.27167" lon="5.49047">
        <ele>466</ele>
        <time>2022-07-30T08:36:30Z</time>
      </trkpt>
      <trkpt lat="46.27217" lon="5.49044">
        <ele>466</ele>
        <time>2022-07-30T08:36:37Z</time>
      </trkpt>
      <trkpt lat="46.27272" lon="5.49042">
        <ele>465.6</ele>
        <time>2022-07-30T08:36:44Z</time>
      </trkpt>
      <trkpt lat="46.27302" lon="5.49039">
        <ele>465.2</ele>
        <time>2022-07-30T08:36:48Z</time>
      </trkpt>
      <trkpt lat="46.27352" lon="5.49035">
        <ele>464.4</ele>
        <time>2022-07-30T08:36:55Z</time>
      </trkpt>
      <trkpt lat="46.27374" lon="5.49031">
        <ele>464.4</ele>
        <time>2022-07-30T08:36:58Z</time>
      </trkpt>
      <trkpt lat="46.27389" lon="5.49025">
        <ele>464.4</ele>
        <time>2022-07-30T08:37:00Z</time>
      </trkpt>
      <trkpt lat="46.27405" lon="5.49015">
        <ele>464.2</ele>
        <time>2022-07-30T08:37:02Z</time>
      </trkpt>
      <trkpt lat="46.27432" lon="5.48987">
        <ele>463.4</ele>
        <time>2022-07-30T08:37:06Z</time>
      </trkpt>
      <trkpt lat="46.2744" lon="5.48981">
        <ele>463</ele>
        <time>2022-07-30T08:37:07Z</time>
      </trkpt>
      <trkpt lat="46.27456" lon="5.48973">
        <ele>462.2</ele>
        <time>2022-07-30T08:37:09Z</time>
      </trkpt>
      <trkpt lat="46.27481" lon="5.48964">
        <ele>462</ele>
        <time>2022-07-30T08:37:12Z</time>
      </trkpt>
      <trkpt lat="46.27529" lon="5.48952">
        <ele>461.8</ele>
        <time>2022-07-30T08:37:18Z</time>
      </trkpt>
      <trkpt lat="46.27573" lon="5.48948">
        <ele>461.6</ele>
        <time>2022-07-30T08:37:24Z</time>
      </trkpt>
      <trkpt lat="46.27609" lon="5.48938">
        <ele>462.4</ele>
        <time>2022-07-30T08:37:29Z</time>
      </trkpt>
      <trkpt lat="46.27638" lon="5.48922">
        <ele>462.8</ele>
        <time>2022-07-30T08:37:33Z</time>
      </trkpt>
      <trkpt lat="46.27643" lon="5.48917">
        <ele>463</ele>
        <time>2022-07-30T08:37:34Z</time>
      </trkpt>
      <trkpt lat="46.2765" lon="5.4891">
        <ele>463.2</ele>
        <time>2022-07-30T08:37:35Z</time>
      </trkpt>
      <trkpt lat="46.27661" lon="5.48895">
        <ele>463.2</ele>
        <time>2022-07-30T08:37:37Z</time>
      </trkpt>
      <trkpt lat="46.27665" lon="5.48888">
        <ele>463.2</ele>
        <time>2022-07-30T08:37:38Z</time>
      </trkpt>
      <trkpt lat="46.27704" lon="5.48825">
        <ele>464</ele>
        <time>2022-07-30T08:37:46Z</time>
      </trkpt>
      <trkpt lat="46.27709" lon="5.48817">
        <ele>464.2</ele>
        <time>2022-07-30T08:37:47Z</time>
      </trkpt>
      <trkpt lat="46.27714" lon="5.48808">
        <ele>464.2</ele>
        <time>2022-07-30T08:37:48Z</time>
      </trkpt>
      <trkpt lat="46.27718" lon="5.48799">
        <ele>464.4</ele>
        <time>2022-07-30T08:37:49Z</time>
      </trkpt>
      <trkpt lat="46.27721" lon="5.48789">
        <ele>464.4</ele>
        <time>2022-07-30T08:37:50Z</time>
      </trkpt>
      <trkpt lat="46.27722" lon="5.48781">
        <ele>464.4</ele>
        <time>2022-07-30T08:37:51Z</time>
      </trkpt>
      <trkpt lat="46.27724" lon="5.48767">
        <ele>464.4</ele>
        <time>2022-07-30T08:37:52Z</time>
      </trkpt>
      <trkpt lat="46.27725" lon="5.48723">
        <ele>464.4</ele>
        <time>2022-07-30T08:37:56Z</time>
      </trkpt>
      <trkpt lat="46.27728" lon="5.4864">
        <ele>464</ele>
        <time>2022-07-30T08:38:03Z</time>
      </trkpt>
      <trkpt lat="46.27729" lon="5.48629">
        <ele>464</ele>
        <time>2022-07-30T08:38:04Z</time>
      </trkpt>
      <trkpt lat="46.27735" lon="5.48558">
        <ele>464.6</ele>
        <time>2022-07-30T08:38:11Z</time>
      </trkpt>
      <trkpt lat="46.27735" lon="5.48538">
        <ele>464.8</ele>
        <time>2022-07-30T08:38:13Z</time>
      </trkpt>
      <trkpt lat="46.27733" lon="5.48518">
        <ele>464.8</ele>
        <time>2022-07-30T08:38:15Z</time>
      </trkpt>
      <trkpt lat="46.2773" lon="5.48509">
        <ele>464.8</ele>
        <time>2022-07-30T08:38:16Z</time>
      </trkpt>
      <trkpt lat="46.27716" lon="5.48466">
        <ele>465</ele>
        <time>2022-07-30T08:38:21Z</time>
      </trkpt>
      <trkpt lat="46.27714" lon="5.48456">
        <ele>465</ele>
        <time>2022-07-30T08:38:22Z</time>
      </trkpt>
      <trkpt lat="46.27713" lon="5.48447">
        <ele>465</ele>
        <time>2022-07-30T08:38:23Z</time>
      </trkpt>
      <trkpt lat="46.27714" lon="5.48427">
        <ele>465.4</ele>
        <time>2022-07-30T08:38:25Z</time>
      </trkpt>
      <trkpt lat="46.27716" lon="5.48417">
        <ele>465.8</ele>
        <time>2022-07-30T08:38:26Z</time>
      </trkpt>
      <trkpt lat="46.27721" lon="5.48381">
        <ele>466.4</ele>
        <time>2022-07-30T08:38:30Z</time>
      </trkpt>
      <trkpt lat="46.27728" lon="5.48335">
        <ele>467.4</ele>
        <time>2022-07-30T08:38:35Z</time>
      </trkpt>
      <trkpt lat="46.27731" lon="5.48327">
        <ele>467.6</ele>
        <time>2022-07-30T08:38:36Z</time>
      </trkpt>
      <trkpt lat="46.27735" lon="5.48322">
        <ele>467.6</ele>
        <time>2022-07-30T08:38:37Z</time>
      </trkpt>
      <trkpt lat="46.2774" lon="5.48316">
        <ele>467.6</ele>
        <time>2022-07-30T08:38:38Z</time>
      </trkpt>
      <trkpt lat="46.27747" lon="5.48312">
        <ele>467.6</ele>
        <time>2022-07-30T08:38:39Z</time>
      </trkpt>
      <trkpt lat="46.2776" lon="5.4831">
        <ele>467.6</ele>
        <time>2022-07-30T08:38:41Z</time>
      </trkpt>
      <trkpt lat="46.27795" lon="5.48318">
        <ele>467</ele>
        <time>2022-07-30T08:38:46Z</time>
      </trkpt>
      <trkpt lat="46.2781" lon="5.48324">
        <ele>466.2</ele>
        <time>2022-07-30T08:38:48Z</time>
      </trkpt>
      <trkpt lat="46.27841" lon="5.48334">
        <ele>465</ele>
        <time>2022-07-30T08:38:52Z</time>
      </trkpt>
      <trkpt lat="46.2785" lon="5.48336">
        <ele>464.8</ele>
        <time>2022-07-30T08:38:53Z</time>
      </trkpt>
      <trkpt lat="46.27883" lon="5.48346">
        <ele>463.8</ele>
        <time>2022-07-30T08:38:58Z</time>
      </trkpt>
      <trkpt lat="46.27895" lon="5.48348">
        <ele>463.8</ele>
        <time>2022-07-30T08:39:00Z</time>
      </trkpt>
      <trkpt lat="46.27923" lon="5.48349">
        <ele>464</ele>
        <time>2022-07-30T08:39:05Z</time>
      </trkpt>
      <trkpt lat="46.27942" lon="5.4835">
        <ele>464.8</ele>
        <time>2022-07-30T08:39:08Z</time>
      </trkpt>
      <trkpt lat="46.27962" lon="5.48354">
        <ele>465.6</ele>
        <time>2022-07-30T08:39:11Z</time>
      </trkpt>
      <trkpt lat="46.27974" lon="5.48357">
        <ele>466</ele>
        <time>2022-07-30T08:39:13Z</time>
      </trkpt>
      <trkpt lat="46.28" lon="5.48372">
        <ele>466.2</ele>
        <time>2022-07-30T08:39:17Z</time>
      </trkpt>
      <trkpt lat="46.28033" lon="5.48397">
        <ele>466.2</ele>
        <time>2022-07-30T08:39:23Z</time>
      </trkpt>
      <trkpt lat="46.28039" lon="5.48399">
        <ele>466.2</ele>
        <time>2022-07-30T08:39:24Z</time>
      </trkpt>
      <trkpt lat="46.28068" lon="5.4841">
        <ele>466.2</ele>
        <time>2022-07-30T08:39:29Z</time>
      </trkpt>
      <trkpt lat="46.28096" lon="5.48417">
        <ele>467</ele>
        <time>2022-07-30T08:39:34Z</time>
      </trkpt>
      <trkpt lat="46.28112" lon="5.4842">
        <ele>467.2</ele>
        <time>2022-07-30T08:39:37Z</time>
      </trkpt>
      <trkpt lat="46.2816" lon="5.48422">
        <ele>467.6</ele>
        <time>2022-07-30T08:39:45Z</time>
      </trkpt>
      <trkpt lat="46.28201" lon="5.48419">
        <ele>467.4</ele>
        <time>2022-07-30T08:39:51Z</time>
      </trkpt>
      <trkpt lat="46.28249" lon="5.48415">
        <ele>466.6</ele>
        <time>2022-07-30T08:39:58Z</time>
      </trkpt>
      <trkpt lat="46.28277" lon="5.48413">
        <ele>465.6</ele>
        <time>2022-07-30T08:40:02Z</time>
      </trkpt>
      <trkpt lat="46.28312" lon="5.48413">
        <ele>465</ele>
        <time>2022-07-30T08:40:07Z</time>
      </trkpt>
      <trkpt lat="46.28367" lon="5.4842">
        <ele>464.4</ele>
        <time>2022-07-30T08:40:15Z</time>
      </trkpt>
      <trkpt lat="46.28373" lon="5.48422">
        <ele>464.4</ele>
        <time>2022-07-30T08:40:16Z</time>
      </trkpt>
      <trkpt lat="46.28432" lon="5.48428">
        <ele>464</ele>
        <time>2022-07-30T08:40:24Z</time>
      </trkpt>
      <trkpt lat="46.2846" lon="5.48428">
        <ele>463.4</ele>
        <time>2022-07-30T08:40:28Z</time>
      </trkpt>
      <trkpt lat="46.28493" lon="5.48426">
        <ele>463</ele>
        <time>2022-07-30T08:40:33Z</time>
      </trkpt>
      <trkpt lat="46.28545" lon="5.48416">
        <ele>462.2</ele>
        <time>2022-07-30T08:40:41Z</time>
      </trkpt>
      <trkpt lat="46.2855" lon="5.48415">
        <ele>462.2</ele>
        <time>2022-07-30T08:40:42Z</time>
      </trkpt>
      <trkpt lat="46.28604" lon="5.48402">
        <ele>462.2</ele>
        <time>2022-07-30T08:40:51Z</time>
      </trkpt>
      <trkpt lat="46.28616" lon="5.48398">
        <ele>462.2</ele>
        <time>2022-07-30T08:40:53Z</time>
      </trkpt>
      <trkpt lat="46.28668" lon="5.48385">
        <ele>462.2</ele>
        <time>2022-07-30T08:41:02Z</time>
      </trkpt>
      <trkpt lat="46.28718" lon="5.48373">
        <ele>462.4</ele>
        <time>2022-07-30T08:41:12Z</time>
      </trkpt>
      <trkpt lat="46.28773" lon="5.48367">
        <ele>463</ele>
        <time>2022-07-30T08:41:22Z</time>
      </trkpt>
      <trkpt lat="46.2878" lon="5.48367">
        <ele>463</ele>
        <time>2022-07-30T08:41:23Z</time>
      </trkpt>
      <trkpt lat="46.28832" lon="5.48366">
        <ele>463.2</ele>
        <time>2022-07-30T08:41:33Z</time>
      </trkpt>
      <trkpt lat="46.28888" lon="5.48368">
        <ele>463.2</ele>
        <time>2022-07-30T08:41:44Z</time>
      </trkpt>
      <trkpt lat="46.28936" lon="5.48373">
        <ele>463</ele>
        <time>2022-07-30T08:41:53Z</time>
      </trkpt>
      <trkpt lat="46.28977" lon="5.4839">
        <ele>463</ele>
        <time>2022-07-30T08:42:01Z</time>
      </trkpt>
      <trkpt lat="46.29019" lon="5.48409">
        <ele>463</ele>
        <time>2022-07-30T08:42:09Z</time>
      </trkpt>
      <trkpt lat="46.29044" lon="5.48419">
        <ele>463</ele>
        <time>2022-07-30T08:42:14Z</time>
      </trkpt>
      <trkpt lat="46.29055" lon="5.48416">
        <ele>463.2</ele>
        <time>2022-07-30T08:42:16Z</time>
      </trkpt>
      <trkpt lat="46.29064" lon="5.48407">
        <ele>463.4</ele>
        <time>2022-07-30T08:42:18Z</time>
      </trkpt>
      <trkpt lat="46.29066" lon="5.48402">
        <ele>463.4</ele>
        <time>2022-07-30T08:42:19Z</time>
      </trkpt>
      <trkpt lat="46.29069" lon="5.48394">
        <ele>463.6</ele>
        <time>2022-07-30T08:42:20Z</time>
      </trkpt>
      <trkpt lat="46.29075" lon="5.4836">
        <ele>464.4</ele>
        <time>2022-07-30T08:42:24Z</time>
      </trkpt>
      <trkpt lat="46.29083" lon="5.48306">
        <ele>465</ele>
        <time>2022-07-30T08:42:30Z</time>
      </trkpt>
      <trkpt lat="46.29085" lon="5.48297">
        <ele>465</ele>
        <time>2022-07-30T08:42:31Z</time>
      </trkpt>
      <trkpt lat="46.29094" lon="5.48246">
        <ele>465.2</ele>
        <time>2022-07-30T08:42:37Z</time>
      </trkpt>
      <trkpt lat="46.29096" lon="5.48236">
        <ele>465.2</ele>
        <time>2022-07-30T08:42:38Z</time>
      </trkpt>
      <trkpt lat="46.29099" lon="5.48228">
        <ele>465.4</ele>
        <time>2022-07-30T08:42:39Z</time>
      </trkpt>
      <trkpt lat="46.29102" lon="5.48222">
        <ele>465.4</ele>
        <time>2022-07-30T08:42:40Z</time>
      </trkpt>
      <trkpt lat="46.2911" lon="5.4821">
        <ele>465.6</ele>
        <time>2022-07-30T08:42:42Z</time>
      </trkpt>
      <trkpt lat="46.29116" lon="5.48204">
        <ele>465.6</ele>
        <time>2022-07-30T08:42:43Z</time>
      </trkpt>
      <trkpt lat="46.29121" lon="5.48201">
        <ele>465.6</ele>
        <time>2022-07-30T08:42:44Z</time>
      </trkpt>
      <trkpt lat="46.29148" lon="5.48185">
        <ele>465.6</ele>
        <time>2022-07-30T08:42:49Z</time>
      </trkpt>
      <trkpt lat="46.29176" lon="5.48171">
        <ele>465.8</ele>
        <time>2022-07-30T08:42:55Z</time>
      </trkpt>
      <trkpt lat="46.29185" lon="5.48165">
        <ele>466.2</ele>
        <time>2022-07-30T08:42:57Z</time>
      </trkpt>
      <trkpt lat="46.29189" lon="5.48163">
        <ele>466.6</ele>
        <time>2022-07-30T08:42:58Z</time>
      </trkpt>
      <trkpt lat="46.29197" lon="5.48157">
        <ele>467.4</ele>
        <time>2022-07-30T08:43:00Z</time>
      </trkpt>
      <trkpt lat="46.29208" lon="5.48149">
        <ele>468.2</ele>
        <time>2022-07-30T08:43:03Z</time>
      </trkpt>
      <trkpt lat="46.29211" lon="5.48146">
        <ele>468.6</ele>
        <time>2022-07-30T08:43:04Z</time>
      </trkpt>
      <trkpt lat="46.29215" lon="5.48141">
        <ele>468.8</ele>
        <time>2022-07-30T08:43:05Z</time>
      </trkpt>
      <trkpt lat="46.29218" lon="5.48137">
        <ele>469</ele>
        <time>2022-07-30T08:43:06Z</time>
      </trkpt>
      <trkpt lat="46.29221" lon="5.48134">
        <ele>469.2</ele>
        <time>2022-07-30T08:43:07Z</time>
      </trkpt>
      <trkpt lat="46.29223" lon="5.4813">
        <ele>469.6</ele>
        <time>2022-07-30T08:43:08Z</time>
      </trkpt>
      <trkpt lat="46.29228" lon="5.4812">
        <ele>470.4</ele>
        <time>2022-07-30T08:43:10Z</time>
      </trkpt>
      <trkpt lat="46.29233" lon="5.48112">
        <ele>470.8</ele>
        <time>2022-07-30T08:43:12Z</time>
      </trkpt>
      <trkpt lat="46.29241" lon="5.48105">
        <ele>471.6</ele>
        <time>2022-07-30T08:43:14Z</time>
      </trkpt>
      <trkpt lat="46.29245" lon="5.48103">
        <ele>471.8</ele>
        <time>2022-07-30T08:43:15Z</time>
      </trkpt>
      <trkpt lat="46.29266" lon="5.48098">
        <ele>472</ele>
        <time>2022-07-30T08:43:19Z</time>
      </trkpt>
      <trkpt lat="46.29287" lon="5.48091">
        <ele>471.8</ele>
        <time>2022-07-30T08:43:22Z</time>
      </trkpt>
      <trkpt lat="46.29293" lon="5.48091">
        <ele>471.6</ele>
        <time>2022-07-30T08:43:23Z</time>
      </trkpt>
      <trkpt lat="46.293" lon="5.48093">
        <ele>471.4</ele>
        <time>2022-07-30T08:43:24Z</time>
      </trkpt>
      <trkpt lat="46.29306" lon="5.48097">
        <ele>470.8</ele>
        <time>2022-07-30T08:43:25Z</time>
      </trkpt>
      <trkpt lat="46.29312" lon="5.48103">
        <ele>470.8</ele>
        <time>2022-07-30T08:43:26Z</time>
      </trkpt>
      <trkpt lat="46.29338" lon="5.48143">
        <ele>469.6</ele>
        <time>2022-07-30T08:43:31Z</time>
      </trkpt>
      <trkpt lat="46.29371" lon="5.48189">
        <ele>468.8</ele>
        <time>2022-07-30T08:43:37Z</time>
      </trkpt>
      <trkpt lat="46.29376" lon="5.48197">
        <ele>468.6</ele>
        <time>2022-07-30T08:43:38Z</time>
      </trkpt>
      <trkpt lat="46.29404" lon="5.48232">
        <ele>467.6</ele>
        <time>2022-07-30T08:43:43Z</time>
      </trkpt>
      <trkpt lat="46.2944" lon="5.48264">
        <ele>467</ele>
        <time>2022-07-30T08:43:49Z</time>
      </trkpt>
      <trkpt lat="46.29484" lon="5.48294">
        <ele>466.8</ele>
        <time>2022-07-30T08:43:56Z</time>
      </trkpt>
      <trkpt lat="46.29521" lon="5.48312">
        <ele>466.6</ele>
        <time>2022-07-30T08:44:02Z</time>
      </trkpt>
      <trkpt lat="46.29575" lon="5.48339">
        <ele>466.6</ele>
        <time>2022-07-30T08:44:11Z</time>
      </trkpt>
      <trkpt lat="46.29623" lon="5.48364">
        <ele>467.4</ele>
        <time>2022-07-30T08:44:20Z</time>
      </trkpt>
      <trkpt lat="46.29643" lon="5.48375">
        <ele>468.6</ele>
        <time>2022-07-30T08:44:24Z</time>
      </trkpt>
      <trkpt lat="46.29659" lon="5.48384">
        <ele>468.8</ele>
        <time>2022-07-30T08:44:27Z</time>
      </trkpt>
      <trkpt lat="46.29702" lon="5.48409">
        <ele>469</ele>
        <time>2022-07-30T08:44:35Z</time>
      </trkpt>
      <trkpt lat="46.29737" lon="5.48434">
        <ele>469</ele>
        <time>2022-07-30T08:44:42Z</time>
      </trkpt>
      <trkpt lat="46.2976" lon="5.48471">
        <ele>469.4</ele>
        <time>2022-07-30T08:44:48Z</time>
      </trkpt>
      <trkpt lat="46.29774" lon="5.48486">
        <ele>469.4</ele>
        <time>2022-07-30T08:44:51Z</time>
      </trkpt>
      <trkpt lat="46.29779" lon="5.4849">
        <ele>469.6</ele>
        <time>2022-07-30T08:44:52Z</time>
      </trkpt>
      <trkpt lat="46.29784" lon="5.48494">
        <ele>469.8</ele>
        <time>2022-07-30T08:44:53Z</time>
      </trkpt>
      <trkpt lat="46.2983" lon="5.48522">
        <ele>470.4</ele>
        <time>2022-07-30T08:45:01Z</time>
      </trkpt>
      <trkpt lat="46.29853" lon="5.48529">
        <ele>470</ele>
        <time>2022-07-30T08:45:05Z</time>
      </trkpt>
      <trkpt lat="46.29865" lon="5.48529">
        <ele>470</ele>
        <time>2022-07-30T08:45:07Z</time>
      </trkpt>
      <trkpt lat="46.29904" lon="5.48516">
        <ele>469.8</ele>
        <time>2022-07-30T08:45:14Z</time>
      </trkpt>
      <trkpt lat="46.29909" lon="5.48514">
        <ele>469.8</ele>
        <time>2022-07-30T08:45:15Z</time>
      </trkpt>
      <trkpt lat="46.2994" lon="5.48498">
        <ele>470.2</ele>
        <time>2022-07-30T08:45:21Z</time>
      </trkpt>
      <trkpt lat="46.29955" lon="5.48488">
        <ele>470.4</ele>
        <time>2022-07-30T08:45:24Z</time>
      </trkpt>
      <trkpt lat="46.29974" lon="5.48471">
        <ele>470.8</ele>
        <time>2022-07-30T08:45:28Z</time>
      </trkpt>
      <trkpt lat="46.30023" lon="5.48426">
        <ele>471.2</ele>
        <time>2022-07-30T08:45:38Z</time>
      </trkpt>
      <trkpt lat="46.30034" lon="5.48419">
        <ele>471.4</ele>
        <time>2022-07-30T08:45:40Z</time>
      </trkpt>
      <trkpt lat="46.30054" lon="5.48411">
        <ele>471.8</ele>
        <time>2022-07-30T08:45:44Z</time>
      </trkpt>
      <trkpt lat="46.30069" lon="5.48408">
        <ele>472</ele>
        <time>2022-07-30T08:45:47Z</time>
      </trkpt>
      <trkpt lat="46.30079" lon="5.48409">
        <ele>472.4</ele>
        <time>2022-07-30T08:45:49Z</time>
      </trkpt>
      <trkpt lat="46.30085" lon="5.48409">
        <ele>472.6</ele>
        <time>2022-07-30T08:45:50Z</time>
      </trkpt>
      <trkpt lat="46.30127" lon="5.4841">
        <ele>473.4</ele>
        <time>2022-07-30T08:45:57Z</time>
      </trkpt>
      <trkpt lat="46.30133" lon="5.4841">
        <ele>473.6</ele>
        <time>2022-07-30T08:45:58Z</time>
      </trkpt>
      <trkpt lat="46.30176" lon="5.48407">
        <ele>474.2</ele>
        <time>2022-07-30T08:46:05Z</time>
      </trkpt>
      <trkpt lat="46.30224" lon="5.48406">
        <ele>474.4</ele>
        <time>2022-07-30T08:46:13Z</time>
      </trkpt>
      <trkpt lat="46.3023" lon="5.48409">
        <ele>474.4</ele>
        <time>2022-07-30T08:46:14Z</time>
      </trkpt>
      <trkpt lat="46.30251" lon="5.48422">
        <ele>474.4</ele>
        <time>2022-07-30T08:46:18Z</time>
      </trkpt>
      <trkpt lat="46.30256" lon="5.48426">
        <ele>474.4</ele>
        <time>2022-07-30T08:46:19Z</time>
      </trkpt>
      <trkpt lat="46.30261" lon="5.4843">
        <ele>474.6</ele>
        <time>2022-07-30T08:46:20Z</time>
      </trkpt>
      <trkpt lat="46.30285" lon="5.48443">
        <ele>475.6</ele>
        <time>2022-07-30T08:46:25Z</time>
      </trkpt>
      <trkpt lat="46.3029" lon="5.48444">
        <ele>475.8</ele>
        <time>2022-07-30T08:46:26Z</time>
      </trkpt>
      <trkpt lat="46.30318" lon="5.48452">
        <ele>476</ele>
        <time>2022-07-30T08:46:31Z</time>
      </trkpt>
      <trkpt lat="46.3033" lon="5.48458">
        <ele>476.2</ele>
        <time>2022-07-30T08:46:33Z</time>
      </trkpt>
      <trkpt lat="46.30343" lon="5.48467">
        <ele>476.2</ele>
        <time>2022-07-30T08:46:35Z</time>
      </trkpt>
      <trkpt lat="46.30359" lon="5.48484">
        <ele>476.2</ele>
        <time>2022-07-30T08:46:38Z</time>
      </trkpt>
      <trkpt lat="46.30405" lon="5.48525">
        <ele>475.6</ele>
        <time>2022-07-30T08:46:46Z</time>
      </trkpt>
      <trkpt lat="46.30455" lon="5.48548">
        <ele>475.4</ele>
        <time>2022-07-30T08:46:54Z</time>
      </trkpt>
      <trkpt lat="46.30506" lon="5.48557">
        <ele>475.4</ele>
        <time>2022-07-30T08:47:01Z</time>
      </trkpt>
      <trkpt lat="46.30552" lon="5.48558">
        <ele>475</ele>
        <time>2022-07-30T08:47:07Z</time>
      </trkpt>
      <trkpt lat="46.3061" lon="5.48548">
        <ele>475.2</ele>
        <time>2022-07-30T08:47:15Z</time>
      </trkpt>
      <trkpt lat="46.30617" lon="5.48546">
        <ele>475.2</ele>
        <time>2022-07-30T08:47:16Z</time>
      </trkpt>
      <trkpt lat="46.30663" lon="5.48529">
        <ele>475.6</ele>
        <time>2022-07-30T08:47:23Z</time>
      </trkpt>
      <trkpt lat="46.3069" lon="5.48525">
        <ele>476.4</ele>
        <time>2022-07-30T08:47:27Z</time>
      </trkpt>
      <trkpt lat="46.30697" lon="5.48525">
        <ele>476.4</ele>
        <time>2022-07-30T08:47:28Z</time>
      </trkpt>
      <trkpt lat="46.3074" lon="5.48538">
        <ele>476.4</ele>
        <time>2022-07-30T08:47:34Z</time>
      </trkpt>
      <trkpt lat="46.30792" lon="5.48554">
        <ele>475.8</ele>
        <time>2022-07-30T08:47:42Z</time>
      </trkpt>
      <trkpt lat="46.30821" lon="5.48561">
        <ele>475.4</ele>
        <time>2022-07-30T08:47:47Z</time>
      </trkpt>
      <trkpt lat="46.30847" lon="5.48564">
        <ele>476</ele>
        <time>2022-07-30T08:47:51Z</time>
      </trkpt>
      <trkpt lat="46.3086" lon="5.48561">
        <ele>476.2</ele>
        <time>2022-07-30T08:47:53Z</time>
      </trkpt>
      <trkpt lat="46.30872" lon="5.48552">
        <ele>476.2</ele>
        <time>2022-07-30T08:47:55Z</time>
      </trkpt>
      <trkpt lat="46.30877" lon="5.48546">
        <ele>476.2</ele>
        <time>2022-07-30T08:47:56Z</time>
      </trkpt>
      <trkpt lat="46.30881" lon="5.48538">
        <ele>476.2</ele>
        <time>2022-07-30T08:47:57Z</time>
      </trkpt>
      <trkpt lat="46.3089" lon="5.48512">
        <ele>476.2</ele>
        <time>2022-07-30T08:48:00Z</time>
      </trkpt>
      <trkpt lat="46.30913" lon="5.48438">
        <ele>475.8</ele>
        <time>2022-07-30T08:48:08Z</time>
      </trkpt>
      <trkpt lat="46.30946" lon="5.48367">
        <ele>476</ele>
        <time>2022-07-30T08:48:17Z</time>
      </trkpt>
      <trkpt lat="46.30966" lon="5.48312">
        <ele>476.6</ele>
        <time>2022-07-30T08:48:24Z</time>
      </trkpt>
      <trkpt lat="46.3097" lon="5.48305">
        <ele>476.6</ele>
        <time>2022-07-30T08:48:25Z</time>
      </trkpt>
      <trkpt lat="46.30983" lon="5.48286">
        <ele>477</ele>
        <time>2022-07-30T08:48:28Z</time>
      </trkpt>
      <trkpt lat="46.30988" lon="5.48281">
        <ele>477.2</ele>
        <time>2022-07-30T08:48:29Z</time>
      </trkpt>
      <trkpt lat="46.30994" lon="5.48277">
        <ele>477.2</ele>
        <time>2022-07-30T08:48:30Z</time>
      </trkpt>
      <trkpt lat="46.31006" lon="5.48272">
        <ele>477.4</ele>
        <time>2022-07-30T08:48:32Z</time>
      </trkpt>
      <trkpt lat="46.31012" lon="5.48271">
        <ele>477.4</ele>
        <time>2022-07-30T08:48:33Z</time>
      </trkpt>
      <trkpt lat="46.31025" lon="5.48272">
        <ele>477.6</ele>
        <time>2022-07-30T08:48:35Z</time>
      </trkpt>
      <trkpt lat="46.31043" lon="5.48278">
        <ele>478.2</ele>
        <time>2022-07-30T08:48:38Z</time>
      </trkpt>
      <trkpt lat="46.31049" lon="5.4828">
        <ele>478.2</ele>
        <time>2022-07-30T08:48:39Z</time>
      </trkpt>
      <trkpt lat="46.31054" lon="5.48283">
        <ele>478.4</ele>
        <time>2022-07-30T08:48:40Z</time>
      </trkpt>
      <trkpt lat="46.31078" lon="5.48287">
        <ele>478.6</ele>
        <time>2022-07-30T08:48:44Z</time>
      </trkpt>
      <trkpt lat="46.31109" lon="5.48278">
        <ele>479.2</ele>
        <time>2022-07-30T08:48:49Z</time>
      </trkpt>
      <trkpt lat="46.31121" lon="5.48271">
        <ele>479.2</ele>
        <time>2022-07-30T08:48:51Z</time>
      </trkpt>
      <trkpt lat="46.31148" lon="5.4825">
        <ele>479.2</ele>
        <time>2022-07-30T08:48:56Z</time>
      </trkpt>
      <trkpt lat="46.31181" lon="5.48226">
        <ele>479</ele>
        <time>2022-07-30T08:49:02Z</time>
      </trkpt>
      <trkpt lat="46.31194" lon="5.48222">
        <ele>479</ele>
        <time>2022-07-30T08:49:04Z</time>
      </trkpt>
      <trkpt lat="46.31225" lon="5.48228">
        <ele>478.8</ele>
        <time>2022-07-30T08:49:09Z</time>
      </trkpt>
      <trkpt lat="46.31266" lon="5.48244">
        <ele>478</ele>
        <time>2022-07-30T08:49:16Z</time>
      </trkpt>
      <trkpt lat="46.31311" lon="5.48267">
        <ele>478.2</ele>
        <time>2022-07-30T08:49:24Z</time>
      </trkpt>
      <trkpt lat="46.31327" lon="5.48281">
        <ele>478.8</ele>
        <time>2022-07-30T08:49:27Z</time>
      </trkpt>
      <trkpt lat="46.3134" lon="5.483">
        <ele>479.6</ele>
        <time>2022-07-30T08:49:30Z</time>
      </trkpt>
      <trkpt lat="46.31362" lon="5.48339">
        <ele>479.4</ele>
        <time>2022-07-30T08:49:35Z</time>
      </trkpt>
      <trkpt lat="46.31395" lon="5.48397">
        <ele>478.6</ele>
        <time>2022-07-30T08:49:43Z</time>
      </trkpt>
      <trkpt lat="46.31422" lon="5.48446">
        <ele>479.2</ele>
        <time>2022-07-30T08:49:50Z</time>
      </trkpt>
      <trkpt lat="46.31437" lon="5.48476">
        <ele>480</ele>
        <time>2022-07-30T08:49:54Z</time>
      </trkpt>
      <trkpt lat="46.3146" lon="5.48515">
        <ele>480.8</ele>
        <time>2022-07-30T08:50:00Z</time>
      </trkpt>
      <trkpt lat="46.31464" lon="5.4852">
        <ele>481</ele>
        <time>2022-07-30T08:50:01Z</time>
      </trkpt>
      <trkpt lat="46.3149" lon="5.48544">
        <ele>481.6</ele>
        <time>2022-07-30T08:50:06Z</time>
      </trkpt>
      <trkpt lat="46.31533" lon="5.48565">
        <ele>481.6</ele>
        <time>2022-07-30T08:50:13Z</time>
      </trkpt>
      <trkpt lat="46.31576" lon="5.4858">
        <ele>481.8</ele>
        <time>2022-07-30T08:50:20Z</time>
      </trkpt>
      <trkpt lat="46.31631" lon="5.48603">
        <ele>481.2</ele>
        <time>2022-07-30T08:50:29Z</time>
      </trkpt>
      <trkpt lat="46.31651" lon="5.48607">
        <ele>482.2</ele>
        <time>2022-07-30T08:50:33Z</time>
      </trkpt>
      <trkpt lat="46.31655" lon="5.48607">
        <ele>482.2</ele>
        <time>2022-07-30T08:50:34Z</time>
      </trkpt>
      <trkpt lat="46.31661" lon="5.48608">
        <ele>482.8</ele>
        <time>2022-07-30T08:50:38Z</time>
      </trkpt>
      <trkpt lat="46.31661" lon="5.48608">
        <ele>482.8</ele>
        <time>2022-07-30T08:50:39Z</time>
      </trkpt>
      <trkpt lat="46.31663" lon="5.48608">
        <ele>483.2</ele>
        <time>2022-07-30T08:51:24Z</time>
      </trkpt>
      <trkpt lat="46.3167" lon="5.48608">
        <ele>483.4</ele>
        <time>2022-07-30T08:51:27Z</time>
      </trkpt>
      <trkpt lat="46.31689" lon="5.48609">
        <ele>483.6</ele>
        <time>2022-07-30T08:51:31Z</time>
      </trkpt>
      <trkpt lat="46.31729" lon="5.48611">
        <ele>483.8</ele>
        <time>2022-07-30T08:51:38Z</time>
      </trkpt>
      <trkpt lat="46.31765" lon="5.48618">
        <ele>484.2</ele>
        <time>2022-07-30T08:51:44Z</time>
      </trkpt>
      <trkpt lat="46.3177" lon="5.4862">
        <ele>484.6</ele>
        <time>2022-07-30T08:51:45Z</time>
      </trkpt>
      <trkpt lat="46.31791" lon="5.48629">
        <ele>485.4</ele>
        <time>2022-07-30T08:51:49Z</time>
      </trkpt>
      <trkpt lat="46.31814" lon="5.48642">
        <ele>486.2</ele>
        <time>2022-07-30T08:51:53Z</time>
      </trkpt>
      <trkpt lat="46.31842" lon="5.48658">
        <ele>486.2</ele>
        <time>2022-07-30T08:51:57Z</time>
      </trkpt>
      <trkpt lat="46.3185" lon="5.4866">
        <ele>486.2</ele>
        <time>2022-07-30T08:51:58Z</time>
      </trkpt>
      <trkpt lat="46.31908" lon="5.48673">
        <ele>484.6</ele>
        <time>2022-07-30T08:52:06Z</time>
      </trkpt>
      <trkpt lat="46.31922" lon="5.48675">
        <ele>484.6</ele>
        <time>2022-07-30T08:52:08Z</time>
      </trkpt>
      <trkpt lat="46.31969" lon="5.4868">
        <ele>484.4</ele>
        <time>2022-07-30T08:52:15Z</time>
      </trkpt>
      <trkpt lat="46.31975" lon="5.4868">
        <ele>484.4</ele>
        <time>2022-07-30T08:52:16Z</time>
      </trkpt>
      <trkpt lat="46.32026" lon="5.48676">
        <ele>484.6</ele>
        <time>2022-07-30T08:52:24Z</time>
      </trkpt>
      <trkpt lat="46.32085" lon="5.48674">
        <ele>485.2</ele>
        <time>2022-07-30T08:52:33Z</time>
      </trkpt>
      <trkpt lat="46.32092" lon="5.48674">
        <ele>485.4</ele>
        <time>2022-07-30T08:52:34Z</time>
      </trkpt>
      <trkpt lat="46.32149" lon="5.48674">
        <ele>486.2</ele>
        <time>2022-07-30T08:52:43Z</time>
      </trkpt>
      <trkpt lat="46.32155" lon="5.48674">
        <ele>486.4</ele>
        <time>2022-07-30T08:52:44Z</time>
      </trkpt>
      <trkpt lat="46.32168" lon="5.48673">
        <ele>486.4</ele>
        <time>2022-07-30T08:52:46Z</time>
      </trkpt>
      <trkpt lat="46.32213" lon="5.48674">
        <ele>486.6</ele>
        <time>2022-07-30T08:52:53Z</time>
      </trkpt>
      <trkpt lat="46.3227" lon="5.48682">
        <ele>487</ele>
        <time>2022-07-30T08:53:02Z</time>
      </trkpt>
      <trkpt lat="46.32321" lon="5.48692">
        <ele>487</ele>
        <time>2022-07-30T08:53:10Z</time>
      </trkpt>
      <trkpt lat="46.32371" lon="5.48697">
        <ele>487.4</ele>
        <time>2022-07-30T08:53:18Z</time>
      </trkpt>
      <trkpt lat="46.3239" lon="5.48698">
        <ele>487.6</ele>
        <time>2022-07-30T08:53:21Z</time>
      </trkpt>
      <trkpt lat="46.32445" lon="5.48706">
        <ele>488</ele>
        <time>2022-07-30T08:53:30Z</time>
      </trkpt>
      <trkpt lat="46.32457" lon="5.48708">
        <ele>488.2</ele>
        <time>2022-07-30T08:53:32Z</time>
      </trkpt>
      <trkpt lat="46.32469" lon="5.4871">
        <ele>488.4</ele>
        <time>2022-07-30T08:53:34Z</time>
      </trkpt>
      <trkpt lat="46.32524" lon="5.48718">
        <ele>489.4</ele>
        <time>2022-07-30T08:53:43Z</time>
      </trkpt>
      <trkpt lat="46.3257" lon="5.48731">
        <ele>489.8</ele>
        <time>2022-07-30T08:53:51Z</time>
      </trkpt>
      <trkpt lat="46.32588" lon="5.48736">
        <ele>489.6</ele>
        <time>2022-07-30T08:53:54Z</time>
      </trkpt>
      <trkpt lat="46.32643" lon="5.48753">
        <ele>490</ele>
        <time>2022-07-30T08:54:03Z</time>
      </trkpt>
      <trkpt lat="46.32655" lon="5.48757">
        <ele>490.2</ele>
        <time>2022-07-30T08:54:05Z</time>
      </trkpt>
      <trkpt lat="46.32678" lon="5.48764">
        <ele>490.4</ele>
        <time>2022-07-30T08:54:09Z</time>
      </trkpt>
      <trkpt lat="46.32722" lon="5.48777">
        <ele>491.2</ele>
        <time>2022-07-30T08:54:16Z</time>
      </trkpt>
      <trkpt lat="46.32734" lon="5.4878">
        <ele>491.4</ele>
        <time>2022-07-30T08:54:17Z</time>
      </trkpt>
      <trkpt lat="46.32789" lon="5.48798">
        <ele>492</ele>
        <time>2022-07-30T08:54:27Z</time>
      </trkpt>
      <trkpt lat="46.32801" lon="5.48801">
        <ele>492</ele>
        <time>2022-07-30T08:54:29Z</time>
      </trkpt>
      <trkpt lat="46.32836" lon="5.48813">
        <ele>492.4</ele>
        <time>2022-07-30T08:54:35Z</time>
      </trkpt>
      <trkpt lat="46.3286" lon="5.48821">
        <ele>492.8</ele>
        <time>2022-07-30T08:54:39Z</time>
      </trkpt>
      <trkpt lat="46.32909" lon="5.48841">
        <ele>493.4</ele>
        <time>2022-07-30T08:54:47Z</time>
      </trkpt>
      <trkpt lat="46.32913" lon="5.48842">
        <ele>493.6</ele>
        <time>2022-07-30T08:54:48Z</time>
      </trkpt>
      <trkpt lat="46.3296" lon="5.4886">
        <ele>494.6</ele>
        <time>2022-07-30T08:54:56Z</time>
      </trkpt>
      <trkpt lat="46.33014" lon="5.48882">
        <ele>495.6</ele>
        <time>2022-07-30T08:55:04Z</time>
      </trkpt>
      <trkpt lat="46.33019" lon="5.48884">
        <ele>495.6</ele>
        <time>2022-07-30T08:55:05Z</time>
      </trkpt>
      <trkpt lat="46.33025" lon="5.48888">
        <ele>495.6</ele>
        <time>2022-07-30T08:55:06Z</time>
      </trkpt>
      <trkpt lat="46.33045" lon="5.48904">
        <ele>496</ele>
        <time>2022-07-30T08:55:10Z</time>
      </trkpt>
      <trkpt lat="46.33061" lon="5.48917">
        <ele>496.4</ele>
        <time>2022-07-30T08:55:13Z</time>
      </trkpt>
      <trkpt lat="46.33066" lon="5.4892">
        <ele>496.6</ele>
        <time>2022-07-30T08:55:14Z</time>
      </trkpt>
      <trkpt lat="46.33083" lon="5.4893">
        <ele>497.2</ele>
        <time>2022-07-30T08:55:18Z</time>
      </trkpt>
      <trkpt lat="46.3311" lon="5.48942">
        <ele>497.6</ele>
        <time>2022-07-30T08:55:22Z</time>
      </trkpt>
      <trkpt lat="46.33139" lon="5.48955">
        <ele>497.8</ele>
        <time>2022-07-30T08:55:27Z</time>
      </trkpt>
      <trkpt lat="46.33183" lon="5.48973">
        <ele>498.8</ele>
        <time>2022-07-30T08:55:35Z</time>
      </trkpt>
      <trkpt lat="46.33188" lon="5.48976">
        <ele>499</ele>
        <time>2022-07-30T08:55:36Z</time>
      </trkpt>
      <trkpt lat="46.33198" lon="5.48981">
        <ele>499.4</ele>
        <time>2022-07-30T08:55:38Z</time>
      </trkpt>
      <trkpt lat="46.33206" lon="5.48984">
        <ele>499.8</ele>
        <time>2022-07-30T08:55:40Z</time>
      </trkpt>
      <trkpt lat="46.33217" lon="5.48988">
        <ele>500</ele>
        <time>2022-07-30T08:55:42Z</time>
      </trkpt>
      <trkpt lat="46.33233" lon="5.4899">
        <ele>500.2</ele>
        <time>2022-07-30T08:55:45Z</time>
      </trkpt>
      <trkpt lat="46.33239" lon="5.48991">
        <ele>500.4</ele>
        <time>2022-07-30T08:55:46Z</time>
      </trkpt>
      <trkpt lat="46.33244" lon="5.4899">
        <ele>500.4</ele>
        <time>2022-07-30T08:55:47Z</time>
      </trkpt>
      <trkpt lat="46.33253" lon="5.48984">
        <ele>500.6</ele>
        <time>2022-07-30T08:55:49Z</time>
      </trkpt>
      <trkpt lat="46.33258" lon="5.48979">
        <ele>500.6</ele>
        <time>2022-07-30T08:55:50Z</time>
      </trkpt>
      <trkpt lat="46.3326" lon="5.48973">
        <ele>500.8</ele>
        <time>2022-07-30T08:55:51Z</time>
      </trkpt>
      <trkpt lat="46.33261" lon="5.48963">
        <ele>500.8</ele>
        <time>2022-07-30T08:55:52Z</time>
      </trkpt>
      <trkpt lat="46.33263" lon="5.48923">
        <ele>501.8</ele>
        <time>2022-07-30T08:55:56Z</time>
      </trkpt>
      <trkpt lat="46.33263" lon="5.48903">
        <ele>501.8</ele>
        <time>2022-07-30T08:55:58Z</time>
      </trkpt>
      <trkpt lat="46.33263" lon="5.48864">
        <ele>501.8</ele>
        <time>2022-07-30T08:56:02Z</time>
      </trkpt>
      <trkpt lat="46.33269" lon="5.48792">
        <ele>500.2</ele>
        <time>2022-07-30T08:56:10Z</time>
      </trkpt>
      <trkpt lat="46.33269" lon="5.48783">
        <ele>500</ele>
        <time>2022-07-30T08:56:11Z</time>
      </trkpt>
      <trkpt lat="46.33277" lon="5.48718">
        <ele>499.6</ele>
        <time>2022-07-30T08:56:18Z</time>
      </trkpt>
      <trkpt lat="46.33288" lon="5.48653">
        <ele>499.8</ele>
        <time>2022-07-30T08:56:25Z</time>
      </trkpt>
      <trkpt lat="46.33296" lon="5.48601">
        <ele>500</ele>
        <time>2022-07-30T08:56:31Z</time>
      </trkpt>
      <trkpt lat="46.33299" lon="5.48593">
        <ele>500</ele>
        <time>2022-07-30T08:56:32Z</time>
      </trkpt>
      <trkpt lat="46.33306" lon="5.48577">
        <ele>499.8</ele>
        <time>2022-07-30T08:56:34Z</time>
      </trkpt>
      <trkpt lat="46.3331" lon="5.4857">
        <ele>499.2</ele>
        <time>2022-07-30T08:56:35Z</time>
      </trkpt>
      <trkpt lat="46.33316" lon="5.48564">
        <ele>498.8</ele>
        <time>2022-07-30T08:56:36Z</time>
      </trkpt>
      <trkpt lat="46.33342" lon="5.48545">
        <ele>498</ele>
        <time>2022-07-30T08:56:40Z</time>
      </trkpt>
      <trkpt lat="46.33348" lon="5.48538">
        <ele>498</ele>
        <time>2022-07-30T08:56:41Z</time>
      </trkpt>
      <trkpt lat="46.33359" lon="5.48521">
        <ele>497.6</ele>
        <time>2022-07-30T08:56:43Z</time>
      </trkpt>
      <trkpt lat="46.33363" lon="5.48512">
        <ele>497.2</ele>
        <time>2022-07-30T08:56:44Z</time>
      </trkpt>
      <trkpt lat="46.33365" lon="5.48501">
        <ele>497</ele>
        <time>2022-07-30T08:56:45Z</time>
      </trkpt>
      <trkpt lat="46.33369" lon="5.48479">
        <ele>496.8</ele>
        <time>2022-07-30T08:56:48Z</time>
      </trkpt>
      <trkpt lat="46.33382" lon="5.48393">
        <ele>496.6</ele>
        <time>2022-07-30T08:56:55Z</time>
      </trkpt>
      <trkpt lat="46.33389" lon="5.48354">
        <ele>497</ele>
        <time>2022-07-30T08:56:59Z</time>
      </trkpt>
      <trkpt lat="46.33399" lon="5.4829">
        <ele>497.8</ele>
        <time>2022-07-30T08:57:05Z</time>
      </trkpt>
      <trkpt lat="46.33403" lon="5.48269">
        <ele>497.8</ele>
        <time>2022-07-30T08:57:07Z</time>
      </trkpt>
      <trkpt lat="46.3341" lon="5.48237">
        <ele>498</ele>
        <time>2022-07-30T08:57:10Z</time>
      </trkpt>
      <trkpt lat="46.3342" lon="5.48219">
        <ele>497.8</ele>
        <time>2022-07-30T08:57:12Z</time>
      </trkpt>
      <trkpt lat="46.33454" lon="5.48175">
        <ele>498</ele>
        <time>2022-07-30T08:57:18Z</time>
      </trkpt>
      <trkpt lat="46.33459" lon="5.48168">
        <ele>498</ele>
        <time>2022-07-30T08:57:19Z</time>
      </trkpt>
      <trkpt lat="46.33501" lon="5.48114">
        <ele>498.2</ele>
        <time>2022-07-30T08:57:27Z</time>
      </trkpt>
      <trkpt lat="46.33523" lon="5.48095">
        <ele>498.4</ele>
        <time>2022-07-30T08:57:31Z</time>
      </trkpt>
      <trkpt lat="46.3356" lon="5.48069">
        <ele>499</ele>
        <time>2022-07-30T08:57:38Z</time>
      </trkpt>
      <trkpt lat="46.33564" lon="5.48065">
        <ele>499</ele>
        <time>2022-07-30T08:57:39Z</time>
      </trkpt>
      <trkpt lat="46.33582" lon="5.48051">
        <ele>500.2</ele>
        <time>2022-07-30T08:57:43Z</time>
      </trkpt>
      <trkpt lat="46.33599" lon="5.48035">
        <ele>501</ele>
        <time>2022-07-30T08:57:47Z</time>
      </trkpt>
      <trkpt lat="46.33603" lon="5.48032">
        <ele>501.6</ele>
        <time>2022-07-30T08:57:48Z</time>
      </trkpt>
      <trkpt lat="46.33618" lon="5.48018">
        <ele>502.6</ele>
        <time>2022-07-30T08:57:52Z</time>
      </trkpt>
      <trkpt lat="46.3363" lon="5.48007">
        <ele>503.2</ele>
        <time>2022-07-30T08:57:55Z</time>
      </trkpt>
      <trkpt lat="46.33641" lon="5.47998">
        <ele>503.8</ele>
        <time>2022-07-30T08:57:58Z</time>
      </trkpt>
      <trkpt lat="46.33649" lon="5.4799">
        <ele>504.2</ele>
        <time>2022-07-30T08:58:00Z</time>
      </trkpt>
      <trkpt lat="46.33655" lon="5.47983">
        <ele>504.6</ele>
        <time>2022-07-30T08:58:02Z</time>
      </trkpt>
      <trkpt lat="46.33659" lon="5.47978">
        <ele>504.8</ele>
        <time>2022-07-30T08:58:03Z</time>
      </trkpt>
      <trkpt lat="46.33663" lon="5.47974">
        <ele>505</ele>
        <time>2022-07-30T08:58:04Z</time>
      </trkpt>
      <trkpt lat="46.33669" lon="5.47965">
        <ele>505.2</ele>
        <time>2022-07-30T08:58:06Z</time>
      </trkpt>
      <trkpt lat="46.33674" lon="5.47954">
        <ele>505.4</ele>
        <time>2022-07-30T08:58:08Z</time>
      </trkpt>
      <trkpt lat="46.3368" lon="5.47937">
        <ele>506</ele>
        <time>2022-07-30T08:58:11Z</time>
      </trkpt>
      <trkpt lat="46.33683" lon="5.47916">
        <ele>507</ele>
        <time>2022-07-30T08:58:14Z</time>
      </trkpt>
      <trkpt lat="46.33684" lon="5.47909">
        <ele>507.2</ele>
        <time>2022-07-30T08:58:15Z</time>
      </trkpt>
      <trkpt lat="46.33685" lon="5.47895">
        <ele>507.4</ele>
        <time>2022-07-30T08:58:17Z</time>
      </trkpt>
      <trkpt lat="46.33691" lon="5.47884">
        <ele>507.4</ele>
        <time>2022-07-30T08:58:19Z</time>
      </trkpt>
      <trkpt lat="46.33698" lon="5.47878">
        <ele>508</ele>
        <time>2022-07-30T08:58:21Z</time>
      </trkpt>
      <trkpt lat="46.33703" lon="5.47877">
        <ele>508</ele>
        <time>2022-07-30T08:58:22Z</time>
      </trkpt>
      <trkpt lat="46.33708" lon="5.47879">
        <ele>508</ele>
        <time>2022-07-30T08:58:23Z</time>
      </trkpt>
      <trkpt lat="46.3373" lon="5.47884">
        <ele>508.4</ele>
        <time>2022-07-30T08:58:27Z</time>
      </trkpt>
      <trkpt lat="46.33768" lon="5.47896">
        <ele>508.6</ele>
        <time>2022-07-30T08:58:33Z</time>
      </trkpt>
      <trkpt lat="46.33806" lon="5.4791">
        <ele>508.2</ele>
        <time>2022-07-30T08:58:39Z</time>
      </trkpt>
      <trkpt lat="46.33858" lon="5.47918">
        <ele>507.8</ele>
        <time>2022-07-30T08:58:47Z</time>
      </trkpt>
      <trkpt lat="46.33911" lon="5.47915">
        <ele>509</ele>
        <time>2022-07-30T08:58:56Z</time>
      </trkpt>
      <trkpt lat="46.33943" lon="5.47908">
        <ele>510.2</ele>
        <time>2022-07-30T08:59:02Z</time>
      </trkpt>
      <trkpt lat="46.33949" lon="5.47905">
        <ele>510.4</ele>
        <time>2022-07-30T08:59:03Z</time>
      </trkpt>
      <trkpt lat="46.33954" lon="5.47903">
        <ele>510.6</ele>
        <time>2022-07-30T08:59:04Z</time>
      </trkpt>
      <trkpt lat="46.3398" lon="5.47887">
        <ele>511</ele>
        <time>2022-07-30T08:59:09Z</time>
      </trkpt>
      <trkpt lat="46.34016" lon="5.47857">
        <ele>510.8</ele>
        <time>2022-07-30T08:59:15Z</time>
      </trkpt>
      <trkpt lat="46.34054" lon="5.4781">
        <ele>510.4</ele>
        <time>2022-07-30T08:59:22Z</time>
      </trkpt>
      <trkpt lat="46.34097" lon="5.4776">
        <ele>509.6</ele>
        <time>2022-07-30T08:59:30Z</time>
      </trkpt>
      <trkpt lat="46.34111" lon="5.47755">
        <ele>509.6</ele>
        <time>2022-07-30T08:59:32Z</time>
      </trkpt>
      <trkpt lat="46.34125" lon="5.47754">
        <ele>509.6</ele>
        <time>2022-07-30T08:59:34Z</time>
      </trkpt>
      <trkpt lat="46.34169" lon="5.47761">
        <ele>510.2</ele>
        <time>2022-07-30T08:59:40Z</time>
      </trkpt>
      <trkpt lat="46.3422" lon="5.47775">
        <ele>509.4</ele>
        <time>2022-07-30T08:59:46Z</time>
      </trkpt>
      <trkpt lat="46.34229" lon="5.47778">
        <ele>508.8</ele>
        <time>2022-07-30T08:59:47Z</time>
      </trkpt>
      <trkpt lat="46.3426" lon="5.47787">
        <ele>507.4</ele>
        <time>2022-07-30T08:59:50Z</time>
      </trkpt>
      <trkpt lat="46.34281" lon="5.47792">
        <ele>505.6</ele>
        <time>2022-07-30T08:59:52Z</time>
      </trkpt>
      <trkpt lat="46.34321" lon="5.47799">
        <ele>503.8</ele>
        <time>2022-07-30T08:59:55Z</time>
      </trkpt>
      <trkpt lat="46.34333" lon="5.478">
        <ele>502.2</ele>
        <time>2022-07-30T08:59:56Z</time>
      </trkpt>
      <trkpt lat="46.34358" lon="5.47798">
        <ele>500.4</ele>
        <time>2022-07-30T08:59:58Z</time>
      </trkpt>
      <trkpt lat="46.34373" lon="5.47795">
        <ele>499.8</ele>
        <time>2022-07-30T08:59:59Z</time>
      </trkpt>
      <trkpt lat="46.34383" lon="5.47792">
        <ele>498.8</ele>
        <time>2022-07-30T09:00:00Z</time>
      </trkpt>
      <trkpt lat="46.34395" lon="5.47788">
        <ele>497.6</ele>
        <time>2022-07-30T09:00:01Z</time>
      </trkpt>
      <trkpt lat="46.34407" lon="5.47781">
        <ele>497.2</ele>
        <time>2022-07-30T09:00:02Z</time>
      </trkpt>
      <trkpt lat="46.34422" lon="5.4777">
        <ele>495.6</ele>
        <time>2022-07-30T09:00:03Z</time>
      </trkpt>
      <trkpt lat="46.34431" lon="5.47762">
        <ele>494.8</ele>
        <time>2022-07-30T09:00:04Z</time>
      </trkpt>
      <trkpt lat="46.34441" lon="5.47749">
        <ele>493.8</ele>
        <time>2022-07-30T09:00:05Z</time>
      </trkpt>
      <trkpt lat="46.34452" lon="5.47731">
        <ele>493.2</ele>
        <time>2022-07-30T09:00:06Z</time>
      </trkpt>
      <trkpt lat="46.34459" lon="5.47716">
        <ele>492.6</ele>
        <time>2022-07-30T09:00:07Z</time>
      </trkpt>
      <trkpt lat="46.34464" lon="5.47704">
        <ele>491.4</ele>
        <time>2022-07-30T09:00:08Z</time>
      </trkpt>
      <trkpt lat="46.34479" lon="5.47675">
        <ele>489.8</ele>
        <time>2022-07-30T09:00:10Z</time>
      </trkpt>
      <trkpt lat="46.34494" lon="5.47646">
        <ele>488.2</ele>
        <time>2022-07-30T09:00:12Z</time>
      </trkpt>
      <trkpt lat="46.345" lon="5.47637">
        <ele>486.8</ele>
        <time>2022-07-30T09:00:13Z</time>
      </trkpt>
      <trkpt lat="46.34522" lon="5.47598">
        <ele>485.6</ele>
        <time>2022-07-30T09:00:16Z</time>
      </trkpt>
      <trkpt lat="46.34553" lon="5.47552">
        <ele>484.6</ele>
        <time>2022-07-30T09:00:20Z</time>
      </trkpt>
      <trkpt lat="46.34563" lon="5.47538">
        <ele>484.6</ele>
        <time>2022-07-30T09:00:21Z</time>
      </trkpt>
      <trkpt lat="46.34591" lon="5.47504">
        <ele>483.6</ele>
        <time>2022-07-30T09:00:24Z</time>
      </trkpt>
      <trkpt lat="46.34601" lon="5.47493">
        <ele>483.2</ele>
        <time>2022-07-30T09:00:25Z</time>
      </trkpt>
      <trkpt lat="46.34609" lon="5.47484">
        <ele>482</ele>
        <time>2022-07-30T09:00:26Z</time>
      </trkpt>
      <trkpt lat="46.34618" lon="5.47471">
        <ele>480.8</ele>
        <time>2022-07-30T09:00:27Z</time>
      </trkpt>
      <trkpt lat="46.34627" lon="5.47454">
        <ele>480.2</ele>
        <time>2022-07-30T09:00:28Z</time>
      </trkpt>
      <trkpt lat="46.34632" lon="5.47442">
        <ele>479</ele>
        <time>2022-07-30T09:00:29Z</time>
      </trkpt>
      <trkpt lat="46.34637" lon="5.47425">
        <ele>478.8</ele>
        <time>2022-07-30T09:00:30Z</time>
      </trkpt>
      <trkpt lat="46.34642" lon="5.47404">
        <ele>477.6</ele>
        <time>2022-07-30T09:00:31Z</time>
      </trkpt>
      <trkpt lat="46.34649" lon="5.4737">
        <ele>475.6</ele>
        <time>2022-07-30T09:00:33Z</time>
      </trkpt>
      <trkpt lat="46.34652" lon="5.47354">
        <ele>474.2</ele>
        <time>2022-07-30T09:00:34Z</time>
      </trkpt>
      <trkpt lat="46.34658" lon="5.47324">
        <ele>472.6</ele>
        <time>2022-07-30T09:00:36Z</time>
      </trkpt>
      <trkpt lat="46.34662" lon="5.47279">
        <ele>472</ele>
        <time>2022-07-30T09:00:39Z</time>
      </trkpt>
      <trkpt lat="46.3466" lon="5.47264">
        <ele>471.8</ele>
        <time>2022-07-30T09:00:40Z</time>
      </trkpt>
      <trkpt lat="46.34655" lon="5.47249">
        <ele>471.2</ele>
        <time>2022-07-30T09:00:41Z</time>
      </trkpt>
      <trkpt lat="46.3464" lon="5.47219">
        <ele>470.8</ele>
        <time>2022-07-30T09:00:43Z</time>
      </trkpt>
      <trkpt lat="46.34622" lon="5.47193">
        <ele>469.8</ele>
        <time>2022-07-30T09:00:45Z</time>
      </trkpt>
      <trkpt lat="46.34612" lon="5.47182">
        <ele>469.4</ele>
        <time>2022-07-30T09:00:46Z</time>
      </trkpt>
      <trkpt lat="46.34589" lon="5.47163">
        <ele>468.4</ele>
        <time>2022-07-30T09:00:48Z</time>
      </trkpt>
      <trkpt lat="46.34566" lon="5.47149">
        <ele>467</ele>
        <time>2022-07-30T09:00:50Z</time>
      </trkpt>
      <trkpt lat="46.34543" lon="5.47134">
        <ele>465.8</ele>
        <time>2022-07-30T09:00:52Z</time>
      </trkpt>
      <trkpt lat="46.3451" lon="5.47107">
        <ele>464.8</ele>
        <time>2022-07-30T09:00:55Z</time>
      </trkpt>
      <trkpt lat="46.34501" lon="5.47096">
        <ele>464.4</ele>
        <time>2022-07-30T09:00:56Z</time>
      </trkpt>
      <trkpt lat="46.34485" lon="5.47071">
        <ele>463.8</ele>
        <time>2022-07-30T09:00:58Z</time>
      </trkpt>
      <trkpt lat="46.34473" lon="5.4704">
        <ele>463</ele>
        <time>2022-07-30T09:01:00Z</time>
      </trkpt>
      <trkpt lat="46.34469" lon="5.47023">
        <ele>462.6</ele>
        <time>2022-07-30T09:01:01Z</time>
      </trkpt>
      <trkpt lat="46.34462" lon="5.46988">
        <ele>461.6</ele>
        <time>2022-07-30T09:01:03Z</time>
      </trkpt>
      <trkpt lat="46.34449" lon="5.46959">
        <ele>460.2</ele>
        <time>2022-07-30T09:01:05Z</time>
      </trkpt>
      <trkpt lat="46.3444" lon="5.46947">
        <ele>459</ele>
        <time>2022-07-30T09:01:06Z</time>
      </trkpt>
      <trkpt lat="46.34419" lon="5.46929">
        <ele>458</ele>
        <time>2022-07-30T09:01:08Z</time>
      </trkpt>
      <trkpt lat="46.34393" lon="5.46916">
        <ele>456.2</ele>
        <time>2022-07-30T09:01:10Z</time>
      </trkpt>
      <trkpt lat="46.3438" lon="5.46911">
        <ele>455</ele>
        <time>2022-07-30T09:01:11Z</time>
      </trkpt>
      <trkpt lat="46.34354" lon="5.46902">
        <ele>452.8</ele>
        <time>2022-07-30T09:01:13Z</time>
      </trkpt>
      <trkpt lat="46.34344" lon="5.46896">
        <ele>452.4</ele>
        <time>2022-07-30T09:01:14Z</time>
      </trkpt>
      <trkpt lat="46.34337" lon="5.46885">
        <ele>451.8</ele>
        <time>2022-07-30T09:01:15Z</time>
      </trkpt>
      <trkpt lat="46.34332" lon="5.46852">
        <ele>450.8</ele>
        <time>2022-07-30T09:01:17Z</time>
      </trkpt>
      <trkpt lat="46.34334" lon="5.46836">
        <ele>450</ele>
        <time>2022-07-30T09:01:18Z</time>
      </trkpt>
      <trkpt lat="46.34337" lon="5.46804">
        <ele>449.4</ele>
        <time>2022-07-30T09:01:20Z</time>
      </trkpt>
      <trkpt lat="46.34334" lon="5.46788">
        <ele>449.2</ele>
        <time>2022-07-30T09:01:21Z</time>
      </trkpt>
      <trkpt lat="46.34328" lon="5.46775">
        <ele>448.4</ele>
        <time>2022-07-30T09:01:22Z</time>
      </trkpt>
      <trkpt lat="46.3432" lon="5.46764">
        <ele>447.6</ele>
        <time>2022-07-30T09:01:23Z</time>
      </trkpt>
      <trkpt lat="46.34311" lon="5.46755">
        <ele>447.4</ele>
        <time>2022-07-30T09:01:24Z</time>
      </trkpt>
      <trkpt lat="46.34302" lon="5.46748">
        <ele>445.8</ele>
        <time>2022-07-30T09:01:25Z</time>
      </trkpt>
      <trkpt lat="46.34283" lon="5.46731">
        <ele>444.4</ele>
        <time>2022-07-30T09:01:27Z</time>
      </trkpt>
      <trkpt lat="46.34228" lon="5.46686">
        <ele>443.4</ele>
        <time>2022-07-30T09:01:33Z</time>
      </trkpt>
      <trkpt lat="46.34204" lon="5.46662">
        <ele>443.2</ele>
        <time>2022-07-30T09:01:36Z</time>
      </trkpt>
      <trkpt lat="46.342" lon="5.46648">
        <ele>443</ele>
        <time>2022-07-30T09:01:37Z</time>
      </trkpt>
      <trkpt lat="46.34201" lon="5.46633">
        <ele>442.6</ele>
        <time>2022-07-30T09:01:38Z</time>
      </trkpt>
      <trkpt lat="46.34201" lon="5.46616">
        <ele>442.2</ele>
        <time>2022-07-30T09:01:39Z</time>
      </trkpt>
      <trkpt lat="46.34204" lon="5.46601">
        <ele>442</ele>
        <time>2022-07-30T09:01:40Z</time>
      </trkpt>
      <trkpt lat="46.34209" lon="5.46588">
        <ele>441.4</ele>
        <time>2022-07-30T09:01:41Z</time>
      </trkpt>
      <trkpt lat="46.34215" lon="5.46577">
        <ele>441.4</ele>
        <time>2022-07-30T09:01:42Z</time>
      </trkpt>
      <trkpt lat="46.34231" lon="5.46565">
        <ele>440.6</ele>
        <time>2022-07-30T09:01:44Z</time>
      </trkpt>
      <trkpt lat="46.34271" lon="5.46541">
        <ele>439.6</ele>
        <time>2022-07-30T09:01:48Z</time>
      </trkpt>
      <trkpt lat="46.3428" lon="5.46535">
        <ele>439.6</ele>
        <time>2022-07-30T09:01:49Z</time>
      </trkpt>
      <trkpt lat="46.34301" lon="5.46507">
        <ele>439.4</ele>
        <time>2022-07-30T09:01:52Z</time>
      </trkpt>
      <trkpt lat="46.34305" lon="5.46496">
        <ele>439.4</ele>
        <time>2022-07-30T09:01:53Z</time>
      </trkpt>
      <trkpt lat="46.34308" lon="5.46473">
        <ele>439.4</ele>
        <time>2022-07-30T09:01:55Z</time>
      </trkpt>
      <trkpt lat="46.34304" lon="5.46448">
        <ele>439.6</ele>
        <time>2022-07-30T09:01:57Z</time>
      </trkpt>
      <trkpt lat="46.34297" lon="5.4642">
        <ele>439.6</ele>
        <time>2022-07-30T09:01:59Z</time>
      </trkpt>
      <trkpt lat="46.34297" lon="5.46406">
        <ele>439.8</ele>
        <time>2022-07-30T09:02:00Z</time>
      </trkpt>
      <trkpt lat="46.34301" lon="5.46378">
        <ele>440.2</ele>
        <time>2022-07-30T09:02:02Z</time>
      </trkpt>
      <trkpt lat="46.34304" lon="5.46352">
        <ele>440.4</ele>
        <time>2022-07-30T09:02:04Z</time>
      </trkpt>
      <trkpt lat="46.34302" lon="5.46325">
        <ele>440.6</ele>
        <time>2022-07-30T09:02:06Z</time>
      </trkpt>
      <trkpt lat="46.34302" lon="5.46312">
        <ele>440.8</ele>
        <time>2022-07-30T09:02:07Z</time>
      </trkpt>
      <trkpt lat="46.34301" lon="5.46287">
        <ele>440.8</ele>
        <time>2022-07-30T09:02:09Z</time>
      </trkpt>
      <trkpt lat="46.34304" lon="5.4626">
        <ele>440.8</ele>
        <time>2022-07-30T09:02:11Z</time>
      </trkpt>
      <trkpt lat="46.34313" lon="5.46248">
        <ele>441</ele>
        <time>2022-07-30T09:02:12Z</time>
      </trkpt>
      <trkpt lat="46.34322" lon="5.46237">
        <ele>441</ele>
        <time>2022-07-30T09:02:13Z</time>
      </trkpt>
      <trkpt lat="46.34343" lon="5.46212">
        <ele>441</ele>
        <time>2022-07-30T09:02:16Z</time>
      </trkpt>
      <trkpt lat="46.34383" lon="5.46169">
        <ele>440.8</ele>
        <time>2022-07-30T09:02:22Z</time>
      </trkpt>
      <trkpt lat="46.34409" lon="5.46149">
        <ele>440.6</ele>
        <time>2022-07-30T09:02:26Z</time>
      </trkpt>
      <trkpt lat="46.34423" lon="5.46148">
        <ele>440.4</ele>
        <time>2022-07-30T09:02:28Z</time>
      </trkpt>
      <trkpt lat="46.34437" lon="5.46152">
        <ele>440.2</ele>
        <time>2022-07-30T09:02:30Z</time>
      </trkpt>
      <trkpt lat="46.34443" lon="5.46156">
        <ele>440.2</ele>
        <time>2022-07-30T09:02:31Z</time>
      </trkpt>
      <trkpt lat="46.34454" lon="5.46167">
        <ele>440</ele>
        <time>2022-07-30T09:02:33Z</time>
      </trkpt>
      <trkpt lat="46.34468" lon="5.46178">
        <ele>439.8</ele>
        <time>2022-07-30T09:02:35Z</time>
      </trkpt>
      <trkpt lat="46.34475" lon="5.46181">
        <ele>439.6</ele>
        <time>2022-07-30T09:02:36Z</time>
      </trkpt>
      <trkpt lat="46.34485" lon="5.4618">
        <ele>439.4</ele>
        <time>2022-07-30T09:02:37Z</time>
      </trkpt>
      <trkpt lat="46.345" lon="5.4617">
        <ele>439</ele>
        <time>2022-07-30T09:02:39Z</time>
      </trkpt>
      <trkpt lat="46.34512" lon="5.46151">
        <ele>438.6</ele>
        <time>2022-07-30T09:02:41Z</time>
      </trkpt>
      <trkpt lat="46.34515" lon="5.46139">
        <ele>438.4</ele>
        <time>2022-07-30T09:02:42Z</time>
      </trkpt>
      <trkpt lat="46.34517" lon="5.46125">
        <ele>438.2</ele>
        <time>2022-07-30T09:02:43Z</time>
      </trkpt>
      <trkpt lat="46.34522" lon="5.46095">
        <ele>437.8</ele>
        <time>2022-07-30T09:02:45Z</time>
      </trkpt>
      <trkpt lat="46.34525" lon="5.46081">
        <ele>437.2</ele>
        <time>2022-07-30T09:02:46Z</time>
      </trkpt>
      <trkpt lat="46.34528" lon="5.46068">
        <ele>436.4</ele>
        <time>2022-07-30T09:02:47Z</time>
      </trkpt>
      <trkpt lat="46.34534" lon="5.46057">
        <ele>436</ele>
        <time>2022-07-30T09:02:48Z</time>
      </trkpt>
      <trkpt lat="46.34541" lon="5.46051">
        <ele>435.2</ele>
        <time>2022-07-30T09:02:49Z</time>
      </trkpt>
      <trkpt lat="46.3455" lon="5.46049">
        <ele>434.8</ele>
        <time>2022-07-30T09:02:50Z</time>
      </trkpt>
      <trkpt lat="46.34582" lon="5.46047">
        <ele>433.2</ele>
        <time>2022-07-30T09:02:53Z</time>
      </trkpt>
      <trkpt lat="46.34605" lon="5.46044">
        <ele>432.2</ele>
        <time>2022-07-30T09:02:55Z</time>
      </trkpt>
      <trkpt lat="46.34629" lon="5.4604">
        <ele>430.6</ele>
        <time>2022-07-30T09:02:57Z</time>
      </trkpt>
      <trkpt lat="46.3464" lon="5.46038">
        <ele>429.2</ele>
        <time>2022-07-30T09:02:58Z</time>
      </trkpt>
      <trkpt lat="46.34664" lon="5.46035">
        <ele>427.4</ele>
        <time>2022-07-30T09:03:00Z</time>
      </trkpt>
      <trkpt lat="46.34677" lon="5.46032">
        <ele>426.4</ele>
        <time>2022-07-30T09:03:01Z</time>
      </trkpt>
      <trkpt lat="46.34702" lon="5.46028">
        <ele>424.4</ele>
        <time>2022-07-30T09:03:03Z</time>
      </trkpt>
      <trkpt lat="46.34727" lon="5.46023">
        <ele>423</ele>
        <time>2022-07-30T09:03:05Z</time>
      </trkpt>
      <trkpt lat="46.34753" lon="5.46018">
        <ele>422</ele>
        <time>2022-07-30T09:03:07Z</time>
      </trkpt>
      <trkpt lat="46.34781" lon="5.46012">
        <ele>420.6</ele>
        <time>2022-07-30T09:03:09Z</time>
      </trkpt>
      <trkpt lat="46.34794" lon="5.4601">
        <ele>419.2</ele>
        <time>2022-07-30T09:03:10Z</time>
      </trkpt>
      <trkpt lat="46.34822" lon="5.46006">
        <ele>417.2</ele>
        <time>2022-07-30T09:03:12Z</time>
      </trkpt>
      <trkpt lat="46.34833" lon="5.46004">
        <ele>416.4</ele>
        <time>2022-07-30T09:03:13Z</time>
      </trkpt>
      <trkpt lat="46.3485" lon="5.46002">
        <ele>415.4</ele>
        <time>2022-07-30T09:03:14Z</time>
      </trkpt>
      <trkpt lat="46.34864" lon="5.46002">
        <ele>413.8</ele>
        <time>2022-07-30T09:03:15Z</time>
      </trkpt>
      <trkpt lat="46.34891" lon="5.46">
        <ele>411.6</ele>
        <time>2022-07-30T09:03:17Z</time>
      </trkpt>
      <trkpt lat="46.34906" lon="5.45999">
        <ele>410.8</ele>
        <time>2022-07-30T09:03:18Z</time>
      </trkpt>
      <trkpt lat="46.3492" lon="5.45999">
        <ele>409.6</ele>
        <time>2022-07-30T09:03:19Z</time>
      </trkpt>
      <trkpt lat="46.34948" lon="5.45996">
        <ele>407.6</ele>
        <time>2022-07-30T09:03:21Z</time>
      </trkpt>
      <trkpt lat="46.34976" lon="5.45994">
        <ele>406</ele>
        <time>2022-07-30T09:03:23Z</time>
      </trkpt>
      <trkpt lat="46.34989" lon="5.45993">
        <ele>404.8</ele>
        <time>2022-07-30T09:03:24Z</time>
      </trkpt>
      <trkpt lat="46.35017" lon="5.45991">
        <ele>402.8</ele>
        <time>2022-07-30T09:03:26Z</time>
      </trkpt>
      <trkpt lat="46.35031" lon="5.45989">
        <ele>402.2</ele>
        <time>2022-07-30T09:03:27Z</time>
      </trkpt>
      <trkpt lat="46.35045" lon="5.45988">
        <ele>401.6</ele>
        <time>2022-07-30T09:03:28Z</time>
      </trkpt>
      <trkpt lat="46.35072" lon="5.45985">
        <ele>400.2</ele>
        <time>2022-07-30T09:03:30Z</time>
      </trkpt>
      <trkpt lat="46.35086" lon="5.45984">
        <ele>398.8</ele>
        <time>2022-07-30T09:03:31Z</time>
      </trkpt>
      <trkpt lat="46.35113" lon="5.45981">
        <ele>397.2</ele>
        <time>2022-07-30T09:03:33Z</time>
      </trkpt>
      <trkpt lat="46.35141" lon="5.45979">
        <ele>395.8</ele>
        <time>2022-07-30T09:03:35Z</time>
      </trkpt>
      <trkpt lat="46.35169" lon="5.45978">
        <ele>394.8</ele>
        <time>2022-07-30T09:03:37Z</time>
      </trkpt>
      <trkpt lat="46.35183" lon="5.45977">
        <ele>392.8</ele>
        <time>2022-07-30T09:03:38Z</time>
      </trkpt>
      <trkpt lat="46.35211" lon="5.45975">
        <ele>391</ele>
        <time>2022-07-30T09:03:40Z</time>
      </trkpt>
      <trkpt lat="46.35239" lon="5.45975">
        <ele>389.4</ele>
        <time>2022-07-30T09:03:42Z</time>
      </trkpt>
      <trkpt lat="46.35253" lon="5.45975">
        <ele>387.6</ele>
        <time>2022-07-30T09:03:43Z</time>
      </trkpt>
      <trkpt lat="46.35281" lon="5.45975">
        <ele>386.2</ele>
        <time>2022-07-30T09:03:45Z</time>
      </trkpt>
      <trkpt lat="46.35309" lon="5.45976">
        <ele>384.4</ele>
        <time>2022-07-30T09:03:47Z</time>
      </trkpt>
      <trkpt lat="46.35339" lon="5.45979">
        <ele>382.4</ele>
        <time>2022-07-30T09:03:49Z</time>
      </trkpt>
      <trkpt lat="46.35353" lon="5.45979">
        <ele>381</ele>
        <time>2022-07-30T09:03:50Z</time>
      </trkpt>
      <trkpt lat="46.35367" lon="5.4598">
        <ele>380</ele>
        <time>2022-07-30T09:03:51Z</time>
      </trkpt>
      <trkpt lat="46.3538" lon="5.4598">
        <ele>378.6</ele>
        <time>2022-07-30T09:03:52Z</time>
      </trkpt>
      <trkpt lat="46.35408" lon="5.4598">
        <ele>377.4</ele>
        <time>2022-07-30T09:03:54Z</time>
      </trkpt>
      <trkpt lat="46.35423" lon="5.45979">
        <ele>377.2</ele>
        <time>2022-07-30T09:03:55Z</time>
      </trkpt>
      <trkpt lat="46.35437" lon="5.45977">
        <ele>376.2</ele>
        <time>2022-07-30T09:03:56Z</time>
      </trkpt>
      <trkpt lat="46.35464" lon="5.45973">
        <ele>374.8</ele>
        <time>2022-07-30T09:03:58Z</time>
      </trkpt>
      <trkpt lat="46.35478" lon="5.45971">
        <ele>373.6</ele>
        <time>2022-07-30T09:03:59Z</time>
      </trkpt>
      <trkpt lat="46.35505" lon="5.45968">
        <ele>372.2</ele>
        <time>2022-07-30T09:04:01Z</time>
      </trkpt>
      <trkpt lat="46.35519" lon="5.45968">
        <ele>371.8</ele>
        <time>2022-07-30T09:04:02Z</time>
      </trkpt>
      <trkpt lat="46.35532" lon="5.45968">
        <ele>370.4</ele>
        <time>2022-07-30T09:04:03Z</time>
      </trkpt>
      <trkpt lat="46.35546" lon="5.4597">
        <ele>369.4</ele>
        <time>2022-07-30T09:04:04Z</time>
      </trkpt>
      <trkpt lat="46.35572" lon="5.45975">
        <ele>367.2</ele>
        <time>2022-07-30T09:04:06Z</time>
      </trkpt>
      <trkpt lat="46.35596" lon="5.45984">
        <ele>364.8</ele>
        <time>2022-07-30T09:04:08Z</time>
      </trkpt>
      <trkpt lat="46.35617" lon="5.45993">
        <ele>362.8</ele>
        <time>2022-07-30T09:04:10Z</time>
      </trkpt>
      <trkpt lat="46.35628" lon="5.45997">
        <ele>361.4</ele>
        <time>2022-07-30T09:04:11Z</time>
      </trkpt>
      <trkpt lat="46.35648" lon="5.45992">
        <ele>360.4</ele>
        <time>2022-07-30T09:04:13Z</time>
      </trkpt>
      <trkpt lat="46.35678" lon="5.45985">
        <ele>359.2</ele>
        <time>2022-07-30T09:04:16Z</time>
      </trkpt>
      <trkpt lat="46.35687" lon="5.45984">
        <ele>358.4</ele>
        <time>2022-07-30T09:04:17Z</time>
      </trkpt>
      <trkpt lat="46.35697" lon="5.45983">
        <ele>357.2</ele>
        <time>2022-07-30T09:04:18Z</time>
      </trkpt>
      <trkpt lat="46.35722" lon="5.45985">
        <ele>356</ele>
        <time>2022-07-30T09:04:21Z</time>
      </trkpt>
      <trkpt lat="46.35757" lon="5.45992">
        <ele>355.6</ele>
        <time>2022-07-30T09:04:26Z</time>
      </trkpt>
      <trkpt lat="46.35762" lon="5.46003">
        <ele>355.6</ele>
        <time>2022-07-30T09:04:28Z</time>
      </trkpt>
      <trkpt lat="46.35763" lon="5.46019">
        <ele>355.6</ele>
        <time>2022-07-30T09:04:30Z</time>
      </trkpt>
      <trkpt lat="46.35763" lon="5.46034">
        <ele>355.6</ele>
        <time>2022-07-30T09:04:32Z</time>
      </trkpt>
      <trkpt lat="46.35762" lon="5.46069">
        <ele>356</ele>
        <time>2022-07-30T09:04:36Z</time>
      </trkpt>
      <trkpt lat="46.35762" lon="5.46078">
        <ele>356</ele>
        <time>2022-07-30T09:04:37Z</time>
      </trkpt>
      <trkpt lat="46.35771" lon="5.46131">
        <ele>356.2</ele>
        <time>2022-07-30T09:04:43Z</time>
      </trkpt>
      <trkpt lat="46.35772" lon="5.46139">
        <ele>356.2</ele>
        <time>2022-07-30T09:04:44Z</time>
      </trkpt>
      <trkpt lat="46.35774" lon="5.46162">
        <ele>356.6</ele>
        <time>2022-07-30T09:04:47Z</time>
      </trkpt>
      <trkpt lat="46.35774" lon="5.46177">
        <ele>357</ele>
        <time>2022-07-30T09:04:49Z</time>
      </trkpt>
      <trkpt lat="46.35775" lon="5.46192">
        <ele>357.4</ele>
        <time>2022-07-30T09:04:51Z</time>
      </trkpt>
      <trkpt lat="46.35777" lon="5.46206">
        <ele>358</ele>
        <time>2022-07-30T09:04:53Z</time>
      </trkpt>
      <trkpt lat="46.3578" lon="5.46221">
        <ele>358.2</ele>
        <time>2022-07-30T09:04:55Z</time>
      </trkpt>
      <trkpt lat="46.35784" lon="5.46234">
        <ele>358.6</ele>
        <time>2022-07-30T09:04:57Z</time>
      </trkpt>
      <trkpt lat="46.35787" lon="5.4624">
        <ele>358.8</ele>
        <time>2022-07-30T09:04:58Z</time>
      </trkpt>
      <trkpt lat="46.35795" lon="5.46249">
        <ele>359</ele>
        <time>2022-07-30T09:05:00Z</time>
      </trkpt>
      <trkpt lat="46.35806" lon="5.46256">
        <ele>359.2</ele>
        <time>2022-07-30T09:05:02Z</time>
      </trkpt>
      <trkpt lat="46.35823" lon="5.46265">
        <ele>359.6</ele>
        <time>2022-07-30T09:05:05Z</time>
      </trkpt>
      <trkpt lat="46.35833" lon="5.46274">
        <ele>359.6</ele>
        <time>2022-07-30T09:05:07Z</time>
      </trkpt>
      <trkpt lat="46.35842" lon="5.46286">
        <ele>359.8</ele>
        <time>2022-07-30T09:05:09Z</time>
      </trkpt>
      <trkpt lat="46.35848" lon="5.46302">
        <ele>359.8</ele>
        <time>2022-07-30T09:05:11Z</time>
      </trkpt>
      <trkpt lat="46.35856" lon="5.46346">
        <ele>360.2</ele>
        <time>2022-07-30T09:05:16Z</time>
      </trkpt>
      <trkpt lat="46.35853" lon="5.46392">
        <ele>360.2</ele>
        <time>2022-07-30T09:05:21Z</time>
      </trkpt>
      <trkpt lat="46.35847" lon="5.46438">
        <ele>360.2</ele>
        <time>2022-07-30T09:05:26Z</time>
      </trkpt>
      <trkpt lat="46.35845" lon="5.46447">
        <ele>360.2</ele>
        <time>2022-07-30T09:05:27Z</time>
      </trkpt>
      <trkpt lat="46.35839" lon="5.46473">
        <ele>360.2</ele>
        <time>2022-07-30T09:05:30Z</time>
      </trkpt>
      <trkpt lat="46.35838" lon="5.46491">
        <ele>360.2</ele>
        <time>2022-07-30T09:05:32Z</time>
      </trkpt>
      <trkpt lat="46.35843" lon="5.46505">
        <ele>360.2</ele>
        <time>2022-07-30T09:05:34Z</time>
      </trkpt>
      <trkpt lat="46.35848" lon="5.4651">
        <ele>360.2</ele>
        <time>2022-07-30T09:05:35Z</time>
      </trkpt>
      <trkpt lat="46.35859" lon="5.46517">
        <ele>360.6</ele>
        <time>2022-07-30T09:05:37Z</time>
      </trkpt>
      <trkpt lat="46.3587" lon="5.46526">
        <ele>360.8</ele>
        <time>2022-07-30T09:05:39Z</time>
      </trkpt>
      <trkpt lat="46.35881" lon="5.46533">
        <ele>361</ele>
        <time>2022-07-30T09:05:41Z</time>
      </trkpt>
      <trkpt lat="46.35893" lon="5.46542">
        <ele>361.2</ele>
        <time>2022-07-30T09:05:43Z</time>
      </trkpt>
      <trkpt lat="46.35902" lon="5.46555">
        <ele>361.4</ele>
        <time>2022-07-30T09:05:45Z</time>
      </trkpt>
      <trkpt lat="46.35905" lon="5.46562">
        <ele>361.4</ele>
        <time>2022-07-30T09:05:46Z</time>
      </trkpt>
      <trkpt lat="46.35925" lon="5.46599">
        <ele>361.6</ele>
        <time>2022-07-30T09:05:51Z</time>
      </trkpt>
      <trkpt lat="46.35935" lon="5.46614">
        <ele>361.6</ele>
        <time>2022-07-30T09:05:53Z</time>
      </trkpt>
      <trkpt lat="46.35953" lon="5.46639">
        <ele>361.8</ele>
        <time>2022-07-30T09:05:57Z</time>
      </trkpt>
      <trkpt lat="46.35964" lon="5.46648">
        <ele>362</ele>
        <time>2022-07-30T09:05:59Z</time>
      </trkpt>
      <trkpt lat="46.35968" lon="5.46653">
        <ele>362</ele>
        <time>2022-07-30T09:06:00Z</time>
      </trkpt>
      <trkpt lat="46.35999" lon="5.46676">
        <ele>362.6</ele>
        <time>2022-07-30T09:06:06Z</time>
      </trkpt>
      <trkpt lat="46.36026" lon="5.46695">
        <ele>363.8</ele>
        <time>2022-07-30T09:06:12Z</time>
      </trkpt>
      <trkpt lat="46.36053" lon="5.46714">
        <ele>364.8</ele>
        <time>2022-07-30T09:06:18Z</time>
      </trkpt>
      <trkpt lat="46.36056" lon="5.46717">
        <ele>365.2</ele>
        <time>2022-07-30T09:06:19Z</time>
      </trkpt>
      <trkpt lat="46.36061" lon="5.46722">
        <ele>365.4</ele>
        <time>2022-07-30T09:06:20Z</time>
      </trkpt>
      <trkpt lat="46.36085" lon="5.46745">
        <ele>366</ele>
        <time>2022-07-30T09:06:26Z</time>
      </trkpt>
      <trkpt lat="46.36099" lon="5.4676">
        <ele>366.6</ele>
        <time>2022-07-30T09:06:30Z</time>
      </trkpt>
      <trkpt lat="46.36107" lon="5.46769">
        <ele>367.2</ele>
        <time>2022-07-30T09:06:32Z</time>
      </trkpt>
      <trkpt lat="46.36121" lon="5.46788">
        <ele>368</ele>
        <time>2022-07-30T09:06:36Z</time>
      </trkpt>
      <trkpt lat="46.36124" lon="5.46793">
        <ele>368.2</ele>
        <time>2022-07-30T09:06:37Z</time>
      </trkpt>
      <trkpt lat="46.36131" lon="5.46802">
        <ele>368.4</ele>
        <time>2022-07-30T09:06:39Z</time>
      </trkpt>
      <trkpt lat="46.36138" lon="5.4681">
        <ele>368.8</ele>
        <time>2022-07-30T09:06:41Z</time>
      </trkpt>
      <trkpt lat="46.36142" lon="5.46814">
        <ele>369.4</ele>
        <time>2022-07-30T09:06:42Z</time>
      </trkpt>
      <trkpt lat="46.36144" lon="5.46818">
        <ele>369.4</ele>
        <time>2022-07-30T09:06:43Z</time>
      </trkpt>
      <trkpt lat="46.36151" lon="5.46826">
        <ele>370.2</ele>
        <time>2022-07-30T09:06:46Z</time>
      </trkpt>
      <trkpt lat="46.36152" lon="5.46829">
        <ele>370.8</ele>
        <time>2022-07-30T09:06:47Z</time>
      </trkpt>
      <trkpt lat="46.36156" lon="5.46836">
        <ele>371.6</ele>
        <time>2022-07-30T09:06:49Z</time>
      </trkpt>
      <trkpt lat="46.36161" lon="5.46842">
        <ele>372.4</ele>
        <time>2022-07-30T09:06:51Z</time>
      </trkpt>
      <trkpt lat="46.36167" lon="5.46848">
        <ele>373</ele>
        <time>2022-07-30T09:06:53Z</time>
      </trkpt>
      <trkpt lat="46.36178" lon="5.46857">
        <ele>374.2</ele>
        <time>2022-07-30T09:06:56Z</time>
      </trkpt>
      <trkpt lat="46.362" lon="5.46879">
        <ele>375.2</ele>
        <time>2022-07-30T09:07:02Z</time>
      </trkpt>
      <trkpt lat="46.3621" lon="5.46886">
        <ele>375.6</ele>
        <time>2022-07-30T09:07:05Z</time>
      </trkpt>
      <trkpt lat="46.36218" lon="5.46891">
        <ele>376</ele>
        <time>2022-07-30T09:07:07Z</time>
      </trkpt>
      <trkpt lat="46.36232" lon="5.469">
        <ele>376.4</ele>
        <time>2022-07-30T09:07:10Z</time>
      </trkpt>
      <trkpt lat="46.36238" lon="5.46903">
        <ele>376.8</ele>
        <time>2022-07-30T09:07:12Z</time>
      </trkpt>
      <trkpt lat="46.36257" lon="5.46913">
        <ele>377.6</ele>
        <time>2022-07-30T09:07:16Z</time>
      </trkpt>
      <trkpt lat="46.36262" lon="5.46917">
        <ele>377.8</ele>
        <time>2022-07-30T09:07:17Z</time>
      </trkpt>
      <trkpt lat="46.36274" lon="5.46922">
        <ele>378.2</ele>
        <time>2022-07-30T09:07:19Z</time>
      </trkpt>
      <trkpt lat="46.36283" lon="5.46928">
        <ele>378.2</ele>
        <time>2022-07-30T09:07:21Z</time>
      </trkpt>
      <trkpt lat="46.36293" lon="5.46933">
        <ele>378.2</ele>
        <time>2022-07-30T09:07:23Z</time>
      </trkpt>
      <trkpt lat="46.36315" lon="5.46944">
        <ele>378.4</ele>
        <time>2022-07-30T09:07:27Z</time>
      </trkpt>
      <trkpt lat="46.36344" lon="5.46955">
        <ele>378.4</ele>
        <time>2022-07-30T09:07:32Z</time>
      </trkpt>
      <trkpt lat="46.36388" lon="5.46972">
        <ele>378.2</ele>
        <time>2022-07-30T09:07:39Z</time>
      </trkpt>
      <trkpt lat="46.36394" lon="5.46975">
        <ele>378</ele>
        <time>2022-07-30T09:07:40Z</time>
      </trkpt>
      <trkpt lat="46.36434" lon="5.46994">
        <ele>377.2</ele>
        <time>2022-07-30T09:07:46Z</time>
      </trkpt>
      <trkpt lat="46.36474" lon="5.47019">
        <ele>376.6</ele>
        <time>2022-07-30T09:07:52Z</time>
      </trkpt>
      <trkpt lat="46.36493" lon="5.47031">
        <ele>376.4</ele>
        <time>2022-07-30T09:07:55Z</time>
      </trkpt>
      <trkpt lat="46.36527" lon="5.47054">
        <ele>376.8</ele>
        <time>2022-07-30T09:08:01Z</time>
      </trkpt>
      <trkpt lat="46.36543" lon="5.47063">
        <ele>377.8</ele>
        <time>2022-07-30T09:08:04Z</time>
      </trkpt>
      <trkpt lat="46.36562" lon="5.47076">
        <ele>378.6</ele>
        <time>2022-07-30T09:08:08Z</time>
      </trkpt>
      <trkpt lat="46.36567" lon="5.4708">
        <ele>378.8</ele>
        <time>2022-07-30T09:08:09Z</time>
      </trkpt>
      <trkpt lat="46.36586" lon="5.47088">
        <ele>379.4</ele>
        <time>2022-07-30T09:08:12Z</time>
      </trkpt>
      <trkpt lat="46.36591" lon="5.47092">
        <ele>379.6</ele>
        <time>2022-07-30T09:08:13Z</time>
      </trkpt>
      <trkpt lat="46.36609" lon="5.47101">
        <ele>379.6</ele>
        <time>2022-07-30T09:08:16Z</time>
      </trkpt>
      <trkpt lat="46.36632" lon="5.47113">
        <ele>379.4</ele>
        <time>2022-07-30T09:08:20Z</time>
      </trkpt>
      <trkpt lat="46.36642" lon="5.4712">
        <ele>379.6</ele>
        <time>2022-07-30T09:08:22Z</time>
      </trkpt>
      <trkpt lat="46.36678" lon="5.4714">
        <ele>379.6</ele>
        <time>2022-07-30T09:08:28Z</time>
      </trkpt>
      <trkpt lat="46.36709" lon="5.47158">
        <ele>379.8</ele>
        <time>2022-07-30T09:08:34Z</time>
      </trkpt>
      <trkpt lat="46.36714" lon="5.47162">
        <ele>379.8</ele>
        <time>2022-07-30T09:08:35Z</time>
      </trkpt>
      <trkpt lat="46.36719" lon="5.47166">
        <ele>380.2</ele>
        <time>2022-07-30T09:08:36Z</time>
      </trkpt>
      <trkpt lat="46.36758" lon="5.472">
        <ele>381.4</ele>
        <time>2022-07-30T09:08:44Z</time>
      </trkpt>
      <trkpt lat="46.36787" lon="5.47225">
        <ele>382</ele>
        <time>2022-07-30T09:08:50Z</time>
      </trkpt>
      <trkpt lat="46.36797" lon="5.47232">
        <ele>382.6</ele>
        <time>2022-07-30T09:08:52Z</time>
      </trkpt>
      <trkpt lat="46.36817" lon="5.47244">
        <ele>383.8</ele>
        <time>2022-07-30T09:08:56Z</time>
      </trkpt>
      <trkpt lat="46.36822" lon="5.47246">
        <ele>384.2</ele>
        <time>2022-07-30T09:08:57Z</time>
      </trkpt>
      <trkpt lat="46.36839" lon="5.47254">
        <ele>384.8</ele>
        <time>2022-07-30T09:09:00Z</time>
      </trkpt>
      <trkpt lat="46.3685" lon="5.47259">
        <ele>385</ele>
        <time>2022-07-30T09:09:02Z</time>
      </trkpt>
      <trkpt lat="46.36884" lon="5.47276">
        <ele>385.2</ele>
        <time>2022-07-30T09:09:08Z</time>
      </trkpt>
      <trkpt lat="46.36887" lon="5.47279">
        <ele>385.4</ele>
        <time>2022-07-30T09:09:09Z</time>
      </trkpt>
      <trkpt lat="46.36898" lon="5.47292">
        <ele>385.6</ele>
        <time>2022-07-30T09:09:12Z</time>
      </trkpt>
      <trkpt lat="46.36911" lon="5.47305">
        <ele>386</ele>
        <time>2022-07-30T09:09:15Z</time>
      </trkpt>
      <trkpt lat="46.36924" lon="5.47317">
        <ele>386.6</ele>
        <time>2022-07-30T09:09:18Z</time>
      </trkpt>
      <trkpt lat="46.3693" lon="5.47324">
        <ele>386.8</ele>
        <time>2022-07-30T09:09:20Z</time>
      </trkpt>
      <trkpt lat="46.36932" lon="5.47328">
        <ele>386.8</ele>
        <time>2022-07-30T09:09:21Z</time>
      </trkpt>
      <trkpt lat="46.36936" lon="5.4733">
        <ele>387</ele>
        <time>2022-07-30T09:09:22Z</time>
      </trkpt>
      <trkpt lat="46.36946" lon="5.47336">
        <ele>387</ele>
        <time>2022-07-30T09:09:24Z</time>
      </trkpt>
      <trkpt lat="46.36956" lon="5.47342">
        <ele>387.6</ele>
        <time>2022-07-30T09:09:26Z</time>
      </trkpt>
      <trkpt lat="46.36969" lon="5.47346">
        <ele>388</ele>
        <time>2022-07-30T09:09:29Z</time>
      </trkpt>
      <trkpt lat="46.36975" lon="5.47349">
        <ele>388.4</ele>
        <time>2022-07-30T09:09:31Z</time>
      </trkpt>
      <trkpt lat="46.3699" lon="5.47357">
        <ele>389</ele>
        <time>2022-07-30T09:09:35Z</time>
      </trkpt>
      <trkpt lat="46.36994" lon="5.47358">
        <ele>389.2</ele>
        <time>2022-07-30T09:09:36Z</time>
      </trkpt>
      <trkpt lat="46.37" lon="5.47361">
        <ele>390.2</ele>
        <time>2022-07-30T09:09:39Z</time>
      </trkpt>
      <trkpt lat="46.37004" lon="5.47363">
        <ele>390.8</ele>
        <time>2022-07-30T09:09:40Z</time>
      </trkpt>
      <trkpt lat="46.37012" lon="5.47366">
        <ele>391.2</ele>
        <time>2022-07-30T09:09:41Z</time>
      </trkpt>
      <trkpt lat="46.37016" lon="5.4737">
        <ele>391.4</ele>
        <time>2022-07-30T09:09:42Z</time>
      </trkpt>
      <trkpt lat="46.37036" lon="5.47379">
        <ele>392.6</ele>
        <time>2022-07-30T09:09:47Z</time>
      </trkpt>
      <trkpt lat="46.37038" lon="5.47381">
        <ele>392.8</ele>
        <time>2022-07-30T09:09:48Z</time>
      </trkpt>
      <trkpt lat="46.37044" lon="5.47385">
        <ele>393.6</ele>
        <time>2022-07-30T09:09:51Z</time>
      </trkpt>
      <trkpt lat="46.37059" lon="5.47389">
        <ele>394.4</ele>
        <time>2022-07-30T09:09:53Z</time>
      </trkpt>
      <trkpt lat="46.37064" lon="5.47391">
        <ele>394.8</ele>
        <time>2022-07-30T09:09:54Z</time>
      </trkpt>
      <trkpt lat="46.37083" lon="5.47401">
        <ele>395.6</ele>
        <time>2022-07-30T09:09:59Z</time>
      </trkpt>
      <trkpt lat="46.37089" lon="5.47403">
        <ele>396</ele>
        <time>2022-07-30T09:10:00Z</time>
      </trkpt>
      <trkpt lat="46.37106" lon="5.47409">
        <ele>396.4</ele>
        <time>2022-07-30T09:10:04Z</time>
      </trkpt>
      <trkpt lat="46.37111" lon="5.47413">
        <ele>397.2</ele>
        <time>2022-07-30T09:10:07Z</time>
      </trkpt>
      <trkpt lat="46.37123" lon="5.4742">
        <ele>398.2</ele>
        <time>2022-07-30T09:10:11Z</time>
      </trkpt>
      <trkpt lat="46.37126" lon="5.47421">
        <ele>398.4</ele>
        <time>2022-07-30T09:10:12Z</time>
      </trkpt>
      <trkpt lat="46.37143" lon="5.47425">
        <ele>399.4</ele>
        <time>2022-07-30T09:10:17Z</time>
      </trkpt>
      <trkpt lat="46.37147" lon="5.47427">
        <ele>399.6</ele>
        <time>2022-07-30T09:10:18Z</time>
      </trkpt>
      <trkpt lat="46.37159" lon="5.47435">
        <ele>400.4</ele>
        <time>2022-07-30T09:10:21Z</time>
      </trkpt>
      <trkpt lat="46.37164" lon="5.47446">
        <ele>400.6</ele>
        <time>2022-07-30T09:10:23Z</time>
      </trkpt>
      <trkpt lat="46.37172" lon="5.47477">
        <ele>401.4</ele>
        <time>2022-07-30T09:10:28Z</time>
      </trkpt>
      <trkpt lat="46.37174" lon="5.47483">
        <ele>401.4</ele>
        <time>2022-07-30T09:10:29Z</time>
      </trkpt>
      <trkpt lat="46.37184" lon="5.47511">
        <ele>402.2</ele>
        <time>2022-07-30T09:10:34Z</time>
      </trkpt>
      <trkpt lat="46.37186" lon="5.47516">
        <ele>402.4</ele>
        <time>2022-07-30T09:10:35Z</time>
      </trkpt>
      <trkpt lat="46.37196" lon="5.4754">
        <ele>403.8</ele>
        <time>2022-07-30T09:10:40Z</time>
      </trkpt>
      <trkpt lat="46.37206" lon="5.47565">
        <ele>405</ele>
        <time>2022-07-30T09:10:45Z</time>
      </trkpt>
      <trkpt lat="46.37206" lon="5.47571">
        <ele>405</ele>
        <time>2022-07-30T09:10:46Z</time>
      </trkpt>
      <trkpt lat="46.37217" lon="5.47592">
        <ele>406.4</ele>
        <time>2022-07-30T09:10:50Z</time>
      </trkpt>
      <trkpt lat="46.37219" lon="5.47602">
        <ele>406.8</ele>
        <time>2022-07-30T09:10:52Z</time>
      </trkpt>
      <trkpt lat="46.37226" lon="5.47624">
        <ele>407.6</ele>
        <time>2022-07-30T09:10:57Z</time>
      </trkpt>
      <trkpt lat="46.37229" lon="5.47632">
        <ele>408</ele>
        <time>2022-07-30T09:10:59Z</time>
      </trkpt>
      <trkpt lat="46.37234" lon="5.47643">
        <ele>408.6</ele>
        <time>2022-07-30T09:11:02Z</time>
      </trkpt>
      <trkpt lat="46.37237" lon="5.4765">
        <ele>409.2</ele>
        <time>2022-07-30T09:11:04Z</time>
      </trkpt>
      <trkpt lat="46.37244" lon="5.47661">
        <ele>409.8</ele>
        <time>2022-07-30T09:11:07Z</time>
      </trkpt>
      <trkpt lat="46.37254" lon="5.47675">
        <ele>411</ele>
        <time>2022-07-30T09:11:11Z</time>
      </trkpt>
      <trkpt lat="46.37256" lon="5.47679">
        <ele>411</ele>
        <time>2022-07-30T09:11:12Z</time>
      </trkpt>
      <trkpt lat="46.37268" lon="5.47695">
        <ele>412.2</ele>
        <time>2022-07-30T09:11:17Z</time>
      </trkpt>
      <trkpt lat="46.37283" lon="5.47711">
        <ele>413.4</ele>
        <time>2022-07-30T09:11:22Z</time>
      </trkpt>
      <trkpt lat="46.37286" lon="5.47713">
        <ele>413.6</ele>
        <time>2022-07-30T09:11:23Z</time>
      </trkpt>
      <trkpt lat="46.37291" lon="5.47719">
        <ele>414.2</ele>
        <time>2022-07-30T09:11:25Z</time>
      </trkpt>
      <trkpt lat="46.37298" lon="5.47724">
        <ele>414.6</ele>
        <time>2022-07-30T09:11:27Z</time>
      </trkpt>
      <trkpt lat="46.37309" lon="5.47734">
        <ele>415.8</ele>
        <time>2022-07-30T09:11:31Z</time>
      </trkpt>
      <trkpt lat="46.37312" lon="5.47737">
        <ele>415.8</ele>
        <time>2022-07-30T09:11:32Z</time>
      </trkpt>
      <trkpt lat="46.37315" lon="5.4774">
        <ele>416</ele>
        <time>2022-07-30T09:11:33Z</time>
      </trkpt>
      <trkpt lat="46.37317" lon="5.47746">
        <ele>416.6</ele>
        <time>2022-07-30T09:11:35Z</time>
      </trkpt>
      <trkpt lat="46.37317" lon="5.47748">
        <ele>416.8</ele>
        <time>2022-07-30T09:11:36Z</time>
      </trkpt>
      <trkpt lat="46.37321" lon="5.4775">
        <ele>417</ele>
        <time>2022-07-30T09:11:37Z</time>
      </trkpt>
      <trkpt lat="46.37325" lon="5.47752">
        <ele>417.4</ele>
        <time>2022-07-30T09:11:38Z</time>
      </trkpt>
      <trkpt lat="46.37341" lon="5.47762">
        <ele>418</ele>
        <time>2022-07-30T09:11:41Z</time>
      </trkpt>
      <trkpt lat="46.3735" lon="5.47767">
        <ele>418.4</ele>
        <time>2022-07-30T09:11:43Z</time>
      </trkpt>
      <trkpt lat="46.37361" lon="5.47774">
        <ele>419.2</ele>
        <time>2022-07-30T09:11:47Z</time>
      </trkpt>
      <trkpt lat="46.37369" lon="5.47778">
        <ele>419.4</ele>
        <time>2022-07-30T09:11:49Z</time>
      </trkpt>
      <trkpt lat="46.37385" lon="5.47785">
        <ele>420.2</ele>
        <time>2022-07-30T09:11:53Z</time>
      </trkpt>
      <trkpt lat="46.37387" lon="5.47786">
        <ele>420.4</ele>
        <time>2022-07-30T09:11:54Z</time>
      </trkpt>
      <trkpt lat="46.37403" lon="5.47795">
        <ele>421.6</ele>
        <time>2022-07-30T09:11:59Z</time>
      </trkpt>
      <trkpt lat="46.37406" lon="5.47795">
        <ele>421.8</ele>
        <time>2022-07-30T09:12:00Z</time>
      </trkpt>
      <trkpt lat="46.37418" lon="5.47793">
        <ele>422.8</ele>
        <time>2022-07-30T09:12:04Z</time>
      </trkpt>
      <trkpt lat="46.3742" lon="5.47793">
        <ele>423</ele>
        <time>2022-07-30T09:12:05Z</time>
      </trkpt>
      <trkpt lat="46.37425" lon="5.47792">
        <ele>423.6</ele>
        <time>2022-07-30T09:12:08Z</time>
      </trkpt>
      <trkpt lat="46.37429" lon="5.47791">
        <ele>423.8</ele>
        <time>2022-07-30T09:12:10Z</time>
      </trkpt>
      <trkpt lat="46.37448" lon="5.47796">
        <ele>424.8</ele>
        <time>2022-07-30T09:12:16Z</time>
      </trkpt>
      <trkpt lat="46.37472" lon="5.47803">
        <ele>425.2</ele>
        <time>2022-07-30T09:12:22Z</time>
      </trkpt>
      <trkpt lat="46.37482" lon="5.47806">
        <ele>425.6</ele>
        <time>2022-07-30T09:12:25Z</time>
      </trkpt>
      <trkpt lat="46.37495" lon="5.4781">
        <ele>426.2</ele>
        <time>2022-07-30T09:12:28Z</time>
      </trkpt>
      <trkpt lat="46.37521" lon="5.47815">
        <ele>426.6</ele>
        <time>2022-07-30T09:12:33Z</time>
      </trkpt>
      <trkpt lat="46.37524" lon="5.47816">
        <ele>426.8</ele>
        <time>2022-07-30T09:12:34Z</time>
      </trkpt>
      <trkpt lat="46.37546" lon="5.47824">
        <ele>426.8</ele>
        <time>2022-07-30T09:12:38Z</time>
      </trkpt>
      <trkpt lat="46.37584" lon="5.47832">
        <ele>427.6</ele>
        <time>2022-07-30T09:12:44Z</time>
      </trkpt>
      <trkpt lat="46.37594" lon="5.47835">
        <ele>427.8</ele>
        <time>2022-07-30T09:12:46Z</time>
      </trkpt>
      <trkpt lat="46.37601" lon="5.47838">
        <ele>428</ele>
        <time>2022-07-30T09:12:48Z</time>
      </trkpt>
      <trkpt lat="46.37608" lon="5.47844">
        <ele>428.4</ele>
        <time>2022-07-30T09:12:50Z</time>
      </trkpt>
      <trkpt lat="46.37617" lon="5.47847">
        <ele>428.8</ele>
        <time>2022-07-30T09:12:52Z</time>
      </trkpt>
      <trkpt lat="46.37631" lon="5.47854">
        <ele>429.8</ele>
        <time>2022-07-30T09:12:57Z</time>
      </trkpt>
      <trkpt lat="46.37634" lon="5.47857">
        <ele>430</ele>
        <time>2022-07-30T09:12:58Z</time>
      </trkpt>
      <trkpt lat="46.37643" lon="5.47861">
        <ele>430.4</ele>
        <time>2022-07-30T09:13:00Z</time>
      </trkpt>
      <trkpt lat="46.37654" lon="5.4787">
        <ele>430.8</ele>
        <time>2022-07-30T09:13:03Z</time>
      </trkpt>
      <trkpt lat="46.37666" lon="5.47875">
        <ele>431.6</ele>
        <time>2022-07-30T09:13:07Z</time>
      </trkpt>
      <trkpt lat="46.3767" lon="5.47879">
        <ele>431.8</ele>
        <time>2022-07-30T09:13:08Z</time>
      </trkpt>
      <trkpt lat="46.37677" lon="5.47883">
        <ele>431.8</ele>
        <time>2022-07-30T09:13:09Z</time>
      </trkpt>
      <trkpt lat="46.37691" lon="5.4789">
        <ele>432.2</ele>
        <time>2022-07-30T09:13:11Z</time>
      </trkpt>
      <trkpt lat="46.37701" lon="5.47893">
        <ele>432.8</ele>
        <time>2022-07-30T09:13:13Z</time>
      </trkpt>
      <trkpt lat="46.37706" lon="5.47897">
        <ele>433.2</ele>
        <time>2022-07-30T09:13:14Z</time>
      </trkpt>
      <trkpt lat="46.37732" lon="5.47912">
        <ele>434.2</ele>
        <time>2022-07-30T09:13:19Z</time>
      </trkpt>
      <trkpt lat="46.37738" lon="5.47915">
        <ele>434.2</ele>
        <time>2022-07-30T09:13:20Z</time>
      </trkpt>
      <trkpt lat="46.37755" lon="5.47928">
        <ele>435.2</ele>
        <time>2022-07-30T09:13:24Z</time>
      </trkpt>
      <trkpt lat="46.37759" lon="5.47932">
        <ele>435.6</ele>
        <time>2022-07-30T09:13:25Z</time>
      </trkpt>
      <trkpt lat="46.37777" lon="5.47951">
        <ele>436.6</ele>
        <time>2022-07-30T09:13:29Z</time>
      </trkpt>
      <trkpt lat="46.37783" lon="5.47956">
        <ele>436.8</ele>
        <time>2022-07-30T09:13:30Z</time>
      </trkpt>
      <trkpt lat="46.37787" lon="5.47962">
        <ele>437</ele>
        <time>2022-07-30T09:13:31Z</time>
      </trkpt>
      <trkpt lat="46.3779" lon="5.47965">
        <ele>437</ele>
        <time>2022-07-30T09:13:32Z</time>
      </trkpt>
      <trkpt lat="46.37798" lon="5.47973">
        <ele>437.4</ele>
        <time>2022-07-30T09:13:34Z</time>
      </trkpt>
      <trkpt lat="46.37801" lon="5.47978">
        <ele>437.6</ele>
        <time>2022-07-30T09:13:35Z</time>
      </trkpt>
      <trkpt lat="46.37813" lon="5.47994">
        <ele>438.2</ele>
        <time>2022-07-30T09:13:39Z</time>
      </trkpt>
      <trkpt lat="46.37828" lon="5.48009">
        <ele>438.6</ele>
        <time>2022-07-30T09:13:43Z</time>
      </trkpt>
      <trkpt lat="46.37853" lon="5.48035">
        <ele>439.6</ele>
        <time>2022-07-30T09:13:50Z</time>
      </trkpt>
      <trkpt lat="46.37859" lon="5.48044">
        <ele>439.8</ele>
        <time>2022-07-30T09:13:52Z</time>
      </trkpt>
      <trkpt lat="46.37874" lon="5.48066">
        <ele>440.8</ele>
        <time>2022-07-30T09:13:57Z</time>
      </trkpt>
      <trkpt lat="46.37879" lon="5.48077">
        <ele>441.4</ele>
        <time>2022-07-30T09:13:59Z</time>
      </trkpt>
      <trkpt lat="46.37884" lon="5.48089">
        <ele>441.6</ele>
        <time>2022-07-30T09:14:01Z</time>
      </trkpt>
      <trkpt lat="46.37886" lon="5.48095">
        <ele>442</ele>
        <time>2022-07-30T09:14:02Z</time>
      </trkpt>
      <trkpt lat="46.3789" lon="5.48114">
        <ele>442.8</ele>
        <time>2022-07-30T09:14:05Z</time>
      </trkpt>
      <trkpt lat="46.37894" lon="5.48125">
        <ele>443</ele>
        <time>2022-07-30T09:14:07Z</time>
      </trkpt>
      <trkpt lat="46.37896" lon="5.4813">
        <ele>443.2</ele>
        <time>2022-07-30T09:14:08Z</time>
      </trkpt>
      <trkpt lat="46.37899" lon="5.48134">
        <ele>443.4</ele>
        <time>2022-07-30T09:14:09Z</time>
      </trkpt>
      <trkpt lat="46.37902" lon="5.48138">
        <ele>443.6</ele>
        <time>2022-07-30T09:14:10Z</time>
      </trkpt>
      <trkpt lat="46.37905" lon="5.48143">
        <ele>444</ele>
        <time>2022-07-30T09:14:11Z</time>
      </trkpt>
      <trkpt lat="46.3791" lon="5.48152">
        <ele>444.4</ele>
        <time>2022-07-30T09:14:13Z</time>
      </trkpt>
      <trkpt lat="46.37916" lon="5.48166">
        <ele>445.8</ele>
        <time>2022-07-30T09:14:17Z</time>
      </trkpt>
      <trkpt lat="46.37918" lon="5.48176">
        <ele>446</ele>
        <time>2022-07-30T09:14:19Z</time>
      </trkpt>
      <trkpt lat="46.37925" lon="5.48184">
        <ele>446.2</ele>
        <time>2022-07-30T09:14:21Z</time>
      </trkpt>
      <trkpt lat="46.37928" lon="5.48188">
        <ele>446.6</ele>
        <time>2022-07-30T09:14:22Z</time>
      </trkpt>
      <trkpt lat="46.37946" lon="5.48208">
        <ele>447.8</ele>
        <time>2022-07-30T09:14:27Z</time>
      </trkpt>
      <trkpt lat="46.37967" lon="5.48223">
        <ele>449</ele>
        <time>2022-07-30T09:14:32Z</time>
      </trkpt>
      <trkpt lat="46.37973" lon="5.48227">
        <ele>449.2</ele>
        <time>2022-07-30T09:14:33Z</time>
      </trkpt>
      <trkpt lat="46.37997" lon="5.48242">
        <ele>450.2</ele>
        <time>2022-07-30T09:14:38Z</time>
      </trkpt>
      <trkpt lat="46.38002" lon="5.48244">
        <ele>450.4</ele>
        <time>2022-07-30T09:14:39Z</time>
      </trkpt>
      <trkpt lat="46.38035" lon="5.48257">
        <ele>451</ele>
        <time>2022-07-30T09:14:45Z</time>
      </trkpt>
      <trkpt lat="46.38058" lon="5.48269">
        <ele>451</ele>
        <time>2022-07-30T09:14:49Z</time>
      </trkpt>
      <trkpt lat="46.38089" lon="5.4828">
        <ele>451</ele>
        <time>2022-07-30T09:14:56Z</time>
      </trkpt>
      <trkpt lat="46.38091" lon="5.48281">
        <ele>451.4</ele>
        <time>2022-07-30T09:14:57Z</time>
      </trkpt>
      <trkpt lat="46.38101" lon="5.48282">
        <ele>452.6</ele>
        <time>2022-07-30T09:15:00Z</time>
      </trkpt>
      <trkpt lat="46.38118" lon="5.48284">
        <ele>453.8</ele>
        <time>2022-07-30T09:15:04Z</time>
      </trkpt>
      <trkpt lat="46.38122" lon="5.48285">
        <ele>454.2</ele>
        <time>2022-07-30T09:15:06Z</time>
      </trkpt>
      <trkpt lat="46.38132" lon="5.48289">
        <ele>455</ele>
        <time>2022-07-30T09:15:10Z</time>
      </trkpt>
      <trkpt lat="46.38138" lon="5.48292">
        <ele>455.2</ele>
        <time>2022-07-30T09:15:12Z</time>
      </trkpt>
      <trkpt lat="46.38149" lon="5.48295">
        <ele>455.4</ele>
        <time>2022-07-30T09:15:14Z</time>
      </trkpt>
      <trkpt lat="46.38155" lon="5.48298">
        <ele>455.6</ele>
        <time>2022-07-30T09:15:16Z</time>
      </trkpt>
      <trkpt lat="46.38161" lon="5.483">
        <ele>455.8</ele>
        <time>2022-07-30T09:15:18Z</time>
      </trkpt>
      <trkpt lat="46.38164" lon="5.48302">
        <ele>456</ele>
        <time>2022-07-30T09:15:19Z</time>
      </trkpt>
      <trkpt lat="46.38172" lon="5.48308">
        <ele>456.6</ele>
        <time>2022-07-30T09:15:21Z</time>
      </trkpt>
      <trkpt lat="46.38178" lon="5.4831">
        <ele>457</ele>
        <time>2022-07-30T09:15:22Z</time>
      </trkpt>
      <trkpt lat="46.38184" lon="5.48311">
        <ele>457.4</ele>
        <time>2022-07-30T09:15:23Z</time>
      </trkpt>
      <trkpt lat="46.38213" lon="5.48317">
        <ele>458</ele>
        <time>2022-07-30T09:15:28Z</time>
      </trkpt>
      <trkpt lat="46.38219" lon="5.48318">
        <ele>458.2</ele>
        <time>2022-07-30T09:15:29Z</time>
      </trkpt>
      <trkpt lat="46.38241" lon="5.48318">
        <ele>459.2</ele>
        <time>2022-07-30T09:15:33Z</time>
      </trkpt>
      <trkpt lat="46.38245" lon="5.48318">
        <ele>459.4</ele>
        <time>2022-07-30T09:15:34Z</time>
      </trkpt>
      <trkpt lat="46.38265" lon="5.48314">
        <ele>459.6</ele>
        <time>2022-07-30T09:15:37Z</time>
      </trkpt>
      <trkpt lat="46.38297" lon="5.48313">
        <ele>459.8</ele>
        <time>2022-07-30T09:15:41Z</time>
      </trkpt>
      <trkpt lat="46.38329" lon="5.48319">
        <ele>459.6</ele>
        <time>2022-07-30T09:15:46Z</time>
      </trkpt>
      <trkpt lat="46.38359" lon="5.48331">
        <ele>459.4</ele>
        <time>2022-07-30T09:15:50Z</time>
      </trkpt>
      <trkpt lat="46.38406" lon="5.48341">
        <ele>457.6</ele>
        <time>2022-07-30T09:15:55Z</time>
      </trkpt>
      <trkpt lat="46.38433" lon="5.48344">
        <ele>456</ele>
        <time>2022-07-30T09:15:58Z</time>
      </trkpt>
      <trkpt lat="46.38459" lon="5.48344">
        <ele>455</ele>
        <time>2022-07-30T09:16:01Z</time>
      </trkpt>
      <trkpt lat="46.38468" lon="5.48344">
        <ele>454.6</ele>
        <time>2022-07-30T09:16:02Z</time>
      </trkpt>
      <trkpt lat="46.38493" lon="5.48342">
        <ele>453.8</ele>
        <time>2022-07-30T09:16:05Z</time>
      </trkpt>
      <trkpt lat="46.385" lon="5.48343">
        <ele>453.6</ele>
        <time>2022-07-30T09:16:06Z</time>
      </trkpt>
      <trkpt lat="46.38507" lon="5.48344">
        <ele>453.4</ele>
        <time>2022-07-30T09:16:07Z</time>
      </trkpt>
      <trkpt lat="46.38513" lon="5.48347">
        <ele>453.4</ele>
        <time>2022-07-30T09:16:08Z</time>
      </trkpt>
      <trkpt lat="46.38531" lon="5.48361">
        <ele>453.4</ele>
        <time>2022-07-30T09:16:11Z</time>
      </trkpt>
      <trkpt lat="46.38557" lon="5.48387">
        <ele>453.6</ele>
        <time>2022-07-30T09:16:16Z</time>
      </trkpt>
      <trkpt lat="46.38588" lon="5.48409">
        <ele>453.6</ele>
        <time>2022-07-30T09:16:21Z</time>
      </trkpt>
      <trkpt lat="46.38613" lon="5.48425">
        <ele>453.8</ele>
        <time>2022-07-30T09:16:26Z</time>
      </trkpt>
      <trkpt lat="46.38636" lon="5.4844">
        <ele>455.2</ele>
        <time>2022-07-30T09:16:31Z</time>
      </trkpt>
      <trkpt lat="46.38642" lon="5.48444">
        <ele>455.6</ele>
        <time>2022-07-30T09:16:32Z</time>
      </trkpt>
      <trkpt lat="46.38647" lon="5.48448">
        <ele>456</ele>
        <time>2022-07-30T09:16:33Z</time>
      </trkpt>
      <trkpt lat="46.38666" lon="5.4846">
        <ele>456.4</ele>
        <time>2022-07-30T09:16:37Z</time>
      </trkpt>
      <trkpt lat="46.38682" lon="5.48468">
        <ele>457</ele>
        <time>2022-07-30T09:16:40Z</time>
      </trkpt>
      <trkpt lat="46.3869" lon="5.48474">
        <ele>457.4</ele>
        <time>2022-07-30T09:16:42Z</time>
      </trkpt>
      <trkpt lat="46.38716" lon="5.48489">
        <ele>457.6</ele>
        <time>2022-07-30T09:16:47Z</time>
      </trkpt>
      <trkpt lat="46.38739" lon="5.48498">
        <ele>457.6</ele>
        <time>2022-07-30T09:16:52Z</time>
      </trkpt>
      <trkpt lat="46.38747" lon="5.48501">
        <ele>458.2</ele>
        <time>2022-07-30T09:16:54Z</time>
      </trkpt>
      <trkpt lat="46.38751" lon="5.48503">
        <ele>458.4</ele>
        <time>2022-07-30T09:16:55Z</time>
      </trkpt>
      <trkpt lat="46.38763" lon="5.48506">
        <ele>459.2</ele>
        <time>2022-07-30T09:16:58Z</time>
      </trkpt>
      <trkpt lat="46.38767" lon="5.48507">
        <ele>459.6</ele>
        <time>2022-07-30T09:16:59Z</time>
      </trkpt>
      <trkpt lat="46.3877" lon="5.48508">
        <ele>459.8</ele>
        <time>2022-07-30T09:17:00Z</time>
      </trkpt>
      <trkpt lat="46.38781" lon="5.48511">
        <ele>460.8</ele>
        <time>2022-07-30T09:17:03Z</time>
      </trkpt>
      <trkpt lat="46.38791" lon="5.48514">
        <ele>461.4</ele>
        <time>2022-07-30T09:17:06Z</time>
      </trkpt>
      <trkpt lat="46.38801" lon="5.48519">
        <ele>461.8</ele>
        <time>2022-07-30T09:17:09Z</time>
      </trkpt>
      <trkpt lat="46.38815" lon="5.48527">
        <ele>462.6</ele>
        <time>2022-07-30T09:17:13Z</time>
      </trkpt>
      <trkpt lat="46.38822" lon="5.48531">
        <ele>463</ele>
        <time>2022-07-30T09:17:15Z</time>
      </trkpt>
      <trkpt lat="46.38839" lon="5.48543">
        <ele>464.4</ele>
        <time>2022-07-30T09:17:20Z</time>
      </trkpt>
      <trkpt lat="46.38852" lon="5.48551">
        <ele>465.4</ele>
        <time>2022-07-30T09:17:24Z</time>
      </trkpt>
      <trkpt lat="46.38859" lon="5.48556">
        <ele>466</ele>
        <time>2022-07-30T09:17:26Z</time>
      </trkpt>
      <trkpt lat="46.38865" lon="5.48559">
        <ele>466.4</ele>
        <time>2022-07-30T09:17:28Z</time>
      </trkpt>
      <trkpt lat="46.38881" lon="5.48568">
        <ele>467.4</ele>
        <time>2022-07-30T09:17:33Z</time>
      </trkpt>
      <trkpt lat="46.38885" lon="5.4857">
        <ele>467.8</ele>
        <time>2022-07-30T09:17:34Z</time>
      </trkpt>
      <trkpt lat="46.38897" lon="5.48577">
        <ele>468.8</ele>
        <time>2022-07-30T09:17:38Z</time>
      </trkpt>
      <trkpt lat="46.3891" lon="5.48585">
        <ele>469.8</ele>
        <time>2022-07-30T09:17:42Z</time>
      </trkpt>
      <trkpt lat="46.38913" lon="5.48586">
        <ele>470</ele>
        <time>2022-07-30T09:17:43Z</time>
      </trkpt>
      <trkpt lat="46.38927" lon="5.48606">
        <ele>470.6</ele>
        <time>2022-07-30T09:17:49Z</time>
      </trkpt>
      <trkpt lat="46.38931" lon="5.48613">
        <ele>470.8</ele>
        <time>2022-07-30T09:17:51Z</time>
      </trkpt>
      <trkpt lat="46.38938" lon="5.48625">
        <ele>471.8</ele>
        <time>2022-07-30T09:17:55Z</time>
      </trkpt>
      <trkpt lat="46.3894" lon="5.48628">
        <ele>472</ele>
        <time>2022-07-30T09:17:56Z</time>
      </trkpt>
      <trkpt lat="46.38948" lon="5.4864">
        <ele>473</ele>
        <time>2022-07-30T09:18:00Z</time>
      </trkpt>
      <trkpt lat="46.38961" lon="5.48657">
        <ele>474.2</ele>
        <time>2022-07-30T09:18:06Z</time>
      </trkpt>
      <trkpt lat="46.38967" lon="5.48664">
        <ele>474.6</ele>
        <time>2022-07-30T09:18:08Z</time>
      </trkpt>
      <trkpt lat="46.38976" lon="5.48672">
        <ele>475.2</ele>
        <time>2022-07-30T09:18:11Z</time>
      </trkpt>
      <trkpt lat="46.38991" lon="5.48686">
        <ele>476</ele>
        <time>2022-07-30T09:18:16Z</time>
      </trkpt>
      <trkpt lat="46.38998" lon="5.4869">
        <ele>476.2</ele>
        <time>2022-07-30T09:18:18Z</time>
      </trkpt>
      <trkpt lat="46.39015" lon="5.48698">
        <ele>476.6</ele>
        <time>2022-07-30T09:18:22Z</time>
      </trkpt>
      <trkpt lat="46.39038" lon="5.48711">
        <ele>476.6</ele>
        <time>2022-07-30T09:18:26Z</time>
      </trkpt>
      <trkpt lat="46.39054" lon="5.48722">
        <ele>476.2</ele>
        <time>2022-07-30T09:18:29Z</time>
      </trkpt>
      <trkpt lat="46.39058" lon="5.48724">
        <ele>475.4</ele>
        <time>2022-07-30T09:18:30Z</time>
      </trkpt>
      <trkpt lat="46.39063" lon="5.48727">
        <ele>475</ele>
        <time>2022-07-30T09:18:31Z</time>
      </trkpt>
      <trkpt lat="46.39074" lon="5.48731">
        <ele>474</ele>
        <time>2022-07-30T09:18:33Z</time>
      </trkpt>
      <trkpt lat="46.39079" lon="5.4873">
        <ele>473.4</ele>
        <time>2022-07-30T09:18:34Z</time>
      </trkpt>
      <trkpt lat="46.39087" lon="5.48729">
        <ele>473</ele>
        <time>2022-07-30T09:18:35Z</time>
      </trkpt>
      <trkpt lat="46.39101" lon="5.48726">
        <ele>472.8</ele>
        <time>2022-07-30T09:18:37Z</time>
      </trkpt>
      <trkpt lat="46.39114" lon="5.48723">
        <ele>472.2</ele>
        <time>2022-07-30T09:18:39Z</time>
      </trkpt>
      <trkpt lat="46.39122" lon="5.48721">
        <ele>472</ele>
        <time>2022-07-30T09:18:40Z</time>
      </trkpt>
      <trkpt lat="46.39135" lon="5.48715">
        <ele>471.8</ele>
        <time>2022-07-30T09:18:42Z</time>
      </trkpt>
      <trkpt lat="46.39148" lon="5.487">
        <ele>471.4</ele>
        <time>2022-07-30T09:18:44Z</time>
      </trkpt>
      <trkpt lat="46.39153" lon="5.48691">
        <ele>470.6</ele>
        <time>2022-07-30T09:18:45Z</time>
      </trkpt>
      <trkpt lat="46.39157" lon="5.48682">
        <ele>469.6</ele>
        <time>2022-07-30T09:18:46Z</time>
      </trkpt>
      <trkpt lat="46.39176" lon="5.48644">
        <ele>468.6</ele>
        <time>2022-07-30T09:18:50Z</time>
      </trkpt>
      <trkpt lat="46.39182" lon="5.48634">
        <ele>468.6</ele>
        <time>2022-07-30T09:18:51Z</time>
      </trkpt>
      <trkpt lat="46.39202" lon="5.48596">
        <ele>468.2</ele>
        <time>2022-07-30T09:18:55Z</time>
      </trkpt>
      <trkpt lat="46.39214" lon="5.48572">
        <ele>467.2</ele>
        <time>2022-07-30T09:18:57Z</time>
      </trkpt>
      <trkpt lat="46.39224" lon="5.48553">
        <ele>466</ele>
        <time>2022-07-30T09:18:59Z</time>
      </trkpt>
      <trkpt lat="46.39231" lon="5.48539">
        <ele>465</ele>
        <time>2022-07-30T09:19:00Z</time>
      </trkpt>
      <trkpt lat="46.39235" lon="5.4853">
        <ele>464.6</ele>
        <time>2022-07-30T09:19:01Z</time>
      </trkpt>
      <trkpt lat="46.3924" lon="5.48519">
        <ele>463.4</ele>
        <time>2022-07-30T09:19:02Z</time>
      </trkpt>
      <trkpt lat="46.39251" lon="5.48496">
        <ele>462.2</ele>
        <time>2022-07-30T09:19:04Z</time>
      </trkpt>
      <trkpt lat="46.39274" lon="5.48452">
        <ele>461</ele>
        <time>2022-07-30T09:19:08Z</time>
      </trkpt>
      <trkpt lat="46.39287" lon="5.48429">
        <ele>460</ele>
        <time>2022-07-30T09:19:10Z</time>
      </trkpt>
      <trkpt lat="46.39291" lon="5.48421">
        <ele>459.8</ele>
        <time>2022-07-30T09:19:11Z</time>
      </trkpt>
      <trkpt lat="46.39323" lon="5.48377">
        <ele>459.2</ele>
        <time>2022-07-30T09:19:16Z</time>
      </trkpt>
      <trkpt lat="46.39352" lon="5.4835">
        <ele>459.4</ele>
        <time>2022-07-30T09:19:21Z</time>
      </trkpt>
      <trkpt lat="46.39383" lon="5.48323">
        <ele>460.6</ele>
        <time>2022-07-30T09:19:27Z</time>
      </trkpt>
      <trkpt lat="46.39392" lon="5.48314">
        <ele>461.2</ele>
        <time>2022-07-30T09:19:29Z</time>
      </trkpt>
      <trkpt lat="46.39411" lon="5.48298">
        <ele>462.4</ele>
        <time>2022-07-30T09:19:33Z</time>
      </trkpt>
      <trkpt lat="46.39415" lon="5.48294">
        <ele>462.6</ele>
        <time>2022-07-30T09:19:34Z</time>
      </trkpt>
      <trkpt lat="46.39428" lon="5.48283">
        <ele>463.6</ele>
        <time>2022-07-30T09:19:37Z</time>
      </trkpt>
      <trkpt lat="46.39448" lon="5.48266">
        <ele>464.8</ele>
        <time>2022-07-30T09:19:42Z</time>
      </trkpt>
      <trkpt lat="46.39456" lon="5.48259">
        <ele>465.2</ele>
        <time>2022-07-30T09:19:44Z</time>
      </trkpt>
      <trkpt lat="46.39469" lon="5.48247">
        <ele>466</ele>
        <time>2022-07-30T09:19:47Z</time>
      </trkpt>
      <trkpt lat="46.39483" lon="5.48236">
        <ele>467.2</ele>
        <time>2022-07-30T09:19:51Z</time>
      </trkpt>
      <trkpt lat="46.39491" lon="5.48229">
        <ele>468</ele>
        <time>2022-07-30T09:19:53Z</time>
      </trkpt>
      <trkpt lat="46.39495" lon="5.48226">
        <ele>468.4</ele>
        <time>2022-07-30T09:19:54Z</time>
      </trkpt>
      <trkpt lat="46.3951" lon="5.48213">
        <ele>469.4</ele>
        <time>2022-07-30T09:19:58Z</time>
      </trkpt>
      <trkpt lat="46.39514" lon="5.48208">
        <ele>469.8</ele>
        <time>2022-07-30T09:19:59Z</time>
      </trkpt>
      <trkpt lat="46.39524" lon="5.48196">
        <ele>470.4</ele>
        <time>2022-07-30T09:20:02Z</time>
      </trkpt>
      <trkpt lat="46.39527" lon="5.48191">
        <ele>470.8</ele>
        <time>2022-07-30T09:20:03Z</time>
      </trkpt>
      <trkpt lat="46.3953" lon="5.48186">
        <ele>471</ele>
        <time>2022-07-30T09:20:04Z</time>
      </trkpt>
      <trkpt lat="46.3954" lon="5.48165">
        <ele>471.8</ele>
        <time>2022-07-30T09:20:08Z</time>
      </trkpt>
      <trkpt lat="46.39548" lon="5.48139">
        <ele>472.8</ele>
        <time>2022-07-30T09:20:13Z</time>
      </trkpt>
      <trkpt lat="46.39551" lon="5.48129">
        <ele>473.2</ele>
        <time>2022-07-30T09:20:15Z</time>
      </trkpt>
      <trkpt lat="46.39554" lon="5.48111">
        <ele>474</ele>
        <time>2022-07-30T09:20:18Z</time>
      </trkpt>
      <trkpt lat="46.39559" lon="5.48089">
        <ele>475</ele>
        <time>2022-07-30T09:20:22Z</time>
      </trkpt>
      <trkpt lat="46.39561" lon="5.48077">
        <ele>475.4</ele>
        <time>2022-07-30T09:20:24Z</time>
      </trkpt>
      <trkpt lat="46.39567" lon="5.48039">
        <ele>476</ele>
        <time>2022-07-30T09:20:30Z</time>
      </trkpt>
      <trkpt lat="46.39569" lon="5.48027">
        <ele>476.6</ele>
        <time>2022-07-30T09:20:32Z</time>
      </trkpt>
      <trkpt lat="46.3957" lon="5.48021">
        <ele>476.6</ele>
        <time>2022-07-30T09:20:33Z</time>
      </trkpt>
      <trkpt lat="46.39572" lon="5.4801">
        <ele>477</ele>
        <time>2022-07-30T09:20:35Z</time>
      </trkpt>
      <trkpt lat="46.39575" lon="5.47994">
        <ele>477.2</ele>
        <time>2022-07-30T09:20:38Z</time>
      </trkpt>
      <trkpt lat="46.39576" lon="5.47988">
        <ele>477.6</ele>
        <time>2022-07-30T09:20:39Z</time>
      </trkpt>
      <trkpt lat="46.39577" lon="5.47956">
        <ele>478.8</ele>
        <time>2022-07-30T09:20:44Z</time>
      </trkpt>
      <trkpt lat="46.39577" lon="5.4795">
        <ele>479</ele>
        <time>2022-07-30T09:20:45Z</time>
      </trkpt>
      <trkpt lat="46.39577" lon="5.4793">
        <ele>479.8</ele>
        <time>2022-07-30T09:20:48Z</time>
      </trkpt>
      <trkpt lat="46.39579" lon="5.47918">
        <ele>480</ele>
        <time>2022-07-30T09:20:50Z</time>
      </trkpt>
      <trkpt lat="46.39583" lon="5.47904">
        <ele>480.2</ele>
        <time>2022-07-30T09:20:52Z</time>
      </trkpt>
      <trkpt lat="46.3959" lon="5.47895">
        <ele>480.4</ele>
        <time>2022-07-30T09:20:54Z</time>
      </trkpt>
      <trkpt lat="46.39599" lon="5.47888">
        <ele>480.8</ele>
        <time>2022-07-30T09:20:56Z</time>
      </trkpt>
      <trkpt lat="46.39609" lon="5.47885">
        <ele>481.2</ele>
        <time>2022-07-30T09:20:58Z</time>
      </trkpt>
      <trkpt lat="46.39623" lon="5.47884">
        <ele>481.4</ele>
        <time>2022-07-30T09:21:01Z</time>
      </trkpt>
      <trkpt lat="46.39647" lon="5.47882">
        <ele>481.8</ele>
        <time>2022-07-30T09:21:06Z</time>
      </trkpt>
      <trkpt lat="46.39657" lon="5.4788">
        <ele>482</ele>
        <time>2022-07-30T09:21:08Z</time>
      </trkpt>
      <trkpt lat="46.39704" lon="5.47877">
        <ele>481.6</ele>
        <time>2022-07-30T09:21:16Z</time>
      </trkpt>
      <trkpt lat="46.39739" lon="5.47876">
        <ele>481</ele>
        <time>2022-07-30T09:21:22Z</time>
      </trkpt>
      <trkpt lat="46.39745" lon="5.47874">
        <ele>481</ele>
        <time>2022-07-30T09:21:23Z</time>
      </trkpt>
      <trkpt lat="46.39759" lon="5.47868">
        <ele>480.8</ele>
        <time>2022-07-30T09:21:25Z</time>
      </trkpt>
      <trkpt lat="46.3977" lon="5.4786">
        <ele>480.8</ele>
        <time>2022-07-30T09:21:27Z</time>
      </trkpt>
      <trkpt lat="46.39778" lon="5.47853">
        <ele>480.8</ele>
        <time>2022-07-30T09:21:28Z</time>
      </trkpt>
      <trkpt lat="46.39801" lon="5.47824">
        <ele>480.4</ele>
        <time>2022-07-30T09:21:32Z</time>
      </trkpt>
      <trkpt lat="46.39807" lon="5.47816">
        <ele>480.2</ele>
        <time>2022-07-30T09:21:33Z</time>
      </trkpt>
      <trkpt lat="46.3982" lon="5.47799">
        <ele>479</ele>
        <time>2022-07-30T09:21:35Z</time>
      </trkpt>
      <trkpt lat="46.39839" lon="5.47775">
        <ele>477.8</ele>
        <time>2022-07-30T09:21:38Z</time>
      </trkpt>
      <trkpt lat="46.39852" lon="5.47758">
        <ele>476.8</ele>
        <time>2022-07-30T09:21:40Z</time>
      </trkpt>
      <trkpt lat="46.39858" lon="5.47749">
        <ele>476.6</ele>
        <time>2022-07-30T09:21:41Z</time>
      </trkpt>
      <trkpt lat="46.39887" lon="5.47715">
        <ele>475.8</ele>
        <time>2022-07-30T09:21:45Z</time>
      </trkpt>
      <trkpt lat="46.39895" lon="5.47709">
        <ele>475.4</ele>
        <time>2022-07-30T09:21:46Z</time>
      </trkpt>
      <trkpt lat="46.39904" lon="5.47703">
        <ele>475</ele>
        <time>2022-07-30T09:21:47Z</time>
      </trkpt>
      <trkpt lat="46.39923" lon="5.47698">
        <ele>474.4</ele>
        <time>2022-07-30T09:21:49Z</time>
      </trkpt>
      <trkpt lat="46.39955" lon="5.47704">
        <ele>473</ele>
        <time>2022-07-30T09:21:52Z</time>
      </trkpt>
      <trkpt lat="46.39975" lon="5.47709">
        <ele>471.4</ele>
        <time>2022-07-30T09:21:54Z</time>
      </trkpt>
      <trkpt lat="46.39998" lon="5.47715">
        <ele>470.2</ele>
        <time>2022-07-30T09:21:56Z</time>
      </trkpt>
      <trkpt lat="46.40017" lon="5.47717">
        <ele>468.6</ele>
        <time>2022-07-30T09:21:58Z</time>
      </trkpt>
      <trkpt lat="46.40034" lon="5.47698">
        <ele>467.8</ele>
        <time>2022-07-30T09:22:00Z</time>
      </trkpt>
      <trkpt lat="46.40033" lon="5.47681">
        <ele>467</ele>
        <time>2022-07-30T09:22:01Z</time>
      </trkpt>
      <trkpt lat="46.40029" lon="5.47665">
        <ele>466.8</ele>
        <time>2022-07-30T09:22:02Z</time>
      </trkpt>
      <trkpt lat="46.40024" lon="5.47653">
        <ele>466.4</ele>
        <time>2022-07-30T09:22:03Z</time>
      </trkpt>
      <trkpt lat="46.40007" lon="5.47625">
        <ele>465</ele>
        <time>2022-07-30T09:22:05Z</time>
      </trkpt>
      <trkpt lat="46.39987" lon="5.47602">
        <ele>463.2</ele>
        <time>2022-07-30T09:22:07Z</time>
      </trkpt>
      <trkpt lat="46.39977" lon="5.47591">
        <ele>462.2</ele>
        <time>2022-07-30T09:22:08Z</time>
      </trkpt>
      <trkpt lat="46.39958" lon="5.47567">
        <ele>460.6</ele>
        <time>2022-07-30T09:22:10Z</time>
      </trkpt>
      <trkpt lat="46.39951" lon="5.47557">
        <ele>460</ele>
        <time>2022-07-30T09:22:11Z</time>
      </trkpt>
      <trkpt lat="46.3994" lon="5.4754">
        <ele>459</ele>
        <time>2022-07-30T09:22:12Z</time>
      </trkpt>
      <trkpt lat="46.39925" lon="5.4751">
        <ele>457.2</ele>
        <time>2022-07-30T09:22:14Z</time>
      </trkpt>
      <trkpt lat="46.3992" lon="5.47497">
        <ele>456</ele>
        <time>2022-07-30T09:22:15Z</time>
      </trkpt>
      <trkpt lat="46.39907" lon="5.47465">
        <ele>454.2</ele>
        <time>2022-07-30T09:22:17Z</time>
      </trkpt>
      <trkpt lat="46.39893" lon="5.47428">
        <ele>452.8</ele>
        <time>2022-07-30T09:22:19Z</time>
      </trkpt>
      <trkpt lat="46.39881" lon="5.47395">
        <ele>451.6</ele>
        <time>2022-07-30T09:22:21Z</time>
      </trkpt>
      <trkpt lat="46.39869" lon="5.47364">
        <ele>450.4</ele>
        <time>2022-07-30T09:22:23Z</time>
      </trkpt>
      <trkpt lat="46.39857" lon="5.47331">
        <ele>449.2</ele>
        <time>2022-07-30T09:22:25Z</time>
      </trkpt>
      <trkpt lat="46.39851" lon="5.47313">
        <ele>448.2</ele>
        <time>2022-07-30T09:22:26Z</time>
      </trkpt>
      <trkpt lat="46.39838" lon="5.47275">
        <ele>446.6</ele>
        <time>2022-07-30T09:22:28Z</time>
      </trkpt>
      <trkpt lat="46.39833" lon="5.47261">
        <ele>445</ele>
        <time>2022-07-30T09:22:29Z</time>
      </trkpt>
      <trkpt lat="46.39825" lon="5.47239">
        <ele>444.4</ele>
        <time>2022-07-30T09:22:30Z</time>
      </trkpt>
      <trkpt lat="46.39821" lon="5.47225">
        <ele>443.6</ele>
        <time>2022-07-30T09:22:31Z</time>
      </trkpt>
      <trkpt lat="46.39809" lon="5.47185">
        <ele>442.6</ele>
        <time>2022-07-30T09:22:33Z</time>
      </trkpt>
      <trkpt lat="46.398" lon="5.47149">
        <ele>441.4</ele>
        <time>2022-07-30T09:22:35Z</time>
      </trkpt>
      <trkpt lat="46.39796" lon="5.47131">
        <ele>440</ele>
        <time>2022-07-30T09:22:36Z</time>
      </trkpt>
      <trkpt lat="46.39788" lon="5.47099">
        <ele>438</ele>
        <time>2022-07-30T09:22:38Z</time>
      </trkpt>
      <trkpt lat="46.39773" lon="5.4704">
        <ele>436.4</ele>
        <time>2022-07-30T09:22:41Z</time>
      </trkpt>
      <trkpt lat="46.39764" lon="5.47007">
        <ele>434.6</ele>
        <time>2022-07-30T09:22:43Z</time>
      </trkpt>
      <trkpt lat="46.39754" lon="5.46967">
        <ele>433.2</ele>
        <time>2022-07-30T09:22:45Z</time>
      </trkpt>
      <trkpt lat="46.39749" lon="5.46949">
        <ele>432.8</ele>
        <time>2022-07-30T09:22:46Z</time>
      </trkpt>
      <trkpt lat="46.39746" lon="5.46934">
        <ele>431.8</ele>
        <time>2022-07-30T09:22:47Z</time>
      </trkpt>
      <trkpt lat="46.39737" lon="5.46893">
        <ele>430.6</ele>
        <time>2022-07-30T09:22:49Z</time>
      </trkpt>
      <trkpt lat="46.39724" lon="5.46837">
        <ele>429</ele>
        <time>2022-07-30T09:22:52Z</time>
      </trkpt>
      <trkpt lat="46.3972" lon="5.46819">
        <ele>428.6</ele>
        <time>2022-07-30T09:22:53Z</time>
      </trkpt>
      <trkpt lat="46.39716" lon="5.46801">
        <ele>427.2</ele>
        <time>2022-07-30T09:22:54Z</time>
      </trkpt>
      <trkpt lat="46.39709" lon="5.4677">
        <ele>425.4</ele>
        <time>2022-07-30T09:22:56Z</time>
      </trkpt>
      <trkpt lat="46.39704" lon="5.46749">
        <ele>424.2</ele>
        <time>2022-07-30T09:22:57Z</time>
      </trkpt>
      <trkpt lat="46.39695" lon="5.46719">
        <ele>423</ele>
        <time>2022-07-30T09:22:59Z</time>
      </trkpt>
      <trkpt lat="46.39683" lon="5.46688">
        <ele>422</ele>
        <time>2022-07-30T09:23:01Z</time>
      </trkpt>
      <trkpt lat="46.39665" lon="5.46644">
        <ele>420.8</ele>
        <time>2022-07-30T09:23:04Z</time>
      </trkpt>
      <trkpt lat="46.39651" lon="5.46615">
        <ele>420.4</ele>
        <time>2022-07-30T09:23:06Z</time>
      </trkpt>
      <trkpt lat="46.39641" lon="5.46602">
        <ele>420.2</ele>
        <time>2022-07-30T09:23:07Z</time>
      </trkpt>
      <trkpt lat="46.39631" lon="5.4659">
        <ele>419.6</ele>
        <time>2022-07-30T09:23:08Z</time>
      </trkpt>
      <trkpt lat="46.396" lon="5.46555">
        <ele>418.2</ele>
        <time>2022-07-30T09:23:11Z</time>
      </trkpt>
      <trkpt lat="46.39578" lon="5.46531">
        <ele>416.8</ele>
        <time>2022-07-30T09:23:13Z</time>
      </trkpt>
      <trkpt lat="46.39557" lon="5.46506">
        <ele>415.2</ele>
        <time>2022-07-30T09:23:15Z</time>
      </trkpt>
      <trkpt lat="46.39535" lon="5.46482">
        <ele>413.4</ele>
        <time>2022-07-30T09:23:17Z</time>
      </trkpt>
      <trkpt lat="46.39525" lon="5.4647">
        <ele>412.4</ele>
        <time>2022-07-30T09:23:18Z</time>
      </trkpt>
      <trkpt lat="46.39503" lon="5.46443">
        <ele>411.2</ele>
        <time>2022-07-30T09:23:20Z</time>
      </trkpt>
      <trkpt lat="46.39486" lon="5.46415">
        <ele>408.6</ele>
        <time>2022-07-30T09:23:22Z</time>
      </trkpt>
      <trkpt lat="46.39473" lon="5.46389">
        <ele>407</ele>
        <time>2022-07-30T09:23:24Z</time>
      </trkpt>
      <trkpt lat="46.39452" lon="5.46345">
        <ele>405.6</ele>
        <time>2022-07-30T09:23:27Z</time>
      </trkpt>
      <trkpt lat="46.39445" lon="5.46327">
        <ele>405.2</ele>
        <time>2022-07-30T09:23:28Z</time>
      </trkpt>
      <trkpt lat="46.39439" lon="5.46293">
        <ele>404.2</ele>
        <time>2022-07-30T09:23:30Z</time>
      </trkpt>
      <trkpt lat="46.39439" lon="5.46275">
        <ele>403.6</ele>
        <time>2022-07-30T09:23:31Z</time>
      </trkpt>
      <trkpt lat="46.39439" lon="5.46262">
        <ele>403</ele>
        <time>2022-07-30T09:23:32Z</time>
      </trkpt>
      <trkpt lat="46.39446" lon="5.46208">
        <ele>401.4</ele>
        <time>2022-07-30T09:23:35Z</time>
      </trkpt>
      <trkpt lat="46.39452" lon="5.46162">
        <ele>400.2</ele>
        <time>2022-07-30T09:23:38Z</time>
      </trkpt>
      <trkpt lat="46.39462" lon="5.46096">
        <ele>399.2</ele>
        <time>2022-07-30T09:23:42Z</time>
      </trkpt>
      <trkpt lat="46.39465" lon="5.46079">
        <ele>398.4</ele>
        <time>2022-07-30T09:23:43Z</time>
      </trkpt>
      <trkpt lat="46.39467" lon="5.46059">
        <ele>398</ele>
        <time>2022-07-30T09:23:44Z</time>
      </trkpt>
      <trkpt lat="46.39467" lon="5.46042">
        <ele>396.8</ele>
        <time>2022-07-30T09:23:45Z</time>
      </trkpt>
      <trkpt lat="46.39467" lon="5.46025">
        <ele>396</ele>
        <time>2022-07-30T09:23:46Z</time>
      </trkpt>
      <trkpt lat="46.39467" lon="5.46008">
        <ele>395.6</ele>
        <time>2022-07-30T09:23:47Z</time>
      </trkpt>
      <trkpt lat="46.39462" lon="5.45956">
        <ele>394.2</ele>
        <time>2022-07-30T09:23:50Z</time>
      </trkpt>
      <trkpt lat="46.39456" lon="5.45922">
        <ele>393.4</ele>
        <time>2022-07-30T09:23:52Z</time>
      </trkpt>
      <trkpt lat="46.39451" lon="5.45905">
        <ele>392.6</ele>
        <time>2022-07-30T09:23:53Z</time>
      </trkpt>
      <trkpt lat="46.39437" lon="5.45875">
        <ele>390.6</ele>
        <time>2022-07-30T09:23:55Z</time>
      </trkpt>
      <trkpt lat="46.39418" lon="5.45848">
        <ele>389.2</ele>
        <time>2022-07-30T09:23:57Z</time>
      </trkpt>
      <trkpt lat="46.39401" lon="5.45826">
        <ele>387</ele>
        <time>2022-07-30T09:23:59Z</time>
      </trkpt>
      <trkpt lat="46.3938" lon="5.45798">
        <ele>385.4</ele>
        <time>2022-07-30T09:24:01Z</time>
      </trkpt>
      <trkpt lat="46.39361" lon="5.45774">
        <ele>384</ele>
        <time>2022-07-30T09:24:03Z</time>
      </trkpt>
      <trkpt lat="46.39354" lon="5.45764">
        <ele>383.4</ele>
        <time>2022-07-30T09:24:04Z</time>
      </trkpt>
      <trkpt lat="46.39345" lon="5.45751">
        <ele>383</ele>
        <time>2022-07-30T09:24:05Z</time>
      </trkpt>
      <trkpt lat="46.39335" lon="5.45735">
        <ele>382.4</ele>
        <time>2022-07-30T09:24:06Z</time>
      </trkpt>
      <trkpt lat="46.39329" lon="5.4572">
        <ele>381.8</ele>
        <time>2022-07-30T09:24:07Z</time>
      </trkpt>
      <trkpt lat="46.39324" lon="5.45704">
        <ele>381.8</ele>
        <time>2022-07-30T09:24:08Z</time>
      </trkpt>
      <trkpt lat="46.39322" lon="5.45687">
        <ele>381.2</ele>
        <time>2022-07-30T09:24:09Z</time>
      </trkpt>
      <trkpt lat="46.39322" lon="5.45671">
        <ele>380.8</ele>
        <time>2022-07-30T09:24:10Z</time>
      </trkpt>
      <trkpt lat="46.39323" lon="5.45655">
        <ele>380.2</ele>
        <time>2022-07-30T09:24:11Z</time>
      </trkpt>
      <trkpt lat="46.39324" lon="5.4564">
        <ele>379.6</ele>
        <time>2022-07-30T09:24:12Z</time>
      </trkpt>
      <trkpt lat="46.39326" lon="5.45625">
        <ele>379</ele>
        <time>2022-07-30T09:24:13Z</time>
      </trkpt>
      <trkpt lat="46.39332" lon="5.45574">
        <ele>378.6</ele>
        <time>2022-07-30T09:24:17Z</time>
      </trkpt>
      <trkpt lat="46.39336" lon="5.45538">
        <ele>379.6</ele>
        <time>2022-07-30T09:24:20Z</time>
      </trkpt>
      <trkpt lat="46.39338" lon="5.45529">
        <ele>380.4</ele>
        <time>2022-07-30T09:24:21Z</time>
      </trkpt>
      <trkpt lat="46.39341" lon="5.45517">
        <ele>380.6</ele>
        <time>2022-07-30T09:24:22Z</time>
      </trkpt>
      <trkpt lat="46.3935" lon="5.45499">
        <ele>381.4</ele>
        <time>2022-07-30T09:24:24Z</time>
      </trkpt>
      <trkpt lat="46.39358" lon="5.45484">
        <ele>382.4</ele>
        <time>2022-07-30T09:24:26Z</time>
      </trkpt>
      <trkpt lat="46.39363" lon="5.45477">
        <ele>382.8</ele>
        <time>2022-07-30T09:24:27Z</time>
      </trkpt>
      <trkpt lat="46.39368" lon="5.45471">
        <ele>383.4</ele>
        <time>2022-07-30T09:24:28Z</time>
      </trkpt>
      <trkpt lat="46.39378" lon="5.45461">
        <ele>384.2</ele>
        <time>2022-07-30T09:24:30Z</time>
      </trkpt>
      <trkpt lat="46.39385" lon="5.45452">
        <ele>384.8</ele>
        <time>2022-07-30T09:24:32Z</time>
      </trkpt>
      <trkpt lat="46.39388" lon="5.45447">
        <ele>385.2</ele>
        <time>2022-07-30T09:24:33Z</time>
      </trkpt>
      <trkpt lat="46.3939" lon="5.45442">
        <ele>386.2</ele>
        <time>2022-07-30T09:24:34Z</time>
      </trkpt>
      <trkpt lat="46.39394" lon="5.45426">
        <ele>388</ele>
        <time>2022-07-30T09:24:37Z</time>
      </trkpt>
      <trkpt lat="46.39397" lon="5.45417">
        <ele>389</ele>
        <time>2022-07-30T09:24:39Z</time>
      </trkpt>
      <trkpt lat="46.394" lon="5.4541">
        <ele>389.4</ele>
        <time>2022-07-30T09:24:41Z</time>
      </trkpt>
      <trkpt lat="46.394" lon="5.45402">
        <ele>390.2</ele>
        <time>2022-07-30T09:24:44Z</time>
      </trkpt>
      <trkpt lat="46.39401" lon="5.45401">
        <ele>390.2</ele>
        <time>2022-07-30T09:24:45Z</time>
      </trkpt>
      <trkpt lat="46.39401" lon="5.45401">
        <ele>390.4</ele>
        <time>2022-07-30T09:24:47Z</time>
      </trkpt>
      <trkpt lat="46.39401" lon="5.45405">
        <ele>389.4</ele>
        <time>2022-07-30T09:25:45Z</time>
      </trkpt>
      <trkpt lat="46.39394" lon="5.45408">
        <ele>389.4</ele>
        <time>2022-07-30T09:25:48Z</time>
      </trkpt>
      <trkpt lat="46.39392" lon="5.45406">
        <ele>389.4</ele>
        <time>2022-07-30T09:25:49Z</time>
      </trkpt>
      <trkpt lat="46.39391" lon="5.45401">
        <ele>389.4</ele>
        <time>2022-07-30T09:25:50Z</time>
      </trkpt>
      <trkpt lat="46.39389" lon="5.45388">
        <ele>389.4</ele>
        <time>2022-07-30T09:25:52Z</time>
      </trkpt>
      <trkpt lat="46.39384" lon="5.45374">
        <ele>389.4</ele>
        <time>2022-07-30T09:25:54Z</time>
      </trkpt>
      <trkpt lat="46.39375" lon="5.45361">
        <ele>389.4</ele>
        <time>2022-07-30T09:25:56Z</time>
      </trkpt>
      <trkpt lat="46.39361" lon="5.45351">
        <ele>389.4</ele>
        <time>2022-07-30T09:25:58Z</time>
      </trkpt>
      <trkpt lat="46.39339" lon="5.45337">
        <ele>389.2</ele>
        <time>2022-07-30T09:26:01Z</time>
      </trkpt>
      <trkpt lat="46.39332" lon="5.45332">
        <ele>389.2</ele>
        <time>2022-07-30T09:26:02Z</time>
      </trkpt>
      <trkpt lat="46.39324" lon="5.45327">
        <ele>389</ele>
        <time>2022-07-30T09:26:03Z</time>
      </trkpt>
      <trkpt lat="46.39318" lon="5.45322">
        <ele>389</ele>
        <time>2022-07-30T09:26:04Z</time>
      </trkpt>
      <trkpt lat="46.39314" lon="5.45317">
        <ele>388.8</ele>
        <time>2022-07-30T09:26:05Z</time>
      </trkpt>
      <trkpt lat="46.3931" lon="5.45312">
        <ele>388.2</ele>
        <time>2022-07-30T09:26:06Z</time>
      </trkpt>
      <trkpt lat="46.39309" lon="5.45308">
        <ele>387.8</ele>
        <time>2022-07-30T09:26:07Z</time>
      </trkpt>
      <trkpt lat="46.39308" lon="5.453">
        <ele>387.4</ele>
        <time>2022-07-30T09:26:09Z</time>
      </trkpt>
      <trkpt lat="46.39309" lon="5.45295">
        <ele>386.8</ele>
        <time>2022-07-30T09:26:10Z</time>
      </trkpt>
      <trkpt lat="46.39309" lon="5.45292">
        <ele>386.2</ele>
        <time>2022-07-30T09:26:11Z</time>
      </trkpt>
      <trkpt lat="46.39313" lon="5.45289">
        <ele>386</ele>
        <time>2022-07-30T09:26:12Z</time>
      </trkpt>
      <trkpt lat="46.39318" lon="5.45287">
        <ele>385.6</ele>
        <time>2022-07-30T09:26:13Z</time>
      </trkpt>
      <trkpt lat="46.39325" lon="5.45285">
        <ele>385.4</ele>
        <time>2022-07-30T09:26:14Z</time>
      </trkpt>
      <trkpt lat="46.39349" lon="5.45274">
        <ele>384.4</ele>
        <time>2022-07-30T09:26:17Z</time>
      </trkpt>
      <trkpt lat="46.39367" lon="5.45268">
        <ele>383.4</ele>
        <time>2022-07-30T09:26:19Z</time>
      </trkpt>
      <trkpt lat="46.39386" lon="5.45258">
        <ele>382.4</ele>
        <time>2022-07-30T09:26:21Z</time>
      </trkpt>
      <trkpt lat="46.39396" lon="5.45254">
        <ele>381.6</ele>
        <time>2022-07-30T09:26:22Z</time>
      </trkpt>
      <trkpt lat="46.39425" lon="5.45243">
        <ele>379.8</ele>
        <time>2022-07-30T09:26:25Z</time>
      </trkpt>
      <trkpt lat="46.39454" lon="5.45229">
        <ele>378.6</ele>
        <time>2022-07-30T09:26:28Z</time>
      </trkpt>
      <trkpt lat="46.39475" lon="5.4522">
        <ele>377.6</ele>
        <time>2022-07-30T09:26:30Z</time>
      </trkpt>
      <trkpt lat="46.39495" lon="5.45211">
        <ele>375.4</ele>
        <time>2022-07-30T09:26:32Z</time>
      </trkpt>
      <trkpt lat="46.39516" lon="5.45202">
        <ele>374</ele>
        <time>2022-07-30T09:26:34Z</time>
      </trkpt>
      <trkpt lat="46.39537" lon="5.45195">
        <ele>373</ele>
        <time>2022-07-30T09:26:36Z</time>
      </trkpt>
      <trkpt lat="46.39559" lon="5.45193">
        <ele>371.8</ele>
        <time>2022-07-30T09:26:38Z</time>
      </trkpt>
      <trkpt lat="46.3958" lon="5.45197">
        <ele>370.8</ele>
        <time>2022-07-30T09:26:40Z</time>
      </trkpt>
      <trkpt lat="46.3959" lon="5.452">
        <ele>370.4</ele>
        <time>2022-07-30T09:26:41Z</time>
      </trkpt>
      <trkpt lat="46.39621" lon="5.45213">
        <ele>369.2</ele>
        <time>2022-07-30T09:26:44Z</time>
      </trkpt>
      <trkpt lat="46.39641" lon="5.45221">
        <ele>367.8</ele>
        <time>2022-07-30T09:26:46Z</time>
      </trkpt>
      <trkpt lat="46.39659" lon="5.4523">
        <ele>366.6</ele>
        <time>2022-07-30T09:26:48Z</time>
      </trkpt>
      <trkpt lat="46.39678" lon="5.4524">
        <ele>365.6</ele>
        <time>2022-07-30T09:26:50Z</time>
      </trkpt>
      <trkpt lat="46.39698" lon="5.45249">
        <ele>364.4</ele>
        <time>2022-07-30T09:26:52Z</time>
      </trkpt>
      <trkpt lat="46.39725" lon="5.45263">
        <ele>363.2</ele>
        <time>2022-07-30T09:26:55Z</time>
      </trkpt>
      <trkpt lat="46.39763" lon="5.45283">
        <ele>361.6</ele>
        <time>2022-07-30T09:26:59Z</time>
      </trkpt>
      <trkpt lat="46.39791" lon="5.45293">
        <ele>360.6</ele>
        <time>2022-07-30T09:27:02Z</time>
      </trkpt>
      <trkpt lat="46.39811" lon="5.45297">
        <ele>359.4</ele>
        <time>2022-07-30T09:27:04Z</time>
      </trkpt>
      <trkpt lat="46.39822" lon="5.45297">
        <ele>359</ele>
        <time>2022-07-30T09:27:05Z</time>
      </trkpt>
      <trkpt lat="46.39862" lon="5.45294">
        <ele>357.8</ele>
        <time>2022-07-30T09:27:09Z</time>
      </trkpt>
      <trkpt lat="46.3989" lon="5.4529">
        <ele>356.4</ele>
        <time>2022-07-30T09:27:12Z</time>
      </trkpt>
      <trkpt lat="46.39925" lon="5.45287">
        <ele>355.2</ele>
        <time>2022-07-30T09:27:16Z</time>
      </trkpt>
      <trkpt lat="46.39948" lon="5.45282">
        <ele>354.8</ele>
        <time>2022-07-30T09:27:19Z</time>
      </trkpt>
      <trkpt lat="46.39957" lon="5.45281">
        <ele>354.8</ele>
        <time>2022-07-30T09:27:20Z</time>
      </trkpt>
      <trkpt lat="46.40004" lon="5.45279">
        <ele>355</ele>
        <time>2022-07-30T09:27:26Z</time>
      </trkpt>
      <trkpt lat="46.40055" lon="5.45272">
        <ele>355.2</ele>
        <time>2022-07-30T09:27:33Z</time>
      </trkpt>
      <trkpt lat="46.40111" lon="5.45264">
        <ele>355.4</ele>
        <time>2022-07-30T09:27:41Z</time>
      </trkpt>
      <trkpt lat="46.4013" lon="5.45259">
        <ele>355.4</ele>
        <time>2022-07-30T09:27:44Z</time>
      </trkpt>
      <trkpt lat="46.40149" lon="5.45249">
        <ele>355.6</ele>
        <time>2022-07-30T09:27:47Z</time>
      </trkpt>
      <trkpt lat="46.40161" lon="5.4524">
        <ele>355.8</ele>
        <time>2022-07-30T09:27:49Z</time>
      </trkpt>
      <trkpt lat="46.40174" lon="5.45236">
        <ele>355.8</ele>
        <time>2022-07-30T09:27:51Z</time>
      </trkpt>
      <trkpt lat="46.40207" lon="5.45233">
        <ele>356</ele>
        <time>2022-07-30T09:27:56Z</time>
      </trkpt>
      <trkpt lat="46.40213" lon="5.45231">
        <ele>356</ele>
        <time>2022-07-30T09:27:57Z</time>
      </trkpt>
      <trkpt lat="46.40226" lon="5.45226">
        <ele>356.2</ele>
        <time>2022-07-30T09:27:59Z</time>
      </trkpt>
      <trkpt lat="46.40256" lon="5.45212">
        <ele>356.6</ele>
        <time>2022-07-30T09:28:04Z</time>
      </trkpt>
      <trkpt lat="46.40303" lon="5.45185">
        <ele>357.4</ele>
        <time>2022-07-30T09:28:12Z</time>
      </trkpt>
      <trkpt lat="46.40315" lon="5.4518">
        <ele>357.4</ele>
        <time>2022-07-30T09:28:14Z</time>
      </trkpt>
      <trkpt lat="46.40359" lon="5.45158">
        <ele>357.2</ele>
        <time>2022-07-30T09:28:21Z</time>
      </trkpt>
      <trkpt lat="46.40406" lon="5.45134">
        <ele>357.6</ele>
        <time>2022-07-30T09:28:29Z</time>
      </trkpt>
      <trkpt lat="46.40444" lon="5.45114">
        <ele>358.6</ele>
        <time>2022-07-30T09:28:36Z</time>
      </trkpt>
      <trkpt lat="46.4045" lon="5.45111">
        <ele>358.6</ele>
        <time>2022-07-30T09:28:37Z</time>
      </trkpt>
      <trkpt lat="46.40505" lon="5.45083">
        <ele>359.4</ele>
        <time>2022-07-30T09:28:47Z</time>
      </trkpt>
      <trkpt lat="46.40511" lon="5.4508">
        <ele>359.4</ele>
        <time>2022-07-30T09:28:48Z</time>
      </trkpt>
      <trkpt lat="46.40522" lon="5.45074">
        <ele>359.6</ele>
        <time>2022-07-30T09:28:50Z</time>
      </trkpt>
      <trkpt lat="46.40574" lon="5.45046">
        <ele>359.8</ele>
        <time>2022-07-30T09:28:59Z</time>
      </trkpt>
      <trkpt lat="46.40616" lon="5.45022">
        <ele>360</ele>
        <time>2022-07-30T09:29:06Z</time>
      </trkpt>
      <trkpt lat="46.40667" lon="5.45001">
        <ele>360.2</ele>
        <time>2022-07-30T09:29:14Z</time>
      </trkpt>
      <trkpt lat="46.40705" lon="5.44998">
        <ele>360.2</ele>
        <time>2022-07-30T09:29:20Z</time>
      </trkpt>
      <trkpt lat="46.4074" lon="5.45007">
        <ele>359.8</ele>
        <time>2022-07-30T09:29:26Z</time>
      </trkpt>
      <trkpt lat="46.40788" lon="5.45024">
        <ele>360.2</ele>
        <time>2022-07-30T09:29:34Z</time>
      </trkpt>
      <trkpt lat="46.40827" lon="5.45043">
        <ele>360.8</ele>
        <time>2022-07-30T09:29:41Z</time>
      </trkpt>
      <trkpt lat="46.40838" lon="5.4505">
        <ele>360.8</ele>
        <time>2022-07-30T09:29:43Z</time>
      </trkpt>
      <trkpt lat="46.40876" lon="5.45077">
        <ele>361.6</ele>
        <time>2022-07-30T09:29:50Z</time>
      </trkpt>
      <trkpt lat="46.40881" lon="5.45082">
        <ele>361.8</ele>
        <time>2022-07-30T09:29:51Z</time>
      </trkpt>
      <trkpt lat="46.40904" lon="5.45103">
        <ele>363</ele>
        <time>2022-07-30T09:29:56Z</time>
      </trkpt>
      <trkpt lat="46.40914" lon="5.45111">
        <ele>363.4</ele>
        <time>2022-07-30T09:29:58Z</time>
      </trkpt>
      <trkpt lat="46.40928" lon="5.45123">
        <ele>364</ele>
        <time>2022-07-30T09:30:01Z</time>
      </trkpt>
      <trkpt lat="46.4095" lon="5.45138">
        <ele>364.8</ele>
        <time>2022-07-30T09:30:05Z</time>
      </trkpt>
      <trkpt lat="46.40961" lon="5.45145">
        <ele>365.2</ele>
        <time>2022-07-30T09:30:07Z</time>
      </trkpt>
      <trkpt lat="46.40995" lon="5.45164">
        <ele>365.6</ele>
        <time>2022-07-30T09:30:13Z</time>
      </trkpt>
      <trkpt lat="46.41037" lon="5.4518">
        <ele>365.6</ele>
        <time>2022-07-30T09:30:20Z</time>
      </trkpt>
      <trkpt lat="46.41072" lon="5.45191">
        <ele>366.4</ele>
        <time>2022-07-30T09:30:26Z</time>
      </trkpt>
      <trkpt lat="46.41089" lon="5.45194">
        <ele>366.8</ele>
        <time>2022-07-30T09:30:29Z</time>
      </trkpt>
      <trkpt lat="46.411" lon="5.45197">
        <ele>367.4</ele>
        <time>2022-07-30T09:30:31Z</time>
      </trkpt>
      <trkpt lat="46.41134" lon="5.45204">
        <ele>368.4</ele>
        <time>2022-07-30T09:30:37Z</time>
      </trkpt>
      <trkpt lat="46.4114" lon="5.45205">
        <ele>368.6</ele>
        <time>2022-07-30T09:30:38Z</time>
      </trkpt>
      <trkpt lat="46.41175" lon="5.45212">
        <ele>368.8</ele>
        <time>2022-07-30T09:30:44Z</time>
      </trkpt>
      <trkpt lat="46.4123" lon="5.45223">
        <ele>369.2</ele>
        <time>2022-07-30T09:30:53Z</time>
      </trkpt>
      <trkpt lat="46.41237" lon="5.45225">
        <ele>369.4</ele>
        <time>2022-07-30T09:30:54Z</time>
      </trkpt>
      <trkpt lat="46.41276" lon="5.45233">
        <ele>369.6</ele>
        <time>2022-07-30T09:31:00Z</time>
      </trkpt>
      <trkpt lat="46.41303" lon="5.4524">
        <ele>369.6</ele>
        <time>2022-07-30T09:31:04Z</time>
      </trkpt>
      <trkpt lat="46.41337" lon="5.45248">
        <ele>369.8</ele>
        <time>2022-07-30T09:31:09Z</time>
      </trkpt>
      <trkpt lat="46.41397" lon="5.45261">
        <ele>370.2</ele>
        <time>2022-07-30T09:31:18Z</time>
      </trkpt>
      <trkpt lat="46.41403" lon="5.45263">
        <ele>370.2</ele>
        <time>2022-07-30T09:31:19Z</time>
      </trkpt>
      <trkpt lat="46.41464" lon="5.45277">
        <ele>370.6</ele>
        <time>2022-07-30T09:31:28Z</time>
      </trkpt>
      <trkpt lat="46.41519" lon="5.45291">
        <ele>370.4</ele>
        <time>2022-07-30T09:31:37Z</time>
      </trkpt>
      <trkpt lat="46.41578" lon="5.45305">
        <ele>370.6</ele>
        <time>2022-07-30T09:31:47Z</time>
      </trkpt>
      <trkpt lat="46.41616" lon="5.45314">
        <ele>371</ele>
        <time>2022-07-30T09:31:54Z</time>
      </trkpt>
      <trkpt lat="46.41626" lon="5.45317">
        <ele>371.2</ele>
        <time>2022-07-30T09:31:56Z</time>
      </trkpt>
      <trkpt lat="46.41646" lon="5.45322">
        <ele>372</ele>
        <time>2022-07-30T09:32:00Z</time>
      </trkpt>
      <trkpt lat="46.41672" lon="5.45328">
        <ele>372.8</ele>
        <time>2022-07-30T09:32:05Z</time>
      </trkpt>
      <trkpt lat="46.41693" lon="5.45333">
        <ele>373</ele>
        <time>2022-07-30T09:32:09Z</time>
      </trkpt>
      <trkpt lat="46.41731" lon="5.45341">
        <ele>374</ele>
        <time>2022-07-30T09:32:16Z</time>
      </trkpt>
      <trkpt lat="46.41736" lon="5.45343">
        <ele>374.2</ele>
        <time>2022-07-30T09:32:17Z</time>
      </trkpt>
      <trkpt lat="46.4179" lon="5.45355">
        <ele>374.8</ele>
        <time>2022-07-30T09:32:27Z</time>
      </trkpt>
      <trkpt lat="46.41808" lon="5.45359">
        <ele>374.8</ele>
        <time>2022-07-30T09:32:30Z</time>
      </trkpt>
      <trkpt lat="46.41843" lon="5.45367">
        <ele>375.2</ele>
        <time>2022-07-30T09:32:36Z</time>
      </trkpt>
      <trkpt lat="46.41867" lon="5.45374">
        <ele>375.4</ele>
        <time>2022-07-30T09:32:40Z</time>
      </trkpt>
      <trkpt lat="46.41922" lon="5.45388">
        <ele>375.6</ele>
        <time>2022-07-30T09:32:49Z</time>
      </trkpt>
      <trkpt lat="46.41934" lon="5.45392">
        <ele>375.6</ele>
        <time>2022-07-30T09:32:51Z</time>
      </trkpt>
      <trkpt lat="46.41957" lon="5.454">
        <ele>375.6</ele>
        <time>2022-07-30T09:32:55Z</time>
      </trkpt>
      <trkpt lat="46.4199" lon="5.45415">
        <ele>375.6</ele>
        <time>2022-07-30T09:33:01Z</time>
      </trkpt>
      <trkpt lat="46.42006" lon="5.45422">
        <ele>376.2</ele>
        <time>2022-07-30T09:33:04Z</time>
      </trkpt>
      <trkpt lat="46.42035" lon="5.45434">
        <ele>376.8</ele>
        <time>2022-07-30T09:33:09Z</time>
      </trkpt>
      <trkpt lat="46.42059" lon="5.45444">
        <ele>377.2</ele>
        <time>2022-07-30T09:33:13Z</time>
      </trkpt>
      <trkpt lat="46.42084" lon="5.45454">
        <ele>377.6</ele>
        <time>2022-07-30T09:33:17Z</time>
      </trkpt>
      <trkpt lat="46.42138" lon="5.45474">
        <ele>377.2</ele>
        <time>2022-07-30T09:33:25Z</time>
      </trkpt>
      <trkpt lat="46.42145" lon="5.45477">
        <ele>377.2</ele>
        <time>2022-07-30T09:33:26Z</time>
      </trkpt>
      <trkpt lat="46.42152" lon="5.45479">
        <ele>377.2</ele>
        <time>2022-07-30T09:33:27Z</time>
      </trkpt>
      <trkpt lat="46.42206" lon="5.45499">
        <ele>377</ele>
        <time>2022-07-30T09:33:35Z</time>
      </trkpt>
      <trkpt lat="46.42213" lon="5.45501">
        <ele>377</ele>
        <time>2022-07-30T09:33:36Z</time>
      </trkpt>
      <trkpt lat="46.4226" lon="5.45517">
        <ele>376.4</ele>
        <time>2022-07-30T09:33:43Z</time>
      </trkpt>
      <trkpt lat="46.4228" lon="5.45523">
        <ele>376.4</ele>
        <time>2022-07-30T09:33:46Z</time>
      </trkpt>
      <trkpt lat="46.42333" lon="5.4554">
        <ele>376.6</ele>
        <time>2022-07-30T09:33:54Z</time>
      </trkpt>
      <trkpt lat="46.42354" lon="5.45546">
        <ele>376.6</ele>
        <time>2022-07-30T09:33:57Z</time>
      </trkpt>
      <trkpt lat="46.42383" lon="5.45556">
        <ele>376</ele>
        <time>2022-07-30T09:34:01Z</time>
      </trkpt>
      <trkpt lat="46.42399" lon="5.45561">
        <ele>375.4</ele>
        <time>2022-07-30T09:34:03Z</time>
      </trkpt>
      <trkpt lat="46.42415" lon="5.45566">
        <ele>374.8</ele>
        <time>2022-07-30T09:34:05Z</time>
      </trkpt>
      <trkpt lat="46.42431" lon="5.45571">
        <ele>374.4</ele>
        <time>2022-07-30T09:34:07Z</time>
      </trkpt>
      <trkpt lat="46.42457" lon="5.45579">
        <ele>373.4</ele>
        <time>2022-07-30T09:34:10Z</time>
      </trkpt>
      <trkpt lat="46.42465" lon="5.45582">
        <ele>373</ele>
        <time>2022-07-30T09:34:11Z</time>
      </trkpt>
      <trkpt lat="46.42499" lon="5.45592">
        <ele>371.8</ele>
        <time>2022-07-30T09:34:15Z</time>
      </trkpt>
      <trkpt lat="46.42546" lon="5.45608">
        <ele>370.8</ele>
        <time>2022-07-30T09:34:21Z</time>
      </trkpt>
      <trkpt lat="46.42604" lon="5.45626">
        <ele>371</ele>
        <time>2022-07-30T09:34:29Z</time>
      </trkpt>
      <trkpt lat="46.42612" lon="5.45628">
        <ele>371</ele>
        <time>2022-07-30T09:34:30Z</time>
      </trkpt>
      <trkpt lat="46.42665" lon="5.45645">
        <ele>371.6</ele>
        <time>2022-07-30T09:34:38Z</time>
      </trkpt>
      <trkpt lat="46.42712" lon="5.4566">
        <ele>372</ele>
        <time>2022-07-30T09:34:46Z</time>
      </trkpt>
      <trkpt lat="46.42729" lon="5.45665">
        <ele>372</ele>
        <time>2022-07-30T09:34:49Z</time>
      </trkpt>
      <trkpt lat="46.42785" lon="5.45678">
        <ele>373</ele>
        <time>2022-07-30T09:34:59Z</time>
      </trkpt>
      <trkpt lat="46.42791" lon="5.45679">
        <ele>373</ele>
        <time>2022-07-30T09:35:00Z</time>
      </trkpt>
      <trkpt lat="46.42841" lon="5.45682">
        <ele>372.6</ele>
        <time>2022-07-30T09:35:08Z</time>
      </trkpt>
      <trkpt lat="46.42883" lon="5.45683">
        <ele>371.8</ele>
        <time>2022-07-30T09:35:14Z</time>
      </trkpt>
      <trkpt lat="46.42905" lon="5.45684">
        <ele>371.6</ele>
        <time>2022-07-30T09:35:17Z</time>
      </trkpt>
      <trkpt lat="46.42952" lon="5.45684">
        <ele>370.6</ele>
        <time>2022-07-30T09:35:24Z</time>
      </trkpt>
      <trkpt lat="46.42969" lon="5.45684">
        <ele>370</ele>
        <time>2022-07-30T09:35:26Z</time>
      </trkpt>
      <trkpt lat="46.42984" lon="5.45685">
        <ele>369.2</ele>
        <time>2022-07-30T09:35:28Z</time>
      </trkpt>
      <trkpt lat="46.43039" lon="5.45686">
        <ele>368.6</ele>
        <time>2022-07-30T09:35:35Z</time>
      </trkpt>
      <trkpt lat="46.43046" lon="5.45686">
        <ele>368.2</ele>
        <time>2022-07-30T09:35:36Z</time>
      </trkpt>
      <trkpt lat="46.43054" lon="5.45686">
        <ele>368</ele>
        <time>2022-07-30T09:35:37Z</time>
      </trkpt>
      <trkpt lat="46.43087" lon="5.45687">
        <ele>367</ele>
        <time>2022-07-30T09:35:41Z</time>
      </trkpt>
      <trkpt lat="46.43129" lon="5.45688">
        <ele>366.2</ele>
        <time>2022-07-30T09:35:46Z</time>
      </trkpt>
      <trkpt lat="46.43138" lon="5.45688">
        <ele>365.8</ele>
        <time>2022-07-30T09:35:47Z</time>
      </trkpt>
      <trkpt lat="46.43163" lon="5.45688">
        <ele>365</ele>
        <time>2022-07-30T09:35:50Z</time>
      </trkpt>
      <trkpt lat="46.43203" lon="5.45689">
        <ele>364.4</ele>
        <time>2022-07-30T09:35:55Z</time>
      </trkpt>
      <trkpt lat="46.43226" lon="5.4569">
        <ele>363.8</ele>
        <time>2022-07-30T09:35:58Z</time>
      </trkpt>
      <trkpt lat="46.43247" lon="5.4569">
        <ele>362.6</ele>
        <time>2022-07-30T09:36:01Z</time>
      </trkpt>
      <trkpt lat="46.43262" lon="5.45691">
        <ele>362.6</ele>
        <time>2022-07-30T09:36:03Z</time>
      </trkpt>
      <trkpt lat="46.43313" lon="5.45692">
        <ele>362.6</ele>
        <time>2022-07-30T09:36:10Z</time>
      </trkpt>
      <trkpt lat="46.43371" lon="5.45693">
        <ele>362.8</ele>
        <time>2022-07-30T09:36:18Z</time>
      </trkpt>
      <trkpt lat="46.43378" lon="5.45693">
        <ele>362.8</ele>
        <time>2022-07-30T09:36:19Z</time>
      </trkpt>
      <trkpt lat="46.43434" lon="5.45695">
        <ele>363.2</ele>
        <time>2022-07-30T09:36:27Z</time>
      </trkpt>
      <trkpt lat="46.43489" lon="5.45696">
        <ele>363.4</ele>
        <time>2022-07-30T09:36:35Z</time>
      </trkpt>
      <trkpt lat="46.43521" lon="5.45697">
        <ele>363.2</ele>
        <time>2022-07-30T09:36:40Z</time>
      </trkpt>
      <trkpt lat="46.43569" lon="5.45698">
        <ele>362.4</ele>
        <time>2022-07-30T09:36:48Z</time>
      </trkpt>
      <trkpt lat="46.43622" lon="5.45699">
        <ele>362.4</ele>
        <time>2022-07-30T09:36:57Z</time>
      </trkpt>
      <trkpt lat="46.43671" lon="5.457">
        <ele>362.4</ele>
        <time>2022-07-30T09:37:05Z</time>
      </trkpt>
      <trkpt lat="46.43725" lon="5.45701">
        <ele>362.8</ele>
        <time>2022-07-30T09:37:14Z</time>
      </trkpt>
      <trkpt lat="46.43744" lon="5.45702">
        <ele>363</ele>
        <time>2022-07-30T09:37:17Z</time>
      </trkpt>
      <trkpt lat="46.43797" lon="5.45703">
        <ele>364</ele>
        <time>2022-07-30T09:37:26Z</time>
      </trkpt>
      <trkpt lat="46.43816" lon="5.45703">
        <ele>364.2</ele>
        <time>2022-07-30T09:37:29Z</time>
      </trkpt>
      <trkpt lat="46.43868" lon="5.457">
        <ele>365</ele>
        <time>2022-07-30T09:37:38Z</time>
      </trkpt>
      <trkpt lat="46.43874" lon="5.45699">
        <ele>365</ele>
        <time>2022-07-30T09:37:39Z</time>
      </trkpt>
      <trkpt lat="46.43919" lon="5.45692">
        <ele>365.8</ele>
        <time>2022-07-30T09:37:46Z</time>
      </trkpt>
      <trkpt lat="46.43977" lon="5.45682">
        <ele>365.8</ele>
        <time>2022-07-30T09:37:55Z</time>
      </trkpt>
      <trkpt lat="46.43983" lon="5.45681">
        <ele>365.6</ele>
        <time>2022-07-30T09:37:56Z</time>
      </trkpt>
      <trkpt lat="46.44039" lon="5.4567">
        <ele>365.6</ele>
        <time>2022-07-30T09:38:05Z</time>
      </trkpt>
      <trkpt lat="46.44058" lon="5.45667">
        <ele>366</ele>
        <time>2022-07-30T09:38:08Z</time>
      </trkpt>
      <trkpt lat="46.44064" lon="5.45666">
        <ele>366.2</ele>
        <time>2022-07-30T09:38:09Z</time>
      </trkpt>
      <trkpt lat="46.44122" lon="5.45654">
        <ele>366.4</ele>
        <time>2022-07-30T09:38:19Z</time>
      </trkpt>
      <trkpt lat="46.44127" lon="5.45654">
        <ele>366.6</ele>
        <time>2022-07-30T09:38:20Z</time>
      </trkpt>
      <trkpt lat="46.44185" lon="5.45642">
        <ele>366.4</ele>
        <time>2022-07-30T09:38:30Z</time>
      </trkpt>
      <trkpt lat="46.44191" lon="5.45641">
        <ele>366.4</ele>
        <time>2022-07-30T09:38:31Z</time>
      </trkpt>
      <trkpt lat="46.44249" lon="5.45633">
        <ele>366.4</ele>
        <time>2022-07-30T09:38:41Z</time>
      </trkpt>
      <trkpt lat="46.44255" lon="5.45632">
        <ele>366.4</ele>
        <time>2022-07-30T09:38:42Z</time>
      </trkpt>
      <trkpt lat="46.44294" lon="5.45634">
        <ele>367</ele>
        <time>2022-07-30T09:38:49Z</time>
      </trkpt>
      <trkpt lat="46.44299" lon="5.45634">
        <ele>367.2</ele>
        <time>2022-07-30T09:38:50Z</time>
      </trkpt>
      <trkpt lat="46.44331" lon="5.45637">
        <ele>368.6</ele>
        <time>2022-07-30T09:38:56Z</time>
      </trkpt>
      <trkpt lat="46.44336" lon="5.45637">
        <ele>368.8</ele>
        <time>2022-07-30T09:38:57Z</time>
      </trkpt>
      <trkpt lat="46.44372" lon="5.45641">
        <ele>369.6</ele>
        <time>2022-07-30T09:39:04Z</time>
      </trkpt>
      <trkpt lat="46.44377" lon="5.45642">
        <ele>369.8</ele>
        <time>2022-07-30T09:39:05Z</time>
      </trkpt>
      <trkpt lat="46.44382" lon="5.45642">
        <ele>370</ele>
        <time>2022-07-30T09:39:06Z</time>
      </trkpt>
      <trkpt lat="46.44423" lon="5.45647">
        <ele>370.8</ele>
        <time>2022-07-30T09:39:14Z</time>
      </trkpt>
      <trkpt lat="46.44438" lon="5.45648">
        <ele>371.4</ele>
        <time>2022-07-30T09:39:17Z</time>
      </trkpt>
      <trkpt lat="46.44453" lon="5.4565">
        <ele>371.8</ele>
        <time>2022-07-30T09:39:20Z</time>
      </trkpt>
      <trkpt lat="46.44489" lon="5.45654">
        <ele>372.8</ele>
        <time>2022-07-30T09:39:27Z</time>
      </trkpt>
      <trkpt lat="46.44495" lon="5.45655">
        <ele>373</ele>
        <time>2022-07-30T09:39:28Z</time>
      </trkpt>
      <trkpt lat="46.44537" lon="5.45666">
        <ele>373.4</ele>
        <time>2022-07-30T09:39:35Z</time>
      </trkpt>
      <trkpt lat="46.44582" lon="5.4568">
        <ele>372.6</ele>
        <time>2022-07-30T09:39:42Z</time>
      </trkpt>
      <trkpt lat="46.44632" lon="5.45696">
        <ele>372</ele>
        <time>2022-07-30T09:39:50Z</time>
      </trkpt>
      <trkpt lat="46.44645" lon="5.45701">
        <ele>371.8</ele>
        <time>2022-07-30T09:39:52Z</time>
      </trkpt>
      <trkpt lat="46.44658" lon="5.45705">
        <ele>371.8</ele>
        <time>2022-07-30T09:39:54Z</time>
      </trkpt>
      <trkpt lat="46.44711" lon="5.45726">
        <ele>371.8</ele>
        <time>2022-07-30T09:40:03Z</time>
      </trkpt>
      <trkpt lat="46.44717" lon="5.45729">
        <ele>371.8</ele>
        <time>2022-07-30T09:40:04Z</time>
      </trkpt>
      <trkpt lat="46.44768" lon="5.45755">
        <ele>372</ele>
        <time>2022-07-30T09:40:13Z</time>
      </trkpt>
      <trkpt lat="46.44779" lon="5.4576">
        <ele>372.2</ele>
        <time>2022-07-30T09:40:15Z</time>
      </trkpt>
      <trkpt lat="46.44823" lon="5.45786">
        <ele>372.6</ele>
        <time>2022-07-30T09:40:23Z</time>
      </trkpt>
      <trkpt lat="46.44851" lon="5.45802">
        <ele>373</ele>
        <time>2022-07-30T09:40:28Z</time>
      </trkpt>
      <trkpt lat="46.44891" lon="5.45826">
        <ele>373.6</ele>
        <time>2022-07-30T09:40:35Z</time>
      </trkpt>
      <trkpt lat="46.44943" lon="5.45855">
        <ele>373.2</ele>
        <time>2022-07-30T09:40:43Z</time>
      </trkpt>
      <trkpt lat="46.44956" lon="5.45863">
        <ele>373</ele>
        <time>2022-07-30T09:40:45Z</time>
      </trkpt>
      <trkpt lat="46.44985" lon="5.4588">
        <ele>372</ele>
        <time>2022-07-30T09:40:49Z</time>
      </trkpt>
      <trkpt lat="46.45022" lon="5.45902">
        <ele>370.8</ele>
        <time>2022-07-30T09:40:54Z</time>
      </trkpt>
      <trkpt lat="46.45052" lon="5.4592">
        <ele>369.6</ele>
        <time>2022-07-30T09:40:58Z</time>
      </trkpt>
      <trkpt lat="46.45089" lon="5.45939">
        <ele>369</ele>
        <time>2022-07-30T09:41:03Z</time>
      </trkpt>
      <trkpt lat="46.45124" lon="5.45956">
        <ele>368.8</ele>
        <time>2022-07-30T09:41:08Z</time>
      </trkpt>
      <trkpt lat="46.45136" lon="5.45966">
        <ele>369</ele>
        <time>2022-07-30T09:41:10Z</time>
      </trkpt>
      <trkpt lat="46.45169" lon="5.45993">
        <ele>369.8</ele>
        <time>2022-07-30T09:41:16Z</time>
      </trkpt>
      <trkpt lat="46.45178" lon="5.46">
        <ele>370.4</ele>
        <time>2022-07-30T09:41:18Z</time>
      </trkpt>
      <trkpt lat="46.45188" lon="5.46006">
        <ele>371</ele>
        <time>2022-07-30T09:41:20Z</time>
      </trkpt>
      <trkpt lat="46.45193" lon="5.4601">
        <ele>371</ele>
        <time>2022-07-30T09:41:21Z</time>
      </trkpt>
      <trkpt lat="46.45209" lon="5.46025">
        <ele>371.4</ele>
        <time>2022-07-30T09:41:24Z</time>
      </trkpt>
      <trkpt lat="46.45217" lon="5.46035">
        <ele>371.6</ele>
        <time>2022-07-30T09:41:26Z</time>
      </trkpt>
      <trkpt lat="46.45228" lon="5.46043">
        <ele>372</ele>
        <time>2022-07-30T09:41:28Z</time>
      </trkpt>
      <trkpt lat="46.45233" lon="5.46045">
        <ele>372.2</ele>
        <time>2022-07-30T09:41:29Z</time>
      </trkpt>
      <trkpt lat="46.45238" lon="5.46046">
        <ele>372.4</ele>
        <time>2022-07-30T09:41:30Z</time>
      </trkpt>
      <trkpt lat="46.45246" lon="5.4604">
        <ele>373.8</ele>
        <time>2022-07-30T09:41:32Z</time>
      </trkpt>
      <trkpt lat="46.4525" lon="5.46034">
        <ele>374</ele>
        <time>2022-07-30T09:41:33Z</time>
      </trkpt>
      <trkpt lat="46.45265" lon="5.46001">
        <ele>374.8</ele>
        <time>2022-07-30T09:41:37Z</time>
      </trkpt>
      <trkpt lat="46.45269" lon="5.45992">
        <ele>374.8</ele>
        <time>2022-07-30T09:41:38Z</time>
      </trkpt>
      <trkpt lat="46.45279" lon="5.45957">
        <ele>374.6</ele>
        <time>2022-07-30T09:41:41Z</time>
      </trkpt>
      <trkpt lat="46.45288" lon="5.45919">
        <ele>373.6</ele>
        <time>2022-07-30T09:41:44Z</time>
      </trkpt>
      <trkpt lat="46.45294" lon="5.45894">
        <ele>372.4</ele>
        <time>2022-07-30T09:41:46Z</time>
      </trkpt>
      <trkpt lat="46.4531" lon="5.45843">
        <ele>370.8</ele>
        <time>2022-07-30T09:41:50Z</time>
      </trkpt>
      <trkpt lat="46.45314" lon="5.4583">
        <ele>370.6</ele>
        <time>2022-07-30T09:41:51Z</time>
      </trkpt>
      <trkpt lat="46.45318" lon="5.45818">
        <ele>369.8</ele>
        <time>2022-07-30T09:41:52Z</time>
      </trkpt>
      <trkpt lat="46.45326" lon="5.45782">
        <ele>368.4</ele>
        <time>2022-07-30T09:41:55Z</time>
      </trkpt>
      <trkpt lat="46.45328" lon="5.4577">
        <ele>368.4</ele>
        <time>2022-07-30T09:41:56Z</time>
      </trkpt>
      <trkpt lat="46.4534" lon="5.45686">
        <ele>368</ele>
        <time>2022-07-30T09:42:03Z</time>
      </trkpt>
      <trkpt lat="46.45347" lon="5.45644">
        <ele>368</ele>
        <time>2022-07-30T09:42:07Z</time>
      </trkpt>
      <trkpt lat="46.4535" lon="5.45635">
        <ele>368</ele>
        <time>2022-07-30T09:42:08Z</time>
      </trkpt>
      <trkpt lat="46.45353" lon="5.45626">
        <ele>368</ele>
        <time>2022-07-30T09:42:09Z</time>
      </trkpt>
      <trkpt lat="46.45363" lon="5.45611">
        <ele>367.8</ele>
        <time>2022-07-30T09:42:11Z</time>
      </trkpt>
      <trkpt lat="46.45375" lon="5.45601">
        <ele>367.8</ele>
        <time>2022-07-30T09:42:13Z</time>
      </trkpt>
      <trkpt lat="46.45388" lon="5.45596">
        <ele>367.6</ele>
        <time>2022-07-30T09:42:15Z</time>
      </trkpt>
      <trkpt lat="46.45401" lon="5.45596">
        <ele>367.6</ele>
        <time>2022-07-30T09:42:17Z</time>
      </trkpt>
      <trkpt lat="46.45413" lon="5.456">
        <ele>367.6</ele>
        <time>2022-07-30T09:42:19Z</time>
      </trkpt>
      <trkpt lat="46.45446" lon="5.45626">
        <ele>368</ele>
        <time>2022-07-30T09:42:25Z</time>
      </trkpt>
      <trkpt lat="46.4548" lon="5.45652">
        <ele>369.6</ele>
        <time>2022-07-30T09:42:32Z</time>
      </trkpt>
      <trkpt lat="46.45484" lon="5.45655">
        <ele>369.8</ele>
        <time>2022-07-30T09:42:33Z</time>
      </trkpt>
      <trkpt lat="46.45494" lon="5.45661">
        <ele>370</ele>
        <time>2022-07-30T09:42:35Z</time>
      </trkpt>
      <trkpt lat="46.45521" lon="5.45679">
        <ele>370.4</ele>
        <time>2022-07-30T09:42:41Z</time>
      </trkpt>
      <trkpt lat="46.45533" lon="5.45686">
        <ele>371</ele>
        <time>2022-07-30T09:42:44Z</time>
      </trkpt>
      <trkpt lat="46.45549" lon="5.45694">
        <ele>372</ele>
        <time>2022-07-30T09:42:48Z</time>
      </trkpt>
      <trkpt lat="46.45561" lon="5.45698">
        <ele>373</ele>
        <time>2022-07-30T09:42:51Z</time>
      </trkpt>
      <trkpt lat="46.45573" lon="5.45702">
        <ele>374.2</ele>
        <time>2022-07-30T09:42:54Z</time>
      </trkpt>
      <trkpt lat="46.45585" lon="5.45705">
        <ele>374.8</ele>
        <time>2022-07-30T09:42:57Z</time>
      </trkpt>
      <trkpt lat="46.45608" lon="5.45704">
        <ele>375.4</ele>
        <time>2022-07-30T09:43:03Z</time>
      </trkpt>
      <trkpt lat="46.45612" lon="5.45702">
        <ele>375.6</ele>
        <time>2022-07-30T09:43:04Z</time>
      </trkpt>
      <trkpt lat="46.45631" lon="5.45694">
        <ele>376.6</ele>
        <time>2022-07-30T09:43:09Z</time>
      </trkpt>
      <trkpt lat="46.45647" lon="5.45686">
        <ele>377.4</ele>
        <time>2022-07-30T09:43:13Z</time>
      </trkpt>
      <trkpt lat="46.45651" lon="5.45684">
        <ele>377.6</ele>
        <time>2022-07-30T09:43:14Z</time>
      </trkpt>
      <trkpt lat="46.45675" lon="5.45669">
        <ele>378.8</ele>
        <time>2022-07-30T09:43:20Z</time>
      </trkpt>
      <trkpt lat="46.45692" lon="5.45659">
        <ele>379.8</ele>
        <time>2022-07-30T09:43:24Z</time>
      </trkpt>
      <trkpt lat="46.45696" lon="5.45656">
        <ele>380</ele>
        <time>2022-07-30T09:43:25Z</time>
      </trkpt>
      <trkpt lat="46.45738" lon="5.45632">
        <ele>380.4</ele>
        <time>2022-07-30T09:43:34Z</time>
      </trkpt>
      <trkpt lat="46.45782" lon="5.45606">
        <ele>380.6</ele>
        <time>2022-07-30T09:43:43Z</time>
      </trkpt>
      <trkpt lat="46.45837" lon="5.45576">
        <ele>380.4</ele>
        <time>2022-07-30T09:43:53Z</time>
      </trkpt>
      <trkpt lat="46.45843" lon="5.45573">
        <ele>380.2</ele>
        <time>2022-07-30T09:43:54Z</time>
      </trkpt>
      <trkpt lat="46.45862" lon="5.45561">
        <ele>380.2</ele>
        <time>2022-07-30T09:43:57Z</time>
      </trkpt>
      <trkpt lat="46.45882" lon="5.4555">
        <ele>380</ele>
        <time>2022-07-30T09:44:00Z</time>
      </trkpt>
      <trkpt lat="46.45933" lon="5.45521">
        <ele>378.8</ele>
        <time>2022-07-30T09:44:07Z</time>
      </trkpt>
      <trkpt lat="46.4594" lon="5.45517">
        <ele>378.4</ele>
        <time>2022-07-30T09:44:08Z</time>
      </trkpt>
      <trkpt lat="46.45961" lon="5.45505">
        <ele>377.4</ele>
        <time>2022-07-30T09:44:11Z</time>
      </trkpt>
      <trkpt lat="46.45989" lon="5.45489">
        <ele>376.2</ele>
        <time>2022-07-30T09:44:15Z</time>
      </trkpt>
      <trkpt lat="46.46003" lon="5.45481">
        <ele>375.4</ele>
        <time>2022-07-30T09:44:17Z</time>
      </trkpt>
      <trkpt lat="46.46009" lon="5.45477">
        <ele>375</ele>
        <time>2022-07-30T09:44:18Z</time>
      </trkpt>
      <trkpt lat="46.46049" lon="5.45453">
        <ele>373.8</ele>
        <time>2022-07-30T09:44:24Z</time>
      </trkpt>
      <trkpt lat="46.46069" lon="5.45442">
        <ele>373.4</ele>
        <time>2022-07-30T09:44:27Z</time>
      </trkpt>
      <trkpt lat="46.46093" lon="5.45426">
        <ele>372.8</ele>
        <time>2022-07-30T09:44:31Z</time>
      </trkpt>
      <trkpt lat="46.46125" lon="5.45407">
        <ele>372.4</ele>
        <time>2022-07-30T09:44:36Z</time>
      </trkpt>
      <trkpt lat="46.46156" lon="5.45384">
        <ele>371.8</ele>
        <time>2022-07-30T09:44:41Z</time>
      </trkpt>
      <trkpt lat="46.46162" lon="5.4538">
        <ele>371.8</ele>
        <time>2022-07-30T09:44:42Z</time>
      </trkpt>
      <trkpt lat="46.46204" lon="5.45349">
        <ele>371.8</ele>
        <time>2022-07-30T09:44:49Z</time>
      </trkpt>
      <trkpt lat="46.46255" lon="5.45311">
        <ele>371.6</ele>
        <time>2022-07-30T09:44:58Z</time>
      </trkpt>
      <trkpt lat="46.46306" lon="5.45271">
        <ele>371.6</ele>
        <time>2022-07-30T09:45:07Z</time>
      </trkpt>
      <trkpt lat="46.46356" lon="5.45233">
        <ele>371.2</ele>
        <time>2022-07-30T09:45:16Z</time>
      </trkpt>
      <trkpt lat="46.46397" lon="5.4521">
        <ele>371.4</ele>
        <time>2022-07-30T09:45:23Z</time>
      </trkpt>
      <trkpt lat="46.46402" lon="5.45205">
        <ele>371.4</ele>
        <time>2022-07-30T09:45:24Z</time>
      </trkpt>
      <trkpt lat="46.46417" lon="5.45187">
        <ele>371.2</ele>
        <time>2022-07-30T09:45:27Z</time>
      </trkpt>
      <trkpt lat="46.46424" lon="5.45174">
        <ele>371</ele>
        <time>2022-07-30T09:45:29Z</time>
      </trkpt>
      <trkpt lat="46.46429" lon="5.45158">
        <ele>371</ele>
        <time>2022-07-30T09:45:31Z</time>
      </trkpt>
      <trkpt lat="46.46433" lon="5.45135">
        <ele>371.4</ele>
        <time>2022-07-30T09:45:34Z</time>
      </trkpt>
      <trkpt lat="46.46433" lon="5.45098">
        <ele>372.8</ele>
        <time>2022-07-30T09:45:39Z</time>
      </trkpt>
      <trkpt lat="46.46432" lon="5.45091">
        <ele>373</ele>
        <time>2022-07-30T09:45:40Z</time>
      </trkpt>
      <trkpt lat="46.4643" lon="5.45083">
        <ele>373.2</ele>
        <time>2022-07-30T09:45:41Z</time>
      </trkpt>
      <trkpt lat="46.46418" lon="5.45037">
        <ele>373.2</ele>
        <time>2022-07-30T09:45:47Z</time>
      </trkpt>
      <trkpt lat="46.46415" lon="5.45029">
        <ele>373.2</ele>
        <time>2022-07-30T09:45:48Z</time>
      </trkpt>
      <trkpt lat="46.46404" lon="5.44986">
        <ele>373.2</ele>
        <time>2022-07-30T09:45:53Z</time>
      </trkpt>
      <trkpt lat="46.46394" lon="5.44937">
        <ele>373.2</ele>
        <time>2022-07-30T09:45:59Z</time>
      </trkpt>
      <trkpt lat="46.4639" lon="5.44924">
        <ele>373.6</ele>
        <time>2022-07-30T09:46:01Z</time>
      </trkpt>
      <trkpt lat="46.46385" lon="5.44913">
        <ele>373.6</ele>
        <time>2022-07-30T09:46:03Z</time>
      </trkpt>
      <trkpt lat="46.46381" lon="5.44908">
        <ele>373.8</ele>
        <time>2022-07-30T09:46:04Z</time>
      </trkpt>
      <trkpt lat="46.46378" lon="5.44902">
        <ele>374</ele>
        <time>2022-07-30T09:46:05Z</time>
      </trkpt>
      <trkpt lat="46.46369" lon="5.44886">
        <ele>374.4</ele>
        <time>2022-07-30T09:46:08Z</time>
      </trkpt>
      <trkpt lat="46.46364" lon="5.44872">
        <ele>374.6</ele>
        <time>2022-07-30T09:46:10Z</time>
      </trkpt>
      <trkpt lat="46.46356" lon="5.44821">
        <ele>375</ele>
        <time>2022-07-30T09:46:16Z</time>
      </trkpt>
      <trkpt lat="46.46356" lon="5.44812">
        <ele>375.2</ele>
        <time>2022-07-30T09:46:17Z</time>
      </trkpt>
      <trkpt lat="46.46355" lon="5.44774">
        <ele>375.8</ele>
        <time>2022-07-30T09:46:22Z</time>
      </trkpt>
      <trkpt lat="46.46355" lon="5.44744">
        <ele>376.2</ele>
        <time>2022-07-30T09:46:27Z</time>
      </trkpt>
      <trkpt lat="46.46356" lon="5.44739">
        <ele>376.6</ele>
        <time>2022-07-30T09:46:28Z</time>
      </trkpt>
      <trkpt lat="46.46356" lon="5.44728">
        <ele>377.6</ele>
        <time>2022-07-30T09:46:30Z</time>
      </trkpt>
      <trkpt lat="46.46354" lon="5.44718">
        <ele>378.4</ele>
        <time>2022-07-30T09:46:32Z</time>
      </trkpt>
      <trkpt lat="46.46351" lon="5.44714">
        <ele>379</ele>
        <time>2022-07-30T09:46:33Z</time>
      </trkpt>
      <trkpt lat="46.46342" lon="5.44708">
        <ele>379.4</ele>
        <time>2022-07-30T09:46:35Z</time>
      </trkpt>
      <trkpt lat="46.46338" lon="5.44706">
        <ele>379.6</ele>
        <time>2022-07-30T09:46:36Z</time>
      </trkpt>
      <trkpt lat="46.46329" lon="5.44702">
        <ele>380.2</ele>
        <time>2022-07-30T09:46:38Z</time>
      </trkpt>
      <trkpt lat="46.46324" lon="5.44699">
        <ele>380.2</ele>
        <time>2022-07-30T09:46:39Z</time>
      </trkpt>
      <trkpt lat="46.46316" lon="5.44696">
        <ele>380.6</ele>
        <time>2022-07-30T09:46:41Z</time>
      </trkpt>
      <trkpt lat="46.46312" lon="5.44694">
        <ele>380.6</ele>
        <time>2022-07-30T09:46:42Z</time>
      </trkpt>
      <trkpt lat="46.46296" lon="5.44685">
        <ele>381.2</ele>
        <time>2022-07-30T09:46:46Z</time>
      </trkpt>
      <trkpt lat="46.46284" lon="5.44679">
        <ele>381.6</ele>
        <time>2022-07-30T09:46:49Z</time>
      </trkpt>
      <trkpt lat="46.46273" lon="5.44673">
        <ele>382.4</ele>
        <time>2022-07-30T09:46:52Z</time>
      </trkpt>
      <trkpt lat="46.46254" lon="5.44664">
        <ele>383.4</ele>
        <time>2022-07-30T09:46:57Z</time>
      </trkpt>
      <trkpt lat="46.46236" lon="5.44654">
        <ele>384.6</ele>
        <time>2022-07-30T09:47:02Z</time>
      </trkpt>
      <trkpt lat="46.46225" lon="5.44645">
        <ele>385.2</ele>
        <time>2022-07-30T09:47:05Z</time>
      </trkpt>
      <trkpt lat="46.4622" lon="5.44638">
        <ele>385.6</ele>
        <time>2022-07-30T09:47:07Z</time>
      </trkpt>
      <trkpt lat="46.4621" lon="5.44622">
        <ele>386.4</ele>
        <time>2022-07-30T09:47:11Z</time>
      </trkpt>
      <trkpt lat="46.46205" lon="5.44613">
        <ele>387</ele>
        <time>2022-07-30T09:47:13Z</time>
      </trkpt>
      <trkpt lat="46.462" lon="5.44593">
        <ele>387.4</ele>
        <time>2022-07-30T09:47:17Z</time>
      </trkpt>
      <trkpt lat="46.46197" lon="5.44577">
        <ele>388</ele>
        <time>2022-07-30T09:47:20Z</time>
      </trkpt>
      <trkpt lat="46.46196" lon="5.44544">
        <ele>389.2</ele>
        <time>2022-07-30T09:47:26Z</time>
      </trkpt>
      <trkpt lat="46.46195" lon="5.44521">
        <ele>390.2</ele>
        <time>2022-07-30T09:47:30Z</time>
      </trkpt>
      <trkpt lat="46.46195" lon="5.4451">
        <ele>390.2</ele>
        <time>2022-07-30T09:47:32Z</time>
      </trkpt>
      <trkpt lat="46.46194" lon="5.44483">
        <ele>391.4</ele>
        <time>2022-07-30T09:47:37Z</time>
      </trkpt>
      <trkpt lat="46.46194" lon="5.44477">
        <ele>391.4</ele>
        <time>2022-07-30T09:47:38Z</time>
      </trkpt>
      <trkpt lat="46.46193" lon="5.44455">
        <ele>392.4</ele>
        <time>2022-07-30T09:47:42Z</time>
      </trkpt>
      <trkpt lat="46.46193" lon="5.44438">
        <ele>393</ele>
        <time>2022-07-30T09:47:45Z</time>
      </trkpt>
      <trkpt lat="46.46193" lon="5.44433">
        <ele>393.4</ele>
        <time>2022-07-30T09:47:46Z</time>
      </trkpt>
      <trkpt lat="46.46194" lon="5.44401">
        <ele>394.6</ele>
        <time>2022-07-30T09:47:52Z</time>
      </trkpt>
      <trkpt lat="46.46196" lon="5.44375">
        <ele>395.6</ele>
        <time>2022-07-30T09:47:57Z</time>
      </trkpt>
      <trkpt lat="46.46198" lon="5.44359">
        <ele>396</ele>
        <time>2022-07-30T09:48:00Z</time>
      </trkpt>
      <trkpt lat="46.46201" lon="5.44333">
        <ele>396.8</ele>
        <time>2022-07-30T09:48:05Z</time>
      </trkpt>
      <trkpt lat="46.46201" lon="5.44329">
        <ele>396.8</ele>
        <time>2022-07-30T09:48:06Z</time>
      </trkpt>
      <trkpt lat="46.46205" lon="5.44316">
        <ele>397.8</ele>
        <time>2022-07-30T09:48:09Z</time>
      </trkpt>
      <trkpt lat="46.46208" lon="5.443">
        <ele>398.8</ele>
        <time>2022-07-30T09:48:12Z</time>
      </trkpt>
      <trkpt lat="46.46208" lon="5.44295">
        <ele>398.8</ele>
        <time>2022-07-30T09:48:13Z</time>
      </trkpt>
      <trkpt lat="46.46203" lon="5.44272">
        <ele>399.4</ele>
        <time>2022-07-30T09:48:17Z</time>
      </trkpt>
      <trkpt lat="46.46201" lon="5.44261">
        <ele>400</ele>
        <time>2022-07-30T09:48:19Z</time>
      </trkpt>
      <trkpt lat="46.46195" lon="5.4424">
        <ele>401.2</ele>
        <time>2022-07-30T09:48:23Z</time>
      </trkpt>
      <trkpt lat="46.46193" lon="5.44234">
        <ele>401.2</ele>
        <time>2022-07-30T09:48:24Z</time>
      </trkpt>
      <trkpt lat="46.46179" lon="5.44207">
        <ele>401.6</ele>
        <time>2022-07-30T09:48:29Z</time>
      </trkpt>
      <trkpt lat="46.46176" lon="5.44197">
        <ele>402.2</ele>
        <time>2022-07-30T09:48:31Z</time>
      </trkpt>
      <trkpt lat="46.4617" lon="5.44182">
        <ele>403</ele>
        <time>2022-07-30T09:48:34Z</time>
      </trkpt>
      <trkpt lat="46.46168" lon="5.44176">
        <ele>403.4</ele>
        <time>2022-07-30T09:48:35Z</time>
      </trkpt>
      <trkpt lat="46.4616" lon="5.44151">
        <ele>403.4</ele>
        <time>2022-07-30T09:48:40Z</time>
      </trkpt>
      <trkpt lat="46.46142" lon="5.44122">
        <ele>404.4</ele>
        <time>2022-07-30T09:48:45Z</time>
      </trkpt>
      <trkpt lat="46.4614" lon="5.44104">
        <ele>405.4</ele>
        <time>2022-07-30T09:48:48Z</time>
      </trkpt>
      <trkpt lat="46.46141" lon="5.44095">
        <ele>405.6</ele>
        <time>2022-07-30T09:48:50Z</time>
      </trkpt>
      <trkpt lat="46.46139" lon="5.44076">
        <ele>406.4</ele>
        <time>2022-07-30T09:48:54Z</time>
      </trkpt>
      <trkpt lat="46.46137" lon="5.44059">
        <ele>407.4</ele>
        <time>2022-07-30T09:48:57Z</time>
      </trkpt>
      <trkpt lat="46.46136" lon="5.44042">
        <ele>408.6</ele>
        <time>2022-07-30T09:49:00Z</time>
      </trkpt>
      <trkpt lat="46.46131" lon="5.44035">
        <ele>409</ele>
        <time>2022-07-30T09:49:01Z</time>
      </trkpt>
      <trkpt lat="46.46127" lon="5.44024">
        <ele>409.2</ele>
        <time>2022-07-30T09:49:03Z</time>
      </trkpt>
      <trkpt lat="46.46129" lon="5.44">
        <ele>409.6</ele>
        <time>2022-07-30T09:49:07Z</time>
      </trkpt>
      <trkpt lat="46.46131" lon="5.43982">
        <ele>410.2</ele>
        <time>2022-07-30T09:49:10Z</time>
      </trkpt>
      <trkpt lat="46.46135" lon="5.43961">
        <ele>410.6</ele>
        <time>2022-07-30T09:49:14Z</time>
      </trkpt>
      <trkpt lat="46.46137" lon="5.43956">
        <ele>411</ele>
        <time>2022-07-30T09:49:15Z</time>
      </trkpt>
      <trkpt lat="46.46143" lon="5.4393">
        <ele>411.6</ele>
        <time>2022-07-30T09:49:20Z</time>
      </trkpt>
      <trkpt lat="46.46145" lon="5.43925">
        <ele>411.8</ele>
        <time>2022-07-30T09:49:21Z</time>
      </trkpt>
      <trkpt lat="46.46152" lon="5.43898">
        <ele>413</ele>
        <time>2022-07-30T09:49:26Z</time>
      </trkpt>
      <trkpt lat="46.46156" lon="5.43884">
        <ele>414.4</ele>
        <time>2022-07-30T09:49:29Z</time>
      </trkpt>
      <trkpt lat="46.46158" lon="5.43879">
        <ele>414.6</ele>
        <time>2022-07-30T09:49:30Z</time>
      </trkpt>
      <trkpt lat="46.46168" lon="5.43845">
        <ele>415.4</ele>
        <time>2022-07-30T09:49:37Z</time>
      </trkpt>
      <trkpt lat="46.4617" lon="5.4384">
        <ele>415.8</ele>
        <time>2022-07-30T09:49:38Z</time>
      </trkpt>
      <trkpt lat="46.46174" lon="5.43825">
        <ele>416.6</ele>
        <time>2022-07-30T09:49:41Z</time>
      </trkpt>
      <trkpt lat="46.46177" lon="5.43815">
        <ele>417</ele>
        <time>2022-07-30T09:49:43Z</time>
      </trkpt>
      <trkpt lat="46.46182" lon="5.43795">
        <ele>417.6</ele>
        <time>2022-07-30T09:49:47Z</time>
      </trkpt>
      <trkpt lat="46.46184" lon="5.4379">
        <ele>418</ele>
        <time>2022-07-30T09:49:48Z</time>
      </trkpt>
      <trkpt lat="46.4619" lon="5.43758">
        <ele>419</ele>
        <time>2022-07-30T09:49:54Z</time>
      </trkpt>
      <trkpt lat="46.46191" lon="5.43752">
        <ele>419.4</ele>
        <time>2022-07-30T09:49:55Z</time>
      </trkpt>
      <trkpt lat="46.46192" lon="5.43735">
        <ele>420</ele>
        <time>2022-07-30T09:49:58Z</time>
      </trkpt>
      <trkpt lat="46.46191" lon="5.43713">
        <ele>421.2</ele>
        <time>2022-07-30T09:50:02Z</time>
      </trkpt>
      <trkpt lat="46.4619" lon="5.43707">
        <ele>421.4</ele>
        <time>2022-07-30T09:50:03Z</time>
      </trkpt>
      <trkpt lat="46.46185" lon="5.43673">
        <ele>422.4</ele>
        <time>2022-07-30T09:50:09Z</time>
      </trkpt>
      <trkpt lat="46.4618" lon="5.43656">
        <ele>422.8</ele>
        <time>2022-07-30T09:50:12Z</time>
      </trkpt>
      <trkpt lat="46.4616" lon="5.43616">
        <ele>423.4</ele>
        <time>2022-07-30T09:50:19Z</time>
      </trkpt>
      <trkpt lat="46.46156" lon="5.43611">
        <ele>423.6</ele>
        <time>2022-07-30T09:50:20Z</time>
      </trkpt>
      <trkpt lat="46.46138" lon="5.4359">
        <ele>423.2</ele>
        <time>2022-07-30T09:50:24Z</time>
      </trkpt>
      <trkpt lat="46.46105" lon="5.4357">
        <ele>423.6</ele>
        <time>2022-07-30T09:50:29Z</time>
      </trkpt>
      <trkpt lat="46.46064" lon="5.43565">
        <ele>422.4</ele>
        <time>2022-07-30T09:50:34Z</time>
      </trkpt>
      <trkpt lat="46.46055" lon="5.43565">
        <ele>422.4</ele>
        <time>2022-07-30T09:50:35Z</time>
      </trkpt>
      <trkpt lat="46.46021" lon="5.43559">
        <ele>421</ele>
        <time>2022-07-30T09:50:39Z</time>
      </trkpt>
      <trkpt lat="46.46012" lon="5.43556">
        <ele>420.8</ele>
        <time>2022-07-30T09:50:40Z</time>
      </trkpt>
      <trkpt lat="46.45994" lon="5.43548">
        <ele>419.8</ele>
        <time>2022-07-30T09:50:42Z</time>
      </trkpt>
      <trkpt lat="46.45969" lon="5.43531">
        <ele>419.2</ele>
        <time>2022-07-30T09:50:45Z</time>
      </trkpt>
      <trkpt lat="46.4596" lon="5.43525">
        <ele>418.6</ele>
        <time>2022-07-30T09:50:46Z</time>
      </trkpt>
      <trkpt lat="46.45934" lon="5.43504">
        <ele>417.2</ele>
        <time>2022-07-30T09:50:49Z</time>
      </trkpt>
      <trkpt lat="46.45924" lon="5.43497">
        <ele>417</ele>
        <time>2022-07-30T09:50:50Z</time>
      </trkpt>
      <trkpt lat="46.45896" lon="5.43475">
        <ele>416</ele>
        <time>2022-07-30T09:50:53Z</time>
      </trkpt>
      <trkpt lat="46.45866" lon="5.43453">
        <ele>415.2</ele>
        <time>2022-07-30T09:50:56Z</time>
      </trkpt>
      <trkpt lat="46.45856" lon="5.43446">
        <ele>414.6</ele>
        <time>2022-07-30T09:50:57Z</time>
      </trkpt>
      <trkpt lat="46.45826" lon="5.43423">
        <ele>413.6</ele>
        <time>2022-07-30T09:51:00Z</time>
      </trkpt>
      <trkpt lat="46.45796" lon="5.43399">
        <ele>412</ele>
        <time>2022-07-30T09:51:03Z</time>
      </trkpt>
      <trkpt lat="46.45786" lon="5.43391">
        <ele>411.6</ele>
        <time>2022-07-30T09:51:04Z</time>
      </trkpt>
      <trkpt lat="46.45776" lon="5.43383">
        <ele>410.4</ele>
        <time>2022-07-30T09:51:05Z</time>
      </trkpt>
      <trkpt lat="46.45756" lon="5.43365">
        <ele>409</ele>
        <time>2022-07-30T09:51:07Z</time>
      </trkpt>
      <trkpt lat="46.45728" lon="5.43333">
        <ele>408</ele>
        <time>2022-07-30T09:51:10Z</time>
      </trkpt>
      <trkpt lat="46.45721" lon="5.43321">
        <ele>407.8</ele>
        <time>2022-07-30T09:51:11Z</time>
      </trkpt>
      <trkpt lat="46.45699" lon="5.43281">
        <ele>406.4</ele>
        <time>2022-07-30T09:51:14Z</time>
      </trkpt>
      <trkpt lat="46.45669" lon="5.43213">
        <ele>405.4</ele>
        <time>2022-07-30T09:51:19Z</time>
      </trkpt>
      <trkpt lat="46.45658" lon="5.43186">
        <ele>405</ele>
        <time>2022-07-30T09:51:21Z</time>
      </trkpt>
      <trkpt lat="46.45641" lon="5.43148">
        <ele>404</ele>
        <time>2022-07-30T09:51:24Z</time>
      </trkpt>
      <trkpt lat="46.45618" lon="5.43097">
        <ele>403.4</ele>
        <time>2022-07-30T09:51:28Z</time>
      </trkpt>
      <trkpt lat="46.45585" lon="5.43025">
        <ele>403</ele>
        <time>2022-07-30T09:51:34Z</time>
      </trkpt>
      <trkpt lat="46.45574" lon="5.43005">
        <ele>403</ele>
        <time>2022-07-30T09:51:36Z</time>
      </trkpt>
      <trkpt lat="46.45545" lon="5.42964">
        <ele>403.4</ele>
        <time>2022-07-30T09:51:41Z</time>
      </trkpt>
      <trkpt lat="46.45508" lon="5.42918">
        <ele>405</ele>
        <time>2022-07-30T09:51:48Z</time>
      </trkpt>
      <trkpt lat="46.45489" lon="5.42893">
        <ele>406.4</ele>
        <time>2022-07-30T09:51:52Z</time>
      </trkpt>
      <trkpt lat="46.45476" lon="5.42875">
        <ele>407</ele>
        <time>2022-07-30T09:51:55Z</time>
      </trkpt>
      <trkpt lat="46.45456" lon="5.42854">
        <ele>407.6</ele>
        <time>2022-07-30T09:51:59Z</time>
      </trkpt>
      <trkpt lat="46.45446" lon="5.42844">
        <ele>407.8</ele>
        <time>2022-07-30T09:52:01Z</time>
      </trkpt>
      <trkpt lat="46.45422" lon="5.42819">
        <ele>408.4</ele>
        <time>2022-07-30T09:52:06Z</time>
      </trkpt>
      <trkpt lat="46.45402" lon="5.428">
        <ele>409.2</ele>
        <time>2022-07-30T09:52:10Z</time>
      </trkpt>
      <trkpt lat="46.45398" lon="5.42796">
        <ele>409.4</ele>
        <time>2022-07-30T09:52:11Z</time>
      </trkpt>
      <trkpt lat="46.45376" lon="5.42768">
        <ele>410.4</ele>
        <time>2022-07-30T09:52:16Z</time>
      </trkpt>
      <trkpt lat="46.45372" lon="5.42762">
        <ele>410.8</ele>
        <time>2022-07-30T09:52:17Z</time>
      </trkpt>
      <trkpt lat="46.45349" lon="5.42724">
        <ele>411.4</ele>
        <time>2022-07-30T09:52:24Z</time>
      </trkpt>
      <trkpt lat="46.45345" lon="5.42719">
        <ele>411.6</ele>
        <time>2022-07-30T09:52:25Z</time>
      </trkpt>
      <trkpt lat="46.45334" lon="5.42697">
        <ele>412.8</ele>
        <time>2022-07-30T09:52:29Z</time>
      </trkpt>
      <trkpt lat="46.45325" lon="5.42681">
        <ele>413.2</ele>
        <time>2022-07-30T09:52:32Z</time>
      </trkpt>
      <trkpt lat="46.45304" lon="5.42644">
        <ele>413.8</ele>
        <time>2022-07-30T09:52:39Z</time>
      </trkpt>
      <trkpt lat="46.45299" lon="5.42635">
        <ele>414.2</ele>
        <time>2022-07-30T09:52:41Z</time>
      </trkpt>
      <trkpt lat="46.45284" lon="5.42608">
        <ele>415</ele>
        <time>2022-07-30T09:52:46Z</time>
      </trkpt>
      <trkpt lat="46.4527" lon="5.4258">
        <ele>416</ele>
        <time>2022-07-30T09:52:51Z</time>
      </trkpt>
      <trkpt lat="46.45264" lon="5.42569">
        <ele>416.4</ele>
        <time>2022-07-30T09:52:53Z</time>
      </trkpt>
      <trkpt lat="46.45249" lon="5.42542">
        <ele>417</ele>
        <time>2022-07-30T09:52:58Z</time>
      </trkpt>
      <trkpt lat="46.45229" lon="5.42506">
        <ele>418.2</ele>
        <time>2022-07-30T09:53:05Z</time>
      </trkpt>
      <trkpt lat="46.4521" lon="5.42471">
        <ele>419.2</ele>
        <time>2022-07-30T09:53:11Z</time>
      </trkpt>
      <trkpt lat="46.45207" lon="5.42467">
        <ele>419.4</ele>
        <time>2022-07-30T09:53:12Z</time>
      </trkpt>
      <trkpt lat="46.45182" lon="5.42421">
        <ele>420.2</ele>
        <time>2022-07-30T09:53:20Z</time>
      </trkpt>
      <trkpt lat="46.45179" lon="5.42415">
        <ele>420.4</ele>
        <time>2022-07-30T09:53:21Z</time>
      </trkpt>
      <trkpt lat="46.45163" lon="5.42389">
        <ele>421.4</ele>
        <time>2022-07-30T09:53:26Z</time>
      </trkpt>
      <trkpt lat="46.45158" lon="5.42379">
        <ele>421.6</ele>
        <time>2022-07-30T09:53:28Z</time>
      </trkpt>
      <trkpt lat="46.45152" lon="5.4237">
        <ele>421.8</ele>
        <time>2022-07-30T09:53:30Z</time>
      </trkpt>
      <trkpt lat="46.45135" lon="5.42352">
        <ele>422.4</ele>
        <time>2022-07-30T09:53:34Z</time>
      </trkpt>
      <trkpt lat="46.45124" lon="5.42336">
        <ele>422.8</ele>
        <time>2022-07-30T09:53:37Z</time>
      </trkpt>
      <trkpt lat="46.45121" lon="5.42331">
        <ele>423</ele>
        <time>2022-07-30T09:53:38Z</time>
      </trkpt>
      <trkpt lat="46.45115" lon="5.42322">
        <ele>423.4</ele>
        <time>2022-07-30T09:53:40Z</time>
      </trkpt>
      <trkpt lat="46.45103" lon="5.42308">
        <ele>424</ele>
        <time>2022-07-30T09:53:43Z</time>
      </trkpt>
      <trkpt lat="46.45099" lon="5.42304">
        <ele>424.6</ele>
        <time>2022-07-30T09:53:44Z</time>
      </trkpt>
      <trkpt lat="46.45095" lon="5.42298">
        <ele>424.8</ele>
        <time>2022-07-30T09:53:45Z</time>
      </trkpt>
      <trkpt lat="46.45089" lon="5.42286">
        <ele>425.4</ele>
        <time>2022-07-30T09:53:47Z</time>
      </trkpt>
      <trkpt lat="46.45088" lon="5.42279">
        <ele>425.4</ele>
        <time>2022-07-30T09:53:48Z</time>
      </trkpt>
      <trkpt lat="46.45087" lon="5.42273">
        <ele>425.6</ele>
        <time>2022-07-30T09:53:49Z</time>
      </trkpt>
      <trkpt lat="46.45086" lon="5.42246">
        <ele>426.4</ele>
        <time>2022-07-30T09:53:53Z</time>
      </trkpt>
      <trkpt lat="46.45085" lon="5.42239">
        <ele>426.6</ele>
        <time>2022-07-30T09:53:54Z</time>
      </trkpt>
      <trkpt lat="46.45082" lon="5.42207">
        <ele>427.8</ele>
        <time>2022-07-30T09:53:59Z</time>
      </trkpt>
      <trkpt lat="46.45081" lon="5.422">
        <ele>428</ele>
        <time>2022-07-30T09:54:00Z</time>
      </trkpt>
      <trkpt lat="46.45075" lon="5.42174">
        <ele>428.8</ele>
        <time>2022-07-30T09:54:04Z</time>
      </trkpt>
      <trkpt lat="46.45069" lon="5.42156">
        <ele>429.6</ele>
        <time>2022-07-30T09:54:07Z</time>
      </trkpt>
      <trkpt lat="46.45067" lon="5.42149">
        <ele>430</ele>
        <time>2022-07-30T09:54:08Z</time>
      </trkpt>
      <trkpt lat="46.45053" lon="5.42111">
        <ele>430.4</ele>
        <time>2022-07-30T09:54:13Z</time>
      </trkpt>
      <trkpt lat="46.45029" lon="5.42064">
        <ele>430.6</ele>
        <time>2022-07-30T09:54:20Z</time>
      </trkpt>
      <trkpt lat="46.45011" lon="5.42035">
        <ele>431</ele>
        <time>2022-07-30T09:54:25Z</time>
      </trkpt>
      <trkpt lat="46.45004" lon="5.42023">
        <ele>431.4</ele>
        <time>2022-07-30T09:54:27Z</time>
      </trkpt>
      <trkpt lat="46.44978" lon="5.41983">
        <ele>431.8</ele>
        <time>2022-07-30T09:54:34Z</time>
      </trkpt>
      <trkpt lat="46.44971" lon="5.41971">
        <ele>432.6</ele>
        <time>2022-07-30T09:54:36Z</time>
      </trkpt>
      <trkpt lat="46.44965" lon="5.41958">
        <ele>433</ele>
        <time>2022-07-30T09:54:38Z</time>
      </trkpt>
      <trkpt lat="46.44961" lon="5.41944">
        <ele>433.4</ele>
        <time>2022-07-30T09:54:40Z</time>
      </trkpt>
      <trkpt lat="46.4496" lon="5.41936">
        <ele>433.4</ele>
        <time>2022-07-30T09:54:41Z</time>
      </trkpt>
      <trkpt lat="46.4496" lon="5.41929">
        <ele>433.6</ele>
        <time>2022-07-30T09:54:42Z</time>
      </trkpt>
      <trkpt lat="46.44961" lon="5.41906">
        <ele>434.2</ele>
        <time>2022-07-30T09:54:45Z</time>
      </trkpt>
      <trkpt lat="46.44964" lon="5.41889">
        <ele>434.6</ele>
        <time>2022-07-30T09:54:47Z</time>
      </trkpt>
      <trkpt lat="46.44972" lon="5.41859">
        <ele>435.2</ele>
        <time>2022-07-30T09:54:51Z</time>
      </trkpt>
      <trkpt lat="46.44977" lon="5.41846">
        <ele>435.4</ele>
        <time>2022-07-30T09:54:53Z</time>
      </trkpt>
      <trkpt lat="46.44987" lon="5.41828">
        <ele>436</ele>
        <time>2022-07-30T09:54:56Z</time>
      </trkpt>
      <trkpt lat="46.44991" lon="5.41822">
        <ele>436.4</ele>
        <time>2022-07-30T09:54:57Z</time>
      </trkpt>
      <trkpt lat="46.44999" lon="5.41814">
        <ele>437</ele>
        <time>2022-07-30T09:54:59Z</time>
      </trkpt>
      <trkpt lat="46.45008" lon="5.41807">
        <ele>437.4</ele>
        <time>2022-07-30T09:55:01Z</time>
      </trkpt>
      <trkpt lat="46.45013" lon="5.41805">
        <ele>437.6</ele>
        <time>2022-07-30T09:55:02Z</time>
      </trkpt>
      <trkpt lat="46.45017" lon="5.41804">
        <ele>437.8</ele>
        <time>2022-07-30T09:55:03Z</time>
      </trkpt>
      <trkpt lat="46.45033" lon="5.41804">
        <ele>438.2</ele>
        <time>2022-07-30T09:55:05Z</time>
      </trkpt>
      <trkpt lat="46.45044" lon="5.41806">
        <ele>438.4</ele>
        <time>2022-07-30T09:55:07Z</time>
      </trkpt>
      <trkpt lat="46.45059" lon="5.41813">
        <ele>438.4</ele>
        <time>2022-07-30T09:55:10Z</time>
      </trkpt>
      <trkpt lat="46.45064" lon="5.41814">
        <ele>438.4</ele>
        <time>2022-07-30T09:55:11Z</time>
      </trkpt>
      <trkpt lat="46.45075" lon="5.41816">
        <ele>438.4</ele>
        <time>2022-07-30T09:55:13Z</time>
      </trkpt>
      <trkpt lat="46.45082" lon="5.41816">
        <ele>438.4</ele>
        <time>2022-07-30T09:55:14Z</time>
      </trkpt>
      <trkpt lat="46.45123" lon="5.41808">
        <ele>438.2</ele>
        <time>2022-07-30T09:55:20Z</time>
      </trkpt>
      <trkpt lat="46.4513" lon="5.41805">
        <ele>438</ele>
        <time>2022-07-30T09:55:21Z</time>
      </trkpt>
      <trkpt lat="46.45147" lon="5.41795">
        <ele>437.6</ele>
        <time>2022-07-30T09:55:24Z</time>
      </trkpt>
      <trkpt lat="46.45158" lon="5.41786">
        <ele>437.4</ele>
        <time>2022-07-30T09:55:26Z</time>
      </trkpt>
      <trkpt lat="46.45185" lon="5.41749">
        <ele>437.2</ele>
        <time>2022-07-30T09:55:32Z</time>
      </trkpt>
      <trkpt lat="46.45205" lon="5.41704">
        <ele>437.4</ele>
        <time>2022-07-30T09:55:38Z</time>
      </trkpt>
      <trkpt lat="46.45212" lon="5.41683">
        <ele>437.8</ele>
        <time>2022-07-30T09:55:41Z</time>
      </trkpt>
      <trkpt lat="46.45222" lon="5.41653">
        <ele>438</ele>
        <time>2022-07-30T09:55:45Z</time>
      </trkpt>
      <trkpt lat="46.45229" lon="5.41625">
        <ele>438.6</ele>
        <time>2022-07-30T09:55:49Z</time>
      </trkpt>
      <trkpt lat="46.45233" lon="5.41605">
        <ele>439.4</ele>
        <time>2022-07-30T09:55:52Z</time>
      </trkpt>
      <trkpt lat="46.45235" lon="5.41592">
        <ele>439.6</ele>
        <time>2022-07-30T09:55:54Z</time>
      </trkpt>
      <trkpt lat="46.45242" lon="5.4157">
        <ele>440</ele>
        <time>2022-07-30T09:55:57Z</time>
      </trkpt>
      <trkpt lat="46.45245" lon="5.41563">
        <ele>440.2</ele>
        <time>2022-07-30T09:55:58Z</time>
      </trkpt>
      <trkpt lat="46.4526" lon="5.41542">
        <ele>440.6</ele>
        <time>2022-07-30T09:56:02Z</time>
      </trkpt>
      <trkpt lat="46.45264" lon="5.41539">
        <ele>440.6</ele>
        <time>2022-07-30T09:56:03Z</time>
      </trkpt>
      <trkpt lat="46.4527" lon="5.41534">
        <ele>440.8</ele>
        <time>2022-07-30T09:56:04Z</time>
      </trkpt>
      <trkpt lat="46.4528" lon="5.4153">
        <ele>441</ele>
        <time>2022-07-30T09:56:06Z</time>
      </trkpt>
      <trkpt lat="46.45285" lon="5.41529">
        <ele>441</ele>
        <time>2022-07-30T09:56:07Z</time>
      </trkpt>
      <trkpt lat="46.4531" lon="5.4153">
        <ele>441.8</ele>
        <time>2022-07-30T09:56:12Z</time>
      </trkpt>
      <trkpt lat="46.45315" lon="5.41531">
        <ele>442</ele>
        <time>2022-07-30T09:56:13Z</time>
      </trkpt>
      <trkpt lat="46.45328" lon="5.41535">
        <ele>442.4</ele>
        <time>2022-07-30T09:56:16Z</time>
      </trkpt>
      <trkpt lat="46.45342" lon="5.41538">
        <ele>443</ele>
        <time>2022-07-30T09:56:19Z</time>
      </trkpt>
      <trkpt lat="46.45347" lon="5.41538">
        <ele>443</ele>
        <time>2022-07-30T09:56:20Z</time>
      </trkpt>
      <trkpt lat="46.4539" lon="5.41534">
        <ele>443.4</ele>
        <time>2022-07-30T09:56:29Z</time>
      </trkpt>
      <trkpt lat="46.45408" lon="5.41529">
        <ele>444</ele>
        <time>2022-07-30T09:56:33Z</time>
      </trkpt>
      <trkpt lat="46.45427" lon="5.41521">
        <ele>444.8</ele>
        <time>2022-07-30T09:56:37Z</time>
      </trkpt>
      <trkpt lat="46.45432" lon="5.41519">
        <ele>445</ele>
        <time>2022-07-30T09:56:38Z</time>
      </trkpt>
      <trkpt lat="46.45454" lon="5.4151">
        <ele>446.2</ele>
        <time>2022-07-30T09:56:43Z</time>
      </trkpt>
      <trkpt lat="46.45484" lon="5.41496">
        <ele>447.2</ele>
        <time>2022-07-30T09:56:50Z</time>
      </trkpt>
      <trkpt lat="46.45489" lon="5.41494">
        <ele>447.4</ele>
        <time>2022-07-30T09:56:51Z</time>
      </trkpt>
      <trkpt lat="46.45537" lon="5.41468">
        <ele>447.4</ele>
        <time>2022-07-30T09:57:02Z</time>
      </trkpt>
      <trkpt lat="46.45571" lon="5.41443">
        <ele>447.8</ele>
        <time>2022-07-30T09:57:09Z</time>
      </trkpt>
      <trkpt lat="46.45575" lon="5.41438">
        <ele>448</ele>
        <time>2022-07-30T09:57:10Z</time>
      </trkpt>
      <trkpt lat="46.45584" lon="5.41427">
        <ele>448</ele>
        <time>2022-07-30T09:57:12Z</time>
      </trkpt>
      <trkpt lat="46.45587" lon="5.41421">
        <ele>448</ele>
        <time>2022-07-30T09:57:13Z</time>
      </trkpt>
      <trkpt lat="46.45603" lon="5.41397">
        <ele>448</ele>
        <time>2022-07-30T09:57:17Z</time>
      </trkpt>
      <trkpt lat="46.45612" lon="5.41379">
        <ele>448.6</ele>
        <time>2022-07-30T09:57:20Z</time>
      </trkpt>
      <trkpt lat="46.45619" lon="5.41366">
        <ele>449.2</ele>
        <time>2022-07-30T09:57:22Z</time>
      </trkpt>
      <trkpt lat="46.45634" lon="5.41335">
        <ele>450.4</ele>
        <time>2022-07-30T09:57:27Z</time>
      </trkpt>
      <trkpt lat="46.45641" lon="5.41325">
        <ele>450.6</ele>
        <time>2022-07-30T09:57:29Z</time>
      </trkpt>
      <trkpt lat="46.45676" lon="5.41277">
        <ele>450.8</ele>
        <time>2022-07-30T09:57:37Z</time>
      </trkpt>
      <trkpt lat="46.45706" lon="5.41242">
        <ele>450</ele>
        <time>2022-07-30T09:57:43Z</time>
      </trkpt>
      <trkpt lat="46.45729" lon="5.41214">
        <ele>449.6</ele>
        <time>2022-07-30T09:57:48Z</time>
      </trkpt>
      <trkpt lat="46.45735" lon="5.41206">
        <ele>449.8</ele>
        <time>2022-07-30T09:57:49Z</time>
      </trkpt>
      <trkpt lat="46.45755" lon="5.41169">
        <ele>450</ele>
        <time>2022-07-30T09:57:54Z</time>
      </trkpt>
      <trkpt lat="46.45766" lon="5.41137">
        <ele>450.2</ele>
        <time>2022-07-30T09:57:58Z</time>
      </trkpt>
      <trkpt lat="46.45771" lon="5.4112">
        <ele>450.4</ele>
        <time>2022-07-30T09:58:00Z</time>
      </trkpt>
      <trkpt lat="46.45788" lon="5.41058">
        <ele>451</ele>
        <time>2022-07-30T09:58:07Z</time>
      </trkpt>
      <trkpt lat="46.45807" lon="5.40993">
        <ele>451.2</ele>
        <time>2022-07-30T09:58:15Z</time>
      </trkpt>
      <trkpt lat="46.45814" lon="5.40963">
        <ele>451.4</ele>
        <time>2022-07-30T09:58:19Z</time>
      </trkpt>
      <trkpt lat="46.45821" lon="5.4093">
        <ele>451.4</ele>
        <time>2022-07-30T09:58:23Z</time>
      </trkpt>
      <trkpt lat="46.45836" lon="5.40851">
        <ele>451.8</ele>
        <time>2022-07-30T09:58:33Z</time>
      </trkpt>
      <trkpt lat="46.45837" lon="5.40843">
        <ele>451.8</ele>
        <time>2022-07-30T09:58:34Z</time>
      </trkpt>
      <trkpt lat="46.45843" lon="5.40781">
        <ele>452</ele>
        <time>2022-07-30T09:58:42Z</time>
      </trkpt>
      <trkpt lat="46.45846" lon="5.40748">
        <ele>451.8</ele>
        <time>2022-07-30T09:58:46Z</time>
      </trkpt>
      <trkpt lat="46.45855" lon="5.40703">
        <ele>451.8</ele>
        <time>2022-07-30T09:58:52Z</time>
      </trkpt>
      <trkpt lat="46.45864" lon="5.40681">
        <ele>452.6</ele>
        <time>2022-07-30T09:58:56Z</time>
      </trkpt>
      <trkpt lat="46.45867" lon="5.40672">
        <ele>453</ele>
        <time>2022-07-30T09:58:58Z</time>
      </trkpt>
      <trkpt lat="46.45871" lon="5.40662">
        <ele>453.8</ele>
        <time>2022-07-30T09:59:00Z</time>
      </trkpt>
      <trkpt lat="46.45876" lon="5.4065">
        <ele>455</ele>
        <time>2022-07-30T09:59:03Z</time>
      </trkpt>
      <trkpt lat="46.4588" lon="5.4064">
        <ele>455.4</ele>
        <time>2022-07-30T09:59:05Z</time>
      </trkpt>
      <trkpt lat="46.45884" lon="5.40632">
        <ele>456.2</ele>
        <time>2022-07-30T09:59:07Z</time>
      </trkpt>
      <trkpt lat="46.45893" lon="5.40617">
        <ele>457.2</ele>
        <time>2022-07-30T09:59:11Z</time>
      </trkpt>
      <trkpt lat="46.45895" lon="5.40613">
        <ele>457.6</ele>
        <time>2022-07-30T09:59:12Z</time>
      </trkpt>
      <trkpt lat="46.459" lon="5.406">
        <ele>458.4</ele>
        <time>2022-07-30T09:59:15Z</time>
      </trkpt>
      <trkpt lat="46.45905" lon="5.40587">
        <ele>459.2</ele>
        <time>2022-07-30T09:59:18Z</time>
      </trkpt>
      <trkpt lat="46.45907" lon="5.40583">
        <ele>459.6</ele>
        <time>2022-07-30T09:59:19Z</time>
      </trkpt>
      <trkpt lat="46.45915" lon="5.40564">
        <ele>460.6</ele>
        <time>2022-07-30T09:59:23Z</time>
      </trkpt>
      <trkpt lat="46.45921" lon="5.40552">
        <ele>461.6</ele>
        <time>2022-07-30T09:59:26Z</time>
      </trkpt>
      <trkpt lat="46.45923" lon="5.40548">
        <ele>461.8</ele>
        <time>2022-07-30T09:59:27Z</time>
      </trkpt>
      <trkpt lat="46.45925" lon="5.40545">
        <ele>462.6</ele>
        <time>2022-07-30T09:59:28Z</time>
      </trkpt>
      <trkpt lat="46.45934" lon="5.40528">
        <ele>464</ele>
        <time>2022-07-30T09:59:33Z</time>
      </trkpt>
      <trkpt lat="46.45936" lon="5.40525">
        <ele>464.2</ele>
        <time>2022-07-30T09:59:34Z</time>
      </trkpt>
      <trkpt lat="46.4595" lon="5.40505">
        <ele>465</ele>
        <time>2022-07-30T09:59:41Z</time>
      </trkpt>
      <trkpt lat="46.45954" lon="5.405">
        <ele>465.8</ele>
        <time>2022-07-30T09:59:43Z</time>
      </trkpt>
      <trkpt lat="46.45958" lon="5.40495">
        <ele>466.2</ele>
        <time>2022-07-30T09:59:45Z</time>
      </trkpt>
      <trkpt lat="46.45967" lon="5.40481">
        <ele>467.4</ele>
        <time>2022-07-30T09:59:49Z</time>
      </trkpt>
      <trkpt lat="46.45971" lon="5.40474">
        <ele>467.8</ele>
        <time>2022-07-30T09:59:51Z</time>
      </trkpt>
      <trkpt lat="46.45978" lon="5.40463">
        <ele>468.4</ele>
        <time>2022-07-30T09:59:54Z</time>
      </trkpt>
      <trkpt lat="46.45989" lon="5.40445">
        <ele>469.8</ele>
        <time>2022-07-30T09:59:59Z</time>
      </trkpt>
      <trkpt lat="46.45991" lon="5.40441">
        <ele>469.8</ele>
        <time>2022-07-30T10:00:00Z</time>
      </trkpt>
      <trkpt lat="46.45999" lon="5.40426">
        <ele>470.8</ele>
        <time>2022-07-30T10:00:04Z</time>
      </trkpt>
      <trkpt lat="46.46001" lon="5.40422">
        <ele>470.8</ele>
        <time>2022-07-30T10:00:05Z</time>
      </trkpt>
      <trkpt lat="46.46011" lon="5.40403">
        <ele>471.8</ele>
        <time>2022-07-30T10:00:10Z</time>
      </trkpt>
      <trkpt lat="46.46017" lon="5.40392">
        <ele>472.2</ele>
        <time>2022-07-30T10:00:13Z</time>
      </trkpt>
      <trkpt lat="46.46021" lon="5.40385">
        <ele>473</ele>
        <time>2022-07-30T10:00:15Z</time>
      </trkpt>
      <trkpt lat="46.46028" lon="5.40365">
        <ele>474</ele>
        <time>2022-07-30T10:00:20Z</time>
      </trkpt>
      <trkpt lat="46.4603" lon="5.4036">
        <ele>474.2</ele>
        <time>2022-07-30T10:00:21Z</time>
      </trkpt>
      <trkpt lat="46.46038" lon="5.40345">
        <ele>475.4</ele>
        <time>2022-07-30T10:00:25Z</time>
      </trkpt>
      <trkpt lat="46.46047" lon="5.40337">
        <ele>476.2</ele>
        <time>2022-07-30T10:00:28Z</time>
      </trkpt>
      <trkpt lat="46.46052" lon="5.40332">
        <ele>476.6</ele>
        <time>2022-07-30T10:00:30Z</time>
      </trkpt>
      <trkpt lat="46.46067" lon="5.40324">
        <ele>477.2</ele>
        <time>2022-07-30T10:00:35Z</time>
      </trkpt>
      <trkpt lat="46.46072" lon="5.4032">
        <ele>477.4</ele>
        <time>2022-07-30T10:00:37Z</time>
      </trkpt>
      <trkpt lat="46.4608" lon="5.40316">
        <ele>478.4</ele>
        <time>2022-07-30T10:00:40Z</time>
      </trkpt>
      <trkpt lat="46.46083" lon="5.40315">
        <ele>478.6</ele>
        <time>2022-07-30T10:00:41Z</time>
      </trkpt>
      <trkpt lat="46.46103" lon="5.40305">
        <ele>479.8</ele>
        <time>2022-07-30T10:00:48Z</time>
      </trkpt>
      <trkpt lat="46.46105" lon="5.40303">
        <ele>480</ele>
        <time>2022-07-30T10:00:49Z</time>
      </trkpt>
      <trkpt lat="46.46111" lon="5.40297">
        <ele>480.8</ele>
        <time>2022-07-30T10:00:52Z</time>
      </trkpt>
      <trkpt lat="46.4612" lon="5.40289">
        <ele>481.4</ele>
        <time>2022-07-30T10:00:55Z</time>
      </trkpt>
      <trkpt lat="46.46125" lon="5.40281">
        <ele>482</ele>
        <time>2022-07-30T10:00:57Z</time>
      </trkpt>
      <trkpt lat="46.46132" lon="5.40274">
        <ele>482.4</ele>
        <time>2022-07-30T10:00:59Z</time>
      </trkpt>
      <trkpt lat="46.46141" lon="5.4026">
        <ele>483</ele>
        <time>2022-07-30T10:01:02Z</time>
      </trkpt>
      <trkpt lat="46.4615" lon="5.40244">
        <ele>483.4</ele>
        <time>2022-07-30T10:01:06Z</time>
      </trkpt>
      <trkpt lat="46.46166" lon="5.40215">
        <ele>484</ele>
        <time>2022-07-30T10:01:13Z</time>
      </trkpt>
      <trkpt lat="46.46168" lon="5.4021">
        <ele>484.2</ele>
        <time>2022-07-30T10:01:14Z</time>
      </trkpt>
      <trkpt lat="46.46183" lon="5.4018">
        <ele>485</ele>
        <time>2022-07-30T10:01:21Z</time>
      </trkpt>
      <trkpt lat="46.46187" lon="5.4017">
        <ele>485.2</ele>
        <time>2022-07-30T10:01:23Z</time>
      </trkpt>
      <trkpt lat="46.46202" lon="5.40147">
        <ele>486.4</ele>
        <time>2022-07-30T10:01:28Z</time>
      </trkpt>
      <trkpt lat="46.46233" lon="5.4011">
        <ele>487.4</ele>
        <time>2022-07-30T10:01:36Z</time>
      </trkpt>
      <trkpt lat="46.4624" lon="5.40103">
        <ele>487.8</ele>
        <time>2022-07-30T10:01:38Z</time>
      </trkpt>
      <trkpt lat="46.4625" lon="5.40097">
        <ele>488</ele>
        <time>2022-07-30T10:01:40Z</time>
      </trkpt>
      <trkpt lat="46.46254" lon="5.40096">
        <ele>488</ele>
        <time>2022-07-30T10:01:41Z</time>
      </trkpt>
      <trkpt lat="46.46265" lon="5.40093">
        <ele>488</ele>
        <time>2022-07-30T10:01:43Z</time>
      </trkpt>
      <trkpt lat="46.46284" lon="5.40094">
        <ele>488.4</ele>
        <time>2022-07-30T10:01:47Z</time>
      </trkpt>
      <trkpt lat="46.46289" lon="5.40094">
        <ele>488.4</ele>
        <time>2022-07-30T10:01:48Z</time>
      </trkpt>
      <trkpt lat="46.46302" lon="5.40096">
        <ele>489.6</ele>
        <time>2022-07-30T10:01:51Z</time>
      </trkpt>
      <trkpt lat="46.46318" lon="5.40096">
        <ele>490.6</ele>
        <time>2022-07-30T10:01:55Z</time>
      </trkpt>
      <trkpt lat="46.46323" lon="5.40096">
        <ele>490.8</ele>
        <time>2022-07-30T10:01:56Z</time>
      </trkpt>
      <trkpt lat="46.46332" lon="5.40095">
        <ele>491.4</ele>
        <time>2022-07-30T10:01:58Z</time>
      </trkpt>
      <trkpt lat="46.46337" lon="5.40095">
        <ele>491.6</ele>
        <time>2022-07-30T10:01:59Z</time>
      </trkpt>
      <trkpt lat="46.46344" lon="5.40094">
        <ele>491.6</ele>
        <time>2022-07-30T10:02:00Z</time>
      </trkpt>
      <trkpt lat="46.46374" lon="5.40089">
        <ele>492.8</ele>
        <time>2022-07-30T10:02:06Z</time>
      </trkpt>
      <trkpt lat="46.46378" lon="5.40089">
        <ele>492.8</ele>
        <time>2022-07-30T10:02:07Z</time>
      </trkpt>
      <trkpt lat="46.46418" lon="5.40081">
        <ele>493.6</ele>
        <time>2022-07-30T10:02:16Z</time>
      </trkpt>
      <trkpt lat="46.46428" lon="5.40079">
        <ele>494</ele>
        <time>2022-07-30T10:02:18Z</time>
      </trkpt>
      <trkpt lat="46.46455" lon="5.40074">
        <ele>494.6</ele>
        <time>2022-07-30T10:02:24Z</time>
      </trkpt>
      <trkpt lat="46.46473" lon="5.40072">
        <ele>495.2</ele>
        <time>2022-07-30T10:02:28Z</time>
      </trkpt>
      <trkpt lat="46.46505" lon="5.40075">
        <ele>495.6</ele>
        <time>2022-07-30T10:02:35Z</time>
      </trkpt>
      <trkpt lat="46.4651" lon="5.40077">
        <ele>495.8</ele>
        <time>2022-07-30T10:02:36Z</time>
      </trkpt>
      <trkpt lat="46.46515" lon="5.40079">
        <ele>495.8</ele>
        <time>2022-07-30T10:02:37Z</time>
      </trkpt>
      <trkpt lat="46.46533" lon="5.40088">
        <ele>496.6</ele>
        <time>2022-07-30T10:02:41Z</time>
      </trkpt>
      <trkpt lat="46.46542" lon="5.40093">
        <ele>496.8</ele>
        <time>2022-07-30T10:02:43Z</time>
      </trkpt>
      <trkpt lat="46.46556" lon="5.401">
        <ele>497.8</ele>
        <time>2022-07-30T10:02:46Z</time>
      </trkpt>
      <trkpt lat="46.46571" lon="5.40107">
        <ele>498.2</ele>
        <time>2022-07-30T10:02:49Z</time>
      </trkpt>
      <trkpt lat="46.46587" lon="5.40116">
        <ele>499</ele>
        <time>2022-07-30T10:02:53Z</time>
      </trkpt>
      <trkpt lat="46.46604" lon="5.40125">
        <ele>500</ele>
        <time>2022-07-30T10:02:57Z</time>
      </trkpt>
      <trkpt lat="46.46609" lon="5.40127">
        <ele>500.2</ele>
        <time>2022-07-30T10:02:58Z</time>
      </trkpt>
      <trkpt lat="46.46625" lon="5.40135">
        <ele>501.4</ele>
        <time>2022-07-30T10:03:02Z</time>
      </trkpt>
      <trkpt lat="46.4664" lon="5.40143">
        <ele>502</ele>
        <time>2022-07-30T10:03:06Z</time>
      </trkpt>
      <trkpt lat="46.46644" lon="5.40145">
        <ele>502.6</ele>
        <time>2022-07-30T10:03:07Z</time>
      </trkpt>
      <trkpt lat="46.46659" lon="5.40153">
        <ele>503.6</ele>
        <time>2022-07-30T10:03:11Z</time>
      </trkpt>
      <trkpt lat="46.46669" lon="5.40158">
        <ele>504.2</ele>
        <time>2022-07-30T10:03:14Z</time>
      </trkpt>
      <trkpt lat="46.46688" lon="5.40168">
        <ele>504.6</ele>
        <time>2022-07-30T10:03:19Z</time>
      </trkpt>
      <trkpt lat="46.46703" lon="5.40175">
        <ele>505.8</ele>
        <time>2022-07-30T10:03:23Z</time>
      </trkpt>
      <trkpt lat="46.46707" lon="5.40177">
        <ele>505.8</ele>
        <time>2022-07-30T10:03:24Z</time>
      </trkpt>
      <trkpt lat="46.46718" lon="5.40183">
        <ele>506.8</ele>
        <time>2022-07-30T10:03:27Z</time>
      </trkpt>
      <trkpt lat="46.46732" lon="5.40189">
        <ele>508</ele>
        <time>2022-07-30T10:03:31Z</time>
      </trkpt>
      <trkpt lat="46.46735" lon="5.40191">
        <ele>508.4</ele>
        <time>2022-07-30T10:03:32Z</time>
      </trkpt>
      <trkpt lat="46.46746" lon="5.40196">
        <ele>509</ele>
        <time>2022-07-30T10:03:35Z</time>
      </trkpt>
      <trkpt lat="46.46769" lon="5.4021">
        <ele>510.2</ele>
        <time>2022-07-30T10:03:42Z</time>
      </trkpt>
      <trkpt lat="46.4679" lon="5.40223">
        <ele>511.4</ele>
        <time>2022-07-30T10:03:48Z</time>
      </trkpt>
      <trkpt lat="46.46794" lon="5.40225">
        <ele>512</ele>
        <time>2022-07-30T10:03:49Z</time>
      </trkpt>
      <trkpt lat="46.46801" lon="5.40229">
        <ele>512.6</ele>
        <time>2022-07-30T10:03:51Z</time>
      </trkpt>
      <trkpt lat="46.46831" lon="5.40242">
        <ele>513.4</ele>
        <time>2022-07-30T10:03:59Z</time>
      </trkpt>
      <trkpt lat="46.46835" lon="5.40244">
        <ele>513.8</ele>
        <time>2022-07-30T10:04:00Z</time>
      </trkpt>
      <trkpt lat="46.46858" lon="5.40253">
        <ele>514.8</ele>
        <time>2022-07-30T10:04:06Z</time>
      </trkpt>
      <trkpt lat="46.46869" lon="5.4026">
        <ele>515.4</ele>
        <time>2022-07-30T10:04:09Z</time>
      </trkpt>
      <trkpt lat="46.46873" lon="5.40262">
        <ele>515.8</ele>
        <time>2022-07-30T10:04:10Z</time>
      </trkpt>
      <trkpt lat="46.4689" lon="5.40269">
        <ele>517</ele>
        <time>2022-07-30T10:04:14Z</time>
      </trkpt>
      <trkpt lat="46.46903" lon="5.40276">
        <ele>517.6</ele>
        <time>2022-07-30T10:04:17Z</time>
      </trkpt>
      <trkpt lat="46.46907" lon="5.40278">
        <ele>517.6</ele>
        <time>2022-07-30T10:04:18Z</time>
      </trkpt>
      <trkpt lat="46.46933" lon="5.4029">
        <ele>518</ele>
        <time>2022-07-30T10:04:24Z</time>
      </trkpt>
      <trkpt lat="46.46943" lon="5.40296">
        <ele>518.2</ele>
        <time>2022-07-30T10:04:26Z</time>
      </trkpt>
      <trkpt lat="46.46964" lon="5.40307">
        <ele>519.2</ele>
        <time>2022-07-30T10:04:31Z</time>
      </trkpt>
      <trkpt lat="46.46973" lon="5.4031">
        <ele>519.4</ele>
        <time>2022-07-30T10:04:33Z</time>
      </trkpt>
      <trkpt lat="46.4699" lon="5.40317">
        <ele>520.2</ele>
        <time>2022-07-30T10:04:37Z</time>
      </trkpt>
      <trkpt lat="46.47014" lon="5.40322">
        <ele>521.2</ele>
        <time>2022-07-30T10:04:42Z</time>
      </trkpt>
      <trkpt lat="46.47018" lon="5.40323">
        <ele>521.4</ele>
        <time>2022-07-30T10:04:43Z</time>
      </trkpt>
      <trkpt lat="46.47056" lon="5.40327">
        <ele>521.6</ele>
        <time>2022-07-30T10:04:50Z</time>
      </trkpt>
      <trkpt lat="46.47098" lon="5.40333">
        <ele>520.6</ele>
        <time>2022-07-30T10:04:56Z</time>
      </trkpt>
      <trkpt lat="46.47105" lon="5.40334">
        <ele>520</ele>
        <time>2022-07-30T10:04:57Z</time>
      </trkpt>
      <trkpt lat="46.47128" lon="5.40339">
        <ele>519.6</ele>
        <time>2022-07-30T10:05:00Z</time>
      </trkpt>
      <trkpt lat="46.47145" lon="5.40345">
        <ele>519</ele>
        <time>2022-07-30T10:05:02Z</time>
      </trkpt>
      <trkpt lat="46.47155" lon="5.40348">
        <ele>518</ele>
        <time>2022-07-30T10:05:03Z</time>
      </trkpt>
      <trkpt lat="46.47164" lon="5.40353">
        <ele>516.8</ele>
        <time>2022-07-30T10:05:04Z</time>
      </trkpt>
      <trkpt lat="46.47182" lon="5.40367">
        <ele>515.8</ele>
        <time>2022-07-30T10:05:06Z</time>
      </trkpt>
      <trkpt lat="46.4719" lon="5.40377">
        <ele>515.6</ele>
        <time>2022-07-30T10:05:07Z</time>
      </trkpt>
      <trkpt lat="46.47207" lon="5.404">
        <ele>514.6</ele>
        <time>2022-07-30T10:05:09Z</time>
      </trkpt>
      <trkpt lat="46.47222" lon="5.40417">
        <ele>513</ele>
        <time>2022-07-30T10:05:11Z</time>
      </trkpt>
      <trkpt lat="46.47234" lon="5.40423">
        <ele>512.8</ele>
        <time>2022-07-30T10:05:12Z</time>
      </trkpt>
      <trkpt lat="46.47246" lon="5.40427">
        <ele>512</ele>
        <time>2022-07-30T10:05:13Z</time>
      </trkpt>
      <trkpt lat="46.47259" lon="5.4043">
        <ele>511.8</ele>
        <time>2022-07-30T10:05:14Z</time>
      </trkpt>
      <trkpt lat="46.47271" lon="5.40433">
        <ele>511.2</ele>
        <time>2022-07-30T10:05:15Z</time>
      </trkpt>
      <trkpt lat="46.47296" lon="5.40439">
        <ele>510.4</ele>
        <time>2022-07-30T10:05:17Z</time>
      </trkpt>
      <trkpt lat="46.47333" lon="5.40444">
        <ele>508.8</ele>
        <time>2022-07-30T10:05:20Z</time>
      </trkpt>
      <trkpt lat="46.47345" lon="5.40444">
        <ele>508.4</ele>
        <time>2022-07-30T10:05:21Z</time>
      </trkpt>
      <trkpt lat="46.47357" lon="5.40445">
        <ele>507.6</ele>
        <time>2022-07-30T10:05:22Z</time>
      </trkpt>
      <trkpt lat="46.4738" lon="5.40445">
        <ele>506</ele>
        <time>2022-07-30T10:05:24Z</time>
      </trkpt>
      <trkpt lat="46.47414" lon="5.40441">
        <ele>504.8</ele>
        <time>2022-07-30T10:05:27Z</time>
      </trkpt>
      <trkpt lat="46.47446" lon="5.40443">
        <ele>503.2</ele>
        <time>2022-07-30T10:05:30Z</time>
      </trkpt>
      <trkpt lat="46.47456" lon="5.40444">
        <ele>502.8</ele>
        <time>2022-07-30T10:05:31Z</time>
      </trkpt>
      <trkpt lat="46.47468" lon="5.40447">
        <ele>502</ele>
        <time>2022-07-30T10:05:32Z</time>
      </trkpt>
      <trkpt lat="46.47495" lon="5.40459">
        <ele>501.4</ele>
        <time>2022-07-30T10:05:35Z</time>
      </trkpt>
      <trkpt lat="46.47502" lon="5.40469">
        <ele>500.8</ele>
        <time>2022-07-30T10:05:36Z</time>
      </trkpt>
      <trkpt lat="46.47509" lon="5.40479">
        <ele>500</ele>
        <time>2022-07-30T10:05:37Z</time>
      </trkpt>
      <trkpt lat="46.47516" lon="5.40485">
        <ele>499.4</ele>
        <time>2022-07-30T10:05:38Z</time>
      </trkpt>
      <trkpt lat="46.47522" lon="5.40484">
        <ele>498.6</ele>
        <time>2022-07-30T10:05:39Z</time>
      </trkpt>
      <trkpt lat="46.47527" lon="5.40473">
        <ele>498.2</ele>
        <time>2022-07-30T10:05:40Z</time>
      </trkpt>
      <trkpt lat="46.47532" lon="5.40464">
        <ele>497.6</ele>
        <time>2022-07-30T10:05:41Z</time>
      </trkpt>
      <trkpt lat="46.47538" lon="5.40435">
        <ele>496.6</ele>
        <time>2022-07-30T10:05:43Z</time>
      </trkpt>
      <trkpt lat="46.47534" lon="5.40396">
        <ele>495.2</ele>
        <time>2022-07-30T10:05:45Z</time>
      </trkpt>
      <trkpt lat="46.47524" lon="5.40366">
        <ele>493.8</ele>
        <time>2022-07-30T10:05:47Z</time>
      </trkpt>
      <trkpt lat="46.4752" lon="5.4035">
        <ele>492.8</ele>
        <time>2022-07-30T10:05:48Z</time>
      </trkpt>
      <trkpt lat="46.47519" lon="5.40336">
        <ele>492.2</ele>
        <time>2022-07-30T10:05:49Z</time>
      </trkpt>
      <trkpt lat="46.47522" lon="5.40317">
        <ele>491.6</ele>
        <time>2022-07-30T10:05:50Z</time>
      </trkpt>
      <trkpt lat="46.47528" lon="5.40303">
        <ele>491.2</ele>
        <time>2022-07-30T10:05:51Z</time>
      </trkpt>
      <trkpt lat="46.47536" lon="5.40292">
        <ele>491</ele>
        <time>2022-07-30T10:05:52Z</time>
      </trkpt>
      <trkpt lat="46.47545" lon="5.40282">
        <ele>490.6</ele>
        <time>2022-07-30T10:05:53Z</time>
      </trkpt>
      <trkpt lat="46.47554" lon="5.40273">
        <ele>489.6</ele>
        <time>2022-07-30T10:05:54Z</time>
      </trkpt>
      <trkpt lat="46.47563" lon="5.40264">
        <ele>488.4</ele>
        <time>2022-07-30T10:05:55Z</time>
      </trkpt>
      <trkpt lat="46.47573" lon="5.40258">
        <ele>488.2</ele>
        <time>2022-07-30T10:05:56Z</time>
      </trkpt>
      <trkpt lat="46.47584" lon="5.40253">
        <ele>487.6</ele>
        <time>2022-07-30T10:05:57Z</time>
      </trkpt>
      <trkpt lat="46.47594" lon="5.4025">
        <ele>487</ele>
        <time>2022-07-30T10:05:58Z</time>
      </trkpt>
      <trkpt lat="46.47613" lon="5.40246">
        <ele>485.6</ele>
        <time>2022-07-30T10:06:00Z</time>
      </trkpt>
      <trkpt lat="46.47633" lon="5.40243">
        <ele>484.6</ele>
        <time>2022-07-30T10:06:02Z</time>
      </trkpt>
      <trkpt lat="46.47666" lon="5.40242">
        <ele>483.2</ele>
        <time>2022-07-30T10:06:05Z</time>
      </trkpt>
      <trkpt lat="46.47676" lon="5.4024">
        <ele>483.2</ele>
        <time>2022-07-30T10:06:06Z</time>
      </trkpt>
      <trkpt lat="46.47696" lon="5.4023">
        <ele>482.6</ele>
        <time>2022-07-30T10:06:08Z</time>
      </trkpt>
      <trkpt lat="46.47704" lon="5.40217">
        <ele>482.2</ele>
        <time>2022-07-30T10:06:09Z</time>
      </trkpt>
      <trkpt lat="46.47716" lon="5.4019">
        <ele>481.8</ele>
        <time>2022-07-30T10:06:11Z</time>
      </trkpt>
      <trkpt lat="46.47717" lon="5.40177">
        <ele>481.4</ele>
        <time>2022-07-30T10:06:12Z</time>
      </trkpt>
      <trkpt lat="46.47722" lon="5.40164">
        <ele>481.2</ele>
        <time>2022-07-30T10:06:13Z</time>
      </trkpt>
      <trkpt lat="46.47729" lon="5.40152">
        <ele>480.4</ele>
        <time>2022-07-30T10:06:14Z</time>
      </trkpt>
      <trkpt lat="46.47744" lon="5.40132">
        <ele>479.2</ele>
        <time>2022-07-30T10:06:16Z</time>
      </trkpt>
      <trkpt lat="46.47749" lon="5.40119">
        <ele>478.6</ele>
        <time>2022-07-30T10:06:17Z</time>
      </trkpt>
      <trkpt lat="46.47754" lon="5.40105">
        <ele>478</ele>
        <time>2022-07-30T10:06:18Z</time>
      </trkpt>
      <trkpt lat="46.47758" lon="5.4009">
        <ele>477.2</ele>
        <time>2022-07-30T10:06:19Z</time>
      </trkpt>
      <trkpt lat="46.47761" lon="5.40074">
        <ele>476.6</ele>
        <time>2022-07-30T10:06:20Z</time>
      </trkpt>
      <trkpt lat="46.47761" lon="5.40058">
        <ele>475.2</ele>
        <time>2022-07-30T10:06:21Z</time>
      </trkpt>
      <trkpt lat="46.47762" lon="5.40029">
        <ele>473.8</ele>
        <time>2022-07-30T10:06:23Z</time>
      </trkpt>
      <trkpt lat="46.47768" lon="5.40008">
        <ele>472.6</ele>
        <time>2022-07-30T10:06:25Z</time>
      </trkpt>
      <trkpt lat="46.47774" lon="5.39999">
        <ele>472</ele>
        <time>2022-07-30T10:06:26Z</time>
      </trkpt>
      <trkpt lat="46.47783" lon="5.39992">
        <ele>472</ele>
        <time>2022-07-30T10:06:27Z</time>
      </trkpt>
      <trkpt lat="46.47793" lon="5.39986">
        <ele>471.4</ele>
        <time>2022-07-30T10:06:28Z</time>
      </trkpt>
      <trkpt lat="46.47811" lon="5.39977">
        <ele>469.2</ele>
        <time>2022-07-30T10:06:30Z</time>
      </trkpt>
      <trkpt lat="46.47835" lon="5.39965">
        <ele>468.2</ele>
        <time>2022-07-30T10:06:32Z</time>
      </trkpt>
      <trkpt lat="46.47858" lon="5.39954">
        <ele>466.8</ele>
        <time>2022-07-30T10:06:34Z</time>
      </trkpt>
      <trkpt lat="46.47867" lon="5.39949">
        <ele>465.6</ele>
        <time>2022-07-30T10:06:35Z</time>
      </trkpt>
      <trkpt lat="46.47892" lon="5.39936">
        <ele>464.2</ele>
        <time>2022-07-30T10:06:37Z</time>
      </trkpt>
      <trkpt lat="46.47912" lon="5.39925">
        <ele>463.2</ele>
        <time>2022-07-30T10:06:39Z</time>
      </trkpt>
      <trkpt lat="46.47949" lon="5.39906">
        <ele>461.8</ele>
        <time>2022-07-30T10:06:42Z</time>
      </trkpt>
      <trkpt lat="46.47991" lon="5.39886">
        <ele>460.2</ele>
        <time>2022-07-30T10:06:46Z</time>
      </trkpt>
      <trkpt lat="46.48" lon="5.39884">
        <ele>459.4</ele>
        <time>2022-07-30T10:06:47Z</time>
      </trkpt>
      <trkpt lat="46.48012" lon="5.39883">
        <ele>459.2</ele>
        <time>2022-07-30T10:06:48Z</time>
      </trkpt>
      <trkpt lat="46.48021" lon="5.39885">
        <ele>458.8</ele>
        <time>2022-07-30T10:06:49Z</time>
      </trkpt>
      <trkpt lat="46.48048" lon="5.399">
        <ele>458.2</ele>
        <time>2022-07-30T10:06:52Z</time>
      </trkpt>
      <trkpt lat="46.48066" lon="5.39909">
        <ele>458.2</ele>
        <time>2022-07-30T10:06:54Z</time>
      </trkpt>
      <trkpt lat="46.48087" lon="5.39913">
        <ele>458.2</ele>
        <time>2022-07-30T10:06:56Z</time>
      </trkpt>
      <trkpt lat="46.48097" lon="5.39912">
        <ele>458.2</ele>
        <time>2022-07-30T10:06:57Z</time>
      </trkpt>
      <trkpt lat="46.48126" lon="5.39904">
        <ele>458.6</ele>
        <time>2022-07-30T10:07:00Z</time>
      </trkpt>
      <trkpt lat="46.4817" lon="5.39881">
        <ele>459.4</ele>
        <time>2022-07-30T10:07:05Z</time>
      </trkpt>
      <trkpt lat="46.48188" lon="5.39866">
        <ele>459.4</ele>
        <time>2022-07-30T10:07:07Z</time>
      </trkpt>
      <trkpt lat="46.48199" lon="5.39846">
        <ele>459.2</ele>
        <time>2022-07-30T10:07:09Z</time>
      </trkpt>
      <trkpt lat="46.48197" lon="5.39824">
        <ele>459.2</ele>
        <time>2022-07-30T10:07:11Z</time>
      </trkpt>
      <trkpt lat="46.48184" lon="5.39762">
        <ele>458.8</ele>
        <time>2022-07-30T10:07:16Z</time>
      </trkpt>
      <trkpt lat="46.48176" lon="5.39687">
        <ele>458.2</ele>
        <time>2022-07-30T10:07:22Z</time>
      </trkpt>
      <trkpt lat="46.48176" lon="5.39674">
        <ele>458</ele>
        <time>2022-07-30T10:07:23Z</time>
      </trkpt>
      <trkpt lat="46.48179" lon="5.39646">
        <ele>457.6</ele>
        <time>2022-07-30T10:07:25Z</time>
      </trkpt>
      <trkpt lat="46.48182" lon="5.39632">
        <ele>457.2</ele>
        <time>2022-07-30T10:07:26Z</time>
      </trkpt>
      <trkpt lat="46.4819" lon="5.39608">
        <ele>456.6</ele>
        <time>2022-07-30T10:07:28Z</time>
      </trkpt>
      <trkpt lat="46.482" lon="5.39577">
        <ele>455</ele>
        <time>2022-07-30T10:07:30Z</time>
      </trkpt>
      <trkpt lat="46.48204" lon="5.39562">
        <ele>453.8</ele>
        <time>2022-07-30T10:07:31Z</time>
      </trkpt>
      <trkpt lat="46.48215" lon="5.39516">
        <ele>452.6</ele>
        <time>2022-07-30T10:07:34Z</time>
      </trkpt>
      <trkpt lat="46.48219" lon="5.39504">
        <ele>450.8</ele>
        <time>2022-07-30T10:07:35Z</time>
      </trkpt>
      <trkpt lat="46.48224" lon="5.39495">
        <ele>449.4</ele>
        <time>2022-07-30T10:07:36Z</time>
      </trkpt>
      <trkpt lat="46.48237" lon="5.39476">
        <ele>447.8</ele>
        <time>2022-07-30T10:07:38Z</time>
      </trkpt>
      <trkpt lat="46.48245" lon="5.39468">
        <ele>447.4</ele>
        <time>2022-07-30T10:07:39Z</time>
      </trkpt>
      <trkpt lat="46.48254" lon="5.39465">
        <ele>446</ele>
        <time>2022-07-30T10:07:40Z</time>
      </trkpt>
      <trkpt lat="46.48263" lon="5.39463">
        <ele>445.4</ele>
        <time>2022-07-30T10:07:41Z</time>
      </trkpt>
      <trkpt lat="46.4827" lon="5.39463">
        <ele>444.6</ele>
        <time>2022-07-30T10:07:42Z</time>
      </trkpt>
      <trkpt lat="46.48279" lon="5.39463">
        <ele>443.8</ele>
        <time>2022-07-30T10:07:43Z</time>
      </trkpt>
      <trkpt lat="46.48289" lon="5.39461">
        <ele>443.4</ele>
        <time>2022-07-30T10:07:44Z</time>
      </trkpt>
      <trkpt lat="46.48294" lon="5.39457">
        <ele>442.6</ele>
        <time>2022-07-30T10:07:45Z</time>
      </trkpt>
      <trkpt lat="46.48299" lon="5.39451">
        <ele>442</ele>
        <time>2022-07-30T10:07:46Z</time>
      </trkpt>
      <trkpt lat="46.48299" lon="5.39417">
        <ele>441</ele>
        <time>2022-07-30T10:07:48Z</time>
      </trkpt>
      <trkpt lat="46.48301" lon="5.39396">
        <ele>440</ele>
        <time>2022-07-30T10:07:49Z</time>
      </trkpt>
      <trkpt lat="46.48304" lon="5.39379">
        <ele>439</ele>
        <time>2022-07-30T10:07:50Z</time>
      </trkpt>
      <trkpt lat="46.48308" lon="5.39368">
        <ele>438.4</ele>
        <time>2022-07-30T10:07:51Z</time>
      </trkpt>
      <trkpt lat="46.48316" lon="5.39352">
        <ele>437.8</ele>
        <time>2022-07-30T10:07:52Z</time>
      </trkpt>
      <trkpt lat="46.48335" lon="5.39328">
        <ele>436.8</ele>
        <time>2022-07-30T10:07:54Z</time>
      </trkpt>
      <trkpt lat="46.48354" lon="5.39316">
        <ele>434.8</ele>
        <time>2022-07-30T10:07:56Z</time>
      </trkpt>
      <trkpt lat="46.48368" lon="5.39314">
        <ele>433.8</ele>
        <time>2022-07-30T10:07:57Z</time>
      </trkpt>
      <trkpt lat="46.48382" lon="5.39315">
        <ele>433</ele>
        <time>2022-07-30T10:07:58Z</time>
      </trkpt>
      <trkpt lat="46.48395" lon="5.39319">
        <ele>432</ele>
        <time>2022-07-30T10:07:59Z</time>
      </trkpt>
      <trkpt lat="46.48407" lon="5.39321">
        <ele>431.4</ele>
        <time>2022-07-30T10:08:00Z</time>
      </trkpt>
      <trkpt lat="46.48422" lon="5.39321">
        <ele>429.8</ele>
        <time>2022-07-30T10:08:01Z</time>
      </trkpt>
      <trkpt lat="46.48434" lon="5.39319">
        <ele>429</ele>
        <time>2022-07-30T10:08:02Z</time>
      </trkpt>
      <trkpt lat="46.48447" lon="5.39315">
        <ele>427.2</ele>
        <time>2022-07-30T10:08:03Z</time>
      </trkpt>
      <trkpt lat="46.4846" lon="5.39311">
        <ele>426.2</ele>
        <time>2022-07-30T10:08:04Z</time>
      </trkpt>
      <trkpt lat="46.48491" lon="5.39305">
        <ele>424.8</ele>
        <time>2022-07-30T10:08:06Z</time>
      </trkpt>
      <trkpt lat="46.48525" lon="5.39297">
        <ele>423.4</ele>
        <time>2022-07-30T10:08:08Z</time>
      </trkpt>
      <trkpt lat="46.48539" lon="5.39293">
        <ele>422.4</ele>
        <time>2022-07-30T10:08:09Z</time>
      </trkpt>
      <trkpt lat="46.48552" lon="5.39289">
        <ele>420.6</ele>
        <time>2022-07-30T10:08:10Z</time>
      </trkpt>
      <trkpt lat="46.48578" lon="5.39285">
        <ele>419.2</ele>
        <time>2022-07-30T10:08:12Z</time>
      </trkpt>
      <trkpt lat="46.48591" lon="5.39283">
        <ele>417.2</ele>
        <time>2022-07-30T10:08:13Z</time>
      </trkpt>
      <trkpt lat="46.48618" lon="5.39278">
        <ele>415.2</ele>
        <time>2022-07-30T10:08:15Z</time>
      </trkpt>
      <trkpt lat="46.48644" lon="5.39276">
        <ele>413.6</ele>
        <time>2022-07-30T10:08:17Z</time>
      </trkpt>
      <trkpt lat="46.48657" lon="5.39277">
        <ele>412.4</ele>
        <time>2022-07-30T10:08:18Z</time>
      </trkpt>
      <trkpt lat="46.48681" lon="5.39281">
        <ele>411</ele>
        <time>2022-07-30T10:08:20Z</time>
      </trkpt>
      <trkpt lat="46.48691" lon="5.39285">
        <ele>410.4</ele>
        <time>2022-07-30T10:08:21Z</time>
      </trkpt>
      <trkpt lat="46.487" lon="5.39291">
        <ele>408.6</ele>
        <time>2022-07-30T10:08:22Z</time>
      </trkpt>
      <trkpt lat="46.48717" lon="5.39302">
        <ele>407.2</ele>
        <time>2022-07-30T10:08:24Z</time>
      </trkpt>
      <trkpt lat="46.48725" lon="5.39303">
        <ele>406</ele>
        <time>2022-07-30T10:08:25Z</time>
      </trkpt>
      <trkpt lat="46.48732" lon="5.39302">
        <ele>405.6</ele>
        <time>2022-07-30T10:08:26Z</time>
      </trkpt>
      <trkpt lat="46.48736" lon="5.3929">
        <ele>404.8</ele>
        <time>2022-07-30T10:08:27Z</time>
      </trkpt>
      <trkpt lat="46.48738" lon="5.39279">
        <ele>404.6</ele>
        <time>2022-07-30T10:08:28Z</time>
      </trkpt>
      <trkpt lat="46.48733" lon="5.39269">
        <ele>403.4</ele>
        <time>2022-07-30T10:08:29Z</time>
      </trkpt>
      <trkpt lat="46.48727" lon="5.39259">
        <ele>402.4</ele>
        <time>2022-07-30T10:08:30Z</time>
      </trkpt>
      <trkpt lat="46.48722" lon="5.3925">
        <ele>401.6</ele>
        <time>2022-07-30T10:08:31Z</time>
      </trkpt>
      <trkpt lat="46.48711" lon="5.39236">
        <ele>400.6</ele>
        <time>2022-07-30T10:08:32Z</time>
      </trkpt>
      <trkpt lat="46.487" lon="5.39224">
        <ele>399.6</ele>
        <time>2022-07-30T10:08:33Z</time>
      </trkpt>
      <trkpt lat="46.4869" lon="5.39211">
        <ele>398.2</ele>
        <time>2022-07-30T10:08:34Z</time>
      </trkpt>
      <trkpt lat="46.48672" lon="5.39186">
        <ele>396.6</ele>
        <time>2022-07-30T10:08:36Z</time>
      </trkpt>
      <trkpt lat="46.4866" lon="5.3917">
        <ele>395.6</ele>
        <time>2022-07-30T10:08:37Z</time>
      </trkpt>
      <trkpt lat="46.48638" lon="5.39143">
        <ele>394.2</ele>
        <time>2022-07-30T10:08:39Z</time>
      </trkpt>
      <trkpt lat="46.48614" lon="5.39123">
        <ele>392.4</ele>
        <time>2022-07-30T10:08:41Z</time>
      </trkpt>
      <trkpt lat="46.48589" lon="5.39104">
        <ele>390.2</ele>
        <time>2022-07-30T10:08:43Z</time>
      </trkpt>
      <trkpt lat="46.48575" lon="5.39094">
        <ele>388.4</ele>
        <time>2022-07-30T10:08:44Z</time>
      </trkpt>
      <trkpt lat="46.48562" lon="5.39085">
        <ele>387.4</ele>
        <time>2022-07-30T10:08:45Z</time>
      </trkpt>
      <trkpt lat="46.4855" lon="5.39078">
        <ele>385.8</ele>
        <time>2022-07-30T10:08:46Z</time>
      </trkpt>
      <trkpt lat="46.48521" lon="5.39059">
        <ele>382.2</ele>
        <time>2022-07-30T10:08:48Z</time>
      </trkpt>
      <trkpt lat="46.48508" lon="5.39047">
        <ele>381.2</ele>
        <time>2022-07-30T10:08:49Z</time>
      </trkpt>
      <trkpt lat="46.48497" lon="5.39031">
        <ele>379.8</ele>
        <time>2022-07-30T10:08:50Z</time>
      </trkpt>
      <trkpt lat="46.4849" lon="5.39012">
        <ele>378.6</ele>
        <time>2022-07-30T10:08:51Z</time>
      </trkpt>
      <trkpt lat="46.48485" lon="5.3899">
        <ele>377.8</ele>
        <time>2022-07-30T10:08:52Z</time>
      </trkpt>
      <trkpt lat="46.48479" lon="5.38971">
        <ele>377</ele>
        <time>2022-07-30T10:08:53Z</time>
      </trkpt>
      <trkpt lat="46.48464" lon="5.38938">
        <ele>374.8</ele>
        <time>2022-07-30T10:08:55Z</time>
      </trkpt>
      <trkpt lat="46.48453" lon="5.38909">
        <ele>372.6</ele>
        <time>2022-07-30T10:08:57Z</time>
      </trkpt>
      <trkpt lat="46.4845" lon="5.38895">
        <ele>371.6</ele>
        <time>2022-07-30T10:08:58Z</time>
      </trkpt>
      <trkpt lat="46.4845" lon="5.38879">
        <ele>371</ele>
        <time>2022-07-30T10:08:59Z</time>
      </trkpt>
      <trkpt lat="46.48454" lon="5.38865">
        <ele>370.2</ele>
        <time>2022-07-30T10:09:00Z</time>
      </trkpt>
      <trkpt lat="46.48461" lon="5.38853">
        <ele>369.8</ele>
        <time>2022-07-30T10:09:01Z</time>
      </trkpt>
      <trkpt lat="46.48479" lon="5.38836">
        <ele>368.4</ele>
        <time>2022-07-30T10:09:03Z</time>
      </trkpt>
      <trkpt lat="46.48488" lon="5.3883">
        <ele>367.4</ele>
        <time>2022-07-30T10:09:04Z</time>
      </trkpt>
      <trkpt lat="46.4852" lon="5.38812">
        <ele>366</ele>
        <time>2022-07-30T10:09:07Z</time>
      </trkpt>
      <trkpt lat="46.48557" lon="5.38789">
        <ele>364.8</ele>
        <time>2022-07-30T10:09:10Z</time>
      </trkpt>
      <trkpt lat="46.48577" lon="5.38777">
        <ele>363.4</ele>
        <time>2022-07-30T10:09:12Z</time>
      </trkpt>
      <trkpt lat="46.48585" lon="5.38773">
        <ele>362.8</ele>
        <time>2022-07-30T10:09:13Z</time>
      </trkpt>
      <trkpt lat="46.48591" lon="5.38773">
        <ele>361.6</ele>
        <time>2022-07-30T10:09:14Z</time>
      </trkpt>
      <trkpt lat="46.48597" lon="5.38775">
        <ele>361</ele>
        <time>2022-07-30T10:09:15Z</time>
      </trkpt>
      <trkpt lat="46.48606" lon="5.38776">
        <ele>359.8</ele>
        <time>2022-07-30T10:09:16Z</time>
      </trkpt>
      <trkpt lat="46.48616" lon="5.38764">
        <ele>357.8</ele>
        <time>2022-07-30T10:09:18Z</time>
      </trkpt>
      <trkpt lat="46.48625" lon="5.3874">
        <ele>356.8</ele>
        <time>2022-07-30T10:09:20Z</time>
      </trkpt>
      <trkpt lat="46.48633" lon="5.38712">
        <ele>355.8</ele>
        <time>2022-07-30T10:09:22Z</time>
      </trkpt>
      <trkpt lat="46.48635" lon="5.38696">
        <ele>355</ele>
        <time>2022-07-30T10:09:23Z</time>
      </trkpt>
      <trkpt lat="46.48636" lon="5.38683">
        <ele>354.4</ele>
        <time>2022-07-30T10:09:24Z</time>
      </trkpt>
      <trkpt lat="46.48635" lon="5.38666">
        <ele>353.8</ele>
        <time>2022-07-30T10:09:25Z</time>
      </trkpt>
      <trkpt lat="46.48633" lon="5.38647">
        <ele>352.6</ele>
        <time>2022-07-30T10:09:26Z</time>
      </trkpt>
      <trkpt lat="46.48626" lon="5.38614">
        <ele>350.2</ele>
        <time>2022-07-30T10:09:28Z</time>
      </trkpt>
      <trkpt lat="46.48618" lon="5.38581">
        <ele>348.4</ele>
        <time>2022-07-30T10:09:30Z</time>
      </trkpt>
      <trkpt lat="46.48609" lon="5.38548">
        <ele>346.8</ele>
        <time>2022-07-30T10:09:32Z</time>
      </trkpt>
      <trkpt lat="46.48602" lon="5.38518">
        <ele>345.8</ele>
        <time>2022-07-30T10:09:34Z</time>
      </trkpt>
      <trkpt lat="46.48596" lon="5.38499">
        <ele>344.8</ele>
        <time>2022-07-30T10:09:35Z</time>
      </trkpt>
    </trkseg>
  </trk>
</gpx>